<?xml version=\'1.0\' encoding=\'UTF-8\'?>
<gpx version=\'1.0\' creator=\'Trackator\' xmlns:xsi=\'http://www.w3.org/2001/XMLSchema-instance\' xmlns=\'http://www.topografix.com/GPX/1/0\' xmlns:topografix=\'http://www.topografix.com/GPX/Private/TopoGrafix/0/1\' xsi:schemaLocation=\'http://www.topografix.com/GPX/1/0 http://www.topografix.com/GPX/1/0/gpx.xsd http://www.topografix.com/GPX/Private/TopoGrafix/0/1 http://www.topografix.com/GPX/Private/TopoGrafix/0/1/topografix.xsd\'>
<metadata>
<link href=\'http://www.trackalia.com/trackatorweb.php\'>
<text>Trackator</text>
</link>
</metadata>
<time>2020-11-01T:50:55Z</time>
<trk>
<name>Track: </name>
<desc>Powered Paragliding</desc>
<trkseg>
<trkpt lat=\'40.22560119628906\' lon=\'-6.1025166511535645\'>
<ele>383</ele>
<time>2020-11-01T:50:55Z</time>
</trkpt>
<trkpt lat=\'40.22544860839844\' lon=\'-6.102566719055176\'>
<ele>385</ele>
<time>2020-11-01T14:50:57Z</time>
</trkpt>
<trkpt lat=\'40.22531509399414\' lon=\'-6.102650165557861\'>
<ele>389</ele>
<time>2020-11-01T14:50:59Z</time>
</trkpt>
<trkpt lat=\'40.225181579589844\' lon=\'-6.102766513824463\'>
<ele>393</ele>
<time>2020-11-01T14:51:01Z</time>
</trkpt>
<trkpt lat=\'40.22508239746094\' lon=\'-6.102916717529297\'>
<ele>396</ele>
<time>2020-11-01T14:51:03Z</time>
</trkpt>
<trkpt lat=\'40.225032806396484\' lon=\'-6.103116512298584\'>
<ele>399</ele>
<time>2020-11-01T14:51:05Z</time>
</trkpt>
<trkpt lat=\'40.22494888305664\' lon=\'-6.103316783905029\'>
<ele>400</ele>
<time>2020-11-01T14:51:07Z</time>
</trkpt>
<trkpt lat=\'40.2248649597168\' lon=\'-6.103499889373779\'>
<ele>401</ele>
<time>2020-11-01T14:51:09Z</time>
</trkpt>
<trkpt lat=\'40.2248649597168\' lon=\'-6.103733539581299\'>
<ele>402</ele>
<time>2020-11-01T14:51:11Z</time>
</trkpt>
<trkpt lat=\'40.22483444213867\' lon=\'-6.10396671295166\'>
<ele>403</ele>
<time>2020-11-01T14:51:13Z</time>
</trkpt>
<trkpt lat=\'40.22468185424805\' lon=\'-6.10414981842041\'>
<ele>403</ele>
<time>2020-11-01T14:51:15Z</time>
</trkpt>
<trkpt lat=\'40.22453308105469\' lon=\'-6.104249954223633\'>
<ele>406</ele>
<time>2020-11-01T14:51:17Z</time>
</trkpt>
<trkpt lat=\'40.224365234375\' lon=\'-6.104300022125244\'>
<ele>408</ele>
<time>2020-11-01T14:51:19Z</time>
</trkpt>
<trkpt lat=\'40.22418212890625\' lon=\'-6.104183197021484\'>
<ele>408</ele>
<time>2020-11-01T14:51:21Z</time>
</trkpt>
<trkpt lat=\'40.22406768798828\' lon=\'-6.103983402252197\'>
<ele>412</ele>
<time>2020-11-01T14:51:23Z</time>
</trkpt>
<trkpt lat=\'40.22404861450195\' lon=\'-6.103750228881836\'>
<ele>414</ele>
<time>2020-11-01T14:51:25Z</time>
</trkpt>
<trkpt lat=\'40.224117279052734\' lon=\'-6.103499889373779\'>
<ele>415</ele>
<time>2020-11-01T14:51:27Z</time>
</trkpt>
<trkpt lat=\'40.224151611328125\' lon=\'-6.103233337402344\'>
<ele>417</ele>
<time>2020-11-01T14:51:29Z</time>
</trkpt>
<trkpt lat=\'40.22418212890625\' lon=\'-6.103000164031982\'>
<ele>420</ele>
<time>2020-11-01T14:51:31Z</time>
</trkpt>
<trkpt lat=\'40.22428512573242\' lon=\'-6.102766513824463\'>
<ele>419</ele>
<time>2020-11-01T14:51:33Z</time>
</trkpt>
<trkpt lat=\'40.22434997558594\' lon=\'-6.1025166511535645\'>
<ele>421</ele>
<time>2020-11-01T14:51:35Z</time>
</trkpt>
<trkpt lat=\'40.224483489990234\' lon=\'-6.102316856384277\'>
<ele>422</ele>
<time>2020-11-01T14:51:37Z</time>
</trkpt>
<trkpt lat=\'40.224700927734375\' lon=\'-6.102200031280518\'>
<ele>422</ele>
<time>2020-11-01T14:51:39Z</time>
</trkpt>
<trkpt lat=\'40.22489929199219\' lon=\'-6.102166652679443\'>
<ele>425</ele>
<time>2020-11-01T14:51:41Z</time>
</trkpt>
<trkpt lat=\'40.22508239746094\' lon=\'-6.102200031280518\'>
<ele>425</ele>
<time>2020-11-01T14:51:43Z</time>
</trkpt>
<trkpt lat=\'40.22529983520508\' lon=\'-6.10230016708374\'>
<ele>423</ele>
<time>2020-11-01T14:51:45Z</time>
</trkpt>
<trkpt lat=\'40.22549819946289\' lon=\'-6.102383136749268\'>
<ele>422</ele>
<time>2020-11-01T14:51:47Z</time>
</trkpt>
<trkpt lat=\'40.22570037841797\' lon=\'-6.1025166511535645\'>
<ele>421</ele>
<time>2020-11-01T14:51:49Z</time>
</trkpt>
<trkpt lat=\'40.22589874267578\' lon=\'-6.102666854858398\'>
<ele>419</ele>
<time>2020-11-01T14:51:51Z</time>
</trkpt>
<trkpt lat=\'40.22611618041992\' lon=\'-6.102783203125\'>
<ele>420</ele>
<time>2020-11-01T14:51:53Z</time>
</trkpt>
<trkpt lat=\'40.226318359375\' lon=\'-6.102916717529297\'>
<ele>421</ele>
<time>2020-11-01T14:51:55Z</time>
</trkpt>
<trkpt lat=\'40.22651672363281\' lon=\'-6.103050231933594\'>
<ele>422</ele>
<time>2020-11-01T14:51:57Z</time>
</trkpt>
<trkpt lat=\'40.22665023803711\' lon=\'-6.103233337402344\'>
<ele>422</ele>
<time>2020-11-01T14:51:59Z</time>
</trkpt>
<trkpt lat=\'40.22669982910156\' lon=\'-6.103516578674316\'>
<ele>420</ele>
<time>2020-11-01T14:52:01Z</time>
</trkpt>
<trkpt lat=\'40.22663497924805\' lon=\'-6.103750228881836\'>
<ele>422</ele>
<time>2020-11-01T14:52:03Z</time>
</trkpt>
<trkpt lat=\'40.2265510559082\' lon=\'-6.103916645050049\'>
<ele>424</ele>
<time>2020-11-01T14:52:05Z</time>
</trkpt>
<trkpt lat=\'40.2264518737793\' lon=\'-6.104100227355957\'>
<ele>425</ele>
<time>2020-11-01T14:52:07Z</time>
</trkpt>
<trkpt lat=\'40.22639846801758\' lon=\'-6.104333400726318\'>
<ele>425</ele>
<time>2020-11-01T14:52:09Z</time>
</trkpt>
<trkpt lat=\'40.226348876953125\' lon=\'-6.104549884796143\'>
<ele>426</ele>
<time>2020-11-01T14:52:11Z</time>
</trkpt>
<trkpt lat=\'40.22628402709961\' lon=\'-6.104766845703125\'>
<ele>427</ele>
<time>2020-11-01T14:52:13Z</time>
</trkpt>
<trkpt lat=\'40.22624969482422\' lon=\'-6.104983329772949\'>
<ele>427</ele>
<time>2020-11-01T14:52:15Z</time>
</trkpt>
<trkpt lat=\'40.226200103759766\' lon=\'-6.1052165031433105\'>
<ele>426</ele>
<time>2020-11-01T14:52:17Z</time>
</trkpt>
<trkpt lat=\'40.226165771484375\' lon=\'-6.105433464050293\'>
<ele>425</ele>
<time>2020-11-01T14:52:19Z</time>
</trkpt>
<trkpt lat=\'40.22615051269531\' lon=\'-6.105683326721191\'>
<ele>423</ele>
<time>2020-11-01T14:52:21Z</time>
</trkpt>
<trkpt lat=\'40.22615051269531\' lon=\'-6.105949878692627\'>
<ele>421</ele>
<time>2020-11-01T14:52:23Z</time>
</trkpt>
<trkpt lat=\'40.226200103759766\' lon=\'-6.1062164306640625\'>
<ele>423</ele>
<time>2020-11-01T14:52:25Z</time>
</trkpt>
<trkpt lat=\'40.22624969482422\' lon=\'-6.106450080871582\'>
<ele>423</ele>
<time>2020-11-01T14:52:27Z</time>
</trkpt>
<trkpt lat=\'40.226318359375\' lon=\'-6.106716632843018\'>
<ele>421</ele>
<time>2020-11-01T14:52:29Z</time>
</trkpt>
<trkpt lat=\'40.22639846801758\' lon=\'-6.106983184814453\'>
<ele>421</ele>
<time>2020-11-01T14:52:31Z</time>
</trkpt>
<trkpt lat=\'40.22650146484375\' lon=\'-6.10723352432251\'>
<ele>421</ele>
<time>2020-11-01T14:52:33Z</time>
</trkpt>
<trkpt lat=\'40.22658157348633\' lon=\'-6.107500076293945\'>
<ele>422</ele>
<time>2020-11-01T14:52:35Z</time>
</trkpt>
<trkpt lat=\'40.22666549682617\' lon=\'-6.107766628265381\'>
<ele>424</ele>
<time>2020-11-01T14:52:37Z</time>
</trkpt>
<trkpt lat=\'40.226749420166016\' lon=\'-6.108033180236816\'>
<ele>427</ele>
<time>2020-11-01T14:52:39Z</time>
</trkpt>
<trkpt lat=\'40.22683334350586\' lon=\'-6.10830020904541\'>
<ele>431</ele>
<time>2020-11-01T14:52:41Z</time>
</trkpt>
<trkpt lat=\'40.226951599121094\' lon=\'-6.108550071716309\'>
<ele>436</ele>
<time>2020-11-01T14:52:43Z</time>
</trkpt>
<trkpt lat=\'40.22701644897461\' lon=\'-6.108766555786133\'>
<ele>440</ele>
<time>2020-11-01T14:52:45Z</time>
</trkpt>
<trkpt lat=\'40.22705078125\' lon=\'-6.109000205993652\'>
<ele>443</ele>
<time>2020-11-01T14:52:47Z</time>
</trkpt>
<trkpt lat=\'40.227115631103516\' lon=\'-6.109250068664551\'>
<ele>444</ele>
<time>2020-11-01T14:52:49Z</time>
</trkpt>
<trkpt lat=\'40.2271842956543\' lon=\'-6.109516620635986\'>
<ele>447</ele>
<time>2020-11-01T14:52:51Z</time>
</trkpt>
<trkpt lat=\'40.22721481323242\' lon=\'-6.109766483306885\'>
<ele>451</ele>
<time>2020-11-01T14:52:53Z</time>
</trkpt>
<trkpt lat=\'40.22724914550781\' lon=\'-6.110000133514404\'>
<ele>453</ele>
<time>2020-11-01T14:52:55Z</time>
</trkpt>
<trkpt lat=\'40.22723388671875\' lon=\'-6.11026668548584\'>
<ele>456</ele>
<time>2020-11-01T14:52:57Z</time>
</trkpt>
<trkpt lat=\'40.22723388671875\' lon=\'-6.110483169555664\'>
<ele>461</ele>
<time>2020-11-01T14:52:59Z</time>
</trkpt>
<trkpt lat=\'40.22724914550781\' lon=\'-6.1107001304626465\'>
<ele>464</ele>
<time>2020-11-01T14:53:01Z</time>
</trkpt>
<trkpt lat=\'40.22726821899414\' lon=\'-6.110916614532471\'>
<ele>465</ele>
<time>2020-11-01T14:53:03Z</time>
</trkpt>
<trkpt lat=\'40.22724914550781\' lon=\'-6.111133575439453\'>
<ele>465</ele>
<time>2020-11-01T14:53:05Z</time>
</trkpt>
<trkpt lat=\'40.2271842956543\' lon=\'-6.11133337020874\'>
<ele>466</ele>
<time>2020-11-01T14:53:07Z</time>
</trkpt>
<trkpt lat=\'40.22708511352539\' lon=\'-6.111499786376953\'>
<ele>467</ele>
<time>2020-11-01T14:53:09Z</time>
</trkpt>
<trkpt lat=\'40.226951599121094\' lon=\'-6.111616611480713\'>
<ele>469</ele>
<time>2020-11-01T14:53:11Z</time>
</trkpt>
<trkpt lat=\'40.226783752441406\' lon=\'-6.111616611480713\'>
<ele>470</ele>
<time>2020-11-01T14:53:13Z</time>
</trkpt>
<trkpt lat=\'40.22663497924805\' lon=\'-6.111533164978027\'>
<ele>471</ele>
<time>2020-11-01T14:53:15Z</time>
</trkpt>
<trkpt lat=\'40.22650146484375\' lon=\'-6.1113667488098145\'>
<ele>472</ele>
<time>2020-11-01T14:53:17Z</time>
</trkpt>
<trkpt lat=\'40.22643280029297\' lon=\'-6.111133575439453\'>
<ele>473</ele>
<time>2020-11-01T14:53:19Z</time>
</trkpt>
<trkpt lat=\'40.2264518737793\' lon=\'-6.110866546630859\'>
<ele>475</ele>
<time>2020-11-01T14:53:21Z</time>
</trkpt>
<trkpt lat=\'40.22646713256836\' lon=\'-6.110616683959961\'>
<ele>476</ele>
<time>2020-11-01T14:53:23Z</time>
</trkpt>
<trkpt lat=\'40.22648239135742\' lon=\'-6.110350131988525\'>
<ele>477</ele>
<time>2020-11-01T14:53:25Z</time>
</trkpt>
<trkpt lat=\'40.22651672363281\' lon=\'-6.110083103179932\'>
<ele>477</ele>
<time>2020-11-01T14:53:27Z</time>
</trkpt>
<trkpt lat=\'40.2265510559082\' lon=\'-6.109799861907959\'>
<ele>479</ele>
<time>2020-11-01T14:53:29Z</time>
</trkpt>
<trkpt lat=\'40.22658157348633\' lon=\'-6.109533309936523\'>
<ele>480</ele>
<time>2020-11-01T14:53:31Z</time>
</trkpt>
<trkpt lat=\'40.22661590576172\' lon=\'-6.109266757965088\'>
<ele>481</ele>
<time>2020-11-01T14:53:33Z</time>
</trkpt>
<trkpt lat=\'40.22665023803711\' lon=\'-6.109000205993652\'>
<ele>478</ele>
<time>2020-11-01T14:53:35Z</time>
</trkpt>
<trkpt lat=\'40.22665023803711\' lon=\'-6.108699798583984\'>
<ele>477</ele>
<time>2020-11-01T14:53:37Z</time>
</trkpt>
<trkpt lat=\'40.22663497924805\' lon=\'-6.108433246612549\'>
<ele>478</ele>
<time>2020-11-01T14:53:39Z</time>
</trkpt>
<trkpt lat=\'40.226600646972656\' lon=\'-6.108233451843262\'>
<ele>479</ele>
<time>2020-11-01T14:53:41Z</time>
</trkpt>
<trkpt lat=\'40.2265510559082\' lon=\'-6.107999801635742\'>
<ele>476</ele>
<time>2020-11-01T14:53:43Z</time>
</trkpt>
<trkpt lat=\'40.22651672363281\' lon=\'-6.107766628265381\'>
<ele>474</ele>
<time>2020-11-01T14:53:45Z</time>
</trkpt>
<trkpt lat=\'40.22648239135742\' lon=\'-6.1075334548950195\'>
<ele>473</ele>
<time>2020-11-01T14:53:47Z</time>
</trkpt>
<trkpt lat=\'40.22648239135742\' lon=\'-6.107283115386963\'>
<ele>473</ele>
<time>2020-11-01T14:53:49Z</time>
</trkpt>
<trkpt lat=\'40.22648239135742\' lon=\'-6.1070332527160645\'>
<ele>473</ele>
<time>2020-11-01T14:53:51Z</time>
</trkpt>
<trkpt lat=\'40.22650146484375\' lon=\'-6.106800079345703\'>
<ele>473</ele>
<time>2020-11-01T14:53:53Z</time>
</trkpt>
<trkpt lat=\'40.22651672363281\' lon=\'-6.106550216674805\'>
<ele>471</ele>
<time>2020-11-01T14:53:55Z</time>
</trkpt>
<trkpt lat=\'40.2265510559082\' lon=\'-6.106283187866211\'>
<ele>470</ele>
<time>2020-11-01T14:53:57Z</time>
</trkpt>
<trkpt lat=\'40.226566314697266\' lon=\'-6.10605001449585\'>
<ele>469</ele>
<time>2020-11-01T14:53:59Z</time>
</trkpt>
<trkpt lat=\'40.226566314697266\' lon=\'-6.105800151824951\'>
<ele>466</ele>
<time>2020-11-01T14:54:01Z</time>
</trkpt>
<trkpt lat=\'40.22658157348633\' lon=\'-6.105533123016357\'>
<ele>464</ele>
<time>2020-11-01T14:54:03Z</time>
</trkpt>
<trkpt lat=\'40.22658157348633\' lon=\'-6.105283260345459\'>
<ele>463</ele>
<time>2020-11-01T14:54:05Z</time>
</trkpt>
<trkpt lat=\'40.22658157348633\' lon=\'-6.105016708374023\'>
<ele>461</ele>
<time>2020-11-01T14:54:07Z</time>
</trkpt>
<trkpt lat=\'40.226566314697266\' lon=\'-6.104750156402588\'>
<ele>459</ele>
<time>2020-11-01T14:54:09Z</time>
</trkpt>
<trkpt lat=\'40.226531982421875\' lon=\'-6.104516506195068\'>
<ele>461</ele>
<time>2020-11-01T14:54:11Z</time>
</trkpt>
<trkpt lat=\'40.226566314697266\' lon=\'-6.104283332824707\'>
<ele>463</ele>
<time>2020-11-01T14:54:13Z</time>
</trkpt>
<trkpt lat=\'40.2266845703125\' lon=\'-6.104066848754883\'>
<ele>464</ele>
<time>2020-11-01T14:54:15Z</time>
</trkpt>
<trkpt lat=\'40.22679901123047\' lon=\'-6.103883266448975\'>
<ele>468</ele>
<time>2020-11-01T14:54:17Z</time>
</trkpt>
<trkpt lat=\'40.226951599121094\' lon=\'-6.103716850280762\'>
<ele>469</ele>
<time>2020-11-01T14:54:19Z</time>
</trkpt>
<trkpt lat=\'40.22710037231445\' lon=\'-6.103483200073242\'>
<ele>467</ele>
<time>2020-11-01T14:54:21Z</time>
</trkpt>
<trkpt lat=\'40.22721481323242\' lon=\'-6.103250026702881\'>
<ele>469</ele>
<time>2020-11-01T14:54:23Z</time>
</trkpt>
<trkpt lat=\'40.22734832763672\' lon=\'-6.103066444396973\'>
<ele>470</ele>
<time>2020-11-01T14:54:25Z</time>
</trkpt>
<trkpt lat=\'40.22746658325195\' lon=\'-6.102849960327148\'>
<ele>469</ele>
<time>2020-11-01T14:54:27Z</time>
</trkpt>
<trkpt lat=\'40.22758483886719\' lon=\'-6.102616786956787\'>
<ele>466</ele>
<time>2020-11-01T14:54:29Z</time>
</trkpt>
<trkpt lat=\'40.227718353271484\' lon=\'-6.1023664474487305\'>
<ele>464</ele>
<time>2020-11-01T14:54:31Z</time>
</trkpt>
<trkpt lat=\'40.22785186767578\' lon=\'-6.102133274078369\'>
<ele>466</ele>
<time>2020-11-01T14:54:33Z</time>
</trkpt>
<trkpt lat=\'40.22800064086914\' lon=\'-6.101933479309082\'>
<ele>466</ele>
<time>2020-11-01T14:54:35Z</time>
</trkpt>
<trkpt lat=\'40.22818374633789\' lon=\'-6.101733207702637\'>
<ele>465</ele>
<time>2020-11-01T14:54:37Z</time>
</trkpt>
<trkpt lat=\'40.22836685180664\' lon=\'-6.101550102233887\'>
<ele>466</ele>
<time>2020-11-01T14:54:39Z</time>
</trkpt>
<trkpt lat=\'40.22854995727539\' lon=\'-6.101383209228516\'>
<ele>468</ele>
<time>2020-11-01T14:54:41Z</time>
</trkpt>
<trkpt lat=\'40.22869873046875\' lon=\'-6.101200103759766\'>
<ele>468</ele>
<time>2020-11-01T14:54:43Z</time>
</trkpt>
<trkpt lat=\'40.22886657714844\' lon=\'-6.101016521453857\'>
<ele>469</ele>
<time>2020-11-01T14:54:45Z</time>
</trkpt>
<trkpt lat=\'40.2290153503418\' lon=\'-6.100800037384033\'>
<ele>468</ele>
<time>2020-11-01T14:54:47Z</time>
</trkpt>
<trkpt lat=\'40.22913360595703\' lon=\'-6.100566864013672\'>
<ele>467</ele>
<time>2020-11-01T14:54:49Z</time>
</trkpt>
<trkpt lat=\'40.229251861572266\' lon=\'-6.100333213806152\'>
<ele>467</ele>
<time>2020-11-01T14:54:51Z</time>
</trkpt>
<trkpt lat=\'40.22935104370117\' lon=\'-6.100100040435791\'>
<ele>467</ele>
<time>2020-11-01T14:54:53Z</time>
</trkpt>
<trkpt lat=\'40.22945022583008\' lon=\'-6.099850177764893\'>
<ele>467</ele>
<time>2020-11-01T14:54:55Z</time>
</trkpt>
<trkpt lat=\'40.22953414916992\' lon=\'-6.099616527557373\'>
<ele>467</ele>
<time>2020-11-01T14:54:57Z</time>
</trkpt>
<trkpt lat=\'40.229618072509766\' lon=\'-6.099383354187012\'>
<ele>467</ele>
<time>2020-11-01T14:54:59Z</time>
</trkpt>
<trkpt lat=\'40.229766845703125\' lon=\'-6.0991997718811035\'>
<ele>466</ele>
<time>2020-11-01T14:55:01Z</time>
</trkpt>
<trkpt lat=\'40.22996520996094\' lon=\'-6.099100112915039\'>
<ele>467</ele>
<time>2020-11-01T14:55:03Z</time>
</trkpt>
<trkpt lat=\'40.23018264770508\' lon=\'-6.099066734313965\'>
<ele>468</ele>
<time>2020-11-01T14:55:05Z</time>
</trkpt>
<trkpt lat=\'40.230384826660156\' lon=\'-6.099133491516113\'>
<ele>467</ele>
<time>2020-11-01T14:55:07Z</time>
</trkpt>
<trkpt lat=\'40.23059844970703\' lon=\'-6.099216461181641\'>
<ele>467</ele>
<time>2020-11-01T14:55:09Z</time>
</trkpt>
<trkpt lat=\'40.23081588745117\' lon=\'-6.099233150482178\'>
<ele>469</ele>
<time>2020-11-01T14:55:11Z</time>
</trkpt>
<trkpt lat=\'40.23103332519531\' lon=\'-6.099249839782715\'>
<ele>470</ele>
<time>2020-11-01T14:55:13Z</time>
</trkpt>
<trkpt lat=\'40.231266021728516\' lon=\'-6.099233150482178\'>
<ele>470</ele>
<time>2020-11-01T14:55:15Z</time>
</trkpt>
<trkpt lat=\'40.231483459472656\' lon=\'-6.09915018081665\'>
<ele>472</ele>
<time>2020-11-01T14:55:17Z</time>
</trkpt>
<trkpt lat=\'40.23168182373047\' lon=\'-6.099033355712891\'>
<ele>476</ele>
<time>2020-11-01T14:55:19Z</time>
</trkpt>
<trkpt lat=\'40.231849670410156\' lon=\'-6.098883152008057\'>
<ele>478</ele>
<time>2020-11-01T14:55:21Z</time>
</trkpt>
<trkpt lat=\'40.232032775878906\' lon=\'-6.098716735839844\'>
<ele>477</ele>
<time>2020-11-01T14:55:23Z</time>
</trkpt>
<trkpt lat=\'40.232215881347656\' lon=\'-6.098516464233398\'>
<ele>479</ele>
<time>2020-11-01T14:55:25Z</time>
</trkpt>
<trkpt lat=\'40.23234939575195\' lon=\'-6.098299980163574\'>
<ele>482</ele>
<time>2020-11-01T14:55:27Z</time>
</trkpt>
<trkpt lat=\'40.23246765136719\' lon=\'-6.098066806793213\'>
<ele>484</ele>
<time>2020-11-01T14:55:29Z</time>
</trkpt>
<trkpt lat=\'40.23249816894531\' lon=\'-6.097799777984619\'>
<ele>486</ele>
<time>2020-11-01T14:55:31Z</time>
</trkpt>
<trkpt lat=\'40.23248291015625\' lon=\'-6.097549915313721\'>
<ele>489</ele>
<time>2020-11-01T14:55:33Z</time>
</trkpt>
<trkpt lat=\'40.232398986816406\' lon=\'-6.097316741943359\'>
<ele>491</ele>
<time>2020-11-01T14:55:35Z</time>
</trkpt>
<trkpt lat=\'40.23226547241211\' lon=\'-6.0971832275390625\'>
<ele>494</ele>
<time>2020-11-01T14:55:37Z</time>
</trkpt>
<trkpt lat=\'40.23211669921875\' lon=\'-6.097099781036377\'>
<ele>497</ele>
<time>2020-11-01T14:55:39Z</time>
</trkpt>
<trkpt lat=\'40.23196792602539\' lon=\'-6.097116470336914\'>
<ele>499</ele>
<time>2020-11-01T14:55:41Z</time>
</trkpt>
<trkpt lat=\'40.231815338134766\' lon=\'-6.0971999168396\'>
<ele>499</ele>
<time>2020-11-01T14:55:43Z</time>
</trkpt>
<trkpt lat=\'40.23168182373047\' lon=\'-6.0973334312438965\'>
<ele>497</ele>
<time>2020-11-01T14:55:45Z</time>
</trkpt>
<trkpt lat=\'40.23158264160156\' lon=\'-6.097533226013184\'>
<ele>496</ele>
<time>2020-11-01T14:55:47Z</time>
</trkpt>
<trkpt lat=\'40.23151779174805\' lon=\'-6.097766876220703\'>
<ele>496</ele>
<time>2020-11-01T14:55:49Z</time>
</trkpt>
<trkpt lat=\'40.231468200683594\' lon=\'-6.098016738891602\'>
<ele>498</ele>
<time>2020-11-01T14:55:51Z</time>
</trkpt>
<trkpt lat=\'40.231414794921875\' lon=\'-6.098233222961426\'>
<ele>499</ele>
<time>2020-11-01T14:55:53Z</time>
</trkpt>
<trkpt lat=\'40.23138427734375\' lon=\'-6.098466873168945\'>
<ele>497</ele>
<time>2020-11-01T14:55:55Z</time>
</trkpt>
<trkpt lat=\'40.23134994506836\' lon=\'-6.098716735839844\'>
<ele>495</ele>
<time>2020-11-01T14:55:57Z</time>
</trkpt>
<trkpt lat=\'40.231300354003906\' lon=\'-6.098949909210205\'>
<ele>492</ele>
<time>2020-11-01T14:55:59Z</time>
</trkpt>
<trkpt lat=\'40.231266021728516\' lon=\'-6.099183559417725\'>
<ele>489</ele>
<time>2020-11-01T14:56:01Z</time>
</trkpt>
<trkpt lat=\'40.23118209838867\' lon=\'-6.099400043487549\'>
<ele>486</ele>
<time>2020-11-01T14:56:03Z</time>
</trkpt>
<trkpt lat=\'40.2310676574707\' lon=\'-6.099566459655762\'>
<ele>483</ele>
<time>2020-11-01T14:56:05Z</time>
</trkpt>
<trkpt lat=\'40.23094940185547\' lon=\'-6.099733352661133\'>
<ele>481</ele>
<time>2020-11-01T14:56:07Z</time>
</trkpt>
<trkpt lat=\'40.23081588745117\' lon=\'-6.099899768829346\'>
<ele>479</ele>
<time>2020-11-01T14:56:09Z</time>
</trkpt>
<trkpt lat=\'40.23066711425781\' lon=\'-6.10004997253418\'>
<ele>477</ele>
<time>2020-11-01T14:56:11Z</time>
</trkpt>
<trkpt lat=\'40.230533599853516\' lon=\'-6.100200176239014\'>
<ele>476</ele>
<time>2020-11-01T14:56:13Z</time>
</trkpt>
<trkpt lat=\'40.230384826660156\' lon=\'-6.100316524505615\'>
<ele>473</ele>
<time>2020-11-01T14:56:15Z</time>
</trkpt>
<trkpt lat=\'40.23025131225586\' lon=\'-6.100450038909912\'>
<ele>470</ele>
<time>2020-11-01T14:56:17Z</time>
</trkpt>
<trkpt lat=\'40.230098724365234\' lon=\'-6.100599765777588\'>
<ele>465</ele>
<time>2020-11-01T14:56:19Z</time>
</trkpt>
<trkpt lat=\'40.22993469238281\' lon=\'-6.100716590881348\'>
<ele>464</ele>
<time>2020-11-01T14:56:21Z</time>
</trkpt>
<trkpt lat=\'40.229801177978516\' lon=\'-6.100833415985107\'>
<ele>461</ele>
<time>2020-11-01T14:56:23Z</time>
</trkpt>
<trkpt lat=\'40.22966766357422\' lon=\'-6.100966453552246\'>
<ele>457</ele>
<time>2020-11-01T14:56:25Z</time>
</trkpt>
<trkpt lat=\'40.22953414916992\' lon=\'-6.101099967956543\'>
<ele>452</ele>
<time>2020-11-01T14:56:27Z</time>
</trkpt>
<trkpt lat=\'40.2293815612793\' lon=\'-6.101250171661377\'>
<ele>451</ele>
<time>2020-11-01T14:56:29Z</time>
</trkpt>
<trkpt lat=\'40.22923278808594\' lon=\'-6.1013665199279785\'>
<ele>452</ele>
<time>2020-11-01T14:56:31Z</time>
</trkpt>
<trkpt lat=\'40.22909927368164\' lon=\'-6.101466655731201\'>
<ele>450</ele>
<time>2020-11-01T14:56:33Z</time>
</trkpt>
<trkpt lat=\'40.22893524169922\' lon=\'-6.101566791534424\'>
<ele>449</ele>
<time>2020-11-01T14:56:35Z</time>
</trkpt>
<trkpt lat=\'40.2287483215332\' lon=\'-6.101633548736572\'>
<ele>448</ele>
<time>2020-11-01T14:56:37Z</time>
</trkpt>
<trkpt lat=\'40.22858428955078\' lon=\'-6.1017165184021\'>
<ele>449</ele>
<time>2020-11-01T14:56:39Z</time>
</trkpt>
<trkpt lat=\'40.228450775146484\' lon=\'-6.101816654205322\'>
<ele>449</ele>
<time>2020-11-01T14:56:41Z</time>
</trkpt>
<trkpt lat=\'40.22829818725586\' lon=\'-6.101883411407471\'>
<ele>447</ele>
<time>2020-11-01T14:56:43Z</time>
</trkpt>
<trkpt lat=\'40.2281494140625\' lon=\'-6.101966857910156\'>
<ele>445</ele>
<time>2020-11-01T14:56:45Z</time>
</trkpt>
<trkpt lat=\'40.22800064086914\' lon=\'-6.102049827575684\'>
<ele>443</ele>
<time>2020-11-01T14:56:47Z</time>
</trkpt>
<trkpt lat=\'40.22783279418945\' lon=\'-6.102149963378906\'>
<ele>441</ele>
<time>2020-11-01T14:56:49Z</time>
</trkpt>
<trkpt lat=\'40.227699279785156\' lon=\'-6.102266788482666\'>
<ele>439</ele>
<time>2020-11-01T14:56:51Z</time>
</trkpt>
<trkpt lat=\'40.2275505065918\' lon=\'-6.102350234985352\'>
<ele>437</ele>
<time>2020-11-01T14:56:53Z</time>
</trkpt>
<trkpt lat=\'40.22740173339844\' lon=\'-6.102433204650879\'>
<ele>436</ele>
<time>2020-11-01T14:56:55Z</time>
</trkpt>
<trkpt lat=\'40.22724914550781\' lon=\'-6.1025166511535645\'>
<ele>435</ele>
<time>2020-11-01T14:56:57Z</time>
</trkpt>
<trkpt lat=\'40.22710037231445\' lon=\'-6.10260009765625\'>
<ele>433</ele>
<time>2020-11-01T14:56:59Z</time>
</trkpt>
<trkpt lat=\'40.226966857910156\' lon=\'-6.1026835441589355\'>
<ele>428</ele>
<time>2020-11-01T14:57:01Z</time>
</trkpt>
<trkpt lat=\'40.22679901123047\' lon=\'-6.102783203125\'>
<ele>424</ele>
<time>2020-11-01T14:57:03Z</time>
</trkpt>
<trkpt lat=\'40.22661590576172\' lon=\'-6.102849960327148\'>
<ele>422</ele>
<time>2020-11-01T14:57:05Z</time>
</trkpt>
<trkpt lat=\'40.2264518737793\' lon=\'-6.10290002822876\'>
<ele>420</ele>
<time>2020-11-01T14:57:07Z</time>
</trkpt>
<trkpt lat=\'40.22628402709961\' lon=\'-6.102950096130371\'>
<ele>418</ele>
<time>2020-11-01T14:57:09Z</time>
</trkpt>
<trkpt lat=\'40.226131439208984\' lon=\'-6.1030168533325195\'>
<ele>414</ele>
<time>2020-11-01T14:57:11Z</time>
</trkpt>
<trkpt lat=\'40.225948333740234\' lon=\'-6.103066444396973\'>
<ele>410</ele>
<time>2020-11-01T14:57:13Z</time>
</trkpt>
<trkpt lat=\'40.22578430175781\' lon=\'-6.103116512298584\'>
<ele>408</ele>
<time>2020-11-01T14:57:15Z</time>
</trkpt>
<trkpt lat=\'40.22563171386719\' lon=\'-6.103266716003418\'>
<ele>406</ele>
<time>2020-11-01T14:57:17Z</time>
</trkpt>
<trkpt lat=\'40.22553253173828\' lon=\'-6.103433132171631\'>
<ele>405</ele>
<time>2020-11-01T14:57:19Z</time>
</trkpt>
<trkpt lat=\'40.22544860839844\' lon=\'-6.103650093078613\'>
<ele>404</ele>
<time>2020-11-01T14:57:21Z</time>
</trkpt>
<trkpt lat=\'40.22544860839844\' lon=\'-6.103899955749512\'>
<ele>404</ele>
<time>2020-11-01T14:57:23Z</time>
</trkpt>
<trkpt lat=\'40.22548294067383\' lon=\'-6.104166507720947\'>
<ele>405</ele>
<time>2020-11-01T14:57:25Z</time>
</trkpt>
<trkpt lat=\'40.22553253173828\' lon=\'-6.104400157928467\'>
<ele>407</ele>
<time>2020-11-01T14:57:27Z</time>
</trkpt>
<trkpt lat=\'40.22560119628906\' lon=\'-6.104633331298828\'>
<ele>407</ele>
<time>2020-11-01T14:57:29Z</time>
</trkpt>
<trkpt lat=\'40.225685119628906\' lon=\'-6.104883193969727\'>
<ele>407</ele>
<time>2020-11-01T14:57:31Z</time>
</trkpt>
<trkpt lat=\'40.22574996948242\' lon=\'-6.105133533477783\'>
<ele>407</ele>
<time>2020-11-01T14:57:33Z</time>
</trkpt>
<trkpt lat=\'40.22581481933594\' lon=\'-6.105383396148682\'>
<ele>409</ele>
<time>2020-11-01T14:57:35Z</time>
</trkpt>
<trkpt lat=\'40.22588348388672\' lon=\'-6.105616569519043\'>
<ele>410</ele>
<time>2020-11-01T14:57:37Z</time>
</trkpt>
<trkpt lat=\'40.225982666015625\' lon=\'-6.1058502197265625\'>
<ele>410</ele>
<time>2020-11-01T14:57:39Z</time>
</trkpt>
<trkpt lat=\'40.22606658935547\' lon=\'-6.106116771697998\'>
<ele>410</ele>
<time>2020-11-01T14:57:41Z</time>
</trkpt>
<trkpt lat=\'40.22615051269531\' lon=\'-6.1063666343688965\'>
<ele>412</ele>
<time>2020-11-01T14:57:43Z</time>
</trkpt>
<trkpt lat=\'40.22624969482422\' lon=\'-6.106599807739258\'>
<ele>415</ele>
<time>2020-11-01T14:57:45Z</time>
</trkpt>
<trkpt lat=\'40.226318359375\' lon=\'-6.106833457946777\'>
<ele>417</ele>
<time>2020-11-01T14:57:47Z</time>
</trkpt>
<trkpt lat=\'40.22639846801758\' lon=\'-6.107083320617676\'>
<ele>417</ele>
<time>2020-11-01T14:57:49Z</time>
</trkpt>
<trkpt lat=\'40.2264518737793\' lon=\'-6.107333183288574\'>
<ele>418</ele>
<time>2020-11-01T14:57:51Z</time>
</trkpt>
<trkpt lat=\'40.22650146484375\' lon=\'-6.107583522796631\'>
<ele>420</ele>
<time>2020-11-01T14:57:53Z</time>
</trkpt>
<trkpt lat=\'40.226566314697266\' lon=\'-6.107833385467529\'>
<ele>423</ele>
<time>2020-11-01T14:57:55Z</time>
</trkpt>
<trkpt lat=\'40.22661590576172\' lon=\'-6.108083248138428\'>
<ele>424</ele>
<time>2020-11-01T14:57:57Z</time>
</trkpt>
<trkpt lat=\'40.2266845703125\' lon=\'-6.108349800109863\'>
<ele>427</ele>
<time>2020-11-01T14:57:59Z</time>
</trkpt>
<trkpt lat=\'40.22673416137695\' lon=\'-6.10860013961792\'>
<ele>429</ele>
<time>2020-11-01T14:58:01Z</time>
</trkpt>
<trkpt lat=\'40.226783752441406\' lon=\'-6.1088666915893555\'>
<ele>432</ele>
<time>2020-11-01T14:58:03Z</time>
</trkpt>
<trkpt lat=\'40.22684860229492\' lon=\'-6.109133243560791\'>
<ele>434</ele>
<time>2020-11-01T14:58:05Z</time>
</trkpt>
<trkpt lat=\'40.22686767578125\' lon=\'-6.1093831062316895\'>
<ele>437</ele>
<time>2020-11-01T14:58:07Z</time>
</trkpt>
<trkpt lat=\'40.226898193359375\' lon=\'-6.109633445739746\'>
<ele>440</ele>
<time>2020-11-01T14:58:09Z</time>
</trkpt>
<trkpt lat=\'40.226966857910156\' lon=\'-6.109899997711182\'>
<ele>444</ele>
<time>2020-11-01T14:58:11Z</time>
</trkpt>
<trkpt lat=\'40.22705078125\' lon=\'-6.11014986038208\'>
<ele>448</ele>
<time>2020-11-01T14:58:13Z</time>
</trkpt>
<trkpt lat=\'40.227149963378906\' lon=\'-6.1103668212890625\'>
<ele>453</ele>
<time>2020-11-01T14:58:15Z</time>
</trkpt>
<trkpt lat=\'40.2272834777832\' lon=\'-6.11056661605835\'>
<ele>457</ele>
<time>2020-11-01T14:58:17Z</time>
</trkpt>
<trkpt lat=\'40.22743225097656\' lon=\'-6.110783100128174\'>
<ele>459</ele>
<time>2020-11-01T14:58:19Z</time>
</trkpt>
<trkpt lat=\'40.22758483886719\' lon=\'-6.110966682434082\'>
<ele>462</ele>
<time>2020-11-01T14:58:21Z</time>
</trkpt>
<trkpt lat=\'40.22773361206055\' lon=\'-6.111133575439453\'>
<ele>466</ele>
<time>2020-11-01T14:58:23Z</time>
</trkpt>
<trkpt lat=\'40.227783203125\' lon=\'-6.111350059509277\'>
<ele>467</ele>
<time>2020-11-01T14:58:25Z</time>
</trkpt>
<trkpt lat=\'40.227783203125\' lon=\'-6.111583232879639\'>
<ele>468</ele>
<time>2020-11-01T14:58:27Z</time>
</trkpt>
<trkpt lat=\'40.22776794433594\' lon=\'-6.111816883087158\'>
<ele>470</ele>
<time>2020-11-01T14:58:29Z</time>
</trkpt>
<trkpt lat=\'40.22773361206055\' lon=\'-6.112033367156982\'>
<ele>471</ele>
<time>2020-11-01T14:58:31Z</time>
</trkpt>
<trkpt lat=\'40.227718353271484\' lon=\'-6.112283229827881\'>
<ele>472</ele>
<time>2020-11-01T14:58:33Z</time>
</trkpt>
<trkpt lat=\'40.22774887084961\' lon=\'-6.1125335693359375\'>
<ele>473</ele>
<time>2020-11-01T14:58:35Z</time>
</trkpt>
<trkpt lat=\'40.22779846191406\' lon=\'-6.112783432006836\'>
<ele>475</ele>
<time>2020-11-01T14:58:37Z</time>
</trkpt>
<trkpt lat=\'40.227867126464844\' lon=\'-6.113033294677734\'>
<ele>477</ele>
<time>2020-11-01T14:58:39Z</time>
</trkpt>
<trkpt lat=\'40.22793197631836\' lon=\'-6.113266468048096\'>
<ele>480</ele>
<time>2020-11-01T14:58:41Z</time>
</trkpt>
<trkpt lat=\'40.2280158996582\' lon=\'-6.113516807556152\'>
<ele>482</ele>
<time>2020-11-01T14:58:43Z</time>
</trkpt>
<trkpt lat=\'40.22809982299805\' lon=\'-6.113766670227051\'>
<ele>484</ele>
<time>2020-11-01T14:58:45Z</time>
</trkpt>
<trkpt lat=\'40.22819900512695\' lon=\'-6.113999843597412\'>
<ele>485</ele>
<time>2020-11-01T14:58:47Z</time>
</trkpt>
<trkpt lat=\'40.22829818725586\' lon=\'-6.114233493804932\'>
<ele>488</ele>
<time>2020-11-01T14:58:49Z</time>
</trkpt>
<trkpt lat=\'40.22835159301758\' lon=\'-6.11448335647583\'>
<ele>489</ele>
<time>2020-11-01T14:58:51Z</time>
</trkpt>
<trkpt lat=\'40.22836685180664\' lon=\'-6.1147332191467285\'>
<ele>491</ele>
<time>2020-11-01T14:58:53Z</time>
</trkpt>
<trkpt lat=\'40.22835159301758\' lon=\'-6.114966869354248\'>
<ele>493</ele>
<time>2020-11-01T14:58:55Z</time>
</trkpt>
<trkpt lat=\'40.2282829284668\' lon=\'-6.115183353424072\'>
<ele>495</ele>
<time>2020-11-01T14:58:57Z</time>
</trkpt>
<trkpt lat=\'40.22819900512695\' lon=\'-6.115383148193359\'>
<ele>496</ele>
<time>2020-11-01T14:58:59Z</time>
</trkpt>
<trkpt lat=\'40.228065490722656\' lon=\'-6.1155500411987305\'>
<ele>498</ele>
<time>2020-11-01T14:59:01Z</time>
</trkpt>
<trkpt lat=\'40.22793197631836\' lon=\'-6.115616798400879\'>
<ele>499</ele>
<time>2020-11-01T14:59:03Z</time>
</trkpt>
<trkpt lat=\'40.22776794433594\' lon=\'-6.115616798400879\'>
<ele>501</ele>
<time>2020-11-01T14:59:05Z</time>
</trkpt>
<trkpt lat=\'40.22761535644531\' lon=\'-6.115566730499268\'>
<ele>502</ele>
<time>2020-11-01T14:59:07Z</time>
</trkpt>
<trkpt lat=\'40.227500915527344\' lon=\'-6.115433216094971\'>
<ele>503</ele>
<time>2020-11-01T14:59:09Z</time>
</trkpt>
<trkpt lat=\'40.22743225097656\' lon=\'-6.115233421325684\'>
<ele>505</ele>
<time>2020-11-01T14:59:11Z</time>
</trkpt>
<trkpt lat=\'40.2274169921875\' lon=\'-6.115016460418701\'>
<ele>506</ele>
<time>2020-11-01T14:59:13Z</time>
</trkpt>
<trkpt lat=\'40.227481842041016\' lon=\'-6.114766597747803\'>
<ele>507</ele>
<time>2020-11-01T14:59:15Z</time>
</trkpt>
<trkpt lat=\'40.22758483886719\' lon=\'-6.1145501136779785\'>
<ele>508</ele>
<time>2020-11-01T14:59:17Z</time>
</trkpt>
<trkpt lat=\'40.22773361206055\' lon=\'-6.1143999099731445\'>
<ele>509</ele>
<time>2020-11-01T14:59:19Z</time>
</trkpt>
<trkpt lat=\'40.22793197631836\' lon=\'-6.114299774169922\'>
<ele>510</ele>
<time>2020-11-01T14:59:21Z</time>
</trkpt>
<trkpt lat=\'40.22816848754883\' lon=\'-6.114283561706543\'>
<ele>511</ele>
<time>2020-11-01T14:59:23Z</time>
</trkpt>
<trkpt lat=\'40.22836685180664\' lon=\'-6.11436653137207\'>
<ele>514</ele>
<time>2020-11-01T14:59:25Z</time>
</trkpt>
<trkpt lat=\'40.22853469848633\' lon=\'-6.114533424377441\'>
<ele>515</ele>
<time>2020-11-01T14:59:27Z</time>
</trkpt>
<trkpt lat=\'40.2286491394043\' lon=\'-6.114749908447266\'>
<ele>517</ele>
<time>2020-11-01T14:59:29Z</time>
</trkpt>
<trkpt lat=\'40.22869873046875\' lon=\'-6.114983558654785\'>
<ele>519</ele>
<time>2020-11-01T14:59:31Z</time>
</trkpt>
<trkpt lat=\'40.2286491394043\' lon=\'-6.115233421325684\'>
<ele>520</ele>
<time>2020-11-01T14:59:33Z</time>
</trkpt>
<trkpt lat=\'40.22856521606445\' lon=\'-6.115433216094971\'>
<ele>521</ele>
<time>2020-11-01T14:59:35Z</time>
</trkpt>
<trkpt lat=\'40.228485107421875\' lon=\'-6.115616798400879\'>
<ele>522</ele>
<time>2020-11-01T14:59:37Z</time>
</trkpt>
<trkpt lat=\'40.228416442871094\' lon=\'-6.115833282470703\'>
<ele>522</ele>
<time>2020-11-01T14:59:39Z</time>
</trkpt>
<trkpt lat=\'40.22835159301758\' lon=\'-6.116049766540527\'>
<ele>521</ele>
<time>2020-11-01T14:59:41Z</time>
</trkpt>
<trkpt lat=\'40.228267669677734\' lon=\'-6.116300106048584\'>
<ele>520</ele>
<time>2020-11-01T14:59:43Z</time>
</trkpt>
<trkpt lat=\'40.228248596191406\' lon=\'-6.1165666580200195\'>
<ele>523</ele>
<time>2020-11-01T14:59:45Z</time>
</trkpt>
<trkpt lat=\'40.2282829284668\' lon=\'-6.116799831390381\'>
<ele>525</ele>
<time>2020-11-01T14:59:47Z</time>
</trkpt>
<trkpt lat=\'40.2283821105957\' lon=\'-6.1170501708984375\'>
<ele>525</ele>
<time>2020-11-01T14:59:49Z</time>
</trkpt>
<trkpt lat=\'40.22854995727539\' lon=\'-6.117249965667725\'>
<ele>527</ele>
<time>2020-11-01T14:59:51Z</time>
</trkpt>
<trkpt lat=\'40.22873306274414\' lon=\'-6.117400169372559\'>
<ele>529</ele>
<time>2020-11-01T14:59:53Z</time>
</trkpt>
<trkpt lat=\'40.22891616821289\' lon=\'-6.117499828338623\'>
<ele>534</ele>
<time>2020-11-01T14:59:55Z</time>
</trkpt>
<trkpt lat=\'40.22913360595703\' lon=\'-6.117549896240234\'>
<ele>536</ele>
<time>2020-11-01T14:59:57Z</time>
</trkpt>
<trkpt lat=\'40.22935104370117\' lon=\'-6.117533206939697\'>
<ele>537</ele>
<time>2020-11-01T14:59:59Z</time>
</trkpt>
<trkpt lat=\'40.22956848144531\' lon=\'-6.117466449737549\'>
<ele>539</ele>
<time>2020-11-01T15:00:01Z</time>
</trkpt>
<trkpt lat=\'40.22978210449219\' lon=\'-6.1173834800720215\'>
<ele>542</ele>
<time>2020-11-01T15:00:03Z</time>
</trkpt>
<trkpt lat=\'40.22996520996094\' lon=\'-6.117283344268799\'>
<ele>545</ele>
<time>2020-11-01T15:00:05Z</time>
</trkpt>
<trkpt lat=\'40.23014831542969\' lon=\'-6.117149829864502\'>
<ele>546</ele>
<time>2020-11-01T15:00:07Z</time>
</trkpt>
<trkpt lat=\'40.230350494384766\' lon=\'-6.117000102996826\'>
<ele>545</ele>
<time>2020-11-01T15:00:09Z</time>
</trkpt>
<trkpt lat=\'40.23051834106445\' lon=\'-6.116816520690918\'>
<ele>546</ele>
<time>2020-11-01T15:00:11Z</time>
</trkpt>
<trkpt lat=\'40.230682373046875\' lon=\'-6.116650104522705\'>
<ele>547</ele>
<time>2020-11-01T15:00:13Z</time>
</trkpt>
<trkpt lat=\'40.23088455200195\' lon=\'-6.116499900817871\'>
<ele>548</ele>
<time>2020-11-01T15:00:15Z</time>
</trkpt>
<trkpt lat=\'40.231082916259766\' lon=\'-6.1163835525512695\'>
<ele>549</ele>
<time>2020-11-01T15:00:17Z</time>
</trkpt>
<trkpt lat=\'40.231285095214844\' lon=\'-6.116333484649658\'>
<ele>550</ele>
<time>2020-11-01T15:00:19Z</time>
</trkpt>
<trkpt lat=\'40.23149871826172\' lon=\'-6.116350173950195\'>
<ele>550</ele>
<time>2020-11-01T15:00:21Z</time>
</trkpt>
<trkpt lat=\'40.2317008972168\' lon=\'-6.116466522216797\'>
<ele>550</ele>
<time>2020-11-01T15:00:23Z</time>
</trkpt>
<trkpt lat=\'40.231834411621094\' lon=\'-6.116633415222168\'>
<ele>551</ele>
<time>2020-11-01T15:00:25Z</time>
</trkpt>
<trkpt lat=\'40.23191833496094\' lon=\'-6.116849899291992\'>
<ele>551</ele>
<time>2020-11-01T15:00:27Z</time>
</trkpt>
<trkpt lat=\'40.23193359375\' lon=\'-6.117083549499512\'>
<ele>552</ele>
<time>2020-11-01T15:00:29Z</time>
</trkpt>
<trkpt lat=\'40.23189926147461\' lon=\'-6.117300033569336\'>
<ele>553</ele>
<time>2020-11-01T15:00:31Z</time>
</trkpt>
<trkpt lat=\'40.231834411621094\' lon=\'-6.11751651763916\'>
<ele>553</ele>
<time>2020-11-01T15:00:33Z</time>
</trkpt>
<trkpt lat=\'40.2318000793457\' lon=\'-6.117733478546143\'>
<ele>552</ele>
<time>2020-11-01T15:00:35Z</time>
</trkpt>
<trkpt lat=\'40.23175048828125\' lon=\'-6.117983341217041\'>
<ele>550</ele>
<time>2020-11-01T15:00:37Z</time>
</trkpt>
<trkpt lat=\'40.23171615600586\' lon=\'-6.1182332038879395\'>
<ele>551</ele>
<time>2020-11-01T15:00:39Z</time>
</trkpt>
<trkpt lat=\'40.2317008972168\' lon=\'-6.118466854095459\'>
<ele>551</ele>
<time>2020-11-01T15:00:41Z</time>
</trkpt>
<trkpt lat=\'40.231666564941406\' lon=\'-6.1187334060668945\'>
<ele>549</ele>
<time>2020-11-01T15:00:43Z</time>
</trkpt>
<trkpt lat=\'40.231632232666016\' lon=\'-6.11899995803833\'>
<ele>551</ele>
<time>2020-11-01T15:00:45Z</time>
</trkpt>
<trkpt lat=\'40.23158264160156\' lon=\'-6.1192498207092285\'>
<ele>552</ele>
<time>2020-11-01T15:00:47Z</time>
</trkpt>
<trkpt lat=\'40.23153305053711\' lon=\'-6.119483470916748\'>
<ele>552</ele>
<time>2020-11-01T15:00:49Z</time>
</trkpt>
<trkpt lat=\'40.231449127197266\' lon=\'-6.119716644287109\'>
<ele>552</ele>
<time>2020-11-01T15:00:51Z</time>
</trkpt>
<trkpt lat=\'40.23136520385742\' lon=\'-6.119933128356934\'>
<ele>554</ele>
<time>2020-11-01T15:00:53Z</time>
</trkpt>
<trkpt lat=\'40.231285095214844\' lon=\'-6.120133399963379\'>
<ele>553</ele>
<time>2020-11-01T15:00:55Z</time>
</trkpt>
<trkpt lat=\'40.23118209838867\' lon=\'-6.120333194732666\'>
<ele>551</ele>
<time>2020-11-01T15:00:57Z</time>
</trkpt>
<trkpt lat=\'40.2310676574707\' lon=\'-6.120533466339111\'>
<ele>552</ele>
<time>2020-11-01T15:00:59Z</time>
</trkpt>
<trkpt lat=\'40.23094940185547\' lon=\'-6.120716571807861\'>
<ele>554</ele>
<time>2020-11-01T15:01:01Z</time>
</trkpt>
<trkpt lat=\'40.2308349609375\' lon=\'-6.120866775512695\'>
<ele>554</ele>
<time>2020-11-01T15:01:03Z</time>
</trkpt>
<trkpt lat=\'40.2307014465332\' lon=\'-6.121033191680908\'>
<ele>555</ele>
<time>2020-11-01T15:01:05Z</time>
</trkpt>
<trkpt lat=\'40.230567932128906\' lon=\'-6.121200084686279\'>
<ele>557</ele>
<time>2020-11-01T15:01:07Z</time>
</trkpt>
<trkpt lat=\'40.23044967651367\' lon=\'-6.121349811553955\'>
<ele>558</ele>
<time>2020-11-01T15:01:09Z</time>
</trkpt>
<trkpt lat=\'40.23030090332031\' lon=\'-6.121533393859863\'>
<ele>560</ele>
<time>2020-11-01T15:01:11Z</time>
</trkpt>
<trkpt lat=\'40.230167388916016\' lon=\'-6.12166690826416\'>
<ele>564</ele>
<time>2020-11-01T15:01:13Z</time>
</trkpt>
<trkpt lat=\'40.23003387451172\' lon=\'-6.121799945831299\'>
<ele>565</ele>
<time>2020-11-01T15:01:15Z</time>
</trkpt>
<trkpt lat=\'40.22988510131836\' lon=\'-6.121950149536133\'>
<ele>565</ele>
<time>2020-11-01T15:01:17Z</time>
</trkpt>
<trkpt lat=\'40.22975158691406\' lon=\'-6.1220831871032715\'>
<ele>567</ele>
<time>2020-11-01T15:01:19Z</time>
</trkpt>
<trkpt lat=\'40.229618072509766\' lon=\'-6.122216701507568\'>
<ele>568</ele>
<time>2020-11-01T15:01:21Z</time>
</trkpt>
<trkpt lat=\'40.22948455810547\' lon=\'-6.122350215911865\'>
<ele>569</ele>
<time>2020-11-01T15:01:23Z</time>
</trkpt>
<trkpt lat=\'40.22935104370117\' lon=\'-6.122499942779541\'>
<ele>570</ele>
<time>2020-11-01T15:01:25Z</time>
</trkpt>
<trkpt lat=\'40.22923278808594\' lon=\'-6.122666835784912\'>
<ele>571</ele>
<time>2020-11-01T15:01:27Z</time>
</trkpt>
<trkpt lat=\'40.22909927368164\' lon=\'-6.122833251953125\'>
<ele>573</ele>
<time>2020-11-01T15:01:29Z</time>
</trkpt>
<trkpt lat=\'40.22898483276367\' lon=\'-6.122966766357422\'>
<ele>575</ele>
<time>2020-11-01T15:01:31Z</time>
</trkpt>
<trkpt lat=\'40.228851318359375\' lon=\'-6.1230998039245605\'>
<ele>575</ele>
<time>2020-11-01T15:01:33Z</time>
</trkpt>
<trkpt lat=\'40.22871780395508\' lon=\'-6.12321662902832\'>
<ele>576</ele>
<time>2020-11-01T15:01:35Z</time>
</trkpt>
<trkpt lat=\'40.22858428955078\' lon=\'-6.123366832733154\'>
<ele>579</ele>
<time>2020-11-01T15:01:37Z</time>
</trkpt>
<trkpt lat=\'40.228485107421875\' lon=\'-6.12351655960083\'>
<ele>581</ele>
<time>2020-11-01T15:01:39Z</time>
</trkpt>
<trkpt lat=\'40.22836685180664\' lon=\'-6.123666763305664\'>
<ele>581</ele>
<time>2020-11-01T15:01:41Z</time>
</trkpt>
<trkpt lat=\'40.228233337402344\' lon=\'-6.12381649017334\'>
<ele>582</ele>
<time>2020-11-01T15:01:43Z</time>
</trkpt>
<trkpt lat=\'40.22811508178711\' lon=\'-6.123983383178711\'>
<ele>584</ele>
<time>2020-11-01T15:01:45Z</time>
</trkpt>
<trkpt lat=\'40.22796630859375\' lon=\'-6.124100208282471\'>
<ele>587</ele>
<time>2020-11-01T15:01:47Z</time>
</trkpt>
<trkpt lat=\'40.22783279418945\' lon=\'-6.124216556549072\'>
<ele>587</ele>
<time>2020-11-01T15:01:49Z</time>
</trkpt>
<trkpt lat=\'40.227699279785156\' lon=\'-6.124366760253906\'>
<ele>587</ele>
<time>2020-11-01T15:01:51Z</time>
</trkpt>
<trkpt lat=\'40.2275505065918\' lon=\'-6.124466896057129\'>
<ele>587</ele>
<time>2020-11-01T15:01:53Z</time>
</trkpt>
<trkpt lat=\'40.2274169921875\' lon=\'-6.124466896057129\'>
<ele>587</ele>
<time>2020-11-01T15:01:55Z</time>
</trkpt>
<trkpt lat=\'40.2272834777832\' lon=\'-6.124416828155518\'>
<ele>587</ele>
<time>2020-11-01T15:01:57Z</time>
</trkpt>
<trkpt lat=\'40.227149963378906\' lon=\'-6.124300003051758\'>
<ele>585</ele>
<time>2020-11-01T15:01:59Z</time>
</trkpt>
<trkpt lat=\'40.22705078125\' lon=\'-6.124116897583008\'>
<ele>584</ele>
<time>2020-11-01T15:02:01Z</time>
</trkpt>
<trkpt lat=\'40.22698211669922\' lon=\'-6.123899936676025\'>
<ele>582</ele>
<time>2020-11-01T15:02:03Z</time>
</trkpt>
<trkpt lat=\'40.226951599121094\' lon=\'-6.123650074005127\'>
<ele>580</ele>
<time>2020-11-01T15:02:05Z</time>
</trkpt>
<trkpt lat=\'40.226966857910156\' lon=\'-6.1234002113342285\'>
<ele>580</ele>
<time>2020-11-01T15:02:07Z</time>
</trkpt>
<trkpt lat=\'40.22708511352539\' lon=\'-6.123149871826172\'>
<ele>580</ele>
<time>2020-11-01T15:02:09Z</time>
</trkpt>
<trkpt lat=\'40.22724914550781\' lon=\'-6.122950077056885\'>
<ele>581</ele>
<time>2020-11-01T15:02:11Z</time>
</trkpt>
<trkpt lat=\'40.22743225097656\' lon=\'-6.122799873352051\'>
<ele>583</ele>
<time>2020-11-01T15:02:13Z</time>
</trkpt>
<trkpt lat=\'40.22761535644531\' lon=\'-6.122633457183838\'>
<ele>583</ele>
<time>2020-11-01T15:02:15Z</time>
</trkpt>
<trkpt lat=\'40.22781753540039\' lon=\'-6.122483253479004\'>
<ele>583</ele>
<time>2020-11-01T15:02:17Z</time>
</trkpt>
<trkpt lat=\'40.22800064086914\' lon=\'-6.122333526611328\'>
<ele>582</ele>
<time>2020-11-01T15:02:19Z</time>
</trkpt>
<trkpt lat=\'40.22819900512695\' lon=\'-6.122183322906494\'>
<ele>582</ele>
<time>2020-11-01T15:02:21Z</time>
</trkpt>
<trkpt lat=\'40.22836685180664\' lon=\'-6.122016906738281\'>
<ele>582</ele>
<time>2020-11-01T15:02:23Z</time>
</trkpt>
<trkpt lat=\'40.228515625\' lon=\'-6.121799945831299\'>
<ele>580</ele>
<time>2020-11-01T15:02:25Z</time>
</trkpt>
<trkpt lat=\'40.228668212890625\' lon=\'-6.121600151062012\'>
<ele>579</ele>
<time>2020-11-01T15:02:27Z</time>
</trkpt>
<trkpt lat=\'40.22880172729492\' lon=\'-6.121383190155029\'>
<ele>577</ele>
<time>2020-11-01T15:02:29Z</time>
</trkpt>
<trkpt lat=\'40.22891616821289\' lon=\'-6.121166706085205\'>
<ele>575</ele>
<time>2020-11-01T15:02:31Z</time>
</trkpt>
<trkpt lat=\'40.229034423828125\' lon=\'-6.120933532714844\'>
<ele>573</ele>
<time>2020-11-01T15:02:33Z</time>
</trkpt>
<trkpt lat=\'40.229148864746094\' lon=\'-6.120699882507324\'>
<ele>571</ele>
<time>2020-11-01T15:02:35Z</time>
</trkpt>
<trkpt lat=\'40.22923278808594\' lon=\'-6.120450019836426\'>
<ele>567</ele>
<time>2020-11-01T15:02:37Z</time>
</trkpt>
<trkpt lat=\'40.22928237915039\' lon=\'-6.120200157165527\'>
<ele>563</ele>
<time>2020-11-01T15:02:39Z</time>
</trkpt>
<trkpt lat=\'40.22931671142578\' lon=\'-6.119933128356934\'>
<ele>558</ele>
<time>2020-11-01T15:02:41Z</time>
</trkpt>
<trkpt lat=\'40.22931671142578\' lon=\'-6.119666576385498\'>
<ele>555</ele>
<time>2020-11-01T15:02:43Z</time>
</trkpt>
<trkpt lat=\'40.22928237915039\' lon=\'-6.1194000244140625\'>
<ele>553</ele>
<time>2020-11-01T15:02:45Z</time>
</trkpt>
<trkpt lat=\'40.229251861572266\' lon=\'-6.119166851043701\'>
<ele>553</ele>
<time>2020-11-01T15:02:47Z</time>
</trkpt>
<trkpt lat=\'40.22919845581055\' lon=\'-6.118949890136719\'>
<ele>552</ele>
<time>2020-11-01T15:02:49Z</time>
</trkpt>
<trkpt lat=\'40.22916793823242\' lon=\'-6.118716716766357\'>
<ele>549</ele>
<time>2020-11-01T15:02:51Z</time>
</trkpt>
<trkpt lat=\'40.22913360595703\' lon=\'-6.118466854095459\'>
<ele>544</ele>
<time>2020-11-01T15:02:53Z</time>
</trkpt>
<trkpt lat=\'40.22909927368164\' lon=\'-6.118199825286865\'>
<ele>538</ele>
<time>2020-11-01T15:02:55Z</time>
</trkpt>
<trkpt lat=\'40.22908401489258\' lon=\'-6.117916584014893\'>
<ele>533</ele>
<time>2020-11-01T15:02:57Z</time>
</trkpt>
<trkpt lat=\'40.22909927368164\' lon=\'-6.117616653442383\'>
<ele>530</ele>
<time>2020-11-01T15:02:59Z</time>
</trkpt>
<trkpt lat=\'40.22909927368164\' lon=\'-6.11733341217041\'>
<ele>528</ele>
<time>2020-11-01T15:03:01Z</time>
</trkpt>
<trkpt lat=\'40.22909927368164\' lon=\'-6.1170501708984375\'>
<ele>526</ele>
<time>2020-11-01T15:03:03Z</time>
</trkpt>
<trkpt lat=\'40.22909927368164\' lon=\'-6.116783142089844\'>
<ele>526</ele>
<time>2020-11-01T15:03:05Z</time>
</trkpt>
<trkpt lat=\'40.22904968261719\' lon=\'-6.116516590118408\'>
<ele>525</ele>
<time>2020-11-01T15:03:07Z</time>
</trkpt>
<trkpt lat=\'40.2290153503418\' lon=\'-6.116250038146973\'>
<ele>523</ele>
<time>2020-11-01T15:03:09Z</time>
</trkpt>
<trkpt lat=\'40.22895050048828\' lon=\'-6.116000175476074\'>
<ele>523</ele>
<time>2020-11-01T15:03:11Z</time>
</trkpt>
<trkpt lat=\'40.2288818359375\' lon=\'-6.115766525268555\'>
<ele>523</ele>
<time>2020-11-01T15:03:13Z</time>
</trkpt>
<trkpt lat=\'40.228816986083984\' lon=\'-6.115516662597656\'>
<ele>521</ele>
<time>2020-11-01T15:03:15Z</time>
</trkpt>
<trkpt lat=\'40.22873306274414\' lon=\'-6.115283489227295\'>
<ele>519</ele>
<time>2020-11-01T15:03:17Z</time>
</trkpt>
<trkpt lat=\'40.228633880615234\' lon=\'-6.1150665283203125\'>
<ele>516</ele>
<time>2020-11-01T15:03:19Z</time>
</trkpt>
<trkpt lat=\'40.228515625\' lon=\'-6.114866733551025\'>
<ele>514</ele>
<time>2020-11-01T15:03:21Z</time>
</trkpt>
<trkpt lat=\'40.2283821105957\' lon=\'-6.114683151245117\'>
<ele>510</ele>
<time>2020-11-01T15:03:23Z</time>
</trkpt>
<trkpt lat=\'40.228233337402344\' lon=\'-6.114533424377441\'>
<ele>508</ele>
<time>2020-11-01T15:03:25Z</time>
</trkpt>
<trkpt lat=\'40.22809982299805\' lon=\'-6.11436653137207\'>
<ele>505</ele>
<time>2020-11-01T15:03:27Z</time>
</trkpt>
<trkpt lat=\'40.22796630859375\' lon=\'-6.114233493804932\'>
<ele>500</ele>
<time>2020-11-01T15:03:29Z</time>
</trkpt>
<trkpt lat=\'40.227783203125\' lon=\'-6.114150047302246\'>
<ele>496</ele>
<time>2020-11-01T15:03:31Z</time>
</trkpt>
<trkpt lat=\'40.22761535644531\' lon=\'-6.114099979400635\'>
<ele>494</ele>
<time>2020-11-01T15:03:33Z</time>
</trkpt>
<trkpt lat=\'40.22745132446289\' lon=\'-6.114033222198486\'>
<ele>489</ele>
<time>2020-11-01T15:03:35Z</time>
</trkpt>
<trkpt lat=\'40.22726821899414\' lon=\'-6.113949775695801\'>
<ele>484</ele>
<time>2020-11-01T15:03:37Z</time>
</trkpt>
<trkpt lat=\'40.227115631103516\' lon=\'-6.113833427429199\'>
<ele>480</ele>
<time>2020-11-01T15:03:39Z</time>
</trkpt>
<trkpt lat=\'40.22698211669922\' lon=\'-6.113666534423828\'>
<ele>476</ele>
<time>2020-11-01T15:03:41Z</time>
</trkpt>
<trkpt lat=\'40.226898193359375\' lon=\'-6.113433361053467\'>
<ele>472</ele>
<time>2020-11-01T15:03:43Z</time>
</trkpt>
<trkpt lat=\'40.22686767578125\' lon=\'-6.113150119781494\'>
<ele>468</ele>
<time>2020-11-01T15:03:45Z</time>
</trkpt>
<trkpt lat=\'40.22688293457031\' lon=\'-6.1128668785095215\'>
<ele>463</ele>
<time>2020-11-01T15:03:47Z</time>
</trkpt>
<trkpt lat=\'40.2269172668457\' lon=\'-6.1125664710998535\'>
<ele>459</ele>
<time>2020-11-01T15:03:49Z</time>
</trkpt>
<trkpt lat=\'40.226951599121094\' lon=\'-6.112249851226807\'>
<ele>455</ele>
<time>2020-11-01T15:03:51Z</time>
</trkpt>
<trkpt lat=\'40.22698211669922\' lon=\'-6.111949920654297\'>
<ele>451</ele>
<time>2020-11-01T15:03:53Z</time>
</trkpt>
<trkpt lat=\'40.22703170776367\' lon=\'-6.111649990081787\'>
<ele>448</ele>
<time>2020-11-01T15:03:55Z</time>
</trkpt>
<trkpt lat=\'40.22708511352539\' lon=\'-6.11133337020874\'>
<ele>447</ele>
<time>2020-11-01T15:03:57Z</time>
</trkpt>
<trkpt lat=\'40.227134704589844\' lon=\'-6.111050128936768\'>
<ele>447</ele>
<time>2020-11-01T15:03:59Z</time>
</trkpt>
<trkpt lat=\'40.22716522216797\' lon=\'-6.110766887664795\'>
<ele>445</ele>
<time>2020-11-01T15:04:01Z</time>
</trkpt>
<trkpt lat=\'40.22721481323242\' lon=\'-6.110499858856201\'>
<ele>443</ele>
<time>2020-11-01T15:04:03Z</time>
</trkpt>
<trkpt lat=\'40.227298736572266\' lon=\'-6.110233306884766\'>
<ele>442</ele>
<time>2020-11-01T15:04:05Z</time>
</trkpt>
<trkpt lat=\'40.227317810058594\' lon=\'-6.10996675491333\'>
<ele>442</ele>
<time>2020-11-01T15:04:07Z</time>
</trkpt>
<trkpt lat=\'40.227317810058594\' lon=\'-6.1097331047058105\'>
<ele>440</ele>
<time>2020-11-01T15:04:09Z</time>
</trkpt>
<trkpt lat=\'40.227298736572266\' lon=\'-6.109466552734375\'>
<ele>437</ele>
<time>2020-11-01T15:04:11Z</time>
</trkpt>
<trkpt lat=\'40.22724914550781\' lon=\'-6.109233379364014\'>
<ele>435</ele>
<time>2020-11-01T15:04:13Z</time>
</trkpt>
<trkpt lat=\'40.22719955444336\' lon=\'-6.108983516693115\'>
<ele>433</ele>
<time>2020-11-01T15:04:15Z</time>
</trkpt>
<trkpt lat=\'40.22716522216797\' lon=\'-6.1087164878845215\'>
<ele>432</ele>
<time>2020-11-01T15:04:17Z</time>
</trkpt>
<trkpt lat=\'40.22710037231445\' lon=\'-6.108466625213623\'>
<ele>429</ele>
<time>2020-11-01T15:04:19Z</time>
</trkpt>
<trkpt lat=\'40.22705078125\' lon=\'-6.108216762542725\'>
<ele>430</ele>
<time>2020-11-01T15:04:21Z</time>
</trkpt>
<trkpt lat=\'40.22701644897461\' lon=\'-6.107966899871826\'>
<ele>430</ele>
<time>2020-11-01T15:04:23Z</time>
</trkpt>
<trkpt lat=\'40.22698211669922\' lon=\'-6.107699871063232\'>
<ele>429</ele>
<time>2020-11-01T15:04:25Z</time>
</trkpt>
<trkpt lat=\'40.226966857910156\' lon=\'-6.10741662979126\'>
<ele>429</ele>
<time>2020-11-01T15:04:27Z</time>
</trkpt>
<trkpt lat=\'40.226932525634766\' lon=\'-6.107133388519287\'>
<ele>431</ele>
<time>2020-11-01T15:04:29Z</time>
</trkpt>
<trkpt lat=\'40.226932525634766\' lon=\'-6.106866836547852\'>
<ele>432</ele>
<time>2020-11-01T15:04:31Z</time>
</trkpt>
<trkpt lat=\'40.226966857910156\' lon=\'-6.106583118438721\'>
<ele>433</ele>
<time>2020-11-01T15:04:33Z</time>
</trkpt>
<trkpt lat=\'40.22700119018555\' lon=\'-6.106299877166748\'>
<ele>435</ele>
<time>2020-11-01T15:04:35Z</time>
</trkpt>
<trkpt lat=\'40.22701644897461\' lon=\'-6.1060333251953125\'>
<ele>438</ele>
<time>2020-11-01T15:04:37Z</time>
</trkpt>
<trkpt lat=\'40.22701644897461\' lon=\'-6.10575008392334\'>
<ele>441</ele>
<time>2020-11-01T15:04:39Z</time>
</trkpt>
<trkpt lat=\'40.22703170776367\' lon=\'-6.105483531951904\'>
<ele>443</ele>
<time>2020-11-01T15:04:41Z</time>
</trkpt>
<trkpt lat=\'40.22705078125\' lon=\'-6.1052165031433105\'>
<ele>444</ele>
<time>2020-11-01T15:04:43Z</time>
</trkpt>
<trkpt lat=\'40.22710037231445\' lon=\'-6.104949951171875\'>
<ele>444</ele>
<time>2020-11-01T15:04:45Z</time>
</trkpt>
<trkpt lat=\'40.22716522216797\' lon=\'-6.104666709899902\'>
<ele>444</ele>
<time>2020-11-01T15:04:47Z</time>
</trkpt>
<trkpt lat=\'40.22723388671875\' lon=\'-6.104416847229004\'>
<ele>446</ele>
<time>2020-11-01T15:04:49Z</time>
</trkpt>
<trkpt lat=\'40.227317810058594\' lon=\'-6.10414981842041\'>
<ele>446</ele>
<time>2020-11-01T15:04:51Z</time>
</trkpt>
<trkpt lat=\'40.2274169921875\' lon=\'-6.103883266448975\'>
<ele>446</ele>
<time>2020-11-01T15:04:53Z</time>
</trkpt>
<trkpt lat=\'40.227516174316406\' lon=\'-6.103616714477539\'>
<ele>447</ele>
<time>2020-11-01T15:04:55Z</time>
</trkpt>
<trkpt lat=\'40.22761535644531\' lon=\'-6.103366851806641\'>
<ele>448</ele>
<time>2020-11-01T15:04:57Z</time>
</trkpt>
<trkpt lat=\'40.22773361206055\' lon=\'-6.103116512298584\'>
<ele>449</ele>
<time>2020-11-01T15:04:59Z</time>
</trkpt>
<trkpt lat=\'40.22785186767578\' lon=\'-6.1028666496276855\'>
<ele>451</ele>
<time>2020-11-01T15:05:01Z</time>
</trkpt>
<trkpt lat=\'40.22796630859375\' lon=\'-6.102633476257324\'>
<ele>453</ele>
<time>2020-11-01T15:05:03Z</time>
</trkpt>
<trkpt lat=\'40.228084564208984\' lon=\'-6.102383136749268\'>
<ele>455</ele>
<time>2020-11-01T15:05:05Z</time>
</trkpt>
<trkpt lat=\'40.22818374633789\' lon=\'-6.102133274078369\'>
<ele>458</ele>
<time>2020-11-01T15:05:07Z</time>
</trkpt>
<trkpt lat=\'40.2282829284668\' lon=\'-6.101883411407471\'>
<ele>460</ele>
<time>2020-11-01T15:05:09Z</time>
</trkpt>
<trkpt lat=\'40.22836685180664\' lon=\'-6.101600170135498\'>
<ele>461</ele>
<time>2020-11-01T15:05:11Z</time>
</trkpt>
<trkpt lat=\'40.22846603393555\' lon=\'-6.101349830627441\'>
<ele>463</ele>
<time>2020-11-01T15:05:13Z</time>
</trkpt>
<trkpt lat=\'40.22856521606445\' lon=\'-6.101099967956543\'>
<ele>465</ele>
<time>2020-11-01T15:05:15Z</time>
</trkpt>
<trkpt lat=\'40.22869873046875\' lon=\'-6.1008501052856445\'>
<ele>466</ele>
<time>2020-11-01T15:05:17Z</time>
</trkpt>
<trkpt lat=\'40.228816986083984\' lon=\'-6.100599765777588\'>
<ele>468</ele>
<time>2020-11-01T15:05:19Z</time>
</trkpt>
<trkpt lat=\'40.22895050048828\' lon=\'-6.1003499031066895\'>
<ele>469</ele>
<time>2020-11-01T15:05:21Z</time>
</trkpt>
<trkpt lat=\'40.22906494140625\' lon=\'-6.100100040435791\'>
<ele>470</ele>
<time>2020-11-01T15:05:23Z</time>
</trkpt>
<trkpt lat=\'40.229183197021484\' lon=\'-6.0998334884643555\'>
<ele>472</ele>
<time>2020-11-01T15:05:25Z</time>
</trkpt>
<trkpt lat=\'40.22928237915039\' lon=\'-6.099566459655762\'>
<ele>474</ele>
<time>2020-11-01T15:05:27Z</time>
</trkpt>
<trkpt lat=\'40.229400634765625\' lon=\'-6.099316596984863\'>
<ele>476</ele>
<time>2020-11-01T15:05:29Z</time>
</trkpt>
<trkpt lat=\'40.229515075683594\' lon=\'-6.099066734313965\'>
<ele>478</ele>
<time>2020-11-01T15:05:31Z</time>
</trkpt>
<trkpt lat=\'40.229618072509766\' lon=\'-6.098800182342529\'>
<ele>479</ele>
<time>2020-11-01T15:05:33Z</time>
</trkpt>
<trkpt lat=\'40.22971725463867\' lon=\'-6.098549842834473\'>
<ele>481</ele>
<time>2020-11-01T15:05:35Z</time>
</trkpt>
<trkpt lat=\'40.22983169555664\' lon=\'-6.098283290863037\'>
<ele>483</ele>
<time>2020-11-01T15:05:37Z</time>
</trkpt>
<trkpt lat=\'40.22993469238281\' lon=\'-6.098016738891602\'>
<ele>485</ele>
<time>2020-11-01T15:05:39Z</time>
</trkpt>
<trkpt lat=\'40.23001480102539\' lon=\'-6.097750186920166\'>
<ele>487</ele>
<time>2020-11-01T15:05:41Z</time>
</trkpt>
<trkpt lat=\'40.23008346557617\' lon=\'-6.097483158111572\'>
<ele>490</ele>
<time>2020-11-01T15:05:43Z</time>
</trkpt>
<trkpt lat=\'40.230133056640625\' lon=\'-6.097216606140137\'>
<ele>492</ele>
<time>2020-11-01T15:05:45Z</time>
</trkpt>
<trkpt lat=\'40.230167388916016\' lon=\'-6.096916675567627\'>
<ele>495</ele>
<time>2020-11-01T15:05:47Z</time>
</trkpt>
<trkpt lat=\'40.23021697998047\' lon=\'-6.096633434295654\'>
<ele>498</ele>
<time>2020-11-01T15:05:49Z</time>
</trkpt>
<trkpt lat=\'40.23023223876953\' lon=\'-6.096350193023682\'>
<ele>502</ele>
<time>2020-11-01T15:05:51Z</time>
</trkpt>
<trkpt lat=\'40.23021697998047\' lon=\'-6.096066474914551\'>
<ele>506</ele>
<time>2020-11-01T15:05:53Z</time>
</trkpt>
<trkpt lat=\'40.23023223876953\' lon=\'-6.095783233642578\'>
<ele>509</ele>
<time>2020-11-01T15:05:55Z</time>
</trkpt>
<trkpt lat=\'40.23026657104492\' lon=\'-6.0954999923706055\'>
<ele>512</ele>
<time>2020-11-01T15:05:57Z</time>
</trkpt>
<trkpt lat=\'40.23033142089844\' lon=\'-6.095200061798096\'>
<ele>515</ele>
<time>2020-11-01T15:05:59Z</time>
</trkpt>
<trkpt lat=\'40.23041534423828\' lon=\'-6.09493350982666\'>
<ele>518</ele>
<time>2020-11-01T15:06:01Z</time>
</trkpt>
<trkpt lat=\'40.230499267578125\' lon=\'-6.094649791717529\'>
<ele>522</ele>
<time>2020-11-01T15:06:03Z</time>
</trkpt>
<trkpt lat=\'40.23058319091797\' lon=\'-6.094366550445557\'>
<ele>524</ele>
<time>2020-11-01T15:06:05Z</time>
</trkpt>
<trkpt lat=\'40.23063278198242\' lon=\'-6.094066619873047\'>
<ele>528</ele>
<time>2020-11-01T15:06:07Z</time>
</trkpt>
<trkpt lat=\'40.230682373046875\' lon=\'-6.093783378601074\'>
<ele>532</ele>
<time>2020-11-01T15:06:09Z</time>
</trkpt>
<trkpt lat=\'40.230716705322266\' lon=\'-6.093500137329102\'>
<ele>535</ele>
<time>2020-11-01T15:06:11Z</time>
</trkpt>
<trkpt lat=\'40.230751037597656\' lon=\'-6.093233108520508\'>
<ele>538</ele>
<time>2020-11-01T15:06:13Z</time>
</trkpt>
<trkpt lat=\'40.23078155517578\' lon=\'-6.092966556549072\'>
<ele>540</ele>
<time>2020-11-01T15:06:15Z</time>
</trkpt>
<trkpt lat=\'40.23085021972656\' lon=\'-6.0926833152771\'>
<ele>542</ele>
<time>2020-11-01T15:06:17Z</time>
</trkpt>
<trkpt lat=\'40.230899810791016\' lon=\'-6.092416763305664\'>
<ele>545</ele>
<time>2020-11-01T15:06:19Z</time>
</trkpt>
<trkpt lat=\'40.230934143066406\' lon=\'-6.092116832733154\'>
<ele>548</ele>
<time>2020-11-01T15:06:21Z</time>
</trkpt>
<trkpt lat=\'40.23099899291992\' lon=\'-6.091833114624023\'>
<ele>550</ele>
<time>2020-11-01T15:06:23Z</time>
</trkpt>
<trkpt lat=\'40.231082916259766\' lon=\'-6.091549873352051\'>
<ele>553</ele>
<time>2020-11-01T15:06:25Z</time>
</trkpt>
<trkpt lat=\'40.231117248535156\' lon=\'-6.091266632080078\'>
<ele>557</ele>
<time>2020-11-01T15:06:27Z</time>
</trkpt>
<trkpt lat=\'40.23115158081055\' lon=\'-6.09101676940918\'>
<ele>560</ele>
<time>2020-11-01T15:06:29Z</time>
</trkpt>
<trkpt lat=\'40.23118209838867\' lon=\'-6.090733528137207\'>
<ele>562</ele>
<time>2020-11-01T15:06:31Z</time>
</trkpt>
<trkpt lat=\'40.231201171875\' lon=\'-6.090466499328613\'>
<ele>564</ele>
<time>2020-11-01T15:06:33Z</time>
</trkpt>
<trkpt lat=\'40.231231689453125\' lon=\'-6.090199947357178\'>
<ele>566</ele>
<time>2020-11-01T15:06:35Z</time>
</trkpt>
<trkpt lat=\'40.231231689453125\' lon=\'-6.089950084686279\'>
<ele>568</ele>
<time>2020-11-01T15:06:37Z</time>
</trkpt>
<trkpt lat=\'40.231201171875\' lon=\'-6.089683532714844\'>
<ele>570</ele>
<time>2020-11-01T15:06:39Z</time>
</trkpt>
<trkpt lat=\'40.23118209838867\' lon=\'-6.089433193206787\'>
<ele>573</ele>
<time>2020-11-01T15:06:41Z</time>
</trkpt>
<trkpt lat=\'40.23115158081055\' lon=\'-6.089166641235352\'>
<ele>574</ele>
<time>2020-11-01T15:06:43Z</time>
</trkpt>
<trkpt lat=\'40.23113250732422\' lon=\'-6.088900089263916\'>
<ele>575</ele>
<time>2020-11-01T15:06:45Z</time>
</trkpt>
<trkpt lat=\'40.231117248535156\' lon=\'-6.0886335372924805\'>
<ele>578</ele>
<time>2020-11-01T15:06:47Z</time>
</trkpt>
<trkpt lat=\'40.2310676574707\' lon=\'-6.088383197784424\'>
<ele>579</ele>
<time>2020-11-01T15:06:49Z</time>
</trkpt>
<trkpt lat=\'40.23101806640625\' lon=\'-6.088116645812988\'>
<ele>581</ele>
<time>2020-11-01T15:06:51Z</time>
</trkpt>
<trkpt lat=\'40.2309684753418\' lon=\'-6.087850093841553\'>
<ele>584</ele>
<time>2020-11-01T15:06:53Z</time>
</trkpt>
<trkpt lat=\'40.23091506958008\' lon=\'-6.087600231170654\'>
<ele>587</ele>
<time>2020-11-01T15:06:55Z</time>
</trkpt>
<trkpt lat=\'40.23085021972656\' lon=\'-6.087349891662598\'>
<ele>589</ele>
<time>2020-11-01T15:06:57Z</time>
</trkpt>
<trkpt lat=\'40.23081588745117\' lon=\'-6.087083339691162\'>
<ele>592</ele>
<time>2020-11-01T15:06:59Z</time>
</trkpt>
<trkpt lat=\'40.23076629638672\' lon=\'-6.086816787719727\'>
<ele>595</ele>
<time>2020-11-01T15:07:01Z</time>
</trkpt>
<trkpt lat=\'40.23073196411133\' lon=\'-6.08656644821167\'>
<ele>598</ele>
<time>2020-11-01T15:07:03Z</time>
</trkpt>
<trkpt lat=\'40.2307014465332\' lon=\'-6.0863165855407715\'>
<ele>600</ele>
<time>2020-11-01T15:07:05Z</time>
</trkpt>
<trkpt lat=\'40.23065185546875\' lon=\'-6.086066722869873\'>
<ele>603</ele>
<time>2020-11-01T15:07:07Z</time>
</trkpt>
<trkpt lat=\'40.23058319091797\' lon=\'-6.085816860198975\'>
<ele>606</ele>
<time>2020-11-01T15:07:09Z</time>
</trkpt>
<trkpt lat=\'40.230533599853516\' lon=\'-6.085566520690918\'>
<ele>609</ele>
<time>2020-11-01T15:07:11Z</time>
</trkpt>
<trkpt lat=\'40.230464935302734\' lon=\'-6.0853166580200195\'>
<ele>611</ele>
<time>2020-11-01T15:07:13Z</time>
</trkpt>
<trkpt lat=\'40.23041534423828\' lon=\'-6.085050106048584\'>
<ele>614</ele>
<time>2020-11-01T15:07:15Z</time>
</trkpt>
<trkpt lat=\'40.230384826660156\' lon=\'-6.084799766540527\'>
<ele>616</ele>
<time>2020-11-01T15:07:17Z</time>
</trkpt>
<trkpt lat=\'40.230350494384766\' lon=\'-6.084533214569092\'>
<ele>618</ele>
<time>2020-11-01T15:07:19Z</time>
</trkpt>
<trkpt lat=\'40.230316162109375\' lon=\'-6.084266662597656\'>
<ele>620</ele>
<time>2020-11-01T15:07:21Z</time>
</trkpt>
<trkpt lat=\'40.230281829833984\' lon=\'-6.084000110626221\'>
<ele>623</ele>
<time>2020-11-01T15:07:23Z</time>
</trkpt>
<trkpt lat=\'40.23023223876953\' lon=\'-6.083733558654785\'>
<ele>625</ele>
<time>2020-11-01T15:07:25Z</time>
</trkpt>
<trkpt lat=\'40.230201721191406\' lon=\'-6.083466529846191\'>
<ele>627</ele>
<time>2020-11-01T15:07:27Z</time>
</trkpt>
<trkpt lat=\'40.230167388916016\' lon=\'-6.083183288574219\'>
<ele>630</ele>
<time>2020-11-01T15:07:29Z</time>
</trkpt>
<trkpt lat=\'40.230167388916016\' lon=\'-6.082900047302246\'>
<ele>633</ele>
<time>2020-11-01T15:07:31Z</time>
</trkpt>
<trkpt lat=\'40.230133056640625\' lon=\'-6.082616806030273\'>
<ele>636</ele>
<time>2020-11-01T15:07:33Z</time>
</trkpt>
<trkpt lat=\'40.23011779785156\' lon=\'-6.082333564758301\'>
<ele>640</ele>
<time>2020-11-01T15:07:35Z</time>
</trkpt>
<trkpt lat=\'40.230098724365234\' lon=\'-6.082066535949707\'>
<ele>643</ele>
<time>2020-11-01T15:07:37Z</time>
</trkpt>
<trkpt lat=\'40.23006820678711\' lon=\'-6.081783294677734\'>
<ele>645</ele>
<time>2020-11-01T15:07:39Z</time>
</trkpt>
<trkpt lat=\'40.23006820678711\' lon=\'-6.081516742706299\'>
<ele>645</ele>
<time>2020-11-01T15:07:41Z</time>
</trkpt>
<trkpt lat=\'40.23004913330078\' lon=\'-6.081233501434326\'>
<ele>643</ele>
<time>2020-11-01T15:07:43Z</time>
</trkpt>
<trkpt lat=\'40.23001480102539\' lon=\'-6.080933570861816\'>
<ele>643</ele>
<time>2020-11-01T15:07:45Z</time>
</trkpt>
<trkpt lat=\'40.22999954223633\' lon=\'-6.0806498527526855\'>
<ele>646</ele>
<time>2020-11-01T15:07:47Z</time>
</trkpt>
<trkpt lat=\'40.22999954223633\' lon=\'-6.08038330078125\'>
<ele>649</ele>
<time>2020-11-01T15:07:49Z</time>
</trkpt>
<trkpt lat=\'40.229984283447266\' lon=\'-6.080100059509277\'>
<ele>650</ele>
<time>2020-11-01T15:07:51Z</time>
</trkpt>
<trkpt lat=\'40.22999954223633\' lon=\'-6.079816818237305\'>
<ele>651</ele>
<time>2020-11-01T15:07:53Z</time>
</trkpt>
<trkpt lat=\'40.229984283447266\' lon=\'-6.079549789428711\'>
<ele>653</ele>
<time>2020-11-01T15:07:55Z</time>
</trkpt>
<trkpt lat=\'40.229949951171875\' lon=\'-6.079283237457275\'>
<ele>652</ele>
<time>2020-11-01T15:07:57Z</time>
</trkpt>
<trkpt lat=\'40.229915618896484\' lon=\'-6.07901668548584\'>
<ele>650</ele>
<time>2020-11-01T15:07:59Z</time>
</trkpt>
<trkpt lat=\'40.22988510131836\' lon=\'-6.078733444213867\'>
<ele>649</ele>
<time>2020-11-01T15:08:01Z</time>
</trkpt>
<trkpt lat=\'40.22985076904297\' lon=\'-6.078466892242432\'>
<ele>647</ele>
<time>2020-11-01T15:08:03Z</time>
</trkpt>
<trkpt lat=\'40.229801177978516\' lon=\'-6.078183174133301\'>
<ele>646</ele>
<time>2020-11-01T15:08:05Z</time>
</trkpt>
<trkpt lat=\'40.229766845703125\' lon=\'-6.077899932861328\'>
<ele>645</ele>
<time>2020-11-01T15:08:07Z</time>
</trkpt>
<trkpt lat=\'40.229732513427734\' lon=\'-6.077633380889893\'>
<ele>646</ele>
<time>2020-11-01T15:08:09Z</time>
</trkpt>
<trkpt lat=\'40.229698181152344\' lon=\'-6.077366828918457\'>
<ele>644</ele>
<time>2020-11-01T15:08:11Z</time>
</trkpt>
<trkpt lat=\'40.22968292236328\' lon=\'-6.077083110809326\'>
<ele>643</ele>
<time>2020-11-01T15:08:13Z</time>
</trkpt>
<trkpt lat=\'40.22964859008789\' lon=\'-6.0767998695373535\'>
<ele>645</ele>
<time>2020-11-01T15:08:15Z</time>
</trkpt>
<trkpt lat=\'40.229618072509766\' lon=\'-6.076533317565918\'>
<ele>645</ele>
<time>2020-11-01T15:08:17Z</time>
</trkpt>
<trkpt lat=\'40.22959899902344\' lon=\'-6.076250076293945\'>
<ele>644</ele>
<time>2020-11-01T15:08:19Z</time>
</trkpt>
<trkpt lat=\'40.22956848144531\' lon=\'-6.075966835021973\'>
<ele>644</ele>
<time>2020-11-01T15:08:21Z</time>
</trkpt>
<trkpt lat=\'40.22953414916992\' lon=\'-6.075683116912842\'>
<ele>642</ele>
<time>2020-11-01T15:08:23Z</time>
</trkpt>
<trkpt lat=\'40.229515075683594\' lon=\'-6.075383186340332\'>
<ele>642</ele>
<time>2020-11-01T15:08:25Z</time>
</trkpt>
<trkpt lat=\'40.22948455810547\' lon=\'-6.075099945068359\'>
<ele>643</ele>
<time>2020-11-01T15:08:27Z</time>
</trkpt>
<trkpt lat=\'40.22945022583008\' lon=\'-6.074816703796387\'>
<ele>645</ele>
<time>2020-11-01T15:08:29Z</time>
</trkpt>
<trkpt lat=\'40.229434967041016\' lon=\'-6.074533462524414\'>
<ele>646</ele>
<time>2020-11-01T15:08:31Z</time>
</trkpt>
<trkpt lat=\'40.229434967041016\' lon=\'-6.074250221252441\'>
<ele>647</ele>
<time>2020-11-01T15:08:33Z</time>
</trkpt>
<trkpt lat=\'40.229434967041016\' lon=\'-6.073949813842773\'>
<ele>648</ele>
<time>2020-11-01T15:08:35Z</time>
</trkpt>
<trkpt lat=\'40.22945022583008\' lon=\'-6.073666572570801\'>
<ele>649</ele>
<time>2020-11-01T15:08:37Z</time>
</trkpt>
<trkpt lat=\'40.229434967041016\' lon=\'-6.073383331298828\'>
<ele>650</ele>
<time>2020-11-01T15:08:39Z</time>
</trkpt>
<trkpt lat=\'40.229434967041016\' lon=\'-6.073083400726318\'>
<ele>650</ele>
<time>2020-11-01T15:08:41Z</time>
</trkpt>
<trkpt lat=\'40.22945022583008\' lon=\'-6.072800159454346\'>
<ele>650</ele>
<time>2020-11-01T15:08:43Z</time>
</trkpt>
<trkpt lat=\'40.22945022583008\' lon=\'-6.072500228881836\'>
<ele>650</ele>
<time>2020-11-01T15:08:45Z</time>
</trkpt>
<trkpt lat=\'40.229434967041016\' lon=\'-6.072216510772705\'>
<ele>653</ele>
<time>2020-11-01T15:08:47Z</time>
</trkpt>
<trkpt lat=\'40.229434967041016\' lon=\'-6.071916580200195\'>
<ele>654</ele>
<time>2020-11-01T15:08:49Z</time>
</trkpt>
<trkpt lat=\'40.229434967041016\' lon=\'-6.071633338928223\'>
<ele>655</ele>
<time>2020-11-01T15:08:51Z</time>
</trkpt>
<trkpt lat=\'40.229434967041016\' lon=\'-6.07135009765625\'>
<ele>656</ele>
<time>2020-11-01T15:08:53Z</time>
</trkpt>
<trkpt lat=\'40.229434967041016\' lon=\'-6.071066856384277\'>
<ele>656</ele>
<time>2020-11-01T15:08:55Z</time>
</trkpt>
<trkpt lat=\'40.229434967041016\' lon=\'-6.0707831382751465\'>
<ele>656</ele>
<time>2020-11-01T15:08:57Z</time>
</trkpt>
<trkpt lat=\'40.229434967041016\' lon=\'-6.070499897003174\'>
<ele>656</ele>
<time>2020-11-01T15:08:59Z</time>
</trkpt>
<trkpt lat=\'40.22945022583008\' lon=\'-6.070183277130127\'>
<ele>657</ele>
<time>2020-11-01T15:09:01Z</time>
</trkpt>
<trkpt lat=\'40.22945022583008\' lon=\'-6.069900035858154\'>
<ele>660</ele>
<time>2020-11-01T15:09:03Z</time>
</trkpt>
<trkpt lat=\'40.22946548461914\' lon=\'-6.069633483886719\'>
<ele>664</ele>
<time>2020-11-01T15:09:05Z</time>
</trkpt>
<trkpt lat=\'40.22948455810547\' lon=\'-6.069366455078125\'>
<ele>666</ele>
<time>2020-11-01T15:09:07Z</time>
</trkpt>
<trkpt lat=\'40.22949981689453\' lon=\'-6.069083213806152\'>
<ele>669</ele>
<time>2020-11-01T15:09:09Z</time>
</trkpt>
<trkpt lat=\'40.229515075683594\' lon=\'-6.06879997253418\'>
<ele>670</ele>
<time>2020-11-01T15:09:11Z</time>
</trkpt>
<trkpt lat=\'40.229549407958984\' lon=\'-6.068516731262207\'>
<ele>671</ele>
<time>2020-11-01T15:09:13Z</time>
</trkpt>
<trkpt lat=\'40.22956848144531\' lon=\'-6.068216800689697\'>
<ele>673</ele>
<time>2020-11-01T15:09:15Z</time>
</trkpt>
<trkpt lat=\'40.22956848144531\' lon=\'-6.0679497718811035\'>
<ele>676</ele>
<time>2020-11-01T15:09:17Z</time>
</trkpt>
<trkpt lat=\'40.229583740234375\' lon=\'-6.067666530609131\'>
<ele>676</ele>
<time>2020-11-01T15:09:19Z</time>
</trkpt>
<trkpt lat=\'40.22959899902344\' lon=\'-6.067349910736084\'>
<ele>676</ele>
<time>2020-11-01T15:09:21Z</time>
</trkpt>
<trkpt lat=\'40.229618072509766\' lon=\'-6.067066669464111\'>
<ele>679</ele>
<time>2020-11-01T15:09:23Z</time>
</trkpt>
<trkpt lat=\'40.22963333129883\' lon=\'-6.066800117492676\'>
<ele>679</ele>
<time>2020-11-01T15:09:25Z</time>
</trkpt>
<trkpt lat=\'40.22964859008789\' lon=\'-6.066516876220703\'>
<ele>678</ele>
<time>2020-11-01T15:09:27Z</time>
</trkpt>
<trkpt lat=\'40.22968292236328\' lon=\'-6.066199779510498\'>
<ele>676</ele>
<time>2020-11-01T15:09:29Z</time>
</trkpt>
<trkpt lat=\'40.229732513427734\' lon=\'-6.065916538238525\'>
<ele>676</ele>
<time>2020-11-01T15:09:31Z</time>
</trkpt>
<trkpt lat=\'40.229732513427734\' lon=\'-6.065633296966553\'>
<ele>676</ele>
<time>2020-11-01T15:09:33Z</time>
</trkpt>
<trkpt lat=\'40.229732513427734\' lon=\'-6.06535005569458\'>
<ele>676</ele>
<time>2020-11-01T15:09:35Z</time>
</trkpt>
<trkpt lat=\'40.22975158691406\' lon=\'-6.06505012512207\'>
<ele>676</ele>
<time>2020-11-01T15:09:37Z</time>
</trkpt>
<trkpt lat=\'40.229732513427734\' lon=\'-6.064766883850098\'>
<ele>676</ele>
<time>2020-11-01T15:09:39Z</time>
</trkpt>
<trkpt lat=\'40.22971725463867\' lon=\'-6.064516544342041\'>
<ele>672</ele>
<time>2020-11-01T15:09:41Z</time>
</trkpt>
<trkpt lat=\'40.22966766357422\' lon=\'-6.064216613769531\'>
<ele>666</ele>
<time>2020-11-01T15:09:43Z</time>
</trkpt>
<trkpt lat=\'40.229583740234375\' lon=\'-6.0639166831970215\'>
<ele>664</ele>
<time>2020-11-01T15:09:45Z</time>
</trkpt>
<trkpt lat=\'40.229549407958984\' lon=\'-6.063650131225586\'>
<ele>666</ele>
<time>2020-11-01T15:09:47Z</time>
</trkpt>
<trkpt lat=\'40.229515075683594\' lon=\'-6.063399791717529\'>
<ele>666</ele>
<time>2020-11-01T15:09:49Z</time>
</trkpt>
<trkpt lat=\'40.22948455810547\' lon=\'-6.063116550445557\'>
<ele>663</ele>
<time>2020-11-01T15:09:51Z</time>
</trkpt>
<trkpt lat=\'40.22946548461914\' lon=\'-6.062816619873047\'>
<ele>661</ele>
<time>2020-11-01T15:09:53Z</time>
</trkpt>
<trkpt lat=\'40.22941589355469\' lon=\'-6.062550067901611\'>
<ele>661</ele>
<time>2020-11-01T15:09:55Z</time>
</trkpt>
<trkpt lat=\'40.2293815612793\' lon=\'-6.062283515930176\'>
<ele>660</ele>
<time>2020-11-01T15:09:57Z</time>
</trkpt>
<trkpt lat=\'40.229331970214844\' lon=\'-6.061999797821045\'>
<ele>659</ele>
<time>2020-11-01T15:09:59Z</time>
</trkpt>
<trkpt lat=\'40.22928237915039\' lon=\'-6.061716556549072\'>
<ele>659</ele>
<time>2020-11-01T15:10:01Z</time>
</trkpt>
<trkpt lat=\'40.229217529296875\' lon=\'-6.0614333152771\'>
<ele>659</ele>
<time>2020-11-01T15:10:03Z</time>
</trkpt>
<trkpt lat=\'40.229217529296875\' lon=\'-6.061150074005127\'>
<ele>659</ele>
<time>2020-11-01T15:10:05Z</time>
</trkpt>
<trkpt lat=\'40.229217529296875\' lon=\'-6.060866832733154\'>
<ele>660</ele>
<time>2020-11-01T15:10:07Z</time>
</trkpt>
<trkpt lat=\'40.229183197021484\' lon=\'-6.060583114624023\'>
<ele>661</ele>
<time>2020-11-01T15:10:09Z</time>
</trkpt>
<trkpt lat=\'40.22916793823242\' lon=\'-6.060316562652588\'>
<ele>660</ele>
<time>2020-11-01T15:10:11Z</time>
</trkpt>
<trkpt lat=\'40.22913360595703\' lon=\'-6.060016632080078\'>
<ele>660</ele>
<time>2020-11-01T15:10:13Z</time>
</trkpt>
<trkpt lat=\'40.22909927368164\' lon=\'-6.0597333908081055\'>
<ele>661</ele>
<time>2020-11-01T15:10:15Z</time>
</trkpt>
<trkpt lat=\'40.22909927368164\' lon=\'-6.05946683883667\'>
<ele>663</ele>
<time>2020-11-01T15:10:17Z</time>
</trkpt>
<trkpt lat=\'40.22906494140625\' lon=\'-6.059199810028076\'>
<ele>663</ele>
<time>2020-11-01T15:10:19Z</time>
</trkpt>
<trkpt lat=\'40.229034423828125\' lon=\'-6.058933258056641\'>
<ele>662</ele>
<time>2020-11-01T15:10:21Z</time>
</trkpt>
<trkpt lat=\'40.229000091552734\' lon=\'-6.058650016784668\'>
<ele>662</ele>
<time>2020-11-01T15:10:23Z</time>
</trkpt>
<trkpt lat=\'40.228965759277344\' lon=\'-6.058366775512695\'>
<ele>663</ele>
<time>2020-11-01T15:10:25Z</time>
</trkpt>
<trkpt lat=\'40.22893524169922\' lon=\'-6.058116436004639\'>
<ele>662</ele>
<time>2020-11-01T15:10:27Z</time>
</trkpt>
<trkpt lat=\'40.2288818359375\' lon=\'-6.057833194732666\'>
<ele>659</ele>
<time>2020-11-01T15:10:29Z</time>
</trkpt>
<trkpt lat=\'40.22883224487305\' lon=\'-6.0575666427612305\'>
<ele>659</ele>
<time>2020-11-01T15:10:31Z</time>
</trkpt>
<trkpt lat=\'40.228782653808594\' lon=\'-6.057300090789795\'>
<ele>659</ele>
<time>2020-11-01T15:10:33Z</time>
</trkpt>
<trkpt lat=\'40.22876739501953\' lon=\'-6.057033538818359\'>
<ele>659</ele>
<time>2020-11-01T15:10:35Z</time>
</trkpt>
<trkpt lat=\'40.2287483215332\' lon=\'-6.0567498207092285\'>
<ele>661</ele>
<time>2020-11-01T15:10:37Z</time>
</trkpt>
<trkpt lat=\'40.2287483215332\' lon=\'-6.056483268737793\'>
<ele>662</ele>
<time>2020-11-01T15:10:39Z</time>
</trkpt>
<trkpt lat=\'40.22876739501953\' lon=\'-6.056216716766357\'>
<ele>663</ele>
<time>2020-11-01T15:10:41Z</time>
</trkpt>
<trkpt lat=\'40.228782653808594\' lon=\'-6.055933475494385\'>
<ele>664</ele>
<time>2020-11-01T15:10:43Z</time>
</trkpt>
<trkpt lat=\'40.228816986083984\' lon=\'-6.055666446685791\'>
<ele>666</ele>
<time>2020-11-01T15:10:45Z</time>
</trkpt>
<trkpt lat=\'40.22886657714844\' lon=\'-6.055416584014893\'>
<ele>667</ele>
<time>2020-11-01T15:10:47Z</time>
</trkpt>
<trkpt lat=\'40.22891616821289\' lon=\'-6.055150032043457\'>
<ele>669</ele>
<time>2020-11-01T15:10:49Z</time>
</trkpt>
<trkpt lat=\'40.22895050048828\' lon=\'-6.0548834800720215\'>
<ele>671</ele>
<time>2020-11-01T15:10:51Z</time>
</trkpt>
<trkpt lat=\'40.22898483276367\' lon=\'-6.054633140563965\'>
<ele>673</ele>
<time>2020-11-01T15:10:53Z</time>
</trkpt>
<trkpt lat=\'40.2290153503418\' lon=\'-6.054349899291992\'>
<ele>674</ele>
<time>2020-11-01T15:10:55Z</time>
</trkpt>
<trkpt lat=\'40.229034423828125\' lon=\'-6.054083347320557\'>
<ele>676</ele>
<time>2020-11-01T15:10:57Z</time>
</trkpt>
<trkpt lat=\'40.22906494140625\' lon=\'-6.053816795349121\'>
<ele>677</ele>
<time>2020-11-01T15:10:59Z</time>
</trkpt>
<trkpt lat=\'40.22908401489258\' lon=\'-6.053549766540527\'>
<ele>678</ele>
<time>2020-11-01T15:11:01Z</time>
</trkpt>
<trkpt lat=\'40.22909927368164\' lon=\'-6.053266525268555\'>
<ele>679</ele>
<time>2020-11-01T15:11:03Z</time>
</trkpt>
<trkpt lat=\'40.22913360595703\' lon=\'-6.052983283996582\'>
<ele>681</ele>
<time>2020-11-01T15:11:05Z</time>
</trkpt>
<trkpt lat=\'40.229183197021484\' lon=\'-6.0527167320251465\'>
<ele>683</ele>
<time>2020-11-01T15:11:07Z</time>
</trkpt>
<trkpt lat=\'40.22919845581055\' lon=\'-6.052433490753174\'>
<ele>685</ele>
<time>2020-11-01T15:11:09Z</time>
</trkpt>
<trkpt lat=\'40.229217529296875\' lon=\'-6.052183151245117\'>
<ele>687</ele>
<time>2020-11-01T15:11:11Z</time>
</trkpt>
<trkpt lat=\'40.22926712036133\' lon=\'-6.051916599273682\'>
<ele>687</ele>
<time>2020-11-01T15:11:13Z</time>
</trkpt>
<trkpt lat=\'40.22931671142578\' lon=\'-6.051633358001709\'>
<ele>688</ele>
<time>2020-11-01T15:11:15Z</time>
</trkpt>
<trkpt lat=\'40.229331970214844\' lon=\'-6.051366806030273\'>
<ele>691</ele>
<time>2020-11-01T15:11:17Z</time>
</trkpt>
<trkpt lat=\'40.229366302490234\' lon=\'-6.051083564758301\'>
<ele>692</ele>
<time>2020-11-01T15:11:19Z</time>
</trkpt>
<trkpt lat=\'40.229400634765625\' lon=\'-6.050816535949707\'>
<ele>692</ele>
<time>2020-11-01T15:11:21Z</time>
</trkpt>
<trkpt lat=\'40.22941589355469\' lon=\'-6.050516605377197\'>
<ele>693</ele>
<time>2020-11-01T15:11:23Z</time>
</trkpt>
<trkpt lat=\'40.22945022583008\' lon=\'-6.050233364105225\'>
<ele>694</ele>
<time>2020-11-01T15:11:25Z</time>
</trkpt>
<trkpt lat=\'40.22949981689453\' lon=\'-6.049966812133789\'>
<ele>693</ele>
<time>2020-11-01T15:11:27Z</time>
</trkpt>
<trkpt lat=\'40.229549407958984\' lon=\'-6.049683570861816\'>
<ele>693</ele>
<time>2020-11-01T15:11:29Z</time>
</trkpt>
<trkpt lat=\'40.229583740234375\' lon=\'-6.049416542053223\'>
<ele>693</ele>
<time>2020-11-01T15:11:31Z</time>
</trkpt>
<trkpt lat=\'40.22963333129883\' lon=\'-6.049149990081787\'>
<ele>694</ele>
<time>2020-11-01T15:11:33Z</time>
</trkpt>
<trkpt lat=\'40.22963333129883\' lon=\'-6.048883438110352\'>
<ele>695</ele>
<time>2020-11-01T15:11:35Z</time>
</trkpt>
<trkpt lat=\'40.22966766357422\' lon=\'-6.048616886138916\'>
<ele>697</ele>
<time>2020-11-01T15:11:37Z</time>
</trkpt>
<trkpt lat=\'40.22968292236328\' lon=\'-6.048333168029785\'>
<ele>697</ele>
<time>2020-11-01T15:11:39Z</time>
</trkpt>
<trkpt lat=\'40.22968292236328\' lon=\'-6.0480499267578125\'>
<ele>698</ele>
<time>2020-11-01T15:11:41Z</time>
</trkpt>
<trkpt lat=\'40.229698181152344\' lon=\'-6.04776668548584\'>
<ele>700</ele>
<time>2020-11-01T15:11:43Z</time>
</trkpt>
<trkpt lat=\'40.22966766357422\' lon=\'-6.047483444213867\'>
<ele>703</ele>
<time>2020-11-01T15:11:45Z</time>
</trkpt>
<trkpt lat=\'40.22964859008789\' lon=\'-6.0472002029418945\'>
<ele>706</ele>
<time>2020-11-01T15:11:47Z</time>
</trkpt>
<trkpt lat=\'40.22964859008789\' lon=\'-6.046916484832764\'>
<ele>708</ele>
<time>2020-11-01T15:11:49Z</time>
</trkpt>
<trkpt lat=\'40.22959899902344\' lon=\'-6.046616554260254\'>
<ele>708</ele>
<time>2020-11-01T15:11:51Z</time>
</trkpt>
<trkpt lat=\'40.229583740234375\' lon=\'-6.046316623687744\'>
<ele>711</ele>
<time>2020-11-01T15:11:53Z</time>
</trkpt>
<trkpt lat=\'40.229583740234375\' lon=\'-6.0460333824157715\'>
<ele>714</ele>
<time>2020-11-01T15:11:55Z</time>
</trkpt>
<trkpt lat=\'40.229583740234375\' lon=\'-6.045750141143799\'>
<ele>714</ele>
<time>2020-11-01T15:11:57Z</time>
</trkpt>
<trkpt lat=\'40.22959899902344\' lon=\'-6.045450210571289\'>
<ele>714</ele>
<time>2020-11-01T15:11:59Z</time>
</trkpt>
<trkpt lat=\'40.22959899902344\' lon=\'-6.045149803161621\'>
<ele>715</ele>
<time>2020-11-01T15:12:01Z</time>
</trkpt>
<trkpt lat=\'40.229583740234375\' lon=\'-6.0448832511901855\'>
<ele>717</ele>
<time>2020-11-01T15:12:03Z</time>
</trkpt>
<trkpt lat=\'40.22956848144531\' lon=\'-6.04461669921875\'>
<ele>717</ele>
<time>2020-11-01T15:12:05Z</time>
</trkpt>
<trkpt lat=\'40.22956848144531\' lon=\'-6.044333457946777\'>
<ele>717</ele>
<time>2020-11-01T15:12:07Z</time>
</trkpt>
<trkpt lat=\'40.22956848144531\' lon=\'-6.044083118438721\'>
<ele>717</ele>
<time>2020-11-01T15:12:09Z</time>
</trkpt>
<trkpt lat=\'40.22956848144531\' lon=\'-6.043816566467285\'>
<ele>713</ele>
<time>2020-11-01T15:12:11Z</time>
</trkpt>
<trkpt lat=\'40.229549407958984\' lon=\'-6.043516635894775\'>
<ele>710</ele>
<time>2020-11-01T15:12:13Z</time>
</trkpt>
<trkpt lat=\'40.22953414916992\' lon=\'-6.043233394622803\'>
<ele>711</ele>
<time>2020-11-01T15:12:15Z</time>
</trkpt>
<trkpt lat=\'40.22953414916992\' lon=\'-6.042983531951904\'>
<ele>713</ele>
<time>2020-11-01T15:12:17Z</time>
</trkpt>
<trkpt lat=\'40.22953414916992\' lon=\'-6.0427165031433105\'>
<ele>712</ele>
<time>2020-11-01T15:12:19Z</time>
</trkpt>
<trkpt lat=\'40.229515075683594\' lon=\'-6.042433261871338\'>
<ele>712</ele>
<time>2020-11-01T15:12:21Z</time>
</trkpt>
<trkpt lat=\'40.22949981689453\' lon=\'-6.042150020599365\'>
<ele>715</ele>
<time>2020-11-01T15:12:23Z</time>
</trkpt>
<trkpt lat=\'40.22948455810547\' lon=\'-6.04188346862793\'>
<ele>717</ele>
<time>2020-11-01T15:12:25Z</time>
</trkpt>
<trkpt lat=\'40.22946548461914\' lon=\'-6.041616439819336\'>
<ele>717</ele>
<time>2020-11-01T15:12:27Z</time>
</trkpt>
<trkpt lat=\'40.229434967041016\' lon=\'-6.041333198547363\'>
<ele>718</ele>
<time>2020-11-01T15:12:29Z</time>
</trkpt>
<trkpt lat=\'40.22941589355469\' lon=\'-6.041049957275391\'>
<ele>718</ele>
<time>2020-11-01T15:12:31Z</time>
</trkpt>
<trkpt lat=\'40.229400634765625\' lon=\'-6.040766716003418\'>
<ele>718</ele>
<time>2020-11-01T15:12:33Z</time>
</trkpt>
<trkpt lat=\'40.2293815612793\' lon=\'-6.040483474731445\'>
<ele>720</ele>
<time>2020-11-01T15:12:35Z</time>
</trkpt>
<trkpt lat=\'40.229400634765625\' lon=\'-6.040200233459473\'>
<ele>721</ele>
<time>2020-11-01T15:12:37Z</time>
</trkpt>
<trkpt lat=\'40.229400634765625\' lon=\'-6.039916515350342\'>
<ele>722</ele>
<time>2020-11-01T15:12:39Z</time>
</trkpt>
<trkpt lat=\'40.22941589355469\' lon=\'-6.039649963378906\'>
<ele>724</ele>
<time>2020-11-01T15:12:41Z</time>
</trkpt>
<trkpt lat=\'40.22945022583008\' lon=\'-6.039383411407471\'>
<ele>725</ele>
<time>2020-11-01T15:12:43Z</time>
</trkpt>
<trkpt lat=\'40.22946548461914\' lon=\'-6.039116859436035\'>
<ele>725</ele>
<time>2020-11-01T15:12:45Z</time>
</trkpt>
<trkpt lat=\'40.22946548461914\' lon=\'-6.038833141326904\'>
<ele>725</ele>
<time>2020-11-01T15:12:47Z</time>
</trkpt>
<trkpt lat=\'40.22945022583008\' lon=\'-6.038549900054932\'>
<ele>726</ele>
<time>2020-11-01T15:12:49Z</time>
</trkpt>
<trkpt lat=\'40.22941589355469\' lon=\'-6.038266658782959\'>
<ele>729</ele>
<time>2020-11-01T15:12:51Z</time>
</trkpt>
<trkpt lat=\'40.22941589355469\' lon=\'-6.037966728210449\'>
<ele>732</ele>
<time>2020-11-01T15:12:53Z</time>
</trkpt>
<trkpt lat=\'40.229400634765625\' lon=\'-6.0376667976379395\'>
<ele>735</ele>
<time>2020-11-01T15:12:55Z</time>
</trkpt>
<trkpt lat=\'40.2293815612793\' lon=\'-6.037399768829346\'>
<ele>739</ele>
<time>2020-11-01T15:12:57Z</time>
</trkpt>
<trkpt lat=\'40.229400634765625\' lon=\'-6.037099838256836\'>
<ele>740</ele>
<time>2020-11-01T15:12:59Z</time>
</trkpt>
<trkpt lat=\'40.2293815612793\' lon=\'-6.036799907684326\'>
<ele>743</ele>
<time>2020-11-01T15:13:01Z</time>
</trkpt>
<trkpt lat=\'40.229366302490234\' lon=\'-6.0365166664123535\'>
<ele>746</ele>
<time>2020-11-01T15:13:03Z</time>
</trkpt>
<trkpt lat=\'40.2293815612793\' lon=\'-6.036233425140381\'>
<ele>749</ele>
<time>2020-11-01T15:13:05Z</time>
</trkpt>
<trkpt lat=\'40.2293815612793\' lon=\'-6.035933494567871\'>
<ele>751</ele>
<time>2020-11-01T15:13:07Z</time>
</trkpt>
<trkpt lat=\'40.229366302490234\' lon=\'-6.03564977645874\'>
<ele>753</ele>
<time>2020-11-01T15:13:09Z</time>
</trkpt>
<trkpt lat=\'40.22935104370117\' lon=\'-6.0353498458862305\'>
<ele>756</ele>
<time>2020-11-01T15:13:11Z</time>
</trkpt>
<trkpt lat=\'40.229331970214844\' lon=\'-6.035066604614258\'>
<ele>758</ele>
<time>2020-11-01T15:13:13Z</time>
</trkpt>
<trkpt lat=\'40.22928237915039\' lon=\'-6.034783363342285\'>
<ele>759</ele>
<time>2020-11-01T15:13:15Z</time>
</trkpt>
<trkpt lat=\'40.22926712036133\' lon=\'-6.0345001220703125\'>
<ele>759</ele>
<time>2020-11-01T15:13:17Z</time>
</trkpt>
<trkpt lat=\'40.22923278808594\' lon=\'-6.034183502197266\'>
<ele>758</ele>
<time>2020-11-01T15:13:19Z</time>
</trkpt>
<trkpt lat=\'40.229183197021484\' lon=\'-6.033899784088135\'>
<ele>759</ele>
<time>2020-11-01T15:13:21Z</time>
</trkpt>
<trkpt lat=\'40.229148864746094\' lon=\'-6.033616542816162\'>
<ele>758</ele>
<time>2020-11-01T15:13:23Z</time>
</trkpt>
<trkpt lat=\'40.22911834716797\' lon=\'-6.0333333015441895\'>
<ele>758</ele>
<time>2020-11-01T15:13:25Z</time>
</trkpt>
<trkpt lat=\'40.22909927368164\' lon=\'-6.033050060272217\'>
<ele>757</ele>
<time>2020-11-01T15:13:27Z</time>
</trkpt>
<trkpt lat=\'40.22906494140625\' lon=\'-6.032766819000244\'>
<ele>755</ele>
<time>2020-11-01T15:13:29Z</time>
</trkpt>
<trkpt lat=\'40.2290153503418\' lon=\'-6.032466888427734\'>
<ele>755</ele>
<time>2020-11-01T15:13:31Z</time>
</trkpt>
<trkpt lat=\'40.228965759277344\' lon=\'-6.032199859619141\'>
<ele>755</ele>
<time>2020-11-01T15:13:33Z</time>
</trkpt>
<trkpt lat=\'40.22890090942383\' lon=\'-6.031933307647705\'>
<ele>754</ele>
<time>2020-11-01T15:13:35Z</time>
</trkpt>
<trkpt lat=\'40.228851318359375\' lon=\'-6.031650066375732\'>
<ele>754</ele>
<time>2020-11-01T15:13:37Z</time>
</trkpt>
<trkpt lat=\'40.22880172729492\' lon=\'-6.03136682510376\'>
<ele>757</ele>
<time>2020-11-01T15:13:39Z</time>
</trkpt>
<trkpt lat=\'40.22871780395508\' lon=\'-6.031116485595703\'>
<ele>760</ele>
<time>2020-11-01T15:13:41Z</time>
</trkpt>
<trkpt lat=\'40.228668212890625\' lon=\'-6.030849933624268\'>
<ele>760</ele>
<time>2020-11-01T15:13:43Z</time>
</trkpt>
<trkpt lat=\'40.228633880615234\' lon=\'-6.030550003051758\'>
<ele>762</ele>
<time>2020-11-01T15:13:45Z</time>
</trkpt>
<trkpt lat=\'40.22858428955078\' lon=\'-6.030300140380859\'>
<ele>765</ele>
<time>2020-11-01T15:13:47Z</time>
</trkpt>
<trkpt lat=\'40.22858428955078\' lon=\'-6.030033111572266\'>
<ele>765</ele>
<time>2020-11-01T15:13:49Z</time>
</trkpt>
<trkpt lat=\'40.22856521606445\' lon=\'-6.029749870300293\'>
<ele>765</ele>
<time>2020-11-01T15:13:51Z</time>
</trkpt>
<trkpt lat=\'40.22853469848633\' lon=\'-6.02946662902832\'>
<ele>767</ele>
<time>2020-11-01T15:13:53Z</time>
</trkpt>
<trkpt lat=\'40.22853469848633\' lon=\'-6.029183387756348\'>
<ele>768</ele>
<time>2020-11-01T15:13:55Z</time>
</trkpt>
<trkpt lat=\'40.228515625\' lon=\'-6.028900146484375\'>
<ele>768</ele>
<time>2020-11-01T15:13:57Z</time>
</trkpt>
<trkpt lat=\'40.228515625\' lon=\'-6.028616905212402\'>
<ele>767</ele>
<time>2020-11-01T15:13:59Z</time>
</trkpt>
<trkpt lat=\'40.228515625\' lon=\'-6.028316497802734\'>
<ele>767</ele>
<time>2020-11-01T15:14:01Z</time>
</trkpt>
<trkpt lat=\'40.22853469848633\' lon=\'-6.028016567230225\'>
<ele>768</ele>
<time>2020-11-01T15:14:03Z</time>
</trkpt>
<trkpt lat=\'40.22854995727539\' lon=\'-6.027733325958252\'>
<ele>769</ele>
<time>2020-11-01T15:14:05Z</time>
</trkpt>
<trkpt lat=\'40.22858428955078\' lon=\'-6.027433395385742\'>
<ele>768</ele>
<time>2020-11-01T15:14:07Z</time>
</trkpt>
<trkpt lat=\'40.228599548339844\' lon=\'-6.027116775512695\'>
<ele>768</ele>
<time>2020-11-01T15:14:09Z</time>
</trkpt>
<trkpt lat=\'40.2286491394043\' lon=\'-6.0268168449401855\'>
<ele>770</ele>
<time>2020-11-01T15:14:11Z</time>
</trkpt>
<trkpt lat=\'40.22871780395508\' lon=\'-6.026533126831055\'>
<ele>772</ele>
<time>2020-11-01T15:14:13Z</time>
</trkpt>
<trkpt lat=\'40.228782653808594\' lon=\'-6.026233196258545\'>
<ele>774</ele>
<time>2020-11-01T15:14:15Z</time>
</trkpt>
<trkpt lat=\'40.22886657714844\' lon=\'-6.025949954986572\'>
<ele>776</ele>
<time>2020-11-01T15:14:17Z</time>
</trkpt>
<trkpt lat=\'40.22891616821289\' lon=\'-6.0256500244140625\'>
<ele>779</ele>
<time>2020-11-01T15:14:19Z</time>
</trkpt>
<trkpt lat=\'40.228965759277344\' lon=\'-6.025383472442627\'>
<ele>781</ele>
<time>2020-11-01T15:14:21Z</time>
</trkpt>
<trkpt lat=\'40.229034423828125\' lon=\'-6.025100231170654\'>
<ele>780</ele>
<time>2020-11-01T15:14:23Z</time>
</trkpt>
<trkpt lat=\'40.22906494140625\' lon=\'-6.024816513061523\'>
<ele>780</ele>
<time>2020-11-01T15:14:25Z</time>
</trkpt>
<trkpt lat=\'40.22906494140625\' lon=\'-6.024516582489014\'>
<ele>779</ele>
<time>2020-11-01T15:14:27Z</time>
</trkpt>
<trkpt lat=\'40.22906494140625\' lon=\'-6.024233341217041\'>
<ele>777</ele>
<time>2020-11-01T15:14:29Z</time>
</trkpt>
<trkpt lat=\'40.22908401489258\' lon=\'-6.023916721343994\'>
<ele>775</ele>
<time>2020-11-01T15:14:31Z</time>
</trkpt>
<trkpt lat=\'40.22911834716797\' lon=\'-6.023616790771484\'>
<ele>775</ele>
<time>2020-11-01T15:14:33Z</time>
</trkpt>
<trkpt lat=\'40.22916793823242\' lon=\'-6.023333549499512\'>
<ele>776</ele>
<time>2020-11-01T15:14:35Z</time>
</trkpt>
<trkpt lat=\'40.22919845581055\' lon=\'-6.023033142089844\'>
<ele>776</ele>
<time>2020-11-01T15:14:37Z</time>
</trkpt>
<trkpt lat=\'40.22923278808594\' lon=\'-6.022749900817871\'>
<ele>775</ele>
<time>2020-11-01T15:14:39Z</time>
</trkpt>
<trkpt lat=\'40.229251861572266\' lon=\'-6.022449970245361\'>
<ele>774</ele>
<time>2020-11-01T15:14:41Z</time>
</trkpt>
<trkpt lat=\'40.22926712036133\' lon=\'-6.0221333503723145\'>
<ele>773</ele>
<time>2020-11-01T15:14:43Z</time>
</trkpt>
<trkpt lat=\'40.229331970214844\' lon=\'-6.021850109100342\'>
<ele>771</ele>
<time>2020-11-01T15:14:45Z</time>
</trkpt>
<trkpt lat=\'40.2293815612793\' lon=\'-6.021550178527832\'>
<ele>770</ele>
<time>2020-11-01T15:14:47Z</time>
</trkpt>
<trkpt lat=\'40.22941589355469\' lon=\'-6.021266460418701\'>
<ele>770</ele>
<time>2020-11-01T15:14:49Z</time>
</trkpt>
<trkpt lat=\'40.22945022583008\' lon=\'-6.020966529846191\'>
<ele>768</ele>
<time>2020-11-01T15:14:51Z</time>
</trkpt>
<trkpt lat=\'40.22948455810547\' lon=\'-6.0206499099731445\'>
<ele>768</ele>
<time>2020-11-01T15:14:53Z</time>
</trkpt>
<trkpt lat=\'40.22949981689453\' lon=\'-6.020366668701172\'>
<ele>770</ele>
<time>2020-11-01T15:14:55Z</time>
</trkpt>
<trkpt lat=\'40.229515075683594\' lon=\'-6.020100116729736\'>
<ele>770</ele>
<time>2020-11-01T15:14:57Z</time>
</trkpt>
<trkpt lat=\'40.229515075683594\' lon=\'-6.019800186157227\'>
<ele>768</ele>
<time>2020-11-01T15:14:59Z</time>
</trkpt>
<trkpt lat=\'40.22953414916992\' lon=\'-6.019499778747559\'>
<ele>766</ele>
<time>2020-11-01T15:15:01Z</time>
</trkpt>
<trkpt lat=\'40.229515075683594\' lon=\'-6.019216537475586\'>
<ele>766</ele>
<time>2020-11-01T15:15:03Z</time>
</trkpt>
<trkpt lat=\'40.22948455810547\' lon=\'-6.018916606903076\'>
<ele>766</ele>
<time>2020-11-01T15:15:05Z</time>
</trkpt>
<trkpt lat=\'40.22945022583008\' lon=\'-6.0186333656311035\'>
<ele>765</ele>
<time>2020-11-01T15:15:07Z</time>
</trkpt>
<trkpt lat=\'40.22941589355469\' lon=\'-6.018350124359131\'>
<ele>765</ele>
<time>2020-11-01T15:15:09Z</time>
</trkpt>
<trkpt lat=\'40.22941589355469\' lon=\'-6.018050193786621\'>
<ele>766</ele>
<time>2020-11-01T15:15:11Z</time>
</trkpt>
<trkpt lat=\'40.229434967041016\' lon=\'-6.01776647567749\'>
<ele>767</ele>
<time>2020-11-01T15:15:13Z</time>
</trkpt>
<trkpt lat=\'40.229434967041016\' lon=\'-6.017499923706055\'>
<ele>767</ele>
<time>2020-11-01T15:15:15Z</time>
</trkpt>
<trkpt lat=\'40.22946548461914\' lon=\'-6.017216682434082\'>
<ele>765</ele>
<time>2020-11-01T15:15:17Z</time>
</trkpt>
<trkpt lat=\'40.229515075683594\' lon=\'-6.016933441162109\'>
<ele>760</ele>
<time>2020-11-01T15:15:19Z</time>
</trkpt>
<trkpt lat=\'40.229549407958984\' lon=\'-6.0166335105896\'>
<ele>755</ele>
<time>2020-11-01T15:15:21Z</time>
</trkpt>
<trkpt lat=\'40.22963333129883\' lon=\'-6.016333103179932\'>
<ele>752</ele>
<time>2020-11-01T15:15:23Z</time>
</trkpt>
<trkpt lat=\'40.229698181152344\' lon=\'-6.016066551208496\'>
<ele>749</ele>
<time>2020-11-01T15:15:25Z</time>
</trkpt>
<trkpt lat=\'40.229766845703125\' lon=\'-6.015783309936523\'>
<ele>746</ele>
<time>2020-11-01T15:15:27Z</time>
</trkpt>
<trkpt lat=\'40.22983169555664\' lon=\'-6.015500068664551\'>
<ele>742</ele>
<time>2020-11-01T15:15:29Z</time>
</trkpt>
<trkpt lat=\'40.22990036010742\' lon=\'-6.015216827392578\'>
<ele>737</ele>
<time>2020-11-01T15:15:31Z</time>
</trkpt>
<trkpt lat=\'40.22996520996094\' lon=\'-6.014916896820068\'>
<ele>733</ele>
<time>2020-11-01T15:15:33Z</time>
</trkpt>
<trkpt lat=\'40.23001480102539\' lon=\'-6.0146164894104\'>
<ele>729</ele>
<time>2020-11-01T15:15:35Z</time>
</trkpt>
<trkpt lat=\'40.23006820678711\' lon=\'-6.014316558837891\'>
<ele>726</ele>
<time>2020-11-01T15:15:37Z</time>
</trkpt>
<trkpt lat=\'40.230133056640625\' lon=\'-6.014016628265381\'>
<ele>724</ele>
<time>2020-11-01T15:15:39Z</time>
</trkpt>
<trkpt lat=\'40.230167388916016\' lon=\'-6.013716697692871\'>
<ele>724</ele>
<time>2020-11-01T15:15:41Z</time>
</trkpt>
<trkpt lat=\'40.23021697998047\' lon=\'-6.013433456420898\'>
<ele>724</ele>
<time>2020-11-01T15:15:43Z</time>
</trkpt>
<trkpt lat=\'40.23025131225586\' lon=\'-6.013166904449463\'>
<ele>722</ele>
<time>2020-11-01T15:15:45Z</time>
</trkpt>
<trkpt lat=\'40.230281829833984\' lon=\'-6.012883186340332\'>
<ele>720</ele>
<time>2020-11-01T15:15:47Z</time>
</trkpt>
<trkpt lat=\'40.23030090332031\' lon=\'-6.012599945068359\'>
<ele>717</ele>
<time>2020-11-01T15:15:49Z</time>
</trkpt>
<trkpt lat=\'40.23033142089844\' lon=\'-6.012316703796387\'>
<ele>712</ele>
<time>2020-11-01T15:15:51Z</time>
</trkpt>
<trkpt lat=\'40.230350494384766\' lon=\'-6.012016773223877\'>
<ele>707</ele>
<time>2020-11-01T15:15:53Z</time>
</trkpt>
<trkpt lat=\'40.230384826660156\' lon=\'-6.01170015335083\'>
<ele>703</ele>
<time>2020-11-01T15:15:55Z</time>
</trkpt>
<trkpt lat=\'40.23043441772461\' lon=\'-6.011383533477783\'>
<ele>702</ele>
<time>2020-11-01T15:15:57Z</time>
</trkpt>
<trkpt lat=\'40.230499267578125\' lon=\'-6.011099815368652\'>
<ele>705</ele>
<time>2020-11-01T15:15:59Z</time>
</trkpt>
<trkpt lat=\'40.230567932128906\' lon=\'-6.010833263397217\'>
<ele>704</ele>
<time>2020-11-01T15:16:01Z</time>
</trkpt>
<trkpt lat=\'40.23063278198242\' lon=\'-6.010550022125244\'>
<ele>702</ele>
<time>2020-11-01T15:16:03Z</time>
</trkpt>
<trkpt lat=\'40.230716705322266\' lon=\'-6.010250091552734\'>
<ele>703</ele>
<time>2020-11-01T15:16:05Z</time>
</trkpt>
<trkpt lat=\'40.23078155517578\' lon=\'-6.009983539581299\'>
<ele>705</ele>
<time>2020-11-01T15:16:07Z</time>
</trkpt>
<trkpt lat=\'40.23085021972656\' lon=\'-6.009733200073242\'>
<ele>703</ele>
<time>2020-11-01T15:16:09Z</time>
</trkpt>
<trkpt lat=\'40.230934143066406\' lon=\'-6.009466648101807\'>
<ele>699</ele>
<time>2020-11-01T15:16:11Z</time>
</trkpt>
<trkpt lat=\'40.23099899291992\' lon=\'-6.009183406829834\'>
<ele>695</ele>
<time>2020-11-01T15:16:13Z</time>
</trkpt>
<trkpt lat=\'40.231048583984375\' lon=\'-6.008883476257324\'>
<ele>693</ele>
<time>2020-11-01T15:16:15Z</time>
</trkpt>
<trkpt lat=\'40.23109817504883\' lon=\'-6.0086164474487305\'>
<ele>692</ele>
<time>2020-11-01T15:16:17Z</time>
</trkpt>
<trkpt lat=\'40.23115158081055\' lon=\'-6.008349895477295\'>
<ele>689</ele>
<time>2020-11-01T15:16:19Z</time>
</trkpt>
<trkpt lat=\'40.231201171875\' lon=\'-6.008049964904785\'>
<ele>687</ele>
<time>2020-11-01T15:16:21Z</time>
</trkpt>
<trkpt lat=\'40.231266021728516\' lon=\'-6.0077667236328125\'>
<ele>686</ele>
<time>2020-11-01T15:16:23Z</time>
</trkpt>
<trkpt lat=\'40.2313346862793\' lon=\'-6.007500171661377\'>
<ele>688</ele>
<time>2020-11-01T15:16:25Z</time>
</trkpt>
<trkpt lat=\'40.23138427734375\' lon=\'-6.007233142852783\'>
<ele>689</ele>
<time>2020-11-01T15:16:27Z</time>
</trkpt>
<trkpt lat=\'40.23139953613281\' lon=\'-6.006983280181885\'>
<ele>690</ele>
<time>2020-11-01T15:16:29Z</time>
</trkpt>
<trkpt lat=\'40.2314338684082\' lon=\'-6.006700038909912\'>
<ele>690</ele>
<time>2020-11-01T15:16:31Z</time>
</trkpt>
<trkpt lat=\'40.231483459472656\' lon=\'-6.0064167976379395\'>
<ele>690</ele>
<time>2020-11-01T15:16:33Z</time>
</trkpt>
<trkpt lat=\'40.23154830932617\' lon=\'-6.006149768829346\'>
<ele>690</ele>
<time>2020-11-01T15:16:35Z</time>
</trkpt>
<trkpt lat=\'40.23161697387695\' lon=\'-6.00588321685791\'>
<ele>691</ele>
<time>2020-11-01T15:16:37Z</time>
</trkpt>
<trkpt lat=\'40.23168182373047\' lon=\'-6.005616664886475\'>
<ele>692</ele>
<time>2020-11-01T15:16:39Z</time>
</trkpt>
<trkpt lat=\'40.23176574707031\' lon=\'-6.005366802215576\'>
<ele>692</ele>
<time>2020-11-01T15:16:41Z</time>
</trkpt>
<trkpt lat=\'40.23186492919922\' lon=\'-6.0051164627075195\'>
<ele>690</ele>
<time>2020-11-01T15:16:43Z</time>
</trkpt>
<trkpt lat=\'40.23198318481445\' lon=\'-6.004866600036621\'>
<ele>689</ele>
<time>2020-11-01T15:16:45Z</time>
</trkpt>
<trkpt lat=\'40.23213195800781\' lon=\'-6.00463342666626\'>
<ele>690</ele>
<time>2020-11-01T15:16:47Z</time>
</trkpt>
<trkpt lat=\'40.23228454589844\' lon=\'-6.0044331550598145\'>
<ele>691</ele>
<time>2020-11-01T15:16:49Z</time>
</trkpt>
<trkpt lat=\'40.23244857788086\' lon=\'-6.004233360290527\'>
<ele>690</ele>
<time>2020-11-01T15:16:51Z</time>
</trkpt>
<trkpt lat=\'40.23263168334961\' lon=\'-6.00403356552124\'>
<ele>690</ele>
<time>2020-11-01T15:16:53Z</time>
</trkpt>
<trkpt lat=\'40.23283386230469\' lon=\'-6.003866672515869\'>
<ele>691</ele>
<time>2020-11-01T15:16:55Z</time>
</trkpt>
<trkpt lat=\'40.23301696777344\' lon=\'-6.003716468811035\'>
<ele>693</ele>
<time>2020-11-01T15:16:57Z</time>
</trkpt>
<trkpt lat=\'40.233184814453125\' lon=\'-6.003550052642822\'>
<ele>695</ele>
<time>2020-11-01T15:16:59Z</time>
</trkpt>
<trkpt lat=\'40.233333587646484\' lon=\'-6.003349781036377\'>
<ele>695</ele>
<time>2020-11-01T15:17:01Z</time>
</trkpt>
<trkpt lat=\'40.23346710205078\' lon=\'-6.003133296966553\'>
<ele>696</ele>
<time>2020-11-01T15:17:03Z</time>
</trkpt>
<trkpt lat=\'40.23358154296875\' lon=\'-6.002883434295654\'>
<ele>696</ele>
<time>2020-11-01T15:17:05Z</time>
</trkpt>
<trkpt lat=\'40.23368453979492\' lon=\'-6.002616882324219\'>
<ele>697</ele>
<time>2020-11-01T15:17:07Z</time>
</trkpt>
<trkpt lat=\'40.23374938964844\' lon=\'-6.002349853515625\'>
<ele>698</ele>
<time>2020-11-01T15:17:09Z</time>
</trkpt>
<trkpt lat=\'40.23379898071289\' lon=\'-6.0020833015441895\'>
<ele>700</ele>
<time>2020-11-01T15:17:11Z</time>
</trkpt>
<trkpt lat=\'40.23383331298828\' lon=\'-6.001800060272217\'>
<ele>701</ele>
<time>2020-11-01T15:17:13Z</time>
</trkpt>
<trkpt lat=\'40.233848571777344\' lon=\'-6.001516819000244\'>
<ele>701</ele>
<time>2020-11-01T15:17:15Z</time>
</trkpt>
<trkpt lat=\'40.233848571777344\' lon=\'-6.001233100891113\'>
<ele>701</ele>
<time>2020-11-01T15:17:17Z</time>
</trkpt>
<trkpt lat=\'40.23383331298828\' lon=\'-6.0009331703186035\'>
<ele>702</ele>
<time>2020-11-01T15:17:19Z</time>
</trkpt>
<trkpt lat=\'40.23383331298828\' lon=\'-6.000649929046631\'>
<ele>701</ele>
<time>2020-11-01T15:17:21Z</time>
</trkpt>
<trkpt lat=\'40.23383331298828\' lon=\'-6.000349998474121\'>
<ele>701</ele>
<time>2020-11-01T15:17:23Z</time>
</trkpt>
<trkpt lat=\'40.23383331298828\' lon=\'-6.000050067901611\'>
<ele>701</ele>
<time>2020-11-01T15:17:25Z</time>
</trkpt>
<trkpt lat=\'40.233848571777344\' lon=\'-5.999766826629639\'>
<ele>701</ele>
<time>2020-11-01T15:17:27Z</time>
</trkpt>
<trkpt lat=\'40.233882904052734\' lon=\'-5.999483108520508\'>
<ele>702</ele>
<time>2020-11-01T15:17:29Z</time>
</trkpt>
<trkpt lat=\'40.2338981628418\' lon=\'-5.999216556549072\'>
<ele>704</ele>
<time>2020-11-01T15:17:31Z</time>
</trkpt>
<trkpt lat=\'40.2338981628418\' lon=\'-5.9989166259765625\'>
<ele>705</ele>
<time>2020-11-01T15:17:33Z</time>
</trkpt>
<trkpt lat=\'40.2338981628418\' lon=\'-5.99863338470459\'>
<ele>707</ele>
<time>2020-11-01T15:17:35Z</time>
</trkpt>
<trkpt lat=\'40.233882904052734\' lon=\'-5.998350143432617\'>
<ele>708</ele>
<time>2020-11-01T15:17:37Z</time>
</trkpt>
<trkpt lat=\'40.233882904052734\' lon=\'-5.9980669021606445\'>
<ele>709</ele>
<time>2020-11-01T15:17:39Z</time>
</trkpt>
<trkpt lat=\'40.233882904052734\' lon=\'-5.997783184051514\'>
<ele>712</ele>
<time>2020-11-01T15:17:41Z</time>
</trkpt>
<trkpt lat=\'40.23386764526367\' lon=\'-5.997516632080078\'>
<ele>714</ele>
<time>2020-11-01T15:17:43Z</time>
</trkpt>
<trkpt lat=\'40.233848571777344\' lon=\'-5.9972333908081055\'>
<ele>716</ele>
<time>2020-11-01T15:17:45Z</time>
</trkpt>
<trkpt lat=\'40.23381805419922\' lon=\'-5.996950149536133\'>
<ele>717</ele>
<time>2020-11-01T15:17:47Z</time>
</trkpt>
<trkpt lat=\'40.23379898071289\' lon=\'-5.99666690826416\'>
<ele>720</ele>
<time>2020-11-01T15:17:49Z</time>
</trkpt>
<trkpt lat=\'40.23379898071289\' lon=\'-5.996383190155029\'>
<ele>721</ele>
<time>2020-11-01T15:17:51Z</time>
</trkpt>
<trkpt lat=\'40.23381805419922\' lon=\'-5.996116638183594\'>
<ele>722</ele>
<time>2020-11-01T15:17:53Z</time>
</trkpt>
<trkpt lat=\'40.23383331298828\' lon=\'-5.995833396911621\'>
<ele>723</ele>
<time>2020-11-01T15:17:55Z</time>
</trkpt>
<trkpt lat=\'40.233882904052734\' lon=\'-5.9955668449401855\'>
<ele>722</ele>
<time>2020-11-01T15:17:57Z</time>
</trkpt>
<trkpt lat=\'40.23393249511719\' lon=\'-5.995283126831055\'>
<ele>719</ele>
<time>2020-11-01T15:17:59Z</time>
</trkpt>
<trkpt lat=\'40.233951568603516\' lon=\'-5.994966506958008\'>
<ele>719</ele>
<time>2020-11-01T15:18:01Z</time>
</trkpt>
<trkpt lat=\'40.233951568603516\' lon=\'-5.994666576385498\'>
<ele>721</ele>
<time>2020-11-01T15:18:03Z</time>
</trkpt>
<trkpt lat=\'40.233951568603516\' lon=\'-5.994383335113525\'>
<ele>724</ele>
<time>2020-11-01T15:18:05Z</time>
</trkpt>
<trkpt lat=\'40.23396682739258\' lon=\'-5.994133472442627\'>
<ele>722</ele>
<time>2020-11-01T15:18:07Z</time>
</trkpt>
<trkpt lat=\'40.23396682739258\' lon=\'-5.993833541870117\'>
<ele>715</ele>
<time>2020-11-01T15:18:09Z</time>
</trkpt>
<trkpt lat=\'40.23398208618164\' lon=\'-5.993499755859375\'>
<ele>712</ele>
<time>2020-11-01T15:18:11Z</time>
</trkpt>
<trkpt lat=\'40.233951568603516\' lon=\'-5.993199825286865\'>
<ele>715</ele>
<time>2020-11-01T15:18:13Z</time>
</trkpt>
<trkpt lat=\'40.23393249511719\' lon=\'-5.992916584014893\'>
<ele>718</ele>
<time>2020-11-01T15:18:15Z</time>
</trkpt>
<trkpt lat=\'40.233951568603516\' lon=\'-5.99263334274292\'>
<ele>718</ele>
<time>2020-11-01T15:18:17Z</time>
</trkpt>
<trkpt lat=\'40.23396682739258\' lon=\'-5.992316722869873\'>
<ele>718</ele>
<time>2020-11-01T15:18:19Z</time>
</trkpt>
<trkpt lat=\'40.23396682739258\' lon=\'-5.9920334815979\'>
<ele>721</ele>
<time>2020-11-01T15:18:21Z</time>
</trkpt>
<trkpt lat=\'40.23398208618164\' lon=\'-5.9917497634887695\'>
<ele>722</ele>
<time>2020-11-01T15:18:23Z</time>
</trkpt>
<trkpt lat=\'40.23398208618164\' lon=\'-5.99144983291626\'>
<ele>723</ele>
<time>2020-11-01T15:18:25Z</time>
</trkpt>
<trkpt lat=\'40.23400115966797\' lon=\'-5.99114990234375\'>
<ele>724</ele>
<time>2020-11-01T15:18:27Z</time>
</trkpt>
<trkpt lat=\'40.23401641845703\' lon=\'-5.990866661071777\'>
<ele>725</ele>
<time>2020-11-01T15:18:29Z</time>
</trkpt>
<trkpt lat=\'40.234031677246094\' lon=\'-5.990600109100342\'>
<ele>723</ele>
<time>2020-11-01T15:18:31Z</time>
</trkpt>
<trkpt lat=\'40.23405075073242\' lon=\'-5.990283489227295\'>
<ele>721</ele>
<time>2020-11-01T15:18:33Z</time>
</trkpt>
<trkpt lat=\'40.234066009521484\' lon=\'-5.989983558654785\'>
<ele>722</ele>
<time>2020-11-01T15:18:35Z</time>
</trkpt>
<trkpt lat=\'40.23408508300781\' lon=\'-5.989699840545654\'>
<ele>724</ele>
<time>2020-11-01T15:18:37Z</time>
</trkpt>
<trkpt lat=\'40.23411560058594\' lon=\'-5.9893999099731445\'>
<ele>725</ele>
<time>2020-11-01T15:18:39Z</time>
</trkpt>
<trkpt lat=\'40.23416519165039\' lon=\'-5.989083290100098\'>
<ele>727</ele>
<time>2020-11-01T15:18:41Z</time>
</trkpt>
<trkpt lat=\'40.23419952392578\' lon=\'-5.988783359527588\'>
<ele>730</ele>
<time>2020-11-01T15:18:43Z</time>
</trkpt>
<trkpt lat=\'40.23419952392578\' lon=\'-5.988500118255615\'>
<ele>733</ele>
<time>2020-11-01T15:18:45Z</time>
</trkpt>
<trkpt lat=\'40.23423385620117\' lon=\'-5.988216400146484\'>
<ele>734</ele>
<time>2020-11-01T15:18:47Z</time>
</trkpt>
<trkpt lat=\'40.234249114990234\' lon=\'-5.987916946411133\'>
<ele>735</ele>
<time>2020-11-01T15:18:49Z</time>
</trkpt>
<trkpt lat=\'40.234249114990234\' lon=\'-5.987616539001465\'>
<ele>738</ele>
<time>2020-11-01T15:18:51Z</time>
</trkpt>
<trkpt lat=\'40.234249114990234\' lon=\'-5.987316608428955\'>
<ele>740</ele>
<time>2020-11-01T15:18:53Z</time>
</trkpt>
<trkpt lat=\'40.234249114990234\' lon=\'-5.987016677856445\'>
<ele>742</ele>
<time>2020-11-01T15:18:55Z</time>
</trkpt>
<trkpt lat=\'40.234214782714844\' lon=\'-5.986733436584473\'>
<ele>744</ele>
<time>2020-11-01T15:18:57Z</time>
</trkpt>
<trkpt lat=\'40.234214782714844\' lon=\'-5.9864501953125\'>
<ele>746</ele>
<time>2020-11-01T15:18:59Z</time>
</trkpt>
<trkpt lat=\'40.234214782714844\' lon=\'-5.986166477203369\'>
<ele>748</ele>
<time>2020-11-01T15:19:01Z</time>
</trkpt>
<trkpt lat=\'40.234214782714844\' lon=\'-5.9858832359313965\'>
<ele>749</ele>
<time>2020-11-01T15:19:03Z</time>
</trkpt>
<trkpt lat=\'40.23423385620117\' lon=\'-5.985583305358887\'>
<ele>750</ele>
<time>2020-11-01T15:19:05Z</time>
</trkpt>
<trkpt lat=\'40.23426818847656\' lon=\'-5.985300064086914\'>
<ele>753</ele>
<time>2020-11-01T15:19:07Z</time>
</trkpt>
<trkpt lat=\'40.23429870605469\' lon=\'-5.985016822814941\'>
<ele>755</ele>
<time>2020-11-01T15:19:09Z</time>
</trkpt>
<trkpt lat=\'40.23433303833008\' lon=\'-5.984733581542969\'>
<ele>757</ele>
<time>2020-11-01T15:19:11Z</time>
</trkpt>
<trkpt lat=\'40.23438262939453\' lon=\'-5.984433174133301\'>
<ele>758</ele>
<time>2020-11-01T15:19:13Z</time>
</trkpt>
<trkpt lat=\'40.23445129394531\' lon=\'-5.984166622161865\'>
<ele>760</ele>
<time>2020-11-01T15:19:15Z</time>
</trkpt>
<trkpt lat=\'40.234535217285156\' lon=\'-5.98390007019043\'>
<ele>762</ele>
<time>2020-11-01T15:19:17Z</time>
</trkpt>
<trkpt lat=\'40.234615325927734\' lon=\'-5.983633518218994\'>
<ele>765</ele>
<time>2020-11-01T15:19:19Z</time>
</trkpt>
<trkpt lat=\'40.234683990478516\' lon=\'-5.983349800109863\'>
<ele>767</ele>
<time>2020-11-01T15:19:21Z</time>
</trkpt>
<trkpt lat=\'40.23476791381836\' lon=\'-5.983083248138428\'>
<ele>770</ele>
<time>2020-11-01T15:19:23Z</time>
</trkpt>
<trkpt lat=\'40.234832763671875\' lon=\'-5.982800006866455\'>
<ele>772</ele>
<time>2020-11-01T15:19:25Z</time>
</trkpt>
<trkpt lat=\'40.234901428222656\' lon=\'-5.9825334548950195\'>
<ele>775</ele>
<time>2020-11-01T15:19:27Z</time>
</trkpt>
<trkpt lat=\'40.234981536865234\' lon=\'-5.982266426086426\'>
<ele>778</ele>
<time>2020-11-01T15:19:29Z</time>
</trkpt>
<trkpt lat=\'40.235050201416016\' lon=\'-5.981983184814453\'>
<ele>780</ele>
<time>2020-11-01T15:19:31Z</time>
</trkpt>
<trkpt lat=\'40.23513412475586\' lon=\'-5.981716632843018\'>
<ele>783</ele>
<time>2020-11-01T15:19:33Z</time>
</trkpt>
<trkpt lat=\'40.235233306884766\' lon=\'-5.981450080871582\'>
<ele>786</ele>
<time>2020-11-01T15:19:35Z</time>
</trkpt>
<trkpt lat=\'40.23531723022461\' lon=\'-5.981166839599609\'>
<ele>789</ele>
<time>2020-11-01T15:19:37Z</time>
</trkpt>
<trkpt lat=\'40.235416412353516\' lon=\'-5.980899810791016\'>
<ele>791</ele>
<time>2020-11-01T15:19:39Z</time>
</trkpt>
<trkpt lat=\'40.23553466796875\' lon=\'-5.980649948120117\'>
<ele>793</ele>
<time>2020-11-01T15:19:41Z</time>
</trkpt>
<trkpt lat=\'40.235633850097656\' lon=\'-5.9803667068481445\'>
<ele>796</ele>
<time>2020-11-01T15:19:43Z</time>
</trkpt>
<trkpt lat=\'40.235748291015625\' lon=\'-5.980133056640625\'>
<ele>799</ele>
<time>2020-11-01T15:19:45Z</time>
</trkpt>
<trkpt lat=\'40.2358512878418\' lon=\'-5.979899883270264\'>
<ele>800</ele>
<time>2020-11-01T15:19:47Z</time>
</trkpt>
<trkpt lat=\'40.2359504699707\' lon=\'-5.979650020599365\'>
<ele>801</ele>
<time>2020-11-01T15:19:49Z</time>
</trkpt>
<trkpt lat=\'40.23606491088867\' lon=\'-5.979400157928467\'>
<ele>802</ele>
<time>2020-11-01T15:19:51Z</time>
</trkpt>
<trkpt lat=\'40.236167907714844\' lon=\'-5.97914981842041\'>
<ele>804</ele>
<time>2020-11-01T15:19:53Z</time>
</trkpt>
<trkpt lat=\'40.23626708984375\' lon=\'-5.978899955749512\'>
<ele>805</ele>
<time>2020-11-01T15:19:55Z</time>
</trkpt>
<trkpt lat=\'40.23640060424805\' lon=\'-5.97866678237915\'>
<ele>806</ele>
<time>2020-11-01T15:19:57Z</time>
</trkpt>
<trkpt lat=\'40.236534118652344\' lon=\'-5.978433609008789\'>
<ele>808</ele>
<time>2020-11-01T15:19:59Z</time>
</trkpt>
<trkpt lat=\'40.23664855957031\' lon=\'-5.9781999588012695\'>
<ele>810</ele>
<time>2020-11-01T15:20:01Z</time>
</trkpt>
<trkpt lat=\'40.23678207397461\' lon=\'-5.977966785430908\'>
<ele>812</ele>
<time>2020-11-01T15:20:03Z</time>
</trkpt>
<trkpt lat=\'40.236900329589844\' lon=\'-5.977733612060547\'>
<ele>813</ele>
<time>2020-11-01T15:20:05Z</time>
</trkpt>
<trkpt lat=\'40.23701477050781\' lon=\'-5.97748327255249\'>
<ele>815</ele>
<time>2020-11-01T15:20:07Z</time>
</trkpt>
<trkpt lat=\'40.23713302612305\' lon=\'-5.977266788482666\'>
<ele>817</ele>
<time>2020-11-01T15:20:09Z</time>
</trkpt>
<trkpt lat=\'40.23725128173828\' lon=\'-5.977016448974609\'>
<ele>818</ele>
<time>2020-11-01T15:20:11Z</time>
</trkpt>
<trkpt lat=\'40.23738479614258\' lon=\'-5.976766586303711\'>
<ele>821</ele>
<time>2020-11-01T15:20:13Z</time>
</trkpt>
<trkpt lat=\'40.237518310546875\' lon=\'-5.976566791534424\'>
<ele>824</ele>
<time>2020-11-01T15:20:15Z</time>
</trkpt>
<trkpt lat=\'40.23765182495117\' lon=\'-5.9763336181640625\'>
<ele>826</ele>
<time>2020-11-01T15:20:17Z</time>
</trkpt>
<trkpt lat=\'40.23776626586914\' lon=\'-5.976066589355469\'>
<ele>828</ele>
<time>2020-11-01T15:20:19Z</time>
</trkpt>
<trkpt lat=\'40.23786544799805\' lon=\'-5.97581672668457\'>
<ele>832</ele>
<time>2020-11-01T15:20:21Z</time>
</trkpt>
<trkpt lat=\'40.23796844482422\' lon=\'-5.975583076477051\'>
<ele>834</ele>
<time>2020-11-01T15:20:23Z</time>
</trkpt>
<trkpt lat=\'40.238067626953125\' lon=\'-5.975333213806152\'>
<ele>835</ele>
<time>2020-11-01T15:20:25Z</time>
</trkpt>
<trkpt lat=\'40.23816680908203\' lon=\'-5.975066661834717\'>
<ele>838</ele>
<time>2020-11-01T15:20:27Z</time>
</trkpt>
<trkpt lat=\'40.23826599121094\' lon=\'-5.974816799163818\'>
<ele>841</ele>
<time>2020-11-01T15:20:29Z</time>
</trkpt>
<trkpt lat=\'40.238365173339844\' lon=\'-5.974566459655762\'>
<ele>843</ele>
<time>2020-11-01T15:20:31Z</time>
</trkpt>
<trkpt lat=\'40.23848342895508\' lon=\'-5.974316596984863\'>
<ele>845</ele>
<time>2020-11-01T15:20:33Z</time>
</trkpt>
<trkpt lat=\'40.238582611083984\' lon=\'-5.974066734313965\'>
<ele>848</ele>
<time>2020-11-01T15:20:35Z</time>
</trkpt>
<trkpt lat=\'40.23870086669922\' lon=\'-5.973816871643066\'>
<ele>851</ele>
<time>2020-11-01T15:20:37Z</time>
</trkpt>
<trkpt lat=\'40.238834381103516\' lon=\'-5.97356653213501\'>
<ele>852</ele>
<time>2020-11-01T15:20:39Z</time>
</trkpt>
<trkpt lat=\'40.238948822021484\' lon=\'-5.973316669464111\'>
<ele>853</ele>
<time>2020-11-01T15:20:41Z</time>
</trkpt>
<trkpt lat=\'40.23908233642578\' lon=\'-5.973066806793213\'>
<ele>855</ele>
<time>2020-11-01T15:20:43Z</time>
</trkpt>
<trkpt lat=\'40.23921585083008\' lon=\'-5.972833156585693\'>
<ele>858</ele>
<time>2020-11-01T15:20:45Z</time>
</trkpt>
<trkpt lat=\'40.23933410644531\' lon=\'-5.972599983215332\'>
<ele>859</ele>
<time>2020-11-01T15:20:47Z</time>
</trkpt>
<trkpt lat=\'40.23944854736328\' lon=\'-5.9723334312438965\'>
<ele>861</ele>
<time>2020-11-01T15:20:49Z</time>
</trkpt>
<trkpt lat=\'40.239566802978516\' lon=\'-5.972100257873535\'>
<ele>863</ele>
<time>2020-11-01T15:20:51Z</time>
</trkpt>
<trkpt lat=\'40.23970031738281\' lon=\'-5.9718499183654785\'>
<ele>864</ele>
<time>2020-11-01T15:20:53Z</time>
</trkpt>
<trkpt lat=\'40.23981475830078\' lon=\'-5.971616744995117\'>
<ele>865</ele>
<time>2020-11-01T15:20:55Z</time>
</trkpt>
<trkpt lat=\'40.239967346191406\' lon=\'-5.971383094787598\'>
<ele>867</ele>
<time>2020-11-01T15:20:57Z</time>
</trkpt>
<trkpt lat=\'40.2401008605957\' lon=\'-5.971149921417236\'>
<ele>868</ele>
<time>2020-11-01T15:20:59Z</time>
</trkpt>
<trkpt lat=\'40.24021530151367\' lon=\'-5.970916748046875\'>
<ele>870</ele>
<time>2020-11-01T15:21:01Z</time>
</trkpt>
<trkpt lat=\'40.2403678894043\' lon=\'-5.9706830978393555\'>
<ele>871</ele>
<time>2020-11-01T15:21:03Z</time>
</trkpt>
<trkpt lat=\'40.240516662597656\' lon=\'-5.970449924468994\'>
<ele>873</ele>
<time>2020-11-01T15:21:05Z</time>
</trkpt>
<trkpt lat=\'40.24065017700195\' lon=\'-5.970216751098633\'>
<ele>875</ele>
<time>2020-11-01T15:21:07Z</time>
</trkpt>
<trkpt lat=\'40.24079895019531\' lon=\'-5.970000267028809\'>
<ele>877</ele>
<time>2020-11-01T15:21:09Z</time>
</trkpt>
<trkpt lat=\'40.24095153808594\' lon=\'-5.969766616821289\'>
<ele>878</ele>
<time>2020-11-01T15:21:11Z</time>
</trkpt>
<trkpt lat=\'40.2411003112793\' lon=\'-5.969566822052002\'>
<ele>881</ele>
<time>2020-11-01T15:21:13Z</time>
</trkpt>
<trkpt lat=\'40.24121856689453\' lon=\'-5.969333171844482\'>
<ele>882</ele>
<time>2020-11-01T15:21:15Z</time>
</trkpt>
<trkpt lat=\'40.2413330078125\' lon=\'-5.969099998474121\'>
<ele>883</ele>
<time>2020-11-01T15:21:17Z</time>
</trkpt>
<trkpt lat=\'40.241451263427734\' lon=\'-5.968850135803223\'>
<ele>883</ele>
<time>2020-11-01T15:21:19Z</time>
</trkpt>
<trkpt lat=\'40.2415657043457\' lon=\'-5.968600273132324\'>
<ele>885</ele>
<time>2020-11-01T15:21:21Z</time>
</trkpt>
<trkpt lat=\'40.24168395996094\' lon=\'-5.9683332443237305\'>
<ele>887</ele>
<time>2020-11-01T15:21:23Z</time>
</trkpt>
<trkpt lat=\'40.241798400878906\' lon=\'-5.968100070953369\'>
<ele>888</ele>
<time>2020-11-01T15:21:25Z</time>
</trkpt>
<trkpt lat=\'40.24191665649414\' lon=\'-5.9678497314453125\'>
<ele>890</ele>
<time>2020-11-01T15:21:27Z</time>
</trkpt>
<trkpt lat=\'40.24201583862305\' lon=\'-5.967599868774414\'>
<ele>892</ele>
<time>2020-11-01T15:21:29Z</time>
</trkpt>
<trkpt lat=\'40.24211502075195\' lon=\'-5.967350006103516\'>
<ele>894</ele>
<time>2020-11-01T15:21:31Z</time>
</trkpt>
<trkpt lat=\'40.242218017578125\' lon=\'-5.967116832733154\'>
<ele>895</ele>
<time>2020-11-01T15:21:33Z</time>
</trkpt>
<trkpt lat=\'40.24235153198242\' lon=\'-5.966883182525635\'>
<ele>895</ele>
<time>2020-11-01T15:21:35Z</time>
</trkpt>
<trkpt lat=\'40.24245071411133\' lon=\'-5.966650009155273\'>
<ele>896</ele>
<time>2020-11-01T15:21:37Z</time>
</trkpt>
<trkpt lat=\'40.2425651550293\' lon=\'-5.966383457183838\'>
<ele>898</ele>
<time>2020-11-01T15:21:39Z</time>
</trkpt>
<trkpt lat=\'40.24268341064453\' lon=\'-5.966150283813477\'>
<ele>899</ele>
<time>2020-11-01T15:21:41Z</time>
</trkpt>
<trkpt lat=\'40.242801666259766\' lon=\'-5.965916633605957\'>
<ele>900</ele>
<time>2020-11-01T15:21:43Z</time>
</trkpt>
<trkpt lat=\'40.24293518066406\' lon=\'-5.965683460235596\'>
<ele>898</ele>
<time>2020-11-01T15:21:45Z</time>
</trkpt>
<trkpt lat=\'40.24304962158203\' lon=\'-5.965433120727539\'>
<ele>899</ele>
<time>2020-11-01T15:21:47Z</time>
</trkpt>
<trkpt lat=\'40.243167877197266\' lon=\'-5.9651665687561035\'>
<ele>903</ele>
<time>2020-11-01T15:21:49Z</time>
</trkpt>
<trkpt lat=\'40.24326705932617\' lon=\'-5.964933395385742\'>
<ele>906</ele>
<time>2020-11-01T15:21:51Z</time>
</trkpt>
<trkpt lat=\'40.24336624145508\' lon=\'-5.964683532714844\'>
<ele>908</ele>
<time>2020-11-01T15:21:53Z</time>
</trkpt>
<trkpt lat=\'40.243499755859375\' lon=\'-5.964449882507324\'>
<ele>909</ele>
<time>2020-11-01T15:21:55Z</time>
</trkpt>
<trkpt lat=\'40.243648529052734\' lon=\'-5.964216709136963\'>
<ele>908</ele>
<time>2020-11-01T15:21:57Z</time>
</trkpt>
<trkpt lat=\'40.24378204345703\' lon=\'-5.963983535766602\'>
<ele>907</ele>
<time>2020-11-01T15:21:59Z</time>
</trkpt>
<trkpt lat=\'40.243900299072266\' lon=\'-5.963733196258545\'>
<ele>907</ele>
<time>2020-11-01T15:22:01Z</time>
</trkpt>
<trkpt lat=\'40.24399948120117\' lon=\'-5.963500022888184\'>
<ele>907</ele>
<time>2020-11-01T15:22:03Z</time>
</trkpt>
<trkpt lat=\'40.244117736816406\' lon=\'-5.963266849517822\'>
<ele>904</ele>
<time>2020-11-01T15:22:05Z</time>
</trkpt>
<trkpt lat=\'40.2442512512207\' lon=\'-5.963016510009766\'>
<ele>902</ele>
<time>2020-11-01T15:22:07Z</time>
</trkpt>
<trkpt lat=\'40.24436569213867\' lon=\'-5.962766647338867\'>
<ele>900</ele>
<time>2020-11-01T15:22:09Z</time>
</trkpt>
<trkpt lat=\'40.24446487426758\' lon=\'-5.962533473968506\'>
<ele>898</ele>
<time>2020-11-01T15:22:11Z</time>
</trkpt>
<trkpt lat=\'40.24458312988281\' lon=\'-5.962299823760986\'>
<ele>894</ele>
<time>2020-11-01T15:22:13Z</time>
</trkpt>
<trkpt lat=\'40.244667053222656\' lon=\'-5.962033271789551\'>
<ele>890</ele>
<time>2020-11-01T15:22:15Z</time>
</trkpt>
<trkpt lat=\'40.2447509765625\' lon=\'-5.961750030517578\'>
<ele>886</ele>
<time>2020-11-01T15:22:17Z</time>
</trkpt>
<trkpt lat=\'40.244850158691406\' lon=\'-5.961483478546143\'>
<ele>884</ele>
<time>2020-11-01T15:22:19Z</time>
</trkpt>
<trkpt lat=\'40.24493408203125\' lon=\'-5.961199760437012\'>
<ele>881</ele>
<time>2020-11-01T15:22:21Z</time>
</trkpt>
<trkpt lat=\'40.245018005371094\' lon=\'-5.960949897766113\'>
<ele>877</ele>
<time>2020-11-01T15:22:23Z</time>
</trkpt>
<trkpt lat=\'40.24509811401367\' lon=\'-5.960666656494141\'>
<ele>873</ele>
<time>2020-11-01T15:22:25Z</time>
</trkpt>
<trkpt lat=\'40.245182037353516\' lon=\'-5.960383415222168\'>
<ele>870</ele>
<time>2020-11-01T15:22:27Z</time>
</trkpt>
<trkpt lat=\'40.24528503417969\' lon=\'-5.960116386413574\'>
<ele>868</ele>
<time>2020-11-01T15:22:29Z</time>
</trkpt>
<trkpt lat=\'40.245384216308594\' lon=\'-5.959849834442139\'>
<ele>868</ele>
<time>2020-11-01T15:22:31Z</time>
</trkpt>
<trkpt lat=\'40.2454833984375\' lon=\'-5.95959997177124\'>
<ele>868</ele>
<time>2020-11-01T15:22:33Z</time>
</trkpt>
<trkpt lat=\'40.245601654052734\' lon=\'-5.959366798400879\'>
<ele>866</ele>
<time>2020-11-01T15:22:35Z</time>
</trkpt>
<trkpt lat=\'40.2457160949707\' lon=\'-5.9591169357299805\'>
<ele>864</ele>
<time>2020-11-01T15:22:37Z</time>
</trkpt>
<trkpt lat=\'40.24583435058594\' lon=\'-5.958866596221924\'>
<ele>865</ele>
<time>2020-11-01T15:22:39Z</time>
</trkpt>
<trkpt lat=\'40.24591827392578\' lon=\'-5.958616733551025\'>
<ele>864</ele>
<time>2020-11-01T15:22:41Z</time>
</trkpt>
<trkpt lat=\'40.24601745605469\' lon=\'-5.95835018157959\'>
<ele>863</ele>
<time>2020-11-01T15:22:43Z</time>
</trkpt>
<trkpt lat=\'40.246131896972656\' lon=\'-5.958083152770996\'>
<ele>864</ele>
<time>2020-11-01T15:22:45Z</time>
</trkpt>
<trkpt lat=\'40.2462158203125\' lon=\'-5.957833290100098\'>
<ele>864</ele>
<time>2020-11-01T15:22:47Z</time>
</trkpt>
<trkpt lat=\'40.246315002441406\' lon=\'-5.957566738128662\'>
<ele>863</ele>
<time>2020-11-01T15:22:49Z</time>
</trkpt>
<trkpt lat=\'40.24641799926758\' lon=\'-5.957300186157227\'>
<ele>861</ele>
<time>2020-11-01T15:22:51Z</time>
</trkpt>
<trkpt lat=\'40.24653244018555\' lon=\'-5.957016944885254\'>
<ele>861</ele>
<time>2020-11-01T15:22:53Z</time>
</trkpt>
<trkpt lat=\'40.24665069580078\' lon=\'-5.956766605377197\'>
<ele>863</ele>
<time>2020-11-01T15:22:55Z</time>
</trkpt>
<trkpt lat=\'40.24676513671875\' lon=\'-5.956516742706299\'>
<ele>864</ele>
<time>2020-11-01T15:22:57Z</time>
</trkpt>
<trkpt lat=\'40.246917724609375\' lon=\'-5.956299781799316\'>
<ele>863</ele>
<time>2020-11-01T15:22:59Z</time>
</trkpt>
<trkpt lat=\'40.24705123901367\' lon=\'-5.956049919128418\'>
<ele>864</ele>
<time>2020-11-01T15:23:01Z</time>
</trkpt>
<trkpt lat=\'40.24718475341797\' lon=\'-5.955816745758057\'>
<ele>864</ele>
<time>2020-11-01T15:23:03Z</time>
</trkpt>
<trkpt lat=\'40.247318267822266\' lon=\'-5.95556640625\'>
<ele>863</ele>
<time>2020-11-01T15:23:05Z</time>
</trkpt>
<trkpt lat=\'40.247432708740234\' lon=\'-5.955316543579102\'>
<ele>861</ele>
<time>2020-11-01T15:23:07Z</time>
</trkpt>
<trkpt lat=\'40.24755096435547\' lon=\'-5.955033302307129\'>
<ele>861</ele>
<time>2020-11-01T15:23:09Z</time>
</trkpt>
<trkpt lat=\'40.24766540527344\' lon=\'-5.954766750335693\'>
<ele>863</ele>
<time>2020-11-01T15:23:11Z</time>
</trkpt>
<trkpt lat=\'40.24778366088867\' lon=\'-5.954533576965332\'>
<ele>865</ele>
<time>2020-11-01T15:23:13Z</time>
</trkpt>
<trkpt lat=\'40.24791717529297\' lon=\'-5.9542999267578125\'>
<ele>865</ele>
<time>2020-11-01T15:23:15Z</time>
</trkpt>
<trkpt lat=\'40.248016357421875\' lon=\'-5.954033374786377\'>
<ele>865</ele>
<time>2020-11-01T15:23:17Z</time>
</trkpt>
<trkpt lat=\'40.24811553955078\' lon=\'-5.953766822814941\'>
<ele>866</ele>
<time>2020-11-01T15:23:19Z</time>
</trkpt>
<trkpt lat=\'40.24824905395508\' lon=\'-5.953533172607422\'>
<ele>866</ele>
<time>2020-11-01T15:23:21Z</time>
</trkpt>
<trkpt lat=\'40.24836730957031\' lon=\'-5.953283309936523\'>
<ele>867</ele>
<time>2020-11-01T15:23:23Z</time>
</trkpt>
<trkpt lat=\'40.248451232910156\' lon=\'-5.953033447265625\'>
<ele>868</ele>
<time>2020-11-01T15:23:25Z</time>
</trkpt>
<trkpt lat=\'40.24853515625\' lon=\'-5.952783584594727\'>
<ele>869</ele>
<time>2020-11-01T15:23:27Z</time>
</trkpt>
<trkpt lat=\'40.248600006103516\' lon=\'-5.952516555786133\'>
<ele>869</ele>
<time>2020-11-01T15:23:29Z</time>
</trkpt>
<trkpt lat=\'40.248634338378906\' lon=\'-5.95223331451416\'>
<ele>870</ele>
<time>2020-11-01T15:23:31Z</time>
</trkpt>
<trkpt lat=\'40.24869918823242\' lon=\'-5.951966762542725\'>
<ele>871</ele>
<time>2020-11-01T15:23:33Z</time>
</trkpt>
<trkpt lat=\'40.2487678527832\' lon=\'-5.951683521270752\'>
<ele>872</ele>
<time>2020-11-01T15:23:35Z</time>
</trkpt>
<trkpt lat=\'40.24885177612305\' lon=\'-5.951433181762695\'>
<ele>872</ele>
<time>2020-11-01T15:23:37Z</time>
</trkpt>
<trkpt lat=\'40.24895095825195\' lon=\'-5.95116662979126\'>
<ele>873</ele>
<time>2020-11-01T15:23:39Z</time>
</trkpt>
<trkpt lat=\'40.24905014038086\' lon=\'-5.950916767120361\'>
<ele>874</ele>
<time>2020-11-01T15:23:41Z</time>
</trkpt>
<trkpt lat=\'40.2491340637207\' lon=\'-5.950666427612305\'>
<ele>875</ele>
<time>2020-11-01T15:23:43Z</time>
</trkpt>
<trkpt lat=\'40.24923324584961\' lon=\'-5.950416564941406\'>
<ele>875</ele>
<time>2020-11-01T15:23:45Z</time>
</trkpt>
<trkpt lat=\'40.249332427978516\' lon=\'-5.950150012969971\'>
<ele>875</ele>
<time>2020-11-01T15:23:47Z</time>
</trkpt>
<trkpt lat=\'40.24945068359375\' lon=\'-5.949900150299072\'>
<ele>875</ele>
<time>2020-11-01T15:23:49Z</time>
</trkpt>
<trkpt lat=\'40.249534606933594\' lon=\'-5.949616432189941\'>
<ele>875</ele>
<time>2020-11-01T15:23:51Z</time>
</trkpt>
<trkpt lat=\'40.24961853027344\' lon=\'-5.949366569519043\'>
<ele>875</ele>
<time>2020-11-01T15:23:53Z</time>
</trkpt>
<trkpt lat=\'40.24968338012695\' lon=\'-5.949100017547607\'>
<ele>873</ele>
<time>2020-11-01T15:23:55Z</time>
</trkpt>
<trkpt lat=\'40.24974822998047\' lon=\'-5.948800086975098\'>
<ele>872</ele>
<time>2020-11-01T15:23:57Z</time>
</trkpt>
<trkpt lat=\'40.24980163574219\' lon=\'-5.948516845703125\'>
<ele>874</ele>
<time>2020-11-01T15:23:59Z</time>
</trkpt>
<trkpt lat=\'40.24985122680664\' lon=\'-5.948233604431152\'>
<ele>874</ele>
<time>2020-11-01T15:24:01Z</time>
</trkpt>
<trkpt lat=\'40.249900817871094\' lon=\'-5.9479498863220215\'>
<ele>874</ele>
<time>2020-11-01T15:24:03Z</time>
</trkpt>
<trkpt lat=\'40.24995040893555\' lon=\'-5.947649955749512\'>
<ele>875</ele>
<time>2020-11-01T15:24:05Z</time>
</trkpt>
<trkpt lat=\'40.25003433227539\' lon=\'-5.947383403778076\'>
<ele>876</ele>
<time>2020-11-01T15:24:07Z</time>
</trkpt>
<trkpt lat=\'40.2501335144043\' lon=\'-5.9471330642700195\'>
<ele>877</ele>
<time>2020-11-01T15:24:09Z</time>
</trkpt>
<trkpt lat=\'40.2502326965332\' lon=\'-5.946899890899658\'>
<ele>878</ele>
<time>2020-11-01T15:24:11Z</time>
</trkpt>
<trkpt lat=\'40.25031661987305\' lon=\'-5.94665002822876\'>
<ele>877</ele>
<time>2020-11-01T15:24:13Z</time>
</trkpt>
<trkpt lat=\'40.25038146972656\' lon=\'-5.946366786956787\'>
<ele>878</ele>
<time>2020-11-01T15:24:15Z</time>
</trkpt>
<trkpt lat=\'40.25043487548828\' lon=\'-5.946100234985352\'>
<ele>879</ele>
<time>2020-11-01T15:24:17Z</time>
</trkpt>
<trkpt lat=\'40.250484466552734\' lon=\'-5.945849895477295\'>
<ele>880</ele>
<time>2020-11-01T15:24:19Z</time>
</trkpt>
<trkpt lat=\'40.25058364868164\' lon=\'-5.9456000328063965\'>
<ele>881</ele>
<time>2020-11-01T15:24:21Z</time>
</trkpt>
<trkpt lat=\'40.250667572021484\' lon=\'-5.945333480834961\'>
<ele>882</ele>
<time>2020-11-01T15:24:23Z</time>
</trkpt>
<trkpt lat=\'40.25078201293945\' lon=\'-5.945099830627441\'>
<ele>883</ele>
<time>2020-11-01T15:24:25Z</time>
</trkpt>
<trkpt lat=\'40.25090026855469\' lon=\'-5.944883346557617\'>
<ele>884</ele>
<time>2020-11-01T15:24:27Z</time>
</trkpt>
<trkpt lat=\'40.25098419189453\' lon=\'-5.944633483886719\'>
<ele>885</ele>
<time>2020-11-01T15:24:29Z</time>
</trkpt>
<trkpt lat=\'40.251068115234375\' lon=\'-5.944383144378662\'>
<ele>885</ele>
<time>2020-11-01T15:24:31Z</time>
</trkpt>
<trkpt lat=\'40.25113296508789\' lon=\'-5.944116592407227\'>
<ele>886</ele>
<time>2020-11-01T15:24:33Z</time>
</trkpt>
<trkpt lat=\'40.25120162963867\' lon=\'-5.943833351135254\'>
<ele>887</ele>
<time>2020-11-01T15:24:35Z</time>
</trkpt>
<trkpt lat=\'40.25126647949219\' lon=\'-5.9435834884643555\'>
<ele>888</ele>
<time>2020-11-01T15:24:37Z</time>
</trkpt>
<trkpt lat=\'40.25133514404297\' lon=\'-5.943333148956299\'>
<ele>888</ele>
<time>2020-11-01T15:24:39Z</time>
</trkpt>
<trkpt lat=\'40.251399993896484\' lon=\'-5.943066596984863\'>
<ele>886</ele>
<time>2020-11-01T15:24:41Z</time>
</trkpt>
<trkpt lat=\'40.25148391723633\' lon=\'-5.942816734313965\'>
<ele>886</ele>
<time>2020-11-01T15:24:43Z</time>
</trkpt>
<trkpt lat=\'40.25153350830078\' lon=\'-5.942550182342529\'>
<ele>888</ele>
<time>2020-11-01T15:24:45Z</time>
</trkpt>
<trkpt lat=\'40.251583099365234\' lon=\'-5.942299842834473\'>
<ele>889</ele>
<time>2020-11-01T15:24:47Z</time>
</trkpt>
<trkpt lat=\'40.251651763916016\' lon=\'-5.942033290863037\'>
<ele>889</ele>
<time>2020-11-01T15:24:49Z</time>
</trkpt>
<trkpt lat=\'40.251731872558594\' lon=\'-5.941766738891602\'>
<ele>890</ele>
<time>2020-11-01T15:24:51Z</time>
</trkpt>
<trkpt lat=\'40.251800537109375\' lon=\'-5.941500186920166\'>
<ele>890</ele>
<time>2020-11-01T15:24:53Z</time>
</trkpt>
<trkpt lat=\'40.25188446044922\' lon=\'-5.941233158111572\'>
<ele>890</ele>
<time>2020-11-01T15:24:55Z</time>
</trkpt>
<trkpt lat=\'40.25196838378906\' lon=\'-5.940983295440674\'>
<ele>893</ele>
<time>2020-11-01T15:24:57Z</time>
</trkpt>
<trkpt lat=\'40.25203323364258\' lon=\'-5.940733432769775\'>
<ele>895</ele>
<time>2020-11-01T15:24:59Z</time>
</trkpt>
<trkpt lat=\'40.25211715698242\' lon=\'-5.940483093261719\'>
<ele>895</ele>
<time>2020-11-01T15:25:01Z</time>
</trkpt>
<trkpt lat=\'40.252201080322266\' lon=\'-5.940216541290283\'>
<ele>896</ele>
<time>2020-11-01T15:25:03Z</time>
</trkpt>
<trkpt lat=\'40.25226593017578\' lon=\'-5.939983367919922\'>
<ele>897</ele>
<time>2020-11-01T15:25:05Z</time>
</trkpt>
<trkpt lat=\'40.25233459472656\' lon=\'-5.939716815948486\'>
<ele>897</ele>
<time>2020-11-01T15:25:07Z</time>
</trkpt>
<trkpt lat=\'40.25239944458008\' lon=\'-5.9394330978393555\'>
<ele>898</ele>
<time>2020-11-01T15:25:09Z</time>
</trkpt>
<trkpt lat=\'40.25243377685547\' lon=\'-5.939149856567383\'>
<ele>900</ele>
<time>2020-11-01T15:25:11Z</time>
</trkpt>
<trkpt lat=\'40.25246810913086\' lon=\'-5.93886661529541\'>
<ele>903</ele>
<time>2020-11-01T15:25:13Z</time>
</trkpt>
<trkpt lat=\'40.25248336791992\' lon=\'-5.938600063323975\'>
<ele>905</ele>
<time>2020-11-01T15:25:15Z</time>
</trkpt>
<trkpt lat=\'40.252498626708984\' lon=\'-5.938316822052002\'>
<ele>905</ele>
<time>2020-11-01T15:25:17Z</time>
</trkpt>
<trkpt lat=\'40.252498626708984\' lon=\'-5.938033103942871\'>
<ele>906</ele>
<time>2020-11-01T15:25:19Z</time>
</trkpt>
<trkpt lat=\'40.252498626708984\' lon=\'-5.937733173370361\'>
<ele>908</ele>
<time>2020-11-01T15:25:21Z</time>
</trkpt>
<trkpt lat=\'40.252498626708984\' lon=\'-5.937466621398926\'>
<ele>909</ele>
<time>2020-11-01T15:25:23Z</time>
</trkpt>
<trkpt lat=\'40.25248336791992\' lon=\'-5.937166690826416\'>
<ele>910</ele>
<time>2020-11-01T15:25:25Z</time>
</trkpt>
<trkpt lat=\'40.25246810913086\' lon=\'-5.936883449554443\'>
<ele>912</ele>
<time>2020-11-01T15:25:27Z</time>
</trkpt>
<trkpt lat=\'40.25246810913086\' lon=\'-5.936616897583008\'>
<ele>914</ele>
<time>2020-11-01T15:25:29Z</time>
</trkpt>
<trkpt lat=\'40.25243377685547\' lon=\'-5.936333179473877\'>
<ele>915</ele>
<time>2020-11-01T15:25:31Z</time>
</trkpt>
<trkpt lat=\'40.252418518066406\' lon=\'-5.936049938201904\'>
<ele>916</ele>
<time>2020-11-01T15:25:33Z</time>
</trkpt>
<trkpt lat=\'40.25239944458008\' lon=\'-5.935783386230469\'>
<ele>918</ele>
<time>2020-11-01T15:25:35Z</time>
</trkpt>
<trkpt lat=\'40.25236511230469\' lon=\'-5.935500144958496\'>
<ele>919</ele>
<time>2020-11-01T15:25:37Z</time>
</trkpt>
<trkpt lat=\'40.25233459472656\' lon=\'-5.935216903686523\'>
<ele>921</ele>
<time>2020-11-01T15:25:39Z</time>
</trkpt>
<trkpt lat=\'40.25228500366211\' lon=\'-5.93494987487793\'>
<ele>922</ele>
<time>2020-11-01T15:25:41Z</time>
</trkpt>
<trkpt lat=\'40.25223159790039\' lon=\'-5.934683322906494\'>
<ele>924</ele>
<time>2020-11-01T15:25:43Z</time>
</trkpt>
<trkpt lat=\'40.25218200683594\' lon=\'-5.934416770935059\'>
<ele>924</ele>
<time>2020-11-01T15:25:45Z</time>
</trkpt>
<trkpt lat=\'40.25211715698242\' lon=\'-5.93416690826416\'>
<ele>922</ele>
<time>2020-11-01T15:25:47Z</time>
</trkpt>
<trkpt lat=\'40.252017974853516\' lon=\'-5.933899879455566\'>
<ele>921</ele>
<time>2020-11-01T15:25:49Z</time>
</trkpt>
<trkpt lat=\'40.251949310302734\' lon=\'-5.933650016784668\'>
<ele>920</ele>
<time>2020-11-01T15:25:51Z</time>
</trkpt>
<trkpt lat=\'40.25185012817383\' lon=\'-5.933416843414307\'>
<ele>920</ele>
<time>2020-11-01T15:25:53Z</time>
</trkpt>
<trkpt lat=\'40.251766204833984\' lon=\'-5.93316650390625\'>
<ele>918</ele>
<time>2020-11-01T15:25:55Z</time>
</trkpt>
<trkpt lat=\'40.25166702270508\' lon=\'-5.932883262634277\'>
<ele>919</ele>
<time>2020-11-01T15:25:57Z</time>
</trkpt>
<trkpt lat=\'40.2515983581543\' lon=\'-5.932633399963379\'>
<ele>923</ele>
<time>2020-11-01T15:25:59Z</time>
</trkpt>
<trkpt lat=\'40.25153350830078\' lon=\'-5.932399749755859\'>
<ele>924</ele>
<time>2020-11-01T15:26:01Z</time>
</trkpt>
<trkpt lat=\'40.25149917602539\' lon=\'-5.932133197784424\'>
<ele>925</ele>
<time>2020-11-01T15:26:03Z</time>
</trkpt>
<trkpt lat=\'40.25144958496094\' lon=\'-5.931866645812988\'>
<ele>926</ele>
<time>2020-11-01T15:26:05Z</time>
</trkpt>
<trkpt lat=\'40.251434326171875\' lon=\'-5.931600093841553\'>
<ele>928</ele>
<time>2020-11-01T15:26:07Z</time>
</trkpt>
<trkpt lat=\'40.25141525268555\' lon=\'-5.931333541870117\'>
<ele>929</ele>
<time>2020-11-01T15:26:09Z</time>
</trkpt>
<trkpt lat=\'40.25138473510742\' lon=\'-5.931066513061523\'>
<ele>930</ele>
<time>2020-11-01T15:26:11Z</time>
</trkpt>
<trkpt lat=\'40.25135040283203\' lon=\'-5.930783271789551\'>
<ele>932</ele>
<time>2020-11-01T15:26:13Z</time>
</trkpt>
<trkpt lat=\'40.25131607055664\' lon=\'-5.930516719818115\'>
<ele>934</ele>
<time>2020-11-01T15:26:15Z</time>
</trkpt>
<trkpt lat=\'40.25130081176758\' lon=\'-5.93025016784668\'>
<ele>935</ele>
<time>2020-11-01T15:26:17Z</time>
</trkpt>
<trkpt lat=\'40.25126647949219\' lon=\'-5.929966926574707\'>
<ele>936</ele>
<time>2020-11-01T15:26:19Z</time>
</trkpt>
<trkpt lat=\'40.2512321472168\' lon=\'-5.92971658706665\'>
<ele>937</ele>
<time>2020-11-01T15:26:21Z</time>
</trkpt>
<trkpt lat=\'40.251216888427734\' lon=\'-5.929450035095215\'>
<ele>937</ele>
<time>2020-11-01T15:26:23Z</time>
</trkpt>
<trkpt lat=\'40.251182556152344\' lon=\'-5.929166793823242\'>
<ele>938</ele>
<time>2020-11-01T15:26:25Z</time>
</trkpt>
<trkpt lat=\'40.25113296508789\' lon=\'-5.928899765014648\'>
<ele>939</ele>
<time>2020-11-01T15:26:27Z</time>
</trkpt>
<trkpt lat=\'40.2510986328125\' lon=\'-5.928633213043213\'>
<ele>940</ele>
<time>2020-11-01T15:26:29Z</time>
</trkpt>
<trkpt lat=\'40.25108337402344\' lon=\'-5.928366661071777\'>
<ele>941</ele>
<time>2020-11-01T15:26:31Z</time>
</trkpt>
<trkpt lat=\'40.25104904174805\' lon=\'-5.928083419799805\'>
<ele>942</ele>
<time>2020-11-01T15:26:33Z</time>
</trkpt>
<trkpt lat=\'40.25101852416992\' lon=\'-5.927816390991211\'>
<ele>943</ele>
<time>2020-11-01T15:26:35Z</time>
</trkpt>
<trkpt lat=\'40.250999450683594\' lon=\'-5.927533149719238\'>
<ele>944</ele>
<time>2020-11-01T15:26:37Z</time>
</trkpt>
<trkpt lat=\'40.250999450683594\' lon=\'-5.927249908447266\'>
<ele>945</ele>
<time>2020-11-01T15:26:39Z</time>
</trkpt>
<trkpt lat=\'40.25098419189453\' lon=\'-5.92698335647583\'>
<ele>947</ele>
<time>2020-11-01T15:26:41Z</time>
</trkpt>
<trkpt lat=\'40.25098419189453\' lon=\'-5.9267168045043945\'>
<ele>947</ele>
<time>2020-11-01T15:26:43Z</time>
</trkpt>
<trkpt lat=\'40.25098419189453\' lon=\'-5.926433563232422\'>
<ele>947</ele>
<time>2020-11-01T15:26:45Z</time>
</trkpt>
<trkpt lat=\'40.25098419189453\' lon=\'-5.926166534423828\'>
<ele>949</ele>
<time>2020-11-01T15:26:47Z</time>
</trkpt>
<trkpt lat=\'40.25098419189453\' lon=\'-5.9258832931518555\'>
<ele>951</ele>
<time>2020-11-01T15:26:49Z</time>
</trkpt>
<trkpt lat=\'40.25101852416992\' lon=\'-5.92561674118042\'>
<ele>951</ele>
<time>2020-11-01T15:26:51Z</time>
</trkpt>
<trkpt lat=\'40.251033782958984\' lon=\'-5.925350189208984\'>
<ele>952</ele>
<time>2020-11-01T15:26:53Z</time>
</trkpt>
<trkpt lat=\'40.251033782958984\' lon=\'-5.925066947937012\'>
<ele>953</ele>
<time>2020-11-01T15:26:55Z</time>
</trkpt>
<trkpt lat=\'40.25104904174805\' lon=\'-5.924799919128418\'>
<ele>954</ele>
<time>2020-11-01T15:26:57Z</time>
</trkpt>
<trkpt lat=\'40.25108337402344\' lon=\'-5.924533367156982\'>
<ele>955</ele>
<time>2020-11-01T15:26:59Z</time>
</trkpt>
<trkpt lat=\'40.2510986328125\' lon=\'-5.92425012588501\'>
<ele>955</ele>
<time>2020-11-01T15:27:01Z</time>
</trkpt>
<trkpt lat=\'40.25113296508789\' lon=\'-5.923966407775879\'>
<ele>957</ele>
<time>2020-11-01T15:27:03Z</time>
</trkpt>
<trkpt lat=\'40.25116729736328\' lon=\'-5.923699855804443\'>
<ele>958</ele>
<time>2020-11-01T15:27:05Z</time>
</trkpt>
<trkpt lat=\'40.25120162963867\' lon=\'-5.923433303833008\'>
<ele>959</ele>
<time>2020-11-01T15:27:07Z</time>
</trkpt>
<trkpt lat=\'40.251251220703125\' lon=\'-5.923150062561035\'>
<ele>959</ele>
<time>2020-11-01T15:27:09Z</time>
</trkpt>
<trkpt lat=\'40.25128173828125\' lon=\'-5.9228835105896\'>
<ele>958</ele>
<time>2020-11-01T15:27:11Z</time>
</trkpt>
<trkpt lat=\'40.25130081176758\' lon=\'-5.92258358001709\'>
<ele>957</ele>
<time>2020-11-01T15:27:13Z</time>
</trkpt>
<trkpt lat=\'40.25135040283203\' lon=\'-5.922316551208496\'>
<ele>960</ele>
<time>2020-11-01T15:27:15Z</time>
</trkpt>
<trkpt lat=\'40.25138473510742\' lon=\'-5.922066688537598\'>
<ele>962</ele>
<time>2020-11-01T15:27:17Z</time>
</trkpt>
<trkpt lat=\'40.251434326171875\' lon=\'-5.921800136566162\'>
<ele>962</ele>
<time>2020-11-01T15:27:19Z</time>
</trkpt>
<trkpt lat=\'40.25148391723633\' lon=\'-5.921516418457031\'>
<ele>963</ele>
<time>2020-11-01T15:27:21Z</time>
</trkpt>
<trkpt lat=\'40.25151824951172\' lon=\'-5.921249866485596\'>
<ele>964</ele>
<time>2020-11-01T15:27:23Z</time>
</trkpt>
<trkpt lat=\'40.251583099365234\' lon=\'-5.92098331451416\'>
<ele>965</ele>
<time>2020-11-01T15:27:25Z</time>
</trkpt>
<trkpt lat=\'40.25163269042969\' lon=\'-5.920716762542725\'>
<ele>966</ele>
<time>2020-11-01T15:27:27Z</time>
</trkpt>
<trkpt lat=\'40.25168228149414\' lon=\'-5.920433521270752\'>
<ele>967</ele>
<time>2020-11-01T15:27:29Z</time>
</trkpt>
<trkpt lat=\'40.251731872558594\' lon=\'-5.920166492462158\'>
<ele>968</ele>
<time>2020-11-01T15:27:31Z</time>
</trkpt>
<trkpt lat=\'40.251800537109375\' lon=\'-5.919899940490723\'>
<ele>968</ele>
<time>2020-11-01T15:27:33Z</time>
</trkpt>
<trkpt lat=\'40.25185012817383\' lon=\'-5.91961669921875\'>
<ele>968</ele>
<time>2020-11-01T15:27:35Z</time>
</trkpt>
<trkpt lat=\'40.25189971923828\' lon=\'-5.919333457946777\'>
<ele>967</ele>
<time>2020-11-01T15:27:37Z</time>
</trkpt>
<trkpt lat=\'40.25196838378906\' lon=\'-5.919066429138184\'>
<ele>966</ele>
<time>2020-11-01T15:27:39Z</time>
</trkpt>
<trkpt lat=\'40.25203323364258\' lon=\'-5.918799877166748\'>
<ele>965</ele>
<time>2020-11-01T15:27:41Z</time>
</trkpt>
<trkpt lat=\'40.25210189819336\' lon=\'-5.918516635894775\'>
<ele>964</ele>
<time>2020-11-01T15:27:43Z</time>
</trkpt>
<trkpt lat=\'40.252201080322266\' lon=\'-5.91825008392334\'>
<ele>963</ele>
<time>2020-11-01T15:27:45Z</time>
</trkpt>
<trkpt lat=\'40.25228500366211\' lon=\'-5.917983055114746\'>
<ele>963</ele>
<time>2020-11-01T15:27:47Z</time>
</trkpt>
<trkpt lat=\'40.252384185791016\' lon=\'-5.9177165031433105\'>
<ele>962</ele>
<time>2020-11-01T15:27:49Z</time>
</trkpt>
<trkpt lat=\'40.252498626708984\' lon=\'-5.917466640472412\'>
<ele>960</ele>
<time>2020-11-01T15:27:51Z</time>
</trkpt>
<trkpt lat=\'40.25261688232422\' lon=\'-5.917200088500977\'>
<ele>959</ele>
<time>2020-11-01T15:27:53Z</time>
</trkpt>
<trkpt lat=\'40.25273513793945\' lon=\'-5.916950225830078\'>
<ele>959</ele>
<time>2020-11-01T15:27:55Z</time>
</trkpt>
<trkpt lat=\'40.25284957885742\' lon=\'-5.916716575622559\'>
<ele>959</ele>
<time>2020-11-01T15:27:57Z</time>
</trkpt>
<trkpt lat=\'40.252967834472656\' lon=\'-5.91646671295166\'>
<ele>958</ele>
<time>2020-11-01T15:27:59Z</time>
</trkpt>
<trkpt lat=\'40.25310134887695\' lon=\'-5.916216850280762\'>
<ele>959</ele>
<time>2020-11-01T15:28:01Z</time>
</trkpt>
<trkpt lat=\'40.25325012207031\' lon=\'-5.915999889373779\'>
<ele>960</ele>
<time>2020-11-01T15:28:03Z</time>
</trkpt>
<trkpt lat=\'40.25339889526367\' lon=\'-5.915800094604492\'>
<ele>960</ele>
<time>2020-11-01T15:28:05Z</time>
</trkpt>
<trkpt lat=\'40.25358200073242\' lon=\'-5.915633201599121\'>
<ele>960</ele>
<time>2020-11-01T15:28:07Z</time>
</trkpt>
<trkpt lat=\'40.2537841796875\' lon=\'-5.915500164031982\'>
<ele>960</ele>
<time>2020-11-01T15:28:09Z</time>
</trkpt>
<trkpt lat=\'40.25396728515625\' lon=\'-5.915349960327148\'>
<ele>959</ele>
<time>2020-11-01T15:28:11Z</time>
</trkpt>
<trkpt lat=\'40.25416564941406\' lon=\'-5.915216445922852\'>
<ele>959</ele>
<time>2020-11-01T15:28:13Z</time>
</trkpt>
<trkpt lat=\'40.25436782836914\' lon=\'-5.915116786956787\'>
<ele>960</ele>
<time>2020-11-01T15:28:15Z</time>
</trkpt>
<trkpt lat=\'40.25456619262695\' lon=\'-5.915033340454102\'>
<ele>959</ele>
<time>2020-11-01T15:28:17Z</time>
</trkpt>
<trkpt lat=\'40.254783630371094\' lon=\'-5.914933204650879\'>
<ele>956</ele>
<time>2020-11-01T15:28:19Z</time>
</trkpt>
<trkpt lat=\'40.255001068115234\' lon=\'-5.914850234985352\'>
<ele>956</ele>
<time>2020-11-01T15:28:21Z</time>
</trkpt>
<trkpt lat=\'40.255218505859375\' lon=\'-5.914766788482666\'>
<ele>957</ele>
<time>2020-11-01T15:28:23Z</time>
</trkpt>
<trkpt lat=\'40.25541687011719\' lon=\'-5.914700031280518\'>
<ele>957</ele>
<time>2020-11-01T15:28:25Z</time>
</trkpt>
<trkpt lat=\'40.25563430786133\' lon=\'-5.914633274078369\'>
<ele>957</ele>
<time>2020-11-01T15:28:27Z</time>
</trkpt>
<trkpt lat=\'40.25586700439453\' lon=\'-5.914566516876221\'>
<ele>957</ele>
<time>2020-11-01T15:28:29Z</time>
</trkpt>
<trkpt lat=\'40.256065368652344\' lon=\'-5.914483070373535\'>
<ele>958</ele>
<time>2020-11-01T15:28:31Z</time>
</trkpt>
<trkpt lat=\'40.256282806396484\' lon=\'-5.914433479309082\'>
<ele>959</ele>
<time>2020-11-01T15:28:33Z</time>
</trkpt>
<trkpt lat=\'40.25651550292969\' lon=\'-5.914383411407471\'>
<ele>959</ele>
<time>2020-11-01T15:28:35Z</time>
</trkpt>
<trkpt lat=\'40.25673294067383\' lon=\'-5.9143500328063965\'>
<ele>960</ele>
<time>2020-11-01T15:28:37Z</time>
</trkpt>
<trkpt lat=\'40.25695037841797\' lon=\'-5.914283275604248\'>
<ele>961</ele>
<time>2020-11-01T15:28:39Z</time>
</trkpt>
<trkpt lat=\'40.25714874267578\' lon=\'-5.914233207702637\'>
<ele>962</ele>
<time>2020-11-01T15:28:41Z</time>
</trkpt>
<trkpt lat=\'40.25736618041992\' lon=\'-5.914183616638184\'>
<ele>962</ele>
<time>2020-11-01T15:28:43Z</time>
</trkpt>
<trkpt lat=\'40.25758361816406\' lon=\'-5.914150238037109\'>
<ele>964</ele>
<time>2020-11-01T15:28:45Z</time>
</trkpt>
<trkpt lat=\'40.257781982421875\' lon=\'-5.914100170135498\'>
<ele>965</ele>
<time>2020-11-01T15:28:47Z</time>
</trkpt>
<trkpt lat=\'40.257999420166016\' lon=\'-5.914050102233887\'>
<ele>965</ele>
<time>2020-11-01T15:28:49Z</time>
</trkpt>
<trkpt lat=\'40.258216857910156\' lon=\'-5.914000034332275\'>
<ele>966</ele>
<time>2020-11-01T15:28:51Z</time>
</trkpt>
<trkpt lat=\'40.2584342956543\' lon=\'-5.913966655731201\'>
<ele>967</ele>
<time>2020-11-01T15:28:53Z</time>
</trkpt>
<trkpt lat=\'40.25863265991211\' lon=\'-5.913949966430664\'>
<ele>967</ele>
<time>2020-11-01T15:28:55Z</time>
</trkpt>
<trkpt lat=\'40.25885009765625\' lon=\'-5.91391658782959\'>
<ele>967</ele>
<time>2020-11-01T15:28:57Z</time>
</trkpt>
<trkpt lat=\'40.25906753540039\' lon=\'-5.913849830627441\'>
<ele>966</ele>
<time>2020-11-01T15:28:59Z</time>
</trkpt>
<trkpt lat=\'40.2592658996582\' lon=\'-5.913800239562988\'>
<ele>967</ele>
<time>2020-11-01T15:29:01Z</time>
</trkpt>
<trkpt lat=\'40.25946807861328\' lon=\'-5.913750171661377\'>
<ele>967</ele>
<time>2020-11-01T15:29:03Z</time>
</trkpt>
<trkpt lat=\'40.259666442871094\' lon=\'-5.9136834144592285\'>
<ele>965</ele>
<time>2020-11-01T15:29:05Z</time>
</trkpt>
<trkpt lat=\'40.259864807128906\' lon=\'-5.913583278656006\'>
<ele>965</ele>
<time>2020-11-01T15:29:07Z</time>
</trkpt>
<trkpt lat=\'40.260066986083984\' lon=\'-5.91349983215332\'>
<ele>966</ele>
<time>2020-11-01T15:29:09Z</time>
</trkpt>
<trkpt lat=\'40.2602653503418\' lon=\'-5.913466453552246\'>
<ele>968</ele>
<time>2020-11-01T15:29:11Z</time>
</trkpt>
<trkpt lat=\'40.260467529296875\' lon=\'-5.913366794586182\'>
<ele>969</ele>
<time>2020-11-01T15:29:13Z</time>
</trkpt>
<trkpt lat=\'40.26066589355469\' lon=\'-5.913249969482422\'>
<ele>972</ele>
<time>2020-11-01T15:29:15Z</time>
</trkpt>
<trkpt lat=\'40.26088333129883\' lon=\'-5.913183212280273\'>
<ele>975</ele>
<time>2020-11-01T15:29:17Z</time>
</trkpt>
<trkpt lat=\'40.26108169555664\' lon=\'-5.913116455078125\'>
<ele>976</ele>
<time>2020-11-01T15:29:19Z</time>
</trkpt>
<trkpt lat=\'40.26128387451172\' lon=\'-5.913000106811523\'>
<ele>977</ele>
<time>2020-11-01T15:29:21Z</time>
</trkpt>
<trkpt lat=\'40.26148223876953\' lon=\'-5.912899971008301\'>
<ele>979</ele>
<time>2020-11-01T15:29:23Z</time>
</trkpt>
<trkpt lat=\'40.26166534423828\' lon=\'-5.912783145904541\'>
<ele>980</ele>
<time>2020-11-01T15:29:25Z</time>
</trkpt>
<trkpt lat=\'40.26186752319336\' lon=\'-5.9126667976379395\'>
<ele>981</ele>
<time>2020-11-01T15:29:27Z</time>
</trkpt>
<trkpt lat=\'40.26205062866211\' lon=\'-5.912566661834717\'>
<ele>982</ele>
<time>2020-11-01T15:29:29Z</time>
</trkpt>
<trkpt lat=\'40.26223373413086\' lon=\'-5.912449836730957\'>
<ele>982</ele>
<time>2020-11-01T15:29:31Z</time>
</trkpt>
<trkpt lat=\'40.26243209838867\' lon=\'-5.9123334884643555\'>
<ele>981</ele>
<time>2020-11-01T15:29:33Z</time>
</trkpt>
<trkpt lat=\'40.26263427734375\' lon=\'-5.912199974060059\'>
<ele>980</ele>
<time>2020-11-01T15:29:35Z</time>
</trkpt>
<trkpt lat=\'40.2628173828125\' lon=\'-5.9120001792907715\'>
<ele>980</ele>
<time>2020-11-01T15:29:37Z</time>
</trkpt>
<trkpt lat=\'40.26300048828125\' lon=\'-5.911816596984863\'>
<ele>982</ele>
<time>2020-11-01T15:29:39Z</time>
</trkpt>
<trkpt lat=\'40.26316833496094\' lon=\'-5.911633491516113\'>
<ele>983</ele>
<time>2020-11-01T15:29:41Z</time>
</trkpt>
<trkpt lat=\'40.26335144042969\' lon=\'-5.911449909210205\'>
<ele>985</ele>
<time>2020-11-01T15:29:43Z</time>
</trkpt>
<trkpt lat=\'40.26351547241211\' lon=\'-5.911300182342529\'>
<ele>985</ele>
<time>2020-11-01T15:29:45Z</time>
</trkpt>
<trkpt lat=\'40.2636833190918\' lon=\'-5.911133289337158\'>
<ele>984</ele>
<time>2020-11-01T15:29:47Z</time>
</trkpt>
<trkpt lat=\'40.263851165771484\' lon=\'-5.910933494567871\'>
<ele>980</ele>
<time>2020-11-01T15:29:49Z</time>
</trkpt>
<trkpt lat=\'40.264015197753906\' lon=\'-5.910749912261963\'>
<ele>978</ele>
<time>2020-11-01T15:29:51Z</time>
</trkpt>
<trkpt lat=\'40.264183044433594\' lon=\'-5.910550117492676\'>
<ele>977</ele>
<time>2020-11-01T15:29:53Z</time>
</trkpt>
<trkpt lat=\'40.26435089111328\' lon=\'-5.9103498458862305\'>
<ele>976</ele>
<time>2020-11-01T15:29:55Z</time>
</trkpt>
<trkpt lat=\'40.26449966430664\' lon=\'-5.910133361816406\'>
<ele>974</ele>
<time>2020-11-01T15:29:57Z</time>
</trkpt>
<trkpt lat=\'40.2646484375\' lon=\'-5.909916877746582\'>
<ele>974</ele>
<time>2020-11-01T15:29:59Z</time>
</trkpt>
<trkpt lat=\'40.26481628417969\' lon=\'-5.909733295440674\'>
<ele>975</ele>
<time>2020-11-01T15:30:01Z</time>
</trkpt>
<trkpt lat=\'40.264984130859375\' lon=\'-5.909550189971924\'>
<ele>976</ele>
<time>2020-11-01T15:30:03Z</time>
</trkpt>
<trkpt lat=\'40.26511764526367\' lon=\'-5.9093499183654785\'>
<ele>976</ele>
<time>2020-11-01T15:30:05Z</time>
</trkpt>
<trkpt lat=\'40.26526641845703\' lon=\'-5.909133434295654\'>
<ele>976</ele>
<time>2020-11-01T15:30:07Z</time>
</trkpt>
<trkpt lat=\'40.26541519165039\' lon=\'-5.908916473388672\'>
<ele>976</ele>
<time>2020-11-01T15:30:09Z</time>
</trkpt>
<trkpt lat=\'40.265533447265625\' lon=\'-5.908666610717773\'>
<ele>977</ele>
<time>2020-11-01T15:30:11Z</time>
</trkpt>
<trkpt lat=\'40.26561737060547\' lon=\'-5.908433437347412\'>
<ele>978</ele>
<time>2020-11-01T15:30:13Z</time>
</trkpt>
<trkpt lat=\'40.26570129394531\' lon=\'-5.908166885375977\'>
<ele>977</ele>
<time>2020-11-01T15:30:15Z</time>
</trkpt>
<trkpt lat=\'40.265785217285156\' lon=\'-5.907899856567383\'>
<ele>977</ele>
<time>2020-11-01T15:30:17Z</time>
</trkpt>
<trkpt lat=\'40.265865325927734\' lon=\'-5.907633304595947\'>
<ele>977</ele>
<time>2020-11-01T15:30:19Z</time>
</trkpt>
<trkpt lat=\'40.26594924926758\' lon=\'-5.907366752624512\'>
<ele>978</ele>
<time>2020-11-01T15:30:21Z</time>
</trkpt>
<trkpt lat=\'40.26601791381836\' lon=\'-5.907099723815918\'>
<ele>976</ele>
<time>2020-11-01T15:30:23Z</time>
</trkpt>
<trkpt lat=\'40.266082763671875\' lon=\'-5.906833171844482\'>
<ele>975</ele>
<time>2020-11-01T15:30:25Z</time>
</trkpt>
<trkpt lat=\'40.266151428222656\' lon=\'-5.906566619873047\'>
<ele>974</ele>
<time>2020-11-01T15:30:27Z</time>
</trkpt>
<trkpt lat=\'40.26618194580078\' lon=\'-5.906283378601074\'>
<ele>972</ele>
<time>2020-11-01T15:30:29Z</time>
</trkpt>
<trkpt lat=\'40.26625061035156\' lon=\'-5.906000137329102\'>
<ele>972</ele>
<time>2020-11-01T15:30:31Z</time>
</trkpt>
<trkpt lat=\'40.26631546020508\' lon=\'-5.905750274658203\'>
<ele>974</ele>
<time>2020-11-01T15:30:33Z</time>
</trkpt>
<trkpt lat=\'40.26634979248047\' lon=\'-5.905483245849609\'>
<ele>974</ele>
<time>2020-11-01T15:30:35Z</time>
</trkpt>
<trkpt lat=\'40.26643371582031\' lon=\'-5.905216693878174\'>
<ele>973</ele>
<time>2020-11-01T15:30:37Z</time>
</trkpt>
<trkpt lat=\'40.266517639160156\' lon=\'-5.904950141906738\'>
<ele>975</ele>
<time>2020-11-01T15:30:39Z</time>
</trkpt>
<trkpt lat=\'40.26658248901367\' lon=\'-5.9046831130981445\'>
<ele>976</ele>
<time>2020-11-01T15:30:41Z</time>
</trkpt>
<trkpt lat=\'40.266666412353516\' lon=\'-5.904433250427246\'>
<ele>977</ele>
<time>2020-11-01T15:30:43Z</time>
</trkpt>
<trkpt lat=\'40.26676559448242\' lon=\'-5.9041666984558105\'>
<ele>977</ele>
<time>2020-11-01T15:30:45Z</time>
</trkpt>
<trkpt lat=\'40.266849517822266\' lon=\'-5.903900146484375\'>
<ele>978</ele>
<time>2020-11-01T15:30:47Z</time>
</trkpt>
<trkpt lat=\'40.26694869995117\' lon=\'-5.903650283813477\'>
<ele>980</ele>
<time>2020-11-01T15:30:49Z</time>
</trkpt>
<trkpt lat=\'40.26708221435547\' lon=\'-5.903416633605957\'>
<ele>981</ele>
<time>2020-11-01T15:30:51Z</time>
</trkpt>
<trkpt lat=\'40.2672004699707\' lon=\'-5.903183460235596\'>
<ele>982</ele>
<time>2020-11-01T15:30:53Z</time>
</trkpt>
<trkpt lat=\'40.26731491088867\' lon=\'-5.902966499328613\'>
<ele>982</ele>
<time>2020-11-01T15:30:55Z</time>
</trkpt>
<trkpt lat=\'40.26744842529297\' lon=\'-5.902716636657715\'>
<ele>981</ele>
<time>2020-11-01T15:30:57Z</time>
</trkpt>
<trkpt lat=\'40.2675666809082\' lon=\'-5.902466773986816\'>
<ele>983</ele>
<time>2020-11-01T15:30:59Z</time>
</trkpt>
<trkpt lat=\'40.26768493652344\' lon=\'-5.902233123779297\'>
<ele>984</ele>
<time>2020-11-01T15:31:01Z</time>
</trkpt>
<trkpt lat=\'40.267784118652344\' lon=\'-5.9019999504089355\'>
<ele>984</ele>
<time>2020-11-01T15:31:03Z</time>
</trkpt>
<trkpt lat=\'40.26788330078125\' lon=\'-5.901750087738037\'>
<ele>984</ele>
<time>2020-11-01T15:31:05Z</time>
</trkpt>
<trkpt lat=\'40.267967224121094\' lon=\'-5.901516914367676\'>
<ele>984</ele>
<time>2020-11-01T15:31:07Z</time>
</trkpt>
<trkpt lat=\'40.26805114746094\' lon=\'-5.901266574859619\'>
<ele>983</ele>
<time>2020-11-01T15:31:09Z</time>
</trkpt>
<trkpt lat=\'40.26813507080078\' lon=\'-5.901000022888184\'>
<ele>981</ele>
<time>2020-11-01T15:31:11Z</time>
</trkpt>
<trkpt lat=\'40.26821517944336\' lon=\'-5.900733470916748\'>
<ele>980</ele>
<time>2020-11-01T15:31:13Z</time>
</trkpt>
<trkpt lat=\'40.26828384399414\' lon=\'-5.900483131408691\'>
<ele>979</ele>
<time>2020-11-01T15:31:15Z</time>
</trkpt>
<trkpt lat=\'40.268348693847656\' lon=\'-5.900216579437256\'>
<ele>978</ele>
<time>2020-11-01T15:31:17Z</time>
</trkpt>
<trkpt lat=\'40.26841735839844\' lon=\'-5.899933338165283\'>
<ele>979</ele>
<time>2020-11-01T15:31:19Z</time>
</trkpt>
<trkpt lat=\'40.26848220825195\' lon=\'-5.899683475494385\'>
<ele>982</ele>
<time>2020-11-01T15:31:21Z</time>
</trkpt>
<trkpt lat=\'40.268550872802734\' lon=\'-5.899433135986328\'>
<ele>982</ele>
<time>2020-11-01T15:31:23Z</time>
</trkpt>
<trkpt lat=\'40.26861572265625\' lon=\'-5.899166584014893\'>
<ele>982</ele>
<time>2020-11-01T15:31:25Z</time>
</trkpt>
<trkpt lat=\'40.268699645996094\' lon=\'-5.898900032043457\'>
<ele>983</ele>
<time>2020-11-01T15:31:27Z</time>
</trkpt>
<trkpt lat=\'40.26878356933594\' lon=\'-5.898650169372559\'>
<ele>985</ele>
<time>2020-11-01T15:31:29Z</time>
</trkpt>
<trkpt lat=\'40.26886749267578\' lon=\'-5.898383140563965\'>
<ele>985</ele>
<time>2020-11-01T15:31:31Z</time>
</trkpt>
<trkpt lat=\'40.268951416015625\' lon=\'-5.898133277893066\'>
<ele>986</ele>
<time>2020-11-01T15:31:33Z</time>
</trkpt>
<trkpt lat=\'40.26905059814453\' lon=\'-5.897883415222168\'>
<ele>986</ele>
<time>2020-11-01T15:31:35Z</time>
</trkpt>
<trkpt lat=\'40.269134521484375\' lon=\'-5.897616386413574\'>
<ele>986</ele>
<time>2020-11-01T15:31:37Z</time>
</trkpt>
<trkpt lat=\'40.26923370361328\' lon=\'-5.897366523742676\'>
<ele>985</ele>
<time>2020-11-01T15:31:39Z</time>
</trkpt>
<trkpt lat=\'40.269317626953125\' lon=\'-5.89709997177124\'>
<ele>985</ele>
<time>2020-11-01T15:31:41Z</time>
</trkpt>
<trkpt lat=\'40.26940155029297\' lon=\'-5.896833419799805\'>
<ele>984</ele>
<time>2020-11-01T15:31:43Z</time>
</trkpt>
<trkpt lat=\'40.269500732421875\' lon=\'-5.896583557128906\'>
<ele>983</ele>
<time>2020-11-01T15:31:45Z</time>
</trkpt>
<trkpt lat=\'40.269615173339844\' lon=\'-5.89633321762085\'>
<ele>984</ele>
<time>2020-11-01T15:31:47Z</time>
</trkpt>
<trkpt lat=\'40.26973342895508\' lon=\'-5.896083354949951\'>
<ele>985</ele>
<time>2020-11-01T15:31:49Z</time>
</trkpt>
<trkpt lat=\'40.269832611083984\' lon=\'-5.89585018157959\'>
<ele>986</ele>
<time>2020-11-01T15:31:51Z</time>
</trkpt>
<trkpt lat=\'40.26996612548828\' lon=\'-5.895633220672607\'>
<ele>986</ele>
<time>2020-11-01T15:31:53Z</time>
</trkpt>
<trkpt lat=\'40.270084381103516\' lon=\'-5.895383358001709\'>
<ele>986</ele>
<time>2020-11-01T15:31:55Z</time>
</trkpt>
<trkpt lat=\'40.270198822021484\' lon=\'-5.8951334953308105\'>
<ele>988</ele>
<time>2020-11-01T15:31:57Z</time>
</trkpt>
<trkpt lat=\'40.27031707763672\' lon=\'-5.894916534423828\'>
<ele>990</ele>
<time>2020-11-01T15:31:59Z</time>
</trkpt>
<trkpt lat=\'40.27043151855469\' lon=\'-5.894700050354004\'>
<ele>990</ele>
<time>2020-11-01T15:32:01Z</time>
</trkpt>
<trkpt lat=\'40.27053451538086\' lon=\'-5.8944501876831055\'>
<ele>990</ele>
<time>2020-11-01T15:32:03Z</time>
</trkpt>
<trkpt lat=\'40.270633697509766\' lon=\'-5.894199848175049\'>
<ele>992</ele>
<time>2020-11-01T15:32:05Z</time>
</trkpt>
<trkpt lat=\'40.27071762084961\' lon=\'-5.8939666748046875\'>
<ele>993</ele>
<time>2020-11-01T15:32:07Z</time>
</trkpt>
<trkpt lat=\'40.27080154418945\' lon=\'-5.893700122833252\'>
<ele>993</ele>
<time>2020-11-01T15:32:09Z</time>
</trkpt>
<trkpt lat=\'40.27088165283203\' lon=\'-5.893433570861816\'>
<ele>994</ele>
<time>2020-11-01T15:32:11Z</time>
</trkpt>
<trkpt lat=\'40.270965576171875\' lon=\'-5.89318323135376\'>
<ele>995</ele>
<time>2020-11-01T15:32:13Z</time>
</trkpt>
<trkpt lat=\'40.27104949951172\' lon=\'-5.892933368682861\'>
<ele>996</ele>
<time>2020-11-01T15:32:15Z</time>
</trkpt>
<trkpt lat=\'40.2711181640625\' lon=\'-5.892666816711426\'>
<ele>996</ele>
<time>2020-11-01T15:32:17Z</time>
</trkpt>
<trkpt lat=\'40.271183013916016\' lon=\'-5.892399787902832\'>
<ele>997</ele>
<time>2020-11-01T15:32:19Z</time>
</trkpt>
<trkpt lat=\'40.2712516784668\' lon=\'-5.892149925231934\'>
<ele>998</ele>
<time>2020-11-01T15:32:21Z</time>
</trkpt>
<trkpt lat=\'40.27131652832031\' lon=\'-5.891900062561035\'>
<ele>998</ele>
<time>2020-11-01T15:32:23Z</time>
</trkpt>
<trkpt lat=\'40.271385192871094\' lon=\'-5.8916335105896\'>
<ele>998</ele>
<time>2020-11-01T15:32:25Z</time>
</trkpt>
<trkpt lat=\'40.27143478393555\' lon=\'-5.891383171081543\'>
<ele>999</ele>
<time>2020-11-01T15:32:27Z</time>
</trkpt>
<trkpt lat=\'40.27149963378906\' lon=\'-5.8911333084106445\'>
<ele>1001</ele>
<time>2020-11-01T15:32:29Z</time>
</trkpt>
<trkpt lat=\'40.271568298339844\' lon=\'-5.890883445739746\'>
<ele>1001</ele>
<time>2020-11-01T15:32:31Z</time>
</trkpt>
<trkpt lat=\'40.2716178894043\' lon=\'-5.890616416931152\'>
<ele>1002</ele>
<time>2020-11-01T15:32:33Z</time>
</trkpt>
<trkpt lat=\'40.27170181274414\' lon=\'-5.890349864959717\'>
<ele>1004</ele>
<time>2020-11-01T15:32:35Z</time>
</trkpt>
<trkpt lat=\'40.27180099487305\' lon=\'-5.890100002288818\'>
<ele>1007</ele>
<time>2020-11-01T15:32:37Z</time>
</trkpt>
<trkpt lat=\'40.27188491821289\' lon=\'-5.88985013961792\'>
<ele>1008</ele>
<time>2020-11-01T15:32:39Z</time>
</trkpt>
<trkpt lat=\'40.27199935913086\' lon=\'-5.8896164894104\'>
<ele>1009</ele>
<time>2020-11-01T15:32:41Z</time>
</trkpt>
<trkpt lat=\'40.272117614746094\' lon=\'-5.889383316040039\'>
<ele>1011</ele>
<time>2020-11-01T15:32:43Z</time>
</trkpt>
<trkpt lat=\'40.27225112915039\' lon=\'-5.889183521270752\'>
<ele>1012</ele>
<time>2020-11-01T15:32:45Z</time>
</trkpt>
<trkpt lat=\'40.27236557006836\' lon=\'-5.8889665603637695\'>
<ele>1013</ele>
<time>2020-11-01T15:32:47Z</time>
</trkpt>
<trkpt lat=\'40.27246856689453\' lon=\'-5.888733386993408\'>
<ele>1014</ele>
<time>2020-11-01T15:32:49Z</time>
</trkpt>
<trkpt lat=\'40.27256774902344\' lon=\'-5.888500213623047\'>
<ele>1015</ele>
<time>2020-11-01T15:32:51Z</time>
</trkpt>
<trkpt lat=\'40.272666931152344\' lon=\'-5.888266563415527\'>
<ele>1016</ele>
<time>2020-11-01T15:32:53Z</time>
</trkpt>
<trkpt lat=\'40.27273178100586\' lon=\'-5.888033390045166\'>
<ele>1017</ele>
<time>2020-11-01T15:32:55Z</time>
</trkpt>
<trkpt lat=\'40.27280044555664\' lon=\'-5.887783050537109\'>
<ele>1018</ele>
<time>2020-11-01T15:32:57Z</time>
</trkpt>
<trkpt lat=\'40.272850036621094\' lon=\'-5.887566566467285\'>
<ele>1017</ele>
<time>2020-11-01T15:32:59Z</time>
</trkpt>
<trkpt lat=\'40.272884368896484\' lon=\'-5.887316703796387\'>
<ele>1013</ele>
<time>2020-11-01T15:33:01Z</time>
</trkpt>
<trkpt lat=\'40.27289962768555\' lon=\'-5.887050151824951\'>
<ele>1008</ele>
<time>2020-11-01T15:33:03Z</time>
</trkpt>
<trkpt lat=\'40.27291488647461\' lon=\'-5.88676643371582\'>
<ele>1005</ele>
<time>2020-11-01T15:33:05Z</time>
</trkpt>
<trkpt lat=\'40.27289962768555\' lon=\'-5.886499881744385\'>
<ele>1003</ele>
<time>2020-11-01T15:33:07Z</time>
</trkpt>
<trkpt lat=\'40.27289962768555\' lon=\'-5.886199951171875\'>
<ele>1002</ele>
<time>2020-11-01T15:33:09Z</time>
</trkpt>
<trkpt lat=\'40.27291488647461\' lon=\'-5.8859333992004395\'>
<ele>1004</ele>
<time>2020-11-01T15:33:11Z</time>
</trkpt>
<trkpt lat=\'40.27293395996094\' lon=\'-5.885666847229004\'>
<ele>1006</ele>
<time>2020-11-01T15:33:13Z</time>
</trkpt>
<trkpt lat=\'40.27296829223633\' lon=\'-5.885416507720947\'>
<ele>1007</ele>
<time>2020-11-01T15:33:15Z</time>
</trkpt>
<trkpt lat=\'40.27299880981445\' lon=\'-5.885133266448975\'>
<ele>1008</ele>
<time>2020-11-01T15:33:17Z</time>
</trkpt>
<trkpt lat=\'40.273067474365234\' lon=\'-5.884883403778076\'>
<ele>1009</ele>
<time>2020-11-01T15:33:19Z</time>
</trkpt>
<trkpt lat=\'40.27313232421875\' lon=\'-5.8846330642700195\'>
<ele>1011</ele>
<time>2020-11-01T15:33:21Z</time>
</trkpt>
<trkpt lat=\'40.27320098876953\' lon=\'-5.884383201599121\'>
<ele>1012</ele>
<time>2020-11-01T15:33:23Z</time>
</trkpt>
<trkpt lat=\'40.27326583862305\' lon=\'-5.884133338928223\'>
<ele>1013</ele>
<time>2020-11-01T15:33:25Z</time>
</trkpt>
<trkpt lat=\'40.2733154296875\' lon=\'-5.883866786956787\'>
<ele>1014</ele>
<time>2020-11-01T15:33:27Z</time>
</trkpt>
<trkpt lat=\'40.27336502075195\' lon=\'-5.8836164474487305\'>
<ele>1015</ele>
<time>2020-11-01T15:33:29Z</time>
</trkpt>
<trkpt lat=\'40.273399353027344\' lon=\'-5.883366584777832\'>
<ele>1014</ele>
<time>2020-11-01T15:33:31Z</time>
</trkpt>
<trkpt lat=\'40.27341842651367\' lon=\'-5.8831000328063965\'>
<ele>1014</ele>
<time>2020-11-01T15:33:33Z</time>
</trkpt>
<trkpt lat=\'40.2734489440918\' lon=\'-5.882850170135498\'>
<ele>1014</ele>
<time>2020-11-01T15:33:35Z</time>
</trkpt>
<trkpt lat=\'40.2734489440918\' lon=\'-5.8825836181640625\'>
<ele>1013</ele>
<time>2020-11-01T15:33:37Z</time>
</trkpt>
<trkpt lat=\'40.2734489440918\' lon=\'-5.882316589355469\'>
<ele>1012</ele>
<time>2020-11-01T15:33:39Z</time>
</trkpt>
<trkpt lat=\'40.2734489440918\' lon=\'-5.88206672668457\'>
<ele>1011</ele>
<time>2020-11-01T15:33:41Z</time>
</trkpt>
<trkpt lat=\'40.273433685302734\' lon=\'-5.881800174713135\'>
<ele>1010</ele>
<time>2020-11-01T15:33:43Z</time>
</trkpt>
<trkpt lat=\'40.273399353027344\' lon=\'-5.881549835205078\'>
<ele>1009</ele>
<time>2020-11-01T15:33:45Z</time>
</trkpt>
<trkpt lat=\'40.27338409423828\' lon=\'-5.881283283233643\'>
<ele>1009</ele>
<time>2020-11-01T15:33:47Z</time>
</trkpt>
<trkpt lat=\'40.27338409423828\' lon=\'-5.881016731262207\'>
<ele>1011</ele>
<time>2020-11-01T15:33:49Z</time>
</trkpt>
<trkpt lat=\'40.273399353027344\' lon=\'-5.880766868591309\'>
<ele>1013</ele>
<time>2020-11-01T15:33:51Z</time>
</trkpt>
<trkpt lat=\'40.27341842651367\' lon=\'-5.880499839782715\'>
<ele>1013</ele>
<time>2020-11-01T15:33:53Z</time>
</trkpt>
<trkpt lat=\'40.273433685302734\' lon=\'-5.880233287811279\'>
<ele>1014</ele>
<time>2020-11-01T15:33:55Z</time>
</trkpt>
<trkpt lat=\'40.273468017578125\' lon=\'-5.879983425140381\'>
<ele>1015</ele>
<time>2020-11-01T15:33:57Z</time>
</trkpt>
<trkpt lat=\'40.27349853515625\' lon=\'-5.879716873168945\'>
<ele>1016</ele>
<time>2020-11-01T15:33:59Z</time>
</trkpt>
<trkpt lat=\'40.2735481262207\' lon=\'-5.879466533660889\'>
<ele>1018</ele>
<time>2020-11-01T15:34:01Z</time>
</trkpt>
<trkpt lat=\'40.273582458496094\' lon=\'-5.87921667098999\'>
<ele>1019</ele>
<time>2020-11-01T15:34:03Z</time>
</trkpt>
<trkpt lat=\'40.273616790771484\' lon=\'-5.878950119018555\'>
<ele>1020</ele>
<time>2020-11-01T15:34:05Z</time>
</trkpt>
<trkpt lat=\'40.27366638183594\' lon=\'-5.878700256347656\'>
<ele>1021</ele>
<time>2020-11-01T15:34:07Z</time>
</trkpt>
<trkpt lat=\'40.27371597290039\' lon=\'-5.8784499168396\'>
<ele>1022</ele>
<time>2020-11-01T15:34:09Z</time>
</trkpt>
<trkpt lat=\'40.273765563964844\' lon=\'-5.878200054168701\'>
<ele>1023</ele>
<time>2020-11-01T15:34:11Z</time>
</trkpt>
<trkpt lat=\'40.2738151550293\' lon=\'-5.877933502197266\'>
<ele>1024</ele>
<time>2020-11-01T15:34:13Z</time>
</trkpt>
<trkpt lat=\'40.27386474609375\' lon=\'-5.877699851989746\'>
<ele>1025</ele>
<time>2020-11-01T15:34:15Z</time>
</trkpt>
<trkpt lat=\'40.27393341064453\' lon=\'-5.877449989318848\'>
<ele>1026</ele>
<time>2020-11-01T15:34:17Z</time>
</trkpt>
<trkpt lat=\'40.273983001708984\' lon=\'-5.877183437347412\'>
<ele>1027</ele>
<time>2020-11-01T15:34:19Z</time>
</trkpt>
<trkpt lat=\'40.274051666259766\' lon=\'-5.8769330978393555\'>
<ele>1029</ele>
<time>2020-11-01T15:34:21Z</time>
</trkpt>
<trkpt lat=\'40.27408218383789\' lon=\'-5.876683235168457\'>
<ele>1030</ele>
<time>2020-11-01T15:34:23Z</time>
</trkpt>
<trkpt lat=\'40.274131774902344\' lon=\'-5.876433372497559\'>
<ele>1031</ele>
<time>2020-11-01T15:34:25Z</time>
</trkpt>
<trkpt lat=\'40.274200439453125\' lon=\'-5.87618350982666\'>
<ele>1032</ele>
<time>2020-11-01T15:34:27Z</time>
</trkpt>
<trkpt lat=\'40.27425003051758\' lon=\'-5.8759331703186035\'>
<ele>1034</ele>
<time>2020-11-01T15:34:29Z</time>
</trkpt>
<trkpt lat=\'40.27429962158203\' lon=\'-5.875683307647705\'>
<ele>1035</ele>
<time>2020-11-01T15:34:31Z</time>
</trkpt>
<trkpt lat=\'40.274349212646484\' lon=\'-5.875433444976807\'>
<ele>1036</ele>
<time>2020-11-01T15:34:33Z</time>
</trkpt>
<trkpt lat=\'40.27439880371094\' lon=\'-5.875200271606445\'>
<ele>1038</ele>
<time>2020-11-01T15:34:35Z</time>
</trkpt>
<trkpt lat=\'40.27444839477539\' lon=\'-5.874949932098389\'>
<ele>1040</ele>
<time>2020-11-01T15:34:37Z</time>
</trkpt>
<trkpt lat=\'40.27451705932617\' lon=\'-5.874716758728027\'>
<ele>1041</ele>
<time>2020-11-01T15:34:39Z</time>
</trkpt>
<trkpt lat=\'40.274566650390625\' lon=\'-5.874483108520508\'>
<ele>1042</ele>
<time>2020-11-01T15:34:41Z</time>
</trkpt>
<trkpt lat=\'40.27463150024414\' lon=\'-5.874233245849609\'>
<ele>1043</ele>
<time>2020-11-01T15:34:43Z</time>
</trkpt>
<trkpt lat=\'40.27468490600586\' lon=\'-5.874000072479248\'>
<ele>1044</ele>
<time>2020-11-01T15:34:45Z</time>
</trkpt>
<trkpt lat=\'40.27473449707031\' lon=\'-5.873766899108887\'>
<ele>1042</ele>
<time>2020-11-01T15:34:47Z</time>
</trkpt>
<trkpt lat=\'40.274784088134766\' lon=\'-5.87351655960083\'>
<ele>1042</ele>
<time>2020-11-01T15:34:49Z</time>
</trkpt>
<trkpt lat=\'40.274818420410156\' lon=\'-5.873266696929932\'>
<ele>1044</ele>
<time>2020-11-01T15:34:51Z</time>
</trkpt>
<trkpt lat=\'40.27486801147461\' lon=\'-5.87303352355957\'>
<ele>1045</ele>
<time>2020-11-01T15:34:53Z</time>
</trkpt>
<trkpt lat=\'40.274898529052734\' lon=\'-5.872799873352051\'>
<ele>1044</ele>
<time>2020-11-01T15:34:55Z</time>
</trkpt>
<trkpt lat=\'40.27491760253906\' lon=\'-5.872550010681152\'>
<ele>1045</ele>
<time>2020-11-01T15:34:57Z</time>
</trkpt>
<trkpt lat=\'40.274932861328125\' lon=\'-5.872300148010254\'>
<ele>1047</ele>
<time>2020-11-01T15:34:59Z</time>
</trkpt>
<trkpt lat=\'40.274932861328125\' lon=\'-5.872066497802734\'>
<ele>1047</ele>
<time>2020-11-01T15:35:01Z</time>
</trkpt>
<trkpt lat=\'40.274932861328125\' lon=\'-5.871816635131836\'>
<ele>1045</ele>
<time>2020-11-01T15:35:03Z</time>
</trkpt>
<trkpt lat=\'40.27491760253906\' lon=\'-5.8715667724609375\'>
<ele>1044</ele>
<time>2020-11-01T15:35:05Z</time>
</trkpt>
<trkpt lat=\'40.274898529052734\' lon=\'-5.871316909790039\'>
<ele>1043</ele>
<time>2020-11-01T15:35:07Z</time>
</trkpt>
<trkpt lat=\'40.27486801147461\' lon=\'-5.871066570281982\'>
<ele>1043</ele>
<time>2020-11-01T15:35:09Z</time>
</trkpt>
<trkpt lat=\'40.27483367919922\' lon=\'-5.870833396911621\'>
<ele>1042</ele>
<time>2020-11-01T15:35:11Z</time>
</trkpt>
<trkpt lat=\'40.27479934692383\' lon=\'-5.8705668449401855\'>
<ele>1041</ele>
<time>2020-11-01T15:35:13Z</time>
</trkpt>
<trkpt lat=\'40.27476501464844\' lon=\'-5.870316505432129\'>
<ele>1041</ele>
<time>2020-11-01T15:35:15Z</time>
</trkpt>
<trkpt lat=\'40.274715423583984\' lon=\'-5.870083332061768\'>
<ele>1041</ele>
<time>2020-11-01T15:35:17Z</time>
</trkpt>
<trkpt lat=\'40.27473449707031\' lon=\'-5.869850158691406\'>
<ele>1040</ele>
<time>2020-11-01T15:35:19Z</time>
</trkpt>
<trkpt lat=\'40.27483367919922\' lon=\'-5.869616508483887\'>
<ele>1040</ele>
<time>2020-11-01T15:35:21Z</time>
</trkpt>
<trkpt lat=\'40.274967193603516\' lon=\'-5.869433403015137\'>
<ele>1042</ele>
<time>2020-11-01T15:35:23Z</time>
</trkpt>
<trkpt lat=\'40.275150299072266\' lon=\'-5.869316577911377\'>
<ele>1042</ele>
<time>2020-11-01T15:35:25Z</time>
</trkpt>
<trkpt lat=\'40.275333404541016\' lon=\'-5.8692169189453125\'>
<ele>1042</ele>
<time>2020-11-01T15:35:27Z</time>
</trkpt>
<trkpt lat=\'40.27553176879883\' lon=\'-5.869100093841553\'>
<ele>1042</ele>
<time>2020-11-01T15:35:29Z</time>
</trkpt>
<trkpt lat=\'40.275699615478516\' lon=\'-5.868966579437256\'>
<ele>1042</ele>
<time>2020-11-01T15:35:31Z</time>
</trkpt>
<trkpt lat=\'40.275882720947266\' lon=\'-5.86881685256958\'>
<ele>1043</ele>
<time>2020-11-01T15:35:33Z</time>
</trkpt>
<trkpt lat=\'40.27605056762695\' lon=\'-5.868666648864746\'>
<ele>1045</ele>
<time>2020-11-01T15:35:35Z</time>
</trkpt>
<trkpt lat=\'40.27619934082031\' lon=\'-5.868499755859375\'>
<ele>1046</ele>
<time>2020-11-01T15:35:37Z</time>
</trkpt>
<trkpt lat=\'40.27633285522461\' lon=\'-5.868316650390625\'>
<ele>1044</ele>
<time>2020-11-01T15:35:39Z</time>
</trkpt>
<trkpt lat=\'40.276466369628906\' lon=\'-5.868116855621338\'>
<ele>1043</ele>
<time>2020-11-01T15:35:41Z</time>
</trkpt>
<trkpt lat=\'40.27658462524414\' lon=\'-5.8678998947143555\'>
<ele>1043</ele>
<time>2020-11-01T15:35:43Z</time>
</trkpt>
<trkpt lat=\'40.27668380737305\' lon=\'-5.867666721343994\'>
<ele>1042</ele>
<time>2020-11-01T15:35:45Z</time>
</trkpt>
<trkpt lat=\'40.27678298950195\' lon=\'-5.867449760437012\'>
<ele>1041</ele>
<time>2020-11-01T15:35:47Z</time>
</trkpt>
<trkpt lat=\'40.2768669128418\' lon=\'-5.867199897766113\'>
<ele>1040</ele>
<time>2020-11-01T15:35:49Z</time>
</trkpt>
<trkpt lat=\'40.27693176269531\' lon=\'-5.866966724395752\'>
<ele>1039</ele>
<time>2020-11-01T15:35:51Z</time>
</trkpt>
<trkpt lat=\'40.277000427246094\' lon=\'-5.866733551025391\'>
<ele>1038</ele>
<time>2020-11-01T15:35:53Z</time>
</trkpt>
<trkpt lat=\'40.27705001831055\' lon=\'-5.866466522216797\'>
<ele>1037</ele>
<time>2020-11-01T15:35:55Z</time>
</trkpt>
<trkpt lat=\'40.27706527709961\' lon=\'-5.866216659545898\'>
<ele>1037</ele>
<time>2020-11-01T15:35:57Z</time>
</trkpt>
<trkpt lat=\'40.27706527709961\' lon=\'-5.865983486175537\'>
<ele>1036</ele>
<time>2020-11-01T15:35:59Z</time>
</trkpt>
<trkpt lat=\'40.27708435058594\' lon=\'-5.865749835968018\'>
<ele>1035</ele>
<time>2020-11-01T15:36:01Z</time>
</trkpt>
<trkpt lat=\'40.27708435058594\' lon=\'-5.865483283996582\'>
<ele>1033</ele>
<time>2020-11-01T15:36:03Z</time>
</trkpt>
<trkpt lat=\'40.277099609375\' lon=\'-5.865233421325684\'>
<ele>1032</ele>
<time>2020-11-01T15:36:05Z</time>
</trkpt>
<trkpt lat=\'40.27716827392578\' lon=\'-5.864999771118164\'>
<ele>1031</ele>
<time>2020-11-01T15:36:07Z</time>
</trkpt>
<trkpt lat=\'40.27731704711914\' lon=\'-5.864816665649414\'>
<ele>1031</ele>
<time>2020-11-01T15:36:09Z</time>
</trkpt>
<trkpt lat=\'40.27750015258789\' lon=\'-5.864716529846191\'>
<ele>1031</ele>
<time>2020-11-01T15:36:11Z</time>
</trkpt>
<trkpt lat=\'40.2776985168457\' lon=\'-5.864716529846191\'>
<ele>1030</ele>
<time>2020-11-01T15:36:13Z</time>
</trkpt>
<trkpt lat=\'40.277915954589844\' lon=\'-5.864816665649414\'>
<ele>1028</ele>
<time>2020-11-01T15:36:15Z</time>
</trkpt>
<trkpt lat=\'40.278099060058594\' lon=\'-5.864999771118164\'>
<ele>1027</ele>
<time>2020-11-01T15:36:17Z</time>
</trkpt>
<trkpt lat=\'40.27825164794922\' lon=\'-5.865233421325684\'>
<ele>1027</ele>
<time>2020-11-01T15:36:19Z</time>
</trkpt>
<trkpt lat=\'40.2783317565918\' lon=\'-5.865499973297119\'>
<ele>1025</ele>
<time>2020-11-01T15:36:21Z</time>
</trkpt>
<trkpt lat=\'40.27840042114258\' lon=\'-5.865799903869629\'>
<ele>1024</ele>
<time>2020-11-01T15:36:23Z</time>
</trkpt>
<trkpt lat=\'40.27843475341797\' lon=\'-5.866083145141602\'>
<ele>1022</ele>
<time>2020-11-01T15:36:25Z</time>
</trkpt>
<trkpt lat=\'40.27845001220703\' lon=\'-5.8663835525512695\'>
<ele>1017</ele>
<time>2020-11-01T15:36:27Z</time>
</trkpt>
<trkpt lat=\'40.27845001220703\' lon=\'-5.866700172424316\'>
<ele>1014</ele>
<time>2020-11-01T15:36:29Z</time>
</trkpt>
<trkpt lat=\'40.27845001220703\' lon=\'-5.867000102996826\'>
<ele>1010</ele>
<time>2020-11-01T15:36:31Z</time>
</trkpt>
<trkpt lat=\'40.27841567993164\' lon=\'-5.867316722869873\'>
<ele>1008</ele>
<time>2020-11-01T15:36:33Z</time>
</trkpt>
<trkpt lat=\'40.27841567993164\' lon=\'-5.86763334274292\'>
<ele>1008</ele>
<time>2020-11-01T15:36:35Z</time>
</trkpt>
<trkpt lat=\'40.27840042114258\' lon=\'-5.867916584014893\'>
<ele>1007</ele>
<time>2020-11-01T15:36:37Z</time>
</trkpt>
<trkpt lat=\'40.27840042114258\' lon=\'-5.868183135986328\'>
<ele>1002</ele>
<time>2020-11-01T15:36:39Z</time>
</trkpt>
<trkpt lat=\'40.27843475341797\' lon=\'-5.868499755859375\'>
<ele>996</ele>
<time>2020-11-01T15:36:41Z</time>
</trkpt>
<trkpt lat=\'40.27848434448242\' lon=\'-5.86881685256958\'>
<ele>993</ele>
<time>2020-11-01T15:36:43Z</time>
</trkpt>
<trkpt lat=\'40.278533935546875\' lon=\'-5.86911678314209\'>
<ele>993</ele>
<time>2020-11-01T15:36:45Z</time>
</trkpt>
<trkpt lat=\'40.27859878540039\' lon=\'-5.869383335113525\'>
<ele>991</ele>
<time>2020-11-01T15:36:47Z</time>
</trkpt>
<trkpt lat=\'40.278682708740234\' lon=\'-5.869666576385498\'>
<ele>988</ele>
<time>2020-11-01T15:36:49Z</time>
</trkpt>
<trkpt lat=\'40.27881622314453\' lon=\'-5.869949817657471\'>
<ele>989</ele>
<time>2020-11-01T15:36:51Z</time>
</trkpt>
<trkpt lat=\'40.27891540527344\' lon=\'-5.87018346786499\'>
<ele>992</ele>
<time>2020-11-01T15:36:53Z</time>
</trkpt>
<trkpt lat=\'40.27903366088867\' lon=\'-5.870416641235352\'>
<ele>990</ele>
<time>2020-11-01T15:36:55Z</time>
</trkpt>
<trkpt lat=\'40.27918243408203\' lon=\'-5.870649814605713\'>
<ele>987</ele>
<time>2020-11-01T15:36:57Z</time>
</trkpt>
<trkpt lat=\'40.27931594848633\' lon=\'-5.8709001541137695\'>
<ele>986</ele>
<time>2020-11-01T15:36:59Z</time>
</trkpt>
<trkpt lat=\'40.27946853637695\' lon=\'-5.871116638183594\'>
<ele>986</ele>
<time>2020-11-01T15:37:01Z</time>
</trkpt>
<trkpt lat=\'40.27961730957031\' lon=\'-5.871333122253418\'>
<ele>984</ele>
<time>2020-11-01T15:37:03Z</time>
</trkpt>
<trkpt lat=\'40.27976608276367\' lon=\'-5.8715500831604\'>
<ele>982</ele>
<time>2020-11-01T15:37:05Z</time>
</trkpt>
<trkpt lat=\'40.27993392944336\' lon=\'-5.8717498779296875\'>
<ele>980</ele>
<time>2020-11-01T15:37:07Z</time>
</trkpt>
<trkpt lat=\'40.28011703491211\' lon=\'-5.871950149536133\'>
<ele>979</ele>
<time>2020-11-01T15:37:09Z</time>
</trkpt>
<trkpt lat=\'40.28030014038086\' lon=\'-5.872116565704346\'>
<ele>979</ele>
<time>2020-11-01T15:37:11Z</time>
</trkpt>
<trkpt lat=\'40.28048324584961\' lon=\'-5.872250080108643\'>
<ele>978</ele>
<time>2020-11-01T15:37:13Z</time>
</trkpt>
<trkpt lat=\'40.28068161010742\' lon=\'-5.872383117675781\'>
<ele>975</ele>
<time>2020-11-01T15:37:15Z</time>
</trkpt>
<trkpt lat=\'40.28089904785156\' lon=\'-5.872499942779541\'>
<ele>975</ele>
<time>2020-11-01T15:37:17Z</time>
</trkpt>
<trkpt lat=\'40.28110122680664\' lon=\'-5.872616767883301\'>
<ele>976</ele>
<time>2020-11-01T15:37:19Z</time>
</trkpt>
<trkpt lat=\'40.281314849853516\' lon=\'-5.872699737548828\'>
<ele>976</ele>
<time>2020-11-01T15:37:21Z</time>
</trkpt>
<trkpt lat=\'40.281532287597656\' lon=\'-5.872799873352051\'>
<ele>976</ele>
<time>2020-11-01T15:37:23Z</time>
</trkpt>
<trkpt lat=\'40.281734466552734\' lon=\'-5.872900009155273\'>
<ele>978</ele>
<time>2020-11-01T15:37:25Z</time>
</trkpt>
<trkpt lat=\'40.28193283081055\' lon=\'-5.873000144958496\'>
<ele>978</ele>
<time>2020-11-01T15:37:27Z</time>
</trkpt>
<trkpt lat=\'40.282135009765625\' lon=\'-5.873116493225098\'>
<ele>978</ele>
<time>2020-11-01T15:37:29Z</time>
</trkpt>
<trkpt lat=\'40.2823486328125\' lon=\'-5.873199939727783\'>
<ele>978</ele>
<time>2020-11-01T15:37:31Z</time>
</trkpt>
<trkpt lat=\'40.28256607055664\' lon=\'-5.873283386230469\'>
<ele>979</ele>
<time>2020-11-01T15:37:33Z</time>
</trkpt>
<trkpt lat=\'40.28276824951172\' lon=\'-5.873366832733154\'>
<ele>978</ele>
<time>2020-11-01T15:37:35Z</time>
</trkpt>
<trkpt lat=\'40.28300094604492\' lon=\'-5.8734331130981445\'>
<ele>977</ele>
<time>2020-11-01T15:37:37Z</time>
</trkpt>
<trkpt lat=\'40.28321838378906\' lon=\'-5.873499870300293\'>
<ele>978</ele>
<time>2020-11-01T15:37:39Z</time>
</trkpt>
<trkpt lat=\'40.283416748046875\' lon=\'-5.873549938201904\'>
<ele>980</ele>
<time>2020-11-01T15:37:41Z</time>
</trkpt>
<trkpt lat=\'40.28361511230469\' lon=\'-5.873600006103516\'>
<ele>979</ele>
<time>2020-11-01T15:37:43Z</time>
</trkpt>
<trkpt lat=\'40.28383255004883\' lon=\'-5.87363338470459\'>
<ele>975</ele>
<time>2020-11-01T15:37:45Z</time>
</trkpt>
<trkpt lat=\'40.28406524658203\' lon=\'-5.87363338470459\'>
<ele>973</ele>
<time>2020-11-01T15:37:47Z</time>
</trkpt>
<trkpt lat=\'40.28428268432617\' lon=\'-5.873650074005127\'>
<ele>970</ele>
<time>2020-11-01T15:37:49Z</time>
</trkpt>
<trkpt lat=\'40.284515380859375\' lon=\'-5.873650074005127\'>
<ele>967</ele>
<time>2020-11-01T15:37:51Z</time>
</trkpt>
<trkpt lat=\'40.284751892089844\' lon=\'-5.87363338470459\'>
<ele>969</ele>
<time>2020-11-01T15:37:53Z</time>
</trkpt>
<trkpt lat=\'40.28496551513672\' lon=\'-5.873616695404053\'>
<ele>970</ele>
<time>2020-11-01T15:37:55Z</time>
</trkpt>
<trkpt lat=\'40.28518295288086\' lon=\'-5.873600006103516\'>
<ele>966</ele>
<time>2020-11-01T15:37:57Z</time>
</trkpt>
<trkpt lat=\'40.28541564941406\' lon=\'-5.87363338470459\'>
<ele>964</ele>
<time>2020-11-01T15:37:59Z</time>
</trkpt>
<trkpt lat=\'40.28561782836914\' lon=\'-5.873716831207275\'>
<ele>964</ele>
<time>2020-11-01T15:38:01Z</time>
</trkpt>
<trkpt lat=\'40.2857666015625\' lon=\'-5.873883247375488\'>
<ele>963</ele>
<time>2020-11-01T15:38:03Z</time>
</trkpt>
<trkpt lat=\'40.285884857177734\' lon=\'-5.874133110046387\'>
<ele>960</ele>
<time>2020-11-01T15:38:05Z</time>
</trkpt>
<trkpt lat=\'40.28594970703125\' lon=\'-5.874416828155518\'>
<ele>960</ele>
<time>2020-11-01T15:38:07Z</time>
</trkpt>
<trkpt lat=\'40.28596496582031\' lon=\'-5.87470006942749\'>
<ele>962</ele>
<time>2020-11-01T15:38:09Z</time>
</trkpt>
<trkpt lat=\'40.28596496582031\' lon=\'-5.874966621398926\'>
<ele>962</ele>
<time>2020-11-01T15:38:11Z</time>
</trkpt>
<trkpt lat=\'40.28593444824219\' lon=\'-5.875233173370361\'>
<ele>961</ele>
<time>2020-11-01T15:38:13Z</time>
</trkpt>
<trkpt lat=\'40.285884857177734\' lon=\'-5.875516891479492\'>
<ele>960</ele>
<time>2020-11-01T15:38:15Z</time>
</trkpt>
<trkpt lat=\'40.285831451416016\' lon=\'-5.875783443450928\'>
<ele>959</ele>
<time>2020-11-01T15:38:17Z</time>
</trkpt>
<trkpt lat=\'40.2857666015625\' lon=\'-5.876049995422363\'>
<ele>956</ele>
<time>2020-11-01T15:38:19Z</time>
</trkpt>
<trkpt lat=\'40.285682678222656\' lon=\'-5.876316547393799\'>
<ele>954</ele>
<time>2020-11-01T15:38:21Z</time>
</trkpt>
<trkpt lat=\'40.28559875488281\' lon=\'-5.87660026550293\'>
<ele>954</ele>
<time>2020-11-01T15:38:23Z</time>
</trkpt>
<trkpt lat=\'40.285499572753906\' lon=\'-5.876850128173828\'>
<ele>953</ele>
<time>2020-11-01T15:38:25Z</time>
</trkpt>
<trkpt lat=\'40.285400390625\' lon=\'-5.877116680145264\'>
<ele>952</ele>
<time>2020-11-01T15:38:27Z</time>
</trkpt>
<trkpt lat=\'40.28533172607422\' lon=\'-5.877383232116699\'>
<ele>951</ele>
<time>2020-11-01T15:38:29Z</time>
</trkpt>
<trkpt lat=\'40.28523254394531\' lon=\'-5.877650260925293\'>
<ele>951</ele>
<time>2020-11-01T15:38:31Z</time>
</trkpt>
<trkpt lat=\'40.28514862060547\' lon=\'-5.8779168128967285\'>
<ele>950</ele>
<time>2020-11-01T15:38:33Z</time>
</trkpt>
<trkpt lat=\'40.28508377075195\' lon=\'-5.878166675567627\'>
<ele>950</ele>
<time>2020-11-01T15:38:35Z</time>
</trkpt>
<trkpt lat=\'40.28499984741211\' lon=\'-5.8784332275390625\'>
<ele>948</ele>
<time>2020-11-01T15:38:37Z</time>
</trkpt>
<trkpt lat=\'40.2849006652832\' lon=\'-5.878683090209961\'>
<ele>946</ele>
<time>2020-11-01T15:38:39Z</time>
</trkpt>
<trkpt lat=\'40.28483200073242\' lon=\'-5.878950119018555\'>
<ele>944</ele>
<time>2020-11-01T15:38:41Z</time>
</trkpt>
<trkpt lat=\'40.284767150878906\' lon=\'-5.879233360290527\'>
<ele>943</ele>
<time>2020-11-01T15:38:43Z</time>
</trkpt>
<trkpt lat=\'40.28468322753906\' lon=\'-5.879499912261963\'>
<ele>944</ele>
<time>2020-11-01T15:38:45Z</time>
</trkpt>
<trkpt lat=\'40.28461837768555\' lon=\'-5.8797502517700195\'>
<ele>942</ele>
<time>2020-11-01T15:38:47Z</time>
</trkpt>
<trkpt lat=\'40.2845344543457\' lon=\'-5.880000114440918\'>
<ele>937</ele>
<time>2020-11-01T15:38:49Z</time>
</trkpt>
<trkpt lat=\'40.28445053100586\' lon=\'-5.880283355712891\'>
<ele>933</ele>
<time>2020-11-01T15:38:51Z</time>
</trkpt>
<trkpt lat=\'40.284366607666016\' lon=\'-5.880566596984863\'>
<ele>931</ele>
<time>2020-11-01T15:38:53Z</time>
</trkpt>
<trkpt lat=\'40.28431701660156\' lon=\'-5.880833148956299\'>
<ele>927</ele>
<time>2020-11-01T15:38:55Z</time>
</trkpt>
<trkpt lat=\'40.28424835205078\' lon=\'-5.881100177764893\'>
<ele>922</ele>
<time>2020-11-01T15:38:57Z</time>
</trkpt>
<trkpt lat=\'40.284149169921875\' lon=\'-5.881383419036865\'>
<ele>918</ele>
<time>2020-11-01T15:38:59Z</time>
</trkpt>
<trkpt lat=\'40.28408432006836\' lon=\'-5.881666660308838\'>
<ele>915</ele>
<time>2020-11-01T15:39:01Z</time>
</trkpt>
<trkpt lat=\'40.28401565551758\' lon=\'-5.881933212280273\'>
<ele>911</ele>
<time>2020-11-01T15:39:03Z</time>
</trkpt>
<trkpt lat=\'40.28391647338867\' lon=\'-5.882216453552246\'>
<ele>909</ele>
<time>2020-11-01T15:39:05Z</time>
</trkpt>
<trkpt lat=\'40.283817291259766\' lon=\'-5.88248348236084\'>
<ele>909</ele>
<time>2020-11-01T15:39:07Z</time>
</trkpt>
<trkpt lat=\'40.28371810913086\' lon=\'-5.882716655731201\'>
<ele>907</ele>
<time>2020-11-01T15:39:09Z</time>
</trkpt>
<trkpt lat=\'40.28361511230469\' lon=\'-5.8829665184021\'>
<ele>905</ele>
<time>2020-11-01T15:39:11Z</time>
</trkpt>
<trkpt lat=\'40.28353500366211\' lon=\'-5.883216857910156\'>
<ele>904</ele>
<time>2020-11-01T15:39:13Z</time>
</trkpt>
<trkpt lat=\'40.283451080322266\' lon=\'-5.883466720581055\'>
<ele>903</ele>
<time>2020-11-01T15:39:15Z</time>
</trkpt>
<trkpt lat=\'40.283416748046875\' lon=\'-5.88373327255249\'>
<ele>902</ele>
<time>2020-11-01T15:39:17Z</time>
</trkpt>
<trkpt lat=\'40.283416748046875\' lon=\'-5.884016513824463\'>
<ele>901</ele>
<time>2020-11-01T15:39:19Z</time>
</trkpt>
<trkpt lat=\'40.28346633911133\' lon=\'-5.884283065795898\'>
<ele>902</ele>
<time>2020-11-01T15:39:21Z</time>
</trkpt>
<trkpt lat=\'40.283565521240234\' lon=\'-5.884533405303955\'>
<ele>902</ele>
<time>2020-11-01T15:39:23Z</time>
</trkpt>
<trkpt lat=\'40.28368377685547\' lon=\'-5.884766578674316\'>
<ele>901</ele>
<time>2020-11-01T15:39:25Z</time>
</trkpt>
<trkpt lat=\'40.283817291259766\' lon=\'-5.884983062744141\'>
<ele>899</ele>
<time>2020-11-01T15:39:27Z</time>
</trkpt>
<trkpt lat=\'40.283966064453125\' lon=\'-5.885200023651123\'>
<ele>898</ele>
<time>2020-11-01T15:39:29Z</time>
</trkpt>
<trkpt lat=\'40.28409957885742\' lon=\'-5.88539981842041\'>
<ele>898</ele>
<time>2020-11-01T15:39:31Z</time>
</trkpt>
<trkpt lat=\'40.28419876098633\' lon=\'-5.885650157928467\'>
<ele>898</ele>
<time>2020-11-01T15:39:33Z</time>
</trkpt>
<trkpt lat=\'40.28419876098633\' lon=\'-5.885916709899902\'>
<ele>897</ele>
<time>2020-11-01T15:39:35Z</time>
</trkpt>
<trkpt lat=\'40.284114837646484\' lon=\'-5.886149883270264\'>
<ele>899</ele>
<time>2020-11-01T15:39:37Z</time>
</trkpt>
<trkpt lat=\'40.28401565551758\' lon=\'-5.886333465576172\'>
<ele>900</ele>
<time>2020-11-01T15:39:39Z</time>
</trkpt>
<trkpt lat=\'40.28388214111328\' lon=\'-5.886499881744385\'>
<ele>897</ele>
<time>2020-11-01T15:39:41Z</time>
</trkpt>
<trkpt lat=\'40.283748626708984\' lon=\'-5.886683464050293\'>
<ele>895</ele>
<time>2020-11-01T15:39:43Z</time>
</trkpt>
<trkpt lat=\'40.283599853515625\' lon=\'-5.886849880218506\'>
<ele>895</ele>
<time>2020-11-01T15:39:45Z</time>
</trkpt>
<trkpt lat=\'40.28346633911133\' lon=\'-5.887016773223877\'>
<ele>895</ele>
<time>2020-11-01T15:39:47Z</time>
</trkpt>
<trkpt lat=\'40.28331756591797\' lon=\'-5.887199878692627\'>
<ele>892</ele>
<time>2020-11-01T15:39:49Z</time>
</trkpt>
<trkpt lat=\'40.28318405151367\' lon=\'-5.887383460998535\'>
<ele>890</ele>
<time>2020-11-01T15:39:51Z</time>
</trkpt>
<trkpt lat=\'40.28306579589844\' lon=\'-5.887583255767822\'>
<ele>888</ele>
<time>2020-11-01T15:39:53Z</time>
</trkpt>
<trkpt lat=\'40.28295135498047\' lon=\'-5.887800216674805\'>
<ele>886</ele>
<time>2020-11-01T15:39:55Z</time>
</trkpt>
<trkpt lat=\'40.28281784057617\' lon=\'-5.888000011444092\'>
<ele>885</ele>
<time>2020-11-01T15:39:57Z</time>
</trkpt>
<trkpt lat=\'40.28271484375\' lon=\'-5.888199806213379\'>
<ele>884</ele>
<time>2020-11-01T15:39:59Z</time>
</trkpt>
<trkpt lat=\'40.28263473510742\' lon=\'-5.888433456420898\'>
<ele>881</ele>
<time>2020-11-01T15:40:01Z</time>
</trkpt>
<trkpt lat=\'40.282615661621094\' lon=\'-5.888700008392334\'>
<ele>880</ele>
<time>2020-11-01T15:40:03Z</time>
</trkpt>
<trkpt lat=\'40.282649993896484\' lon=\'-5.888949871063232\'>
<ele>879</ele>
<time>2020-11-01T15:40:05Z</time>
</trkpt>
<trkpt lat=\'40.282684326171875\' lon=\'-5.889183521270752\'>
<ele>878</ele>
<time>2020-11-01T15:40:07Z</time>
</trkpt>
<trkpt lat=\'40.282649993896484\' lon=\'-5.889416694641113\'>
<ele>877</ele>
<time>2020-11-01T15:40:09Z</time>
</trkpt>
<trkpt lat=\'40.28258514404297\' lon=\'-5.8896331787109375\'>
<ele>875</ele>
<time>2020-11-01T15:40:11Z</time>
</trkpt>
<trkpt lat=\'40.282501220703125\' lon=\'-5.88985013961792\'>
<ele>874</ele>
<time>2020-11-01T15:40:13Z</time>
</trkpt>
<trkpt lat=\'40.28241729736328\' lon=\'-5.890083312988281\'>
<ele>873</ele>
<time>2020-11-01T15:40:15Z</time>
</trkpt>
<trkpt lat=\'40.282318115234375\' lon=\'-5.8902997970581055\'>
<ele>870</ele>
<time>2020-11-01T15:40:17Z</time>
</trkpt>
<trkpt lat=\'40.2822151184082\' lon=\'-5.890533447265625\'>
<ele>868</ele>
<time>2020-11-01T15:40:19Z</time>
</trkpt>
<trkpt lat=\'40.28216552734375\' lon=\'-5.890783309936523\'>
<ele>867</ele>
<time>2020-11-01T15:40:21Z</time>
</trkpt>
<trkpt lat=\'40.282066345214844\' lon=\'-5.890999794006348\'>
<ele>868</ele>
<time>2020-11-01T15:40:23Z</time>
</trkpt>
<trkpt lat=\'40.28193283081055\' lon=\'-5.891183376312256\'>
<ele>866</ele>
<time>2020-11-01T15:40:25Z</time>
</trkpt>
<trkpt lat=\'40.28179931640625\' lon=\'-5.891383171081543\'>
<ele>864</ele>
<time>2020-11-01T15:40:27Z</time>
</trkpt>
<trkpt lat=\'40.28166580200195\' lon=\'-5.891566753387451\'>
<ele>862</ele>
<time>2020-11-01T15:40:29Z</time>
</trkpt>
<trkpt lat=\'40.28150177001953\' lon=\'-5.891733169555664\'>
<ele>860</ele>
<time>2020-11-01T15:40:31Z</time>
</trkpt>
<trkpt lat=\'40.281349182128906\' lon=\'-5.891866683959961\'>
<ele>856</ele>
<time>2020-11-01T15:40:33Z</time>
</trkpt>
<trkpt lat=\'40.281185150146484\' lon=\'-5.891983509063721\'>
<ele>851</ele>
<time>2020-11-01T15:40:35Z</time>
</trkpt>
<trkpt lat=\'40.2810173034668\' lon=\'-5.892149925231934\'>
<ele>847</ele>
<time>2020-11-01T15:40:37Z</time>
</trkpt>
<trkpt lat=\'40.28089904785156\' lon=\'-5.892350196838379\'>
<ele>847</ele>
<time>2020-11-01T15:40:39Z</time>
</trkpt>
<trkpt lat=\'40.280784606933594\' lon=\'-5.892549991607666\'>
<ele>846</ele>
<time>2020-11-01T15:40:41Z</time>
</trkpt>
<trkpt lat=\'40.28071594238281\' lon=\'-5.892783164978027\'>
<ele>844</ele>
<time>2020-11-01T15:40:43Z</time>
</trkpt>
<trkpt lat=\'40.2806510925293\' lon=\'-5.893033504486084\'>
<ele>844</ele>
<time>2020-11-01T15:40:45Z</time>
</trkpt>
<trkpt lat=\'40.280601501464844\' lon=\'-5.893266677856445\'>
<ele>844</ele>
<time>2020-11-01T15:40:47Z</time>
</trkpt>
<trkpt lat=\'40.28056716918945\' lon=\'-5.893499851226807\'>
<ele>843</ele>
<time>2020-11-01T15:40:49Z</time>
</trkpt>
<trkpt lat=\'40.28053283691406\' lon=\'-5.893766403198242\'>
<ele>844</ele>
<time>2020-11-01T15:40:51Z</time>
</trkpt>
<trkpt lat=\'40.280517578125\' lon=\'-5.894016742706299\'>
<ele>845</ele>
<time>2020-11-01T15:40:53Z</time>
</trkpt>
<trkpt lat=\'40.280517578125\' lon=\'-5.89424991607666\'>
<ele>845</ele>
<time>2020-11-01T15:40:55Z</time>
</trkpt>
<trkpt lat=\'40.28049850463867\' lon=\'-5.894516944885254\'>
<ele>844</ele>
<time>2020-11-01T15:40:57Z</time>
</trkpt>
<trkpt lat=\'40.28048324584961\' lon=\'-5.894766807556152\'>
<ele>843</ele>
<time>2020-11-01T15:40:59Z</time>
</trkpt>
<trkpt lat=\'40.28046798706055\' lon=\'-5.895033359527588\'>
<ele>841</ele>
<time>2020-11-01T15:41:01Z</time>
</trkpt>
<trkpt lat=\'40.28044891357422\' lon=\'-5.895299911499023\'>
<ele>839</ele>
<time>2020-11-01T15:41:03Z</time>
</trkpt>
<trkpt lat=\'40.28046798706055\' lon=\'-5.895566940307617\'>
<ele>838</ele>
<time>2020-11-01T15:41:05Z</time>
</trkpt>
<trkpt lat=\'40.28046798706055\' lon=\'-5.895816802978516\'>
<ele>838</ele>
<time>2020-11-01T15:41:07Z</time>
</trkpt>
<trkpt lat=\'40.28049850463867\' lon=\'-5.896083354949951\'>
<ele>836</ele>
<time>2020-11-01T15:41:09Z</time>
</trkpt>
<trkpt lat=\'40.28053283691406\' lon=\'-5.896349906921387\'>
<ele>833</ele>
<time>2020-11-01T15:41:11Z</time>
</trkpt>
<trkpt lat=\'40.280548095703125\' lon=\'-5.8966169357299805\'>
<ele>831</ele>
<time>2020-11-01T15:41:13Z</time>
</trkpt>
<trkpt lat=\'40.28056716918945\' lon=\'-5.896866798400879\'>
<ele>827</ele>
<time>2020-11-01T15:41:15Z</time>
</trkpt>
<trkpt lat=\'40.280616760253906\' lon=\'-5.8971333503723145\'>
<ele>822</ele>
<time>2020-11-01T15:41:17Z</time>
</trkpt>
<trkpt lat=\'40.2806510925293\' lon=\'-5.897416591644287\'>
<ele>819</ele>
<time>2020-11-01T15:41:19Z</time>
</trkpt>
<trkpt lat=\'40.28070068359375\' lon=\'-5.897683143615723\'>
<ele>819</ele>
<time>2020-11-01T15:41:21Z</time>
</trkpt>
<trkpt lat=\'40.28073501586914\' lon=\'-5.897933483123779\'>
<ele>819</ele>
<time>2020-11-01T15:41:23Z</time>
</trkpt>
<trkpt lat=\'40.280765533447266\' lon=\'-5.898200035095215\'>
<ele>816</ele>
<time>2020-11-01T15:41:25Z</time>
</trkpt>
<trkpt lat=\'40.280765533447266\' lon=\'-5.89846658706665\'>
<ele>815</ele>
<time>2020-11-01T15:41:27Z</time>
</trkpt>
<trkpt lat=\'40.28073501586914\' lon=\'-5.898716926574707\'>
<ele>816</ele>
<time>2020-11-01T15:41:29Z</time>
</trkpt>
<trkpt lat=\'40.28066635131836\' lon=\'-5.898933410644531\'>
<ele>816</ele>
<time>2020-11-01T15:41:31Z</time>
</trkpt>
<trkpt lat=\'40.28056716918945\' lon=\'-5.899166584014893\'>
<ele>815</ele>
<time>2020-11-01T15:41:33Z</time>
</trkpt>
<trkpt lat=\'40.28046798706055\' lon=\'-5.899383544921875\'>
<ele>815</ele>
<time>2020-11-01T15:41:35Z</time>
</trkpt>
<trkpt lat=\'40.28034973144531\' lon=\'-5.899600028991699\'>
<ele>817</ele>
<time>2020-11-01T15:41:37Z</time>
</trkpt>
<trkpt lat=\'40.280216217041016\' lon=\'-5.899783134460449\'>
<ele>818</ele>
<time>2020-11-01T15:41:39Z</time>
</trkpt>
<trkpt lat=\'40.28008270263672\' lon=\'-5.899966716766357\'>
<ele>819</ele>
<time>2020-11-01T15:41:41Z</time>
</trkpt>
<trkpt lat=\'40.27994918823242\' lon=\'-5.900149822235107\'>
<ele>819</ele>
<time>2020-11-01T15:41:43Z</time>
</trkpt>
<trkpt lat=\'40.279815673828125\' lon=\'-5.900333404541016\'>
<ele>820</ele>
<time>2020-11-01T15:41:45Z</time>
</trkpt>
<trkpt lat=\'40.279701232910156\' lon=\'-5.900516510009766\'>
<ele>819</ele>
<time>2020-11-01T15:41:47Z</time>
</trkpt>
<trkpt lat=\'40.27958297729492\' lon=\'-5.900716781616211\'>
<ele>817</ele>
<time>2020-11-01T15:41:49Z</time>
</trkpt>
<trkpt lat=\'40.279483795166016\' lon=\'-5.900949954986572\'>
<ele>816</ele>
<time>2020-11-01T15:41:51Z</time>
</trkpt>
<trkpt lat=\'40.27935028076172\' lon=\'-5.9011335372924805\'>
<ele>816</ele>
<time>2020-11-01T15:41:53Z</time>
</trkpt>
<trkpt lat=\'40.279232025146484\' lon=\'-5.901333332061768\'>
<ele>815</ele>
<time>2020-11-01T15:41:55Z</time>
</trkpt>
<trkpt lat=\'40.27913284301758\' lon=\'-5.901533126831055\'>
<ele>815</ele>
<time>2020-11-01T15:41:57Z</time>
</trkpt>
<trkpt lat=\'40.27899932861328\' lon=\'-5.9017333984375\'>
<ele>814</ele>
<time>2020-11-01T15:41:59Z</time>
</trkpt>
<trkpt lat=\'40.278865814208984\' lon=\'-5.901933193206787\'>
<ele>813</ele>
<time>2020-11-01T15:42:01Z</time>
</trkpt>
<trkpt lat=\'40.278751373291016\' lon=\'-5.902133464813232\'>
<ele>812</ele>
<time>2020-11-01T15:42:03Z</time>
</trkpt>
<trkpt lat=\'40.27861785888672\' lon=\'-5.9023332595825195\'>
<ele>812</ele>
<time>2020-11-01T15:42:05Z</time>
</trkpt>
<trkpt lat=\'40.278499603271484\' lon=\'-5.902533531188965\'>
<ele>811</ele>
<time>2020-11-01T15:42:07Z</time>
</trkpt>
<trkpt lat=\'40.278385162353516\' lon=\'-5.902733325958252\'>
<ele>809</ele>
<time>2020-11-01T15:42:09Z</time>
</trkpt>
<trkpt lat=\'40.27826690673828\' lon=\'-5.902966499328613\'>
<ele>808</ele>
<time>2020-11-01T15:42:11Z</time>
</trkpt>
<trkpt lat=\'40.27814865112305\' lon=\'-5.903200149536133\'>
<ele>808</ele>
<time>2020-11-01T15:42:13Z</time>
</trkpt>
<trkpt lat=\'40.27804946899414\' lon=\'-5.90339994430542\'>
<ele>809</ele>
<time>2020-11-01T15:42:15Z</time>
</trkpt>
<trkpt lat=\'40.27793502807617\' lon=\'-5.903616905212402\'>
<ele>808</ele>
<time>2020-11-01T15:42:17Z</time>
</trkpt>
<trkpt lat=\'40.27781677246094\' lon=\'-5.903850078582764\'>
<ele>807</ele>
<time>2020-11-01T15:42:19Z</time>
</trkpt>
<trkpt lat=\'40.27768325805664\' lon=\'-5.904066562652588\'>
<ele>808</ele>
<time>2020-11-01T15:42:21Z</time>
</trkpt>
<trkpt lat=\'40.277549743652344\' lon=\'-5.904250144958496\'>
<ele>808</ele>
<time>2020-11-01T15:42:23Z</time>
</trkpt>
<trkpt lat=\'40.27741622924805\' lon=\'-5.904449939727783\'>
<ele>805</ele>
<time>2020-11-01T15:42:25Z</time>
</trkpt>
<trkpt lat=\'40.27731704711914\' lon=\'-5.90470027923584\'>
<ele>803</ele>
<time>2020-11-01T15:42:27Z</time>
</trkpt>
<trkpt lat=\'40.277217864990234\' lon=\'-5.904950141906738\'>
<ele>802</ele>
<time>2020-11-01T15:42:29Z</time>
</trkpt>
<trkpt lat=\'40.27713394165039\' lon=\'-5.905200004577637\'>
<ele>803</ele>
<time>2020-11-01T15:42:31Z</time>
</trkpt>
<trkpt lat=\'40.277034759521484\' lon=\'-5.905416488647461\'>
<ele>804</ele>
<time>2020-11-01T15:42:33Z</time>
</trkpt>
<trkpt lat=\'40.27693176269531\' lon=\'-5.905633449554443\'>
<ele>805</ele>
<time>2020-11-01T15:42:35Z</time>
</trkpt>
<trkpt lat=\'40.276798248291016\' lon=\'-5.905849933624268\'>
<ele>805</ele>
<time>2020-11-01T15:42:37Z</time>
</trkpt>
<trkpt lat=\'40.276649475097656\' lon=\'-5.906033515930176\'>
<ele>806</ele>
<time>2020-11-01T15:42:39Z</time>
</trkpt>
<trkpt lat=\'40.27651596069336\' lon=\'-5.906216621398926\'>
<ele>808</ele>
<time>2020-11-01T15:42:41Z</time>
</trkpt>
<trkpt lat=\'40.27640151977539\' lon=\'-5.906416893005371\'>
<ele>811</ele>
<time>2020-11-01T15:42:43Z</time>
</trkpt>
<trkpt lat=\'40.276268005371094\' lon=\'-5.906599998474121\'>
<ele>812</ele>
<time>2020-11-01T15:42:45Z</time>
</trkpt>
<trkpt lat=\'40.2761344909668\' lon=\'-5.906800270080566\'>
<ele>813</ele>
<time>2020-11-01T15:42:47Z</time>
</trkpt>
<trkpt lat=\'40.2760009765625\' lon=\'-5.906983375549316\'>
<ele>815</ele>
<time>2020-11-01T15:42:49Z</time>
</trkpt>
<trkpt lat=\'40.2758674621582\' lon=\'-5.9071502685546875\'>
<ele>815</ele>
<time>2020-11-01T15:42:51Z</time>
</trkpt>
<trkpt lat=\'40.275733947753906\' lon=\'-5.9073166847229\'>
<ele>814</ele>
<time>2020-11-01T15:42:53Z</time>
</trkpt>
<trkpt lat=\'40.27558517456055\' lon=\'-5.907500267028809\'>
<ele>812</ele>
<time>2020-11-01T15:42:55Z</time>
</trkpt>
<trkpt lat=\'40.27545166015625\' lon=\'-5.907716751098633\'>
<ele>813</ele>
<time>2020-11-01T15:42:57Z</time>
</trkpt>
<trkpt lat=\'40.27531814575195\' lon=\'-5.907883167266846\'>
<ele>815</ele>
<time>2020-11-01T15:42:59Z</time>
</trkpt>
<trkpt lat=\'40.275184631347656\' lon=\'-5.908066749572754\'>
<ele>814</ele>
<time>2020-11-01T15:43:01Z</time>
</trkpt>
<trkpt lat=\'40.27505111694336\' lon=\'-5.908266544342041\'>
<ele>811</ele>
<time>2020-11-01T15:43:03Z</time>
</trkpt>
<trkpt lat=\'40.274898529052734\' lon=\'-5.908466815948486\'>
<ele>811</ele>
<time>2020-11-01T15:43:05Z</time>
</trkpt>
<trkpt lat=\'40.274749755859375\' lon=\'-5.908649921417236\'>
<ele>811</ele>
<time>2020-11-01T15:43:07Z</time>
</trkpt>
<trkpt lat=\'40.274600982666016\' lon=\'-5.9088335037231445\'>
<ele>809</ele>
<time>2020-11-01T15:43:09Z</time>
</trkpt>
<trkpt lat=\'40.27444839477539\' lon=\'-5.909033298492432\'>
<ele>808</ele>
<time>2020-11-01T15:43:11Z</time>
</trkpt>
<trkpt lat=\'40.27429962158203\' lon=\'-5.9091997146606445\'>
<ele>809</ele>
<time>2020-11-01T15:43:13Z</time>
</trkpt>
<trkpt lat=\'40.27415084838867\' lon=\'-5.909383296966553\'>
<ele>809</ele>
<time>2020-11-01T15:43:15Z</time>
</trkpt>
<trkpt lat=\'40.27399826049805\' lon=\'-5.909550189971924\'>
<ele>806</ele>
<time>2020-11-01T15:43:17Z</time>
</trkpt>
<trkpt lat=\'40.2738151550293\' lon=\'-5.909716606140137\'>
<ele>804</ele>
<time>2020-11-01T15:43:19Z</time>
</trkpt>
<trkpt lat=\'40.273651123046875\' lon=\'-5.909883499145508\'>
<ele>803</ele>
<time>2020-11-01T15:43:21Z</time>
</trkpt>
<trkpt lat=\'40.273468017578125\' lon=\'-5.909999847412109\'>
<ele>803</ele>
<time>2020-11-01T15:43:23Z</time>
</trkpt>
<trkpt lat=\'40.273284912109375\' lon=\'-5.910049915313721\'>
<ele>802</ele>
<time>2020-11-01T15:43:25Z</time>
</trkpt>
<trkpt lat=\'40.273067474365234\' lon=\'-5.910116672515869\'>
<ele>803</ele>
<time>2020-11-01T15:43:27Z</time>
</trkpt>
<trkpt lat=\'40.272884368896484\' lon=\'-5.910183429718018\'>
<ele>804</ele>
<time>2020-11-01T15:43:29Z</time>
</trkpt>
<trkpt lat=\'40.272701263427734\' lon=\'-5.910266876220703\'>
<ele>804</ele>
<time>2020-11-01T15:43:31Z</time>
</trkpt>
<trkpt lat=\'40.272518157958984\' lon=\'-5.910366535186768\'>
<ele>803</ele>
<time>2020-11-01T15:43:33Z</time>
</trkpt>
<trkpt lat=\'40.272315979003906\' lon=\'-5.910483360290527\'>
<ele>801</ele>
<time>2020-11-01T15:43:35Z</time>
</trkpt>
<trkpt lat=\'40.272132873535156\' lon=\'-5.910633087158203\'>
<ele>803</ele>
<time>2020-11-01T15:43:37Z</time>
</trkpt>
<trkpt lat=\'40.27196502685547\' lon=\'-5.910749912261963\'>
<ele>809</ele>
<time>2020-11-01T15:43:39Z</time>
</trkpt>
<trkpt lat=\'40.27180099487305\' lon=\'-5.91088342666626\'>
<ele>812</ele>
<time>2020-11-01T15:43:41Z</time>
</trkpt>
<trkpt lat=\'40.27163314819336\' lon=\'-5.911016464233398\'>
<ele>814</ele>
<time>2020-11-01T15:43:43Z</time>
</trkpt>
<trkpt lat=\'40.27145004272461\' lon=\'-5.911133289337158\'>
<ele>815</ele>
<time>2020-11-01T15:43:45Z</time>
</trkpt>
<trkpt lat=\'40.27128219604492\' lon=\'-5.911266803741455\'>
<ele>816</ele>
<time>2020-11-01T15:43:47Z</time>
</trkpt>
<trkpt lat=\'40.27109909057617\' lon=\'-5.911383152008057\'>
<ele>815</ele>
<time>2020-11-01T15:43:49Z</time>
</trkpt>
<trkpt lat=\'40.27091598510742\' lon=\'-5.9115166664123535\'>
<ele>816</ele>
<time>2020-11-01T15:43:51Z</time>
</trkpt>
<trkpt lat=\'40.270748138427734\' lon=\'-5.9116668701171875\'>
<ele>817</ele>
<time>2020-11-01T15:43:53Z</time>
</trkpt>
<trkpt lat=\'40.27058410644531\' lon=\'-5.911799907684326\'>
<ele>818</ele>
<time>2020-11-01T15:43:55Z</time>
</trkpt>
<trkpt lat=\'40.27040100097656\' lon=\'-5.911916732788086\'>
<ele>817</ele>
<time>2020-11-01T15:43:57Z</time>
</trkpt>
<trkpt lat=\'40.27021789550781\' lon=\'-5.912066459655762\'>
<ele>816</ele>
<time>2020-11-01T15:43:59Z</time>
</trkpt>
<trkpt lat=\'40.270050048828125\' lon=\'-5.912199974060059\'>
<ele>815</ele>
<time>2020-11-01T15:44:01Z</time>
</trkpt>
<trkpt lat=\'40.269866943359375\' lon=\'-5.912316799163818\'>
<ele>813</ele>
<time>2020-11-01T15:44:03Z</time>
</trkpt>
<trkpt lat=\'40.269683837890625\' lon=\'-5.91243314743042\'>
<ele>811</ele>
<time>2020-11-01T15:44:05Z</time>
</trkpt>
<trkpt lat=\'40.26948165893555\' lon=\'-5.912566661834717\'>
<ele>810</ele>
<time>2020-11-01T15:44:07Z</time>
</trkpt>
<trkpt lat=\'40.269317626953125\' lon=\'-5.912700176239014\'>
<ele>810</ele>
<time>2020-11-01T15:44:09Z</time>
</trkpt>
<trkpt lat=\'40.26914978027344\' lon=\'-5.912866592407227\'>
<ele>810</ele>
<time>2020-11-01T15:44:11Z</time>
</trkpt>
<trkpt lat=\'40.26896667480469\' lon=\'-5.9130167961120605\'>
<ele>811</ele>
<time>2020-11-01T15:44:13Z</time>
</trkpt>
<trkpt lat=\'40.268798828125\' lon=\'-5.913166522979736\'>
<ele>814</ele>
<time>2020-11-01T15:44:15Z</time>
</trkpt>
<trkpt lat=\'40.26863479614258\' lon=\'-5.913300037384033\'>
<ele>816</ele>
<time>2020-11-01T15:44:17Z</time>
</trkpt>
<trkpt lat=\'40.26845169067383\' lon=\'-5.913416862487793\'>
<ele>817</ele>
<time>2020-11-01T15:44:19Z</time>
</trkpt>
<trkpt lat=\'40.26828384399414\' lon=\'-5.913583278656006\'>
<ele>818</ele>
<time>2020-11-01T15:44:21Z</time>
</trkpt>
<trkpt lat=\'40.26811599731445\' lon=\'-5.913750171661377\'>
<ele>819</ele>
<time>2020-11-01T15:44:23Z</time>
</trkpt>
<trkpt lat=\'40.267948150634766\' lon=\'-5.913883209228516\'>
<ele>820</ele>
<time>2020-11-01T15:44:25Z</time>
</trkpt>
<trkpt lat=\'40.267799377441406\' lon=\'-5.914066791534424\'>
<ele>821</ele>
<time>2020-11-01T15:44:27Z</time>
</trkpt>
<trkpt lat=\'40.26763153076172\' lon=\'-5.914233207702637\'>
<ele>822</ele>
<time>2020-11-01T15:44:29Z</time>
</trkpt>
<trkpt lat=\'40.26748275756836\' lon=\'-5.914400100708008\'>
<ele>823</ele>
<time>2020-11-01T15:44:31Z</time>
</trkpt>
<trkpt lat=\'40.26731491088867\' lon=\'-5.914583206176758\'>
<ele>824</ele>
<time>2020-11-01T15:44:33Z</time>
</trkpt>
<trkpt lat=\'40.26716613769531\' lon=\'-5.914750099182129\'>
<ele>825</ele>
<time>2020-11-01T15:44:35Z</time>
</trkpt>
<trkpt lat=\'40.26701736450195\' lon=\'-5.914899826049805\'>
<ele>824</ele>
<time>2020-11-01T15:44:37Z</time>
</trkpt>
<trkpt lat=\'40.266849517822266\' lon=\'-5.91510009765625\'>
<ele>823</ele>
<time>2020-11-01T15:44:39Z</time>
</trkpt>
<trkpt lat=\'40.266700744628906\' lon=\'-5.915283203125\'>
<ele>825</ele>
<time>2020-11-01T15:44:41Z</time>
</trkpt>
<trkpt lat=\'40.26654815673828\' lon=\'-5.915450096130371\'>
<ele>827</ele>
<time>2020-11-01T15:44:43Z</time>
</trkpt>
<trkpt lat=\'40.26639938354492\' lon=\'-5.915616512298584\'>
<ele>828</ele>
<time>2020-11-01T15:44:45Z</time>
</trkpt>
<trkpt lat=\'40.26625061035156\' lon=\'-5.915800094604492\'>
<ele>830</ele>
<time>2020-11-01T15:44:47Z</time>
</trkpt>
<trkpt lat=\'40.2661018371582\' lon=\'-5.915966510772705\'>
<ele>832</ele>
<time>2020-11-01T15:44:49Z</time>
</trkpt>
<trkpt lat=\'40.26594924926758\' lon=\'-5.916150093078613\'>
<ele>834</ele>
<time>2020-11-01T15:44:51Z</time>
</trkpt>
<trkpt lat=\'40.265785217285156\' lon=\'-5.916299819946289\'>
<ele>835</ele>
<time>2020-11-01T15:44:53Z</time>
</trkpt>
<trkpt lat=\'40.26561737060547\' lon=\'-5.916483402252197\'>
<ele>836</ele>
<time>2020-11-01T15:44:55Z</time>
</trkpt>
<trkpt lat=\'40.265464782714844\' lon=\'-5.916666507720947\'>
<ele>837</ele>
<time>2020-11-01T15:44:57Z</time>
</trkpt>
<trkpt lat=\'40.26533508300781\' lon=\'-5.9168500900268555\'>
<ele>838</ele>
<time>2020-11-01T15:44:59Z</time>
</trkpt>
<trkpt lat=\'40.26518249511719\' lon=\'-5.9170331954956055\'>
<ele>838</ele>
<time>2020-11-01T15:45:01Z</time>
</trkpt>
<trkpt lat=\'40.26504898071289\' lon=\'-5.917233467102051\'>
<ele>838</ele>
<time>2020-11-01T15:45:03Z</time>
</trkpt>
<trkpt lat=\'40.26493453979492\' lon=\'-5.917433261871338\'>
<ele>836</ele>
<time>2020-11-01T15:45:05Z</time>
</trkpt>
<trkpt lat=\'40.26481628417969\' lon=\'-5.91765022277832\'>
<ele>830</ele>
<time>2020-11-01T15:45:07Z</time>
</trkpt>
<trkpt lat=\'40.26470184326172\' lon=\'-5.917900085449219\'>
<ele>825</ele>
<time>2020-11-01T15:45:09Z</time>
</trkpt>
<trkpt lat=\'40.26456832885742\' lon=\'-5.91813325881958\'>
<ele>824</ele>
<time>2020-11-01T15:45:11Z</time>
</trkpt>
<trkpt lat=\'40.264434814453125\' lon=\'-5.918316841125488\'>
<ele>825</ele>
<time>2020-11-01T15:45:13Z</time>
</trkpt>
<trkpt lat=\'40.2642822265625\' lon=\'-5.918483257293701\'>
<ele>823</ele>
<time>2020-11-01T15:45:15Z</time>
</trkpt>
<trkpt lat=\'40.2641487121582\' lon=\'-5.918700218200684\'>
<ele>823</ele>
<time>2020-11-01T15:45:17Z</time>
</trkpt>
<trkpt lat=\'40.264015197753906\' lon=\'-5.918900012969971\'>
<ele>827</ele>
<time>2020-11-01T15:45:19Z</time>
</trkpt>
<trkpt lat=\'40.26390075683594\' lon=\'-5.919083595275879\'>
<ele>830</ele>
<time>2020-11-01T15:45:21Z</time>
</trkpt>
<trkpt lat=\'40.26380157470703\' lon=\'-5.919300079345703\'>
<ele>832</ele>
<time>2020-11-01T15:45:23Z</time>
</trkpt>
<trkpt lat=\'40.263668060302734\' lon=\'-5.91949987411499\'>
<ele>834</ele>
<time>2020-11-01T15:45:25Z</time>
</trkpt>
<trkpt lat=\'40.2635498046875\' lon=\'-5.9197001457214355\'>
<ele>837</ele>
<time>2020-11-01T15:45:27Z</time>
</trkpt>
<trkpt lat=\'40.263431549072266\' lon=\'-5.919899940490723\'>
<ele>839</ele>
<time>2020-11-01T15:45:29Z</time>
</trkpt>
<trkpt lat=\'40.26333236694336\' lon=\'-5.920116424560547\'>
<ele>842</ele>
<time>2020-11-01T15:45:31Z</time>
</trkpt>
<trkpt lat=\'40.26321792602539\' lon=\'-5.920333385467529\'>
<ele>845</ele>
<time>2020-11-01T15:45:33Z</time>
</trkpt>
<trkpt lat=\'40.26313400268555\' lon=\'-5.9205498695373535\'>
<ele>848</ele>
<time>2020-11-01T15:45:35Z</time>
</trkpt>
<trkpt lat=\'40.2630500793457\' lon=\'-5.920783519744873\'>
<ele>851</ele>
<time>2020-11-01T15:45:37Z</time>
</trkpt>
<trkpt lat=\'40.26296615600586\' lon=\'-5.921000003814697\'>
<ele>852</ele>
<time>2020-11-01T15:45:39Z</time>
</trkpt>
<trkpt lat=\'40.262916564941406\' lon=\'-5.9212164878845215\'>
<ele>854</ele>
<time>2020-11-01T15:45:41Z</time>
</trkpt>
<trkpt lat=\'40.262882232666016\' lon=\'-5.921450138092041\'>
<ele>854</ele>
<time>2020-11-01T15:45:43Z</time>
</trkpt>
<trkpt lat=\'40.26283264160156\' lon=\'-5.9217000007629395\'>
<ele>855</ele>
<time>2020-11-01T15:45:45Z</time>
</trkpt>
<trkpt lat=\'40.2628173828125\' lon=\'-5.921949863433838\'>
<ele>856</ele>
<time>2020-11-01T15:45:47Z</time>
</trkpt>
<trkpt lat=\'40.26278305053711\' lon=\'-5.922183513641357\'>
<ele>857</ele>
<time>2020-11-01T15:45:49Z</time>
</trkpt>
<trkpt lat=\'40.26274871826172\' lon=\'-5.922450065612793\'>
<ele>858</ele>
<time>2020-11-01T15:45:51Z</time>
</trkpt>
<trkpt lat=\'40.26274871826172\' lon=\'-5.922699928283691\'>
<ele>860</ele>
<time>2020-11-01T15:45:53Z</time>
</trkpt>
<trkpt lat=\'40.262718200683594\' lon=\'-5.922933578491211\'>
<ele>861</ele>
<time>2020-11-01T15:45:55Z</time>
</trkpt>
<trkpt lat=\'40.262699127197266\' lon=\'-5.923166751861572\'>
<ele>861</ele>
<time>2020-11-01T15:45:57Z</time>
</trkpt>
<trkpt lat=\'40.2626838684082\' lon=\'-5.923433303833008\'>
<ele>861</ele>
<time>2020-11-01T15:45:59Z</time>
</trkpt>
<trkpt lat=\'40.26263427734375\' lon=\'-5.923666477203369\'>
<ele>862</ele>
<time>2020-11-01T15:46:01Z</time>
</trkpt>
<trkpt lat=\'40.2625846862793\' lon=\'-5.923916816711426\'>
<ele>861</ele>
<time>2020-11-01T15:46:03Z</time>
</trkpt>
<trkpt lat=\'40.262516021728516\' lon=\'-5.924166679382324\'>
<ele>863</ele>
<time>2020-11-01T15:46:05Z</time>
</trkpt>
<trkpt lat=\'40.262451171875\' lon=\'-5.9243669509887695\'>
<ele>861</ele>
<time>2020-11-01T15:46:07Z</time>
</trkpt>
<trkpt lat=\'40.26238250732422\' lon=\'-5.924633502960205\'>
<ele>856</ele>
<time>2020-11-01T15:46:09Z</time>
</trkpt>
<trkpt lat=\'40.262298583984375\' lon=\'-5.924900054931641\'>
<ele>855</ele>
<time>2020-11-01T15:46:11Z</time>
</trkpt>
<trkpt lat=\'40.26223373413086\' lon=\'-5.925116539001465\'>
<ele>856</ele>
<time>2020-11-01T15:46:13Z</time>
</trkpt>
<trkpt lat=\'40.26216506958008\' lon=\'-5.925350189208984\'>
<ele>854</ele>
<time>2020-11-01T15:46:15Z</time>
</trkpt>
<trkpt lat=\'40.2620849609375\' lon=\'-5.925600051879883\'>
<ele>850</ele>
<time>2020-11-01T15:46:17Z</time>
</trkpt>
<trkpt lat=\'40.26198196411133\' lon=\'-5.925849914550781\'>
<ele>851</ele>
<time>2020-11-01T15:46:19Z</time>
</trkpt>
<trkpt lat=\'40.26191711425781\' lon=\'-5.9260663986206055\'>
<ele>854</ele>
<time>2020-11-01T15:46:21Z</time>
</trkpt>
<trkpt lat=\'40.26183319091797\' lon=\'-5.926266670227051\'>
<ele>855</ele>
<time>2020-11-01T15:46:23Z</time>
</trkpt>
<trkpt lat=\'40.26176834106445\' lon=\'-5.926483154296875\'>
<ele>855</ele>
<time>2020-11-01T15:46:25Z</time>
</trkpt>
<trkpt lat=\'40.26169967651367\' lon=\'-5.926700115203857\'>
<ele>854</ele>
<time>2020-11-01T15:46:27Z</time>
</trkpt>
<trkpt lat=\'40.26165008544922\' lon=\'-5.926933288574219\'>
<ele>854</ele>
<time>2020-11-01T15:46:29Z</time>
</trkpt>
<trkpt lat=\'40.26161575317383\' lon=\'-5.927199840545654\'>
<ele>854</ele>
<time>2020-11-01T15:46:31Z</time>
</trkpt>
<trkpt lat=\'40.261566162109375\' lon=\'-5.927433490753174\'>
<ele>856</ele>
<time>2020-11-01T15:46:33Z</time>
</trkpt>
<trkpt lat=\'40.26151657104492\' lon=\'-5.927666664123535\'>
<ele>857</ele>
<time>2020-11-01T15:46:35Z</time>
</trkpt>
<trkpt lat=\'40.26146697998047\' lon=\'-5.927916526794434\'>
<ele>858</ele>
<time>2020-11-01T15:46:37Z</time>
</trkpt>
<trkpt lat=\'40.261383056640625\' lon=\'-5.928150177001953\'>
<ele>860</ele>
<time>2020-11-01T15:46:39Z</time>
</trkpt>
<trkpt lat=\'40.26133346557617\' lon=\'-5.928366661071777\'>
<ele>862</ele>
<time>2020-11-01T15:46:41Z</time>
</trkpt>
<trkpt lat=\'40.26128387451172\' lon=\'-5.928566932678223\'>
<ele>861</ele>
<time>2020-11-01T15:46:43Z</time>
</trkpt>
<trkpt lat=\'40.261234283447266\' lon=\'-5.928800106048584\'>
<ele>859</ele>
<time>2020-11-01T15:46:45Z</time>
</trkpt>
<trkpt lat=\'40.26115036010742\' lon=\'-5.929049968719482\'>
<ele>856</ele>
<time>2020-11-01T15:46:47Z</time>
</trkpt>
<trkpt lat=\'40.26103210449219\' lon=\'-5.929266929626465\'>
<ele>856</ele>
<time>2020-11-01T15:46:49Z</time>
</trkpt>
<trkpt lat=\'40.26091766357422\' lon=\'-5.929433345794678\'>
<ele>856</ele>
<time>2020-11-01T15:46:51Z</time>
</trkpt>
<trkpt lat=\'40.260799407958984\' lon=\'-5.929649829864502\'>
<ele>858</ele>
<time>2020-11-01T15:46:53Z</time>
</trkpt>
<trkpt lat=\'40.260650634765625\' lon=\'-5.929816722869873\'>
<ele>860</ele>
<time>2020-11-01T15:46:55Z</time>
</trkpt>
<trkpt lat=\'40.260501861572266\' lon=\'-5.929983139038086\'>
<ele>862</ele>
<time>2020-11-01T15:46:57Z</time>
</trkpt>
<trkpt lat=\'40.26034927368164\' lon=\'-5.930150032043457\'>
<ele>864</ele>
<time>2020-11-01T15:46:59Z</time>
</trkpt>
<trkpt lat=\'40.26016616821289\' lon=\'-5.930283546447754\'>
<ele>865</ele>
<time>2020-11-01T15:47:01Z</time>
</trkpt>
<trkpt lat=\'40.25996780395508\' lon=\'-5.9303998947143555\'>
<ele>867</ele>
<time>2020-11-01T15:47:03Z</time>
</trkpt>
<trkpt lat=\'40.25979995727539\' lon=\'-5.930500030517578\'>
<ele>872</ele>
<time>2020-11-01T15:47:05Z</time>
</trkpt>
<trkpt lat=\'40.25961685180664\' lon=\'-5.930566787719727\'>
<ele>874</ele>
<time>2020-11-01T15:47:07Z</time>
</trkpt>
<trkpt lat=\'40.25941848754883\' lon=\'-5.930633544921875\'>
<ele>877</ele>
<time>2020-11-01T15:47:09Z</time>
</trkpt>
<trkpt lat=\'40.25925064086914\' lon=\'-5.930749893188477\'>
<ele>880</ele>
<time>2020-11-01T15:47:11Z</time>
</trkpt>
<trkpt lat=\'40.25910186767578\' lon=\'-5.9309000968933105\'>
<ele>884</ele>
<time>2020-11-01T15:47:13Z</time>
</trkpt>
<trkpt lat=\'40.258968353271484\' lon=\'-5.931049823760986\'>
<ele>887</ele>
<time>2020-11-01T15:47:15Z</time>
</trkpt>
<trkpt lat=\'40.25883483886719\' lon=\'-5.9312334060668945\'>
<ele>891</ele>
<time>2020-11-01T15:47:17Z</time>
</trkpt>
<trkpt lat=\'40.25871658325195\' lon=\'-5.931433200836182\'>
<ele>896</ele>
<time>2020-11-01T15:47:19Z</time>
</trkpt>
<trkpt lat=\'40.25861740112305\' lon=\'-5.93161678314209\'>
<ele>900</ele>
<time>2020-11-01T15:47:21Z</time>
</trkpt>
<trkpt lat=\'40.2585334777832\' lon=\'-5.93179988861084\'>
<ele>903</ele>
<time>2020-11-01T15:47:23Z</time>
</trkpt>
<trkpt lat=\'40.2584342956543\' lon=\'-5.931983470916748\'>
<ele>903</ele>
<time>2020-11-01T15:47:25Z</time>
</trkpt>
<trkpt lat=\'40.25831604003906\' lon=\'-5.932199954986572\'>
<ele>902</ele>
<time>2020-11-01T15:47:27Z</time>
</trkpt>
<trkpt lat=\'40.258216857910156\' lon=\'-5.932416915893555\'>
<ele>904</ele>
<time>2020-11-01T15:47:29Z</time>
</trkpt>
<trkpt lat=\'40.25809860229492\' lon=\'-5.932600021362305\'>
<ele>907</ele>
<time>2020-11-01T15:47:31Z</time>
</trkpt>
<trkpt lat=\'40.25794982910156\' lon=\'-5.932766914367676\'>
<ele>909</ele>
<time>2020-11-01T15:47:33Z</time>
</trkpt>
<trkpt lat=\'40.257816314697266\' lon=\'-5.932933330535889\'>
<ele>910</ele>
<time>2020-11-01T15:47:35Z</time>
</trkpt>
<trkpt lat=\'40.257667541503906\' lon=\'-5.933083534240723\'>
<ele>911</ele>
<time>2020-11-01T15:47:37Z</time>
</trkpt>
<trkpt lat=\'40.25751495361328\' lon=\'-5.933233261108398\'>
<ele>912</ele>
<time>2020-11-01T15:47:39Z</time>
</trkpt>
<trkpt lat=\'40.257381439208984\' lon=\'-5.933416843414307\'>
<ele>912</ele>
<time>2020-11-01T15:47:41Z</time>
</trkpt>
<trkpt lat=\'40.25725173950195\' lon=\'-5.9335832595825195\'>
<ele>913</ele>
<time>2020-11-01T15:47:43Z</time>
</trkpt>
<trkpt lat=\'40.25709915161133\' lon=\'-5.9337334632873535\'>
<ele>913</ele>
<time>2020-11-01T15:47:45Z</time>
</trkpt>
<trkpt lat=\'40.25695037841797\' lon=\'-5.933866500854492\'>
<ele>910</ele>
<time>2020-11-01T15:47:47Z</time>
</trkpt>
<trkpt lat=\'40.25676727294922\' lon=\'-5.933983325958252\'>
<ele>905</ele>
<time>2020-11-01T15:47:49Z</time>
</trkpt>
<trkpt lat=\'40.25658416748047\' lon=\'-5.934116840362549\'>
<ele>900</ele>
<time>2020-11-01T15:47:51Z</time>
</trkpt>
<trkpt lat=\'40.25640106201172\' lon=\'-5.9342498779296875\'>
<ele>896</ele>
<time>2020-11-01T15:47:53Z</time>
</trkpt>
<trkpt lat=\'40.25621795654297\' lon=\'-5.934383392333984\'>
<ele>892</ele>
<time>2020-11-01T15:47:55Z</time>
</trkpt>
<trkpt lat=\'40.25601577758789\' lon=\'-5.934516906738281\'>
<ele>892</ele>
<time>2020-11-01T15:47:57Z</time>
</trkpt>
<trkpt lat=\'40.25586700439453\' lon=\'-5.934666633605957\'>
<ele>893</ele>
<time>2020-11-01T15:47:59Z</time>
</trkpt>
<trkpt lat=\'40.25571823120117\' lon=\'-5.934833526611328\'>
<ele>894</ele>
<time>2020-11-01T15:48:01Z</time>
</trkpt>
<trkpt lat=\'40.255550384521484\' lon=\'-5.934999942779541\'>
<ele>895</ele>
<time>2020-11-01T15:48:03Z</time>
</trkpt>
<trkpt lat=\'40.255401611328125\' lon=\'-5.935166835784912\'>
<ele>894</ele>
<time>2020-11-01T15:48:05Z</time>
</trkpt>
<trkpt lat=\'40.25526809692383\' lon=\'-5.935349941253662\'>
<ele>894</ele>
<time>2020-11-01T15:48:07Z</time>
</trkpt>
<trkpt lat=\'40.2551155090332\' lon=\'-5.93553352355957\'>
<ele>893</ele>
<time>2020-11-01T15:48:09Z</time>
</trkpt>
<trkpt lat=\'40.254981994628906\' lon=\'-5.935733318328857\'>
<ele>893</ele>
<time>2020-11-01T15:48:11Z</time>
</trkpt>
<trkpt lat=\'40.25484848022461\' lon=\'-5.935916900634766\'>
<ele>893</ele>
<time>2020-11-01T15:48:13Z</time>
</trkpt>
<trkpt lat=\'40.25471496582031\' lon=\'-5.936116695404053\'>
<ele>893</ele>
<time>2020-11-01T15:48:15Z</time>
</trkpt>
<trkpt lat=\'40.254600524902344\' lon=\'-5.936349868774414\'>
<ele>893</ele>
<time>2020-11-01T15:48:17Z</time>
</trkpt>
<trkpt lat=\'40.25448226928711\' lon=\'-5.936550140380859\'>
<ele>892</ele>
<time>2020-11-01T15:48:19Z</time>
</trkpt>
<trkpt lat=\'40.25436782836914\' lon=\'-5.936766624450684\'>
<ele>891</ele>
<time>2020-11-01T15:48:21Z</time>
</trkpt>
<trkpt lat=\'40.25426483154297\' lon=\'-5.937000274658203\'>
<ele>891</ele>
<time>2020-11-01T15:48:23Z</time>
</trkpt>
<trkpt lat=\'40.25416564941406\' lon=\'-5.937216758728027\'>
<ele>893</ele>
<time>2020-11-01T15:48:25Z</time>
</trkpt>
<trkpt lat=\'40.254066467285156\' lon=\'-5.9374165534973145\'>
<ele>893</ele>
<time>2020-11-01T15:48:27Z</time>
</trkpt>
<trkpt lat=\'40.25394821166992\' lon=\'-5.937649726867676\'>
<ele>891</ele>
<time>2020-11-01T15:48:29Z</time>
</trkpt>
<trkpt lat=\'40.253849029541016\' lon=\'-5.937900066375732\'>
<ele>892</ele>
<time>2020-11-01T15:48:31Z</time>
</trkpt>
<trkpt lat=\'40.25373458862305\' lon=\'-5.938116550445557\'>
<ele>893</ele>
<time>2020-11-01T15:48:33Z</time>
</trkpt>
<trkpt lat=\'40.2536506652832\' lon=\'-5.938333511352539\'>
<ele>893</ele>
<time>2020-11-01T15:48:35Z</time>
</trkpt>
<trkpt lat=\'40.25353240966797\' lon=\'-5.9385666847229\'>
<ele>893</ele>
<time>2020-11-01T15:48:37Z</time>
</trkpt>
<trkpt lat=\'40.25343322753906\' lon=\'-5.938799858093262\'>
<ele>893</ele>
<time>2020-11-01T15:48:39Z</time>
</trkpt>
<trkpt lat=\'40.25334930419922\' lon=\'-5.939033508300781\'>
<ele>892</ele>
<time>2020-11-01T15:48:41Z</time>
</trkpt>
<trkpt lat=\'40.25325012207031\' lon=\'-5.93928337097168\'>
<ele>891</ele>
<time>2020-11-01T15:48:43Z</time>
</trkpt>
<trkpt lat=\'40.25316619873047\' lon=\'-5.939533233642578\'>
<ele>890</ele>
<time>2020-11-01T15:48:45Z</time>
</trkpt>
<trkpt lat=\'40.25306701660156\' lon=\'-5.939766883850098\'>
<ele>891</ele>
<time>2020-11-01T15:48:47Z</time>
</trkpt>
<trkpt lat=\'40.25298309326172\' lon=\'-5.940000057220459\'>
<ele>892</ele>
<time>2020-11-01T15:48:49Z</time>
</trkpt>
<trkpt lat=\'40.252899169921875\' lon=\'-5.94023323059082\'>
<ele>891</ele>
<time>2020-11-01T15:48:51Z</time>
</trkpt>
<trkpt lat=\'40.25279998779297\' lon=\'-5.94046688079834\'>
<ele>890</ele>
<time>2020-11-01T15:48:53Z</time>
</trkpt>
<trkpt lat=\'40.252716064453125\' lon=\'-5.940716743469238\'>
<ele>890</ele>
<time>2020-11-01T15:48:55Z</time>
</trkpt>
<trkpt lat=\'40.25263214111328\' lon=\'-5.9409499168396\'>
<ele>889</ele>
<time>2020-11-01T15:48:57Z</time>
</trkpt>
<trkpt lat=\'40.25254821777344\' lon=\'-5.941216468811035\'>
<ele>888</ele>
<time>2020-11-01T15:48:59Z</time>
</trkpt>
<trkpt lat=\'40.25244903564453\' lon=\'-5.941450119018555\'>
<ele>889</ele>
<time>2020-11-01T15:49:01Z</time>
</trkpt>
<trkpt lat=\'40.25236511230469\' lon=\'-5.941699981689453\'>
<ele>889</ele>
<time>2020-11-01T15:49:03Z</time>
</trkpt>
<trkpt lat=\'40.25228500366211\' lon=\'-5.941949844360352\'>
<ele>887</ele>
<time>2020-11-01T15:49:05Z</time>
</trkpt>
<trkpt lat=\'40.252201080322266\' lon=\'-5.942183494567871\'>
<ele>886</ele>
<time>2020-11-01T15:49:07Z</time>
</trkpt>
<trkpt lat=\'40.25211715698242\' lon=\'-5.942416667938232\'>
<ele>885</ele>
<time>2020-11-01T15:49:09Z</time>
</trkpt>
<trkpt lat=\'40.252017974853516\' lon=\'-5.942649841308594\'>
<ele>883</ele>
<time>2020-11-01T15:49:11Z</time>
</trkpt>
<trkpt lat=\'40.25193405151367\' lon=\'-5.94290018081665\'>
<ele>881</ele>
<time>2020-11-01T15:49:13Z</time>
</trkpt>
<trkpt lat=\'40.251834869384766\' lon=\'-5.943133354187012\'>
<ele>880</ele>
<time>2020-11-01T15:49:15Z</time>
</trkpt>
<trkpt lat=\'40.251731872558594\' lon=\'-5.943366527557373\'>
<ele>881</ele>
<time>2020-11-01T15:49:17Z</time>
</trkpt>
<trkpt lat=\'40.251617431640625\' lon=\'-5.943566799163818\'>
<ele>882</ele>
<time>2020-11-01T15:49:19Z</time>
</trkpt>
<trkpt lat=\'40.25151824951172\' lon=\'-5.9437665939331055\'>
<ele>881</ele>
<time>2020-11-01T15:49:21Z</time>
</trkpt>
<trkpt lat=\'40.25141525268555\' lon=\'-5.943966865539551\'>
<ele>877</ele>
<time>2020-11-01T15:49:23Z</time>
</trkpt>
<trkpt lat=\'40.25133514404297\' lon=\'-5.944216728210449\'>
<ele>873</ele>
<time>2020-11-01T15:49:25Z</time>
</trkpt>
<trkpt lat=\'40.25126647949219\' lon=\'-5.944483280181885\'>
<ele>873</ele>
<time>2020-11-01T15:49:27Z</time>
</trkpt>
<trkpt lat=\'40.251182556152344\' lon=\'-5.944733142852783\'>
<ele>874</ele>
<time>2020-11-01T15:49:29Z</time>
</trkpt>
<trkpt lat=\'40.25111770629883\' lon=\'-5.944966793060303\'>
<ele>874</ele>
<time>2020-11-01T15:49:31Z</time>
</trkpt>
<trkpt lat=\'40.251033782958984\' lon=\'-5.945199966430664\'>
<ele>874</ele>
<time>2020-11-01T15:49:33Z</time>
</trkpt>
<trkpt lat=\'40.25091552734375\' lon=\'-5.945433616638184\'>
<ele>873</ele>
<time>2020-11-01T15:49:35Z</time>
</trkpt>
<trkpt lat=\'40.250816345214844\' lon=\'-5.945633411407471\'>
<ele>872</ele>
<time>2020-11-01T15:49:37Z</time>
</trkpt>
<trkpt lat=\'40.25071716308594\' lon=\'-5.945849895477295\'>
<ele>870</ele>
<time>2020-11-01T15:49:39Z</time>
</trkpt>
<trkpt lat=\'40.25058364868164\' lon=\'-5.94605016708374\'>
<ele>868</ele>
<time>2020-11-01T15:49:41Z</time>
</trkpt>
<trkpt lat=\'40.250465393066406\' lon=\'-5.94623327255249\'>
<ele>866</ele>
<time>2020-11-01T15:49:43Z</time>
</trkpt>
<trkpt lat=\'40.2503662109375\' lon=\'-5.946450233459473\'>
<ele>862</ele>
<time>2020-11-01T15:49:45Z</time>
</trkpt>
<trkpt lat=\'40.2502326965332\' lon=\'-5.94665002822876\'>
<ele>859</ele>
<time>2020-11-01T15:49:47Z</time>
</trkpt>
<trkpt lat=\'40.250099182128906\' lon=\'-5.946833610534668\'>
<ele>858</ele>
<time>2020-11-01T15:49:49Z</time>
</trkpt>
<trkpt lat=\'40.24996566772461\' lon=\'-5.947016716003418\'>
<ele>856</ele>
<time>2020-11-01T15:49:51Z</time>
</trkpt>
<trkpt lat=\'40.24981689453125\' lon=\'-5.947183609008789\'>
<ele>853</ele>
<time>2020-11-01T15:49:53Z</time>
</trkpt>
<trkpt lat=\'40.24968338012695\' lon=\'-5.947383403778076\'>
<ele>852</ele>
<time>2020-11-01T15:49:55Z</time>
</trkpt>
<trkpt lat=\'40.24958419799805\' lon=\'-5.9475998878479\'>
<ele>851</ele>
<time>2020-11-01T15:49:57Z</time>
</trkpt>
<trkpt lat=\'40.24946594238281\' lon=\'-5.947800159454346\'>
<ele>850</ele>
<time>2020-11-01T15:49:59Z</time>
</trkpt>
<trkpt lat=\'40.249351501464844\' lon=\'-5.94801664352417\'>
<ele>848</ele>
<time>2020-11-01T15:50:01Z</time>
</trkpt>
<trkpt lat=\'40.24924850463867\' lon=\'-5.948249816894531\'>
<ele>848</ele>
<time>2020-11-01T15:50:03Z</time>
</trkpt>
<trkpt lat=\'40.2491340637207\' lon=\'-5.948466777801514\'>
<ele>849</ele>
<time>2020-11-01T15:50:05Z</time>
</trkpt>
<trkpt lat=\'40.2490348815918\' lon=\'-5.948666572570801\'>
<ele>848</ele>
<time>2020-11-01T15:50:07Z</time>
</trkpt>
<trkpt lat=\'40.248931884765625\' lon=\'-5.94890022277832\'>
<ele>847</ele>
<time>2020-11-01T15:50:09Z</time>
</trkpt>
<trkpt lat=\'40.248817443847656\' lon=\'-5.9491167068481445\'>
<ele>847</ele>
<time>2020-11-01T15:50:11Z</time>
</trkpt>
<trkpt lat=\'40.24871826171875\' lon=\'-5.949333190917969\'>
<ele>847</ele>
<time>2020-11-01T15:50:13Z</time>
</trkpt>
<trkpt lat=\'40.24861526489258\' lon=\'-5.949550151824951\'>
<ele>847</ele>
<time>2020-11-01T15:50:15Z</time>
</trkpt>
<trkpt lat=\'40.24853515625\' lon=\'-5.9497833251953125\'>
<ele>846</ele>
<time>2020-11-01T15:50:17Z</time>
</trkpt>
<trkpt lat=\'40.24846649169922\' lon=\'-5.950016498565674\'>
<ele>845</ele>
<time>2020-11-01T15:50:19Z</time>
</trkpt>
<trkpt lat=\'40.2484016418457\' lon=\'-5.950250148773193\'>
<ele>843</ele>
<time>2020-11-01T15:50:21Z</time>
</trkpt>
<trkpt lat=\'40.24831771850586\' lon=\'-5.950483322143555\'>
<ele>840</ele>
<time>2020-11-01T15:50:23Z</time>
</trkpt>
<trkpt lat=\'40.248233795166016\' lon=\'-5.950733184814453\'>
<ele>839</ele>
<time>2020-11-01T15:50:25Z</time>
</trkpt>
<trkpt lat=\'40.24813461303711\' lon=\'-5.950966835021973\'>
<ele>839</ele>
<time>2020-11-01T15:50:27Z</time>
</trkpt>
<trkpt lat=\'40.248050689697266\' lon=\'-5.951183319091797\'>
<ele>840</ele>
<time>2020-11-01T15:50:29Z</time>
</trkpt>
<trkpt lat=\'40.24796676635742\' lon=\'-5.951399803161621\'>
<ele>840</ele>
<time>2020-11-01T15:50:31Z</time>
</trkpt>
<trkpt lat=\'40.247867584228516\' lon=\'-5.9516167640686035\'>
<ele>839</ele>
<time>2020-11-01T15:50:33Z</time>
</trkpt>
<trkpt lat=\'40.24776840209961\' lon=\'-5.951849937438965\'>
<ele>839</ele>
<time>2020-11-01T15:50:35Z</time>
</trkpt>
<trkpt lat=\'40.247650146484375\' lon=\'-5.952066421508789\'>
<ele>842</ele>
<time>2020-11-01T15:50:37Z</time>
</trkpt>
<trkpt lat=\'40.24755096435547\' lon=\'-5.952300071716309\'>
<ele>844</ele>
<time>2020-11-01T15:50:39Z</time>
</trkpt>
<trkpt lat=\'40.24745178222656\' lon=\'-5.952499866485596\'>
<ele>844</ele>
<time>2020-11-01T15:50:41Z</time>
</trkpt>
<trkpt lat=\'40.24734878540039\' lon=\'-5.952733516693115\'>
<ele>843</ele>
<time>2020-11-01T15:50:43Z</time>
</trkpt>
<trkpt lat=\'40.247249603271484\' lon=\'-5.952966690063477\'>
<ele>842</ele>
<time>2020-11-01T15:50:45Z</time>
</trkpt>
<trkpt lat=\'40.24716567993164\' lon=\'-5.953199863433838\'>
<ele>842</ele>
<time>2020-11-01T15:50:47Z</time>
</trkpt>
<trkpt lat=\'40.247100830078125\' lon=\'-5.953433513641357\'>
<ele>841</ele>
<time>2020-11-01T15:50:49Z</time>
</trkpt>
<trkpt lat=\'40.24701690673828\' lon=\'-5.953666687011719\'>
<ele>839</ele>
<time>2020-11-01T15:50:51Z</time>
</trkpt>
<trkpt lat=\'40.246917724609375\' lon=\'-5.95389986038208\'>
<ele>837</ele>
<time>2020-11-01T15:50:53Z</time>
</trkpt>
<trkpt lat=\'40.24683380126953\' lon=\'-5.954150199890137\'>
<ele>836</ele>
<time>2020-11-01T15:50:55Z</time>
</trkpt>
<trkpt lat=\'40.24674987792969\' lon=\'-5.954366683959961\'>
<ele>834</ele>
<time>2020-11-01T15:50:57Z</time>
</trkpt>
<trkpt lat=\'40.24665069580078\' lon=\'-5.954616546630859\'>
<ele>832</ele>
<time>2020-11-01T15:50:59Z</time>
</trkpt>
<trkpt lat=\'40.24656677246094\' lon=\'-5.954883575439453\'>
<ele>831</ele>
<time>2020-11-01T15:51:01Z</time>
</trkpt>
<trkpt lat=\'40.24646759033203\' lon=\'-5.9551167488098145\'>
<ele>831</ele>
<time>2020-11-01T15:51:03Z</time>
</trkpt>
<trkpt lat=\'40.246368408203125\' lon=\'-5.955333232879639\'>
<ele>831</ele>
<time>2020-11-01T15:51:05Z</time>
</trkpt>
<trkpt lat=\'40.24628448486328\' lon=\'-5.95556640625\'>
<ele>829</ele>
<time>2020-11-01T15:51:07Z</time>
</trkpt>
<trkpt lat=\'40.24620056152344\' lon=\'-5.9558000564575195\'>
<ele>827</ele>
<time>2020-11-01T15:51:09Z</time>
</trkpt>
<trkpt lat=\'40.2460823059082\' lon=\'-5.956016540527344\'>
<ele>826</ele>
<time>2020-11-01T15:51:11Z</time>
</trkpt>
<trkpt lat=\'40.245967864990234\' lon=\'-5.956216812133789\'>
<ele>823</ele>
<time>2020-11-01T15:51:13Z</time>
</trkpt>
<trkpt lat=\'40.245849609375\' lon=\'-5.956433296203613\'>
<ele>822</ele>
<time>2020-11-01T15:51:15Z</time>
</trkpt>
<trkpt lat=\'40.24573516845703\' lon=\'-5.9566497802734375\'>
<ele>823</ele>
<time>2020-11-01T15:51:17Z</time>
</trkpt>
<trkpt lat=\'40.24563217163086\' lon=\'-5.956833362579346\'>
<ele>822</ele>
<time>2020-11-01T15:51:19Z</time>
</trkpt>
<trkpt lat=\'40.24551773071289\' lon=\'-5.95704984664917\'>
<ele>820</ele>
<time>2020-11-01T15:51:21Z</time>
</trkpt>
<trkpt lat=\'40.245399475097656\' lon=\'-5.957250118255615\'>
<ele>818</ele>
<time>2020-11-01T15:51:23Z</time>
</trkpt>
<trkpt lat=\'40.24530029296875\' lon=\'-5.9574666023254395\'>
<ele>816</ele>
<time>2020-11-01T15:51:25Z</time>
</trkpt>
<trkpt lat=\'40.245182037353516\' lon=\'-5.957683563232422\'>
<ele>814</ele>
<time>2020-11-01T15:51:27Z</time>
</trkpt>
<trkpt lat=\'40.24506759643555\' lon=\'-5.957900047302246\'>
<ele>812</ele>
<time>2020-11-01T15:51:29Z</time>
</trkpt>
<trkpt lat=\'40.24494934082031\' lon=\'-5.958099842071533\'>
<ele>811</ele>
<time>2020-11-01T15:51:31Z</time>
</trkpt>
<trkpt lat=\'40.244834899902344\' lon=\'-5.9583001136779785\'>
<ele>809</ele>
<time>2020-11-01T15:51:33Z</time>
</trkpt>
<trkpt lat=\'40.24470138549805\' lon=\'-5.9584832191467285\'>
<ele>807</ele>
<time>2020-11-01T15:51:35Z</time>
</trkpt>
<trkpt lat=\'40.24458312988281\' lon=\'-5.958683490753174\'>
<ele>804</ele>
<time>2020-11-01T15:51:37Z</time>
</trkpt>
<trkpt lat=\'40.24446487426758\' lon=\'-5.958883285522461\'>
<ele>801</ele>
<time>2020-11-01T15:51:39Z</time>
</trkpt>
<trkpt lat=\'40.24435043334961\' lon=\'-5.959099769592285\'>
<ele>799</ele>
<time>2020-11-01T15:51:41Z</time>
</trkpt>
<trkpt lat=\'40.2442512512207\' lon=\'-5.9593000411987305\'>
<ele>796</ele>
<time>2020-11-01T15:51:43Z</time>
</trkpt>
<trkpt lat=\'40.24414825439453\' lon=\'-5.959516525268555\'>
<ele>793</ele>
<time>2020-11-01T15:51:45Z</time>
</trkpt>
<trkpt lat=\'40.24403381347656\' lon=\'-5.959750175476074\'>
<ele>789</ele>
<time>2020-11-01T15:51:47Z</time>
</trkpt>
<trkpt lat=\'40.24391555786133\' lon=\'-5.959966659545898\'>
<ele>786</ele>
<time>2020-11-01T15:51:49Z</time>
</trkpt>
<trkpt lat=\'40.24380111694336\' lon=\'-5.96019983291626\'>
<ele>784</ele>
<time>2020-11-01T15:51:51Z</time>
</trkpt>
<trkpt lat=\'40.24369812011719\' lon=\'-5.960433483123779\'>
<ele>783</ele>
<time>2020-11-01T15:51:53Z</time>
</trkpt>
<trkpt lat=\'40.24359893798828\' lon=\'-5.960666656494141\'>
<ele>784</ele>
<time>2020-11-01T15:51:55Z</time>
</trkpt>
<trkpt lat=\'40.243499755859375\' lon=\'-5.960883140563965\'>
<ele>785</ele>
<time>2020-11-01T15:51:57Z</time>
</trkpt>
<trkpt lat=\'40.24340057373047\' lon=\'-5.961100101470947\'>
<ele>786</ele>
<time>2020-11-01T15:51:59Z</time>
</trkpt>
<trkpt lat=\'40.24330139160156\' lon=\'-5.9613165855407715\'>
<ele>786</ele>
<time>2020-11-01T15:52:01Z</time>
</trkpt>
<trkpt lat=\'40.24321746826172\' lon=\'-5.961516857147217\'>
<ele>784</ele>
<time>2020-11-01T15:52:03Z</time>
</trkpt>
<trkpt lat=\'40.243133544921875\' lon=\'-5.961733341217041\'>
<ele>780</ele>
<time>2020-11-01T15:52:05Z</time>
</trkpt>
<trkpt lat=\'40.24304962158203\' lon=\'-5.9619832038879395\'>
<ele>779</ele>
<time>2020-11-01T15:52:07Z</time>
</trkpt>
<trkpt lat=\'40.24296569824219\' lon=\'-5.962200164794922\'>
<ele>778</ele>
<time>2020-11-01T15:52:09Z</time>
</trkpt>
<trkpt lat=\'40.24290084838867\' lon=\'-5.962416648864746\'>
<ele>774</ele>
<time>2020-11-01T15:52:11Z</time>
</trkpt>
<trkpt lat=\'40.242801666259766\' lon=\'-5.962649822235107\'>
<ele>769</ele>
<time>2020-11-01T15:52:13Z</time>
</trkpt>
<trkpt lat=\'40.242698669433594\' lon=\'-5.962883472442627\'>
<ele>768</ele>
<time>2020-11-01T15:52:15Z</time>
</trkpt>
<trkpt lat=\'40.24259948730469\' lon=\'-5.963099956512451\'>
<ele>765</ele>
<time>2020-11-01T15:52:17Z</time>
</trkpt>
<trkpt lat=\'40.24250030517578\' lon=\'-5.963316917419434\'>
<ele>761</ele>
<time>2020-11-01T15:52:19Z</time>
</trkpt>
<trkpt lat=\'40.242401123046875\' lon=\'-5.963533401489258\'>
<ele>759</ele>
<time>2020-11-01T15:52:21Z</time>
</trkpt>
<trkpt lat=\'40.24228286743164\' lon=\'-5.963733196258545\'>
<ele>757</ele>
<time>2020-11-01T15:52:23Z</time>
</trkpt>
<trkpt lat=\'40.242183685302734\' lon=\'-5.963950157165527\'>
<ele>755</ele>
<time>2020-11-01T15:52:25Z</time>
</trkpt>
<trkpt lat=\'40.2420654296875\' lon=\'-5.9641499519348145\'>
<ele>752</ele>
<time>2020-11-01T15:52:27Z</time>
</trkpt>
<trkpt lat=\'40.241981506347656\' lon=\'-5.964383125305176\'>
<ele>749</ele>
<time>2020-11-01T15:52:29Z</time>
</trkpt>
<trkpt lat=\'40.2419319152832\' lon=\'-5.964616775512695\'>
<ele>744</ele>
<time>2020-11-01T15:52:31Z</time>
</trkpt>
<trkpt lat=\'40.24188232421875\' lon=\'-5.964883327484131\'>
<ele>740</ele>
<time>2020-11-01T15:52:33Z</time>
</trkpt>
<trkpt lat=\'40.24186706542969\' lon=\'-5.965149879455566\'>
<ele>735</ele>
<time>2020-11-01T15:52:35Z</time>
</trkpt>
<trkpt lat=\'40.2418327331543\' lon=\'-5.96541690826416\'>
<ele>731</ele>
<time>2020-11-01T15:52:37Z</time>
</trkpt>
<trkpt lat=\'40.241783142089844\' lon=\'-5.965666770935059\'>
<ele>727</ele>
<time>2020-11-01T15:52:39Z</time>
</trkpt>
<trkpt lat=\'40.24171829223633\' lon=\'-5.96589994430542\'>
<ele>724</ele>
<time>2020-11-01T15:52:41Z</time>
</trkpt>
<trkpt lat=\'40.241634368896484\' lon=\'-5.966150283813477\'>
<ele>721</ele>
<time>2020-11-01T15:52:43Z</time>
</trkpt>
<trkpt lat=\'40.24151611328125\' lon=\'-5.966366767883301\'>
<ele>719</ele>
<time>2020-11-01T15:52:45Z</time>
</trkpt>
<trkpt lat=\'40.24140167236328\' lon=\'-5.966583251953125\'>
<ele>717</ele>
<time>2020-11-01T15:52:47Z</time>
</trkpt>
<trkpt lat=\'40.24128341674805\' lon=\'-5.966799736022949\'>
<ele>715</ele>
<time>2020-11-01T15:52:49Z</time>
</trkpt>
<trkpt lat=\'40.24114990234375\' lon=\'-5.966983318328857\'>
<ele>713</ele>
<time>2020-11-01T15:52:51Z</time>
</trkpt>
<trkpt lat=\'40.24101638793945\' lon=\'-5.9671831130981445\'>
<ele>711</ele>
<time>2020-11-01T15:52:53Z</time>
</trkpt>
<trkpt lat=\'40.240867614746094\' lon=\'-5.96738338470459\'>
<ele>710</ele>
<time>2020-11-01T15:52:55Z</time>
</trkpt>
<trkpt lat=\'40.2407341003418\' lon=\'-5.96756649017334\'>
<ele>710</ele>
<time>2020-11-01T15:52:57Z</time>
</trkpt>
<trkpt lat=\'40.24063491821289\' lon=\'-5.967783451080322\'>
<ele>711</ele>
<time>2020-11-01T15:52:59Z</time>
</trkpt>
<trkpt lat=\'40.24053192138672\' lon=\'-5.967983245849609\'>
<ele>711</ele>
<time>2020-11-01T15:53:01Z</time>
</trkpt>
<trkpt lat=\'40.24041748046875\' lon=\'-5.968183517456055\'>
<ele>709</ele>
<time>2020-11-01T15:53:03Z</time>
</trkpt>
<trkpt lat=\'40.240318298339844\' lon=\'-5.968416690826416\'>
<ele>709</ele>
<time>2020-11-01T15:53:05Z</time>
</trkpt>
<trkpt lat=\'40.24020004272461\' lon=\'-5.968600273132324\'>
<ele>708</ele>
<time>2020-11-01T15:53:07Z</time>
</trkpt>
<trkpt lat=\'40.240081787109375\' lon=\'-5.968800067901611\'>
<ele>705</ele>
<time>2020-11-01T15:53:09Z</time>
</trkpt>
<trkpt lat=\'40.239967346191406\' lon=\'-5.9690165519714355\'>
<ele>703</ele>
<time>2020-11-01T15:53:11Z</time>
</trkpt>
<trkpt lat=\'40.23984909057617\' lon=\'-5.969233512878418\'>
<ele>702</ele>
<time>2020-11-01T15:53:13Z</time>
</trkpt>
<trkpt lat=\'40.239715576171875\' lon=\'-5.969433307647705\'>
<ele>701</ele>
<time>2020-11-01T15:53:15Z</time>
</trkpt>
<trkpt lat=\'40.239601135253906\' lon=\'-5.9696502685546875\'>
<ele>700</ele>
<time>2020-11-01T15:53:17Z</time>
</trkpt>
<trkpt lat=\'40.23948287963867\' lon=\'-5.969866752624512\'>
<ele>698</ele>
<time>2020-11-01T15:53:19Z</time>
</trkpt>
<trkpt lat=\'40.239383697509766\' lon=\'-5.970066547393799\'>
<ele>700</ele>
<time>2020-11-01T15:53:21Z</time>
</trkpt>
<trkpt lat=\'40.23928451538086\' lon=\'-5.970266819000244\'>
<ele>699</ele>
<time>2020-11-01T15:53:23Z</time>
</trkpt>
<trkpt lat=\'40.239166259765625\' lon=\'-5.970466613769531\'>
<ele>698</ele>
<time>2020-11-01T15:53:25Z</time>
</trkpt>
<trkpt lat=\'40.23903274536133\' lon=\'-5.970649719238281\'>
<ele>699</ele>
<time>2020-11-01T15:53:27Z</time>
</trkpt>
<trkpt lat=\'40.23893356323242\' lon=\'-5.9708333015441895\'>
<ele>699</ele>
<time>2020-11-01T15:53:29Z</time>
</trkpt>
<trkpt lat=\'40.23884963989258\' lon=\'-5.971066474914551\'>
<ele>697</ele>
<time>2020-11-01T15:53:31Z</time>
</trkpt>
<trkpt lat=\'40.238765716552734\' lon=\'-5.97130012512207\'>
<ele>696</ele>
<time>2020-11-01T15:53:33Z</time>
</trkpt>
<trkpt lat=\'40.23870086669922\' lon=\'-5.9715166091918945\'>
<ele>698</ele>
<time>2020-11-01T15:53:35Z</time>
</trkpt>
<trkpt lat=\'40.238651275634766\' lon=\'-5.971750259399414\'>
<ele>697</ele>
<time>2020-11-01T15:53:37Z</time>
</trkpt>
<trkpt lat=\'40.23860168457031\' lon=\'-5.9720001220703125\'>
<ele>695</ele>
<time>2020-11-01T15:53:39Z</time>
</trkpt>
<trkpt lat=\'40.238548278808594\' lon=\'-5.972249984741211\'>
<ele>695</ele>
<time>2020-11-01T15:53:41Z</time>
</trkpt>
<trkpt lat=\'40.23849868774414\' lon=\'-5.972499847412109\'>
<ele>694</ele>
<time>2020-11-01T15:53:43Z</time>
</trkpt>
<trkpt lat=\'40.238433837890625\' lon=\'-5.972733497619629\'>
<ele>692</ele>
<time>2020-11-01T15:53:45Z</time>
</trkpt>
<trkpt lat=\'40.23834991455078\' lon=\'-5.97296667098999\'>
<ele>689</ele>
<time>2020-11-01T15:53:47Z</time>
</trkpt>
<trkpt lat=\'40.238285064697266\' lon=\'-5.973216533660889\'>
<ele>684</ele>
<time>2020-11-01T15:53:49Z</time>
</trkpt>
<trkpt lat=\'40.238250732421875\' lon=\'-5.973483085632324\'>
<ele>679</ele>
<time>2020-11-01T15:53:51Z</time>
</trkpt>
<trkpt lat=\'40.238216400146484\' lon=\'-5.973750114440918\'>
<ele>674</ele>
<time>2020-11-01T15:53:53Z</time>
</trkpt>
<trkpt lat=\'40.23820114135742\' lon=\'-5.9740166664123535\'>
<ele>670</ele>
<time>2020-11-01T15:53:55Z</time>
</trkpt>
<trkpt lat=\'40.23816680908203\' lon=\'-5.974283218383789\'>
<ele>669</ele>
<time>2020-11-01T15:53:57Z</time>
</trkpt>
<trkpt lat=\'40.23811721801758\' lon=\'-5.974516868591309\'>
<ele>667</ele>
<time>2020-11-01T15:53:59Z</time>
</trkpt>
<trkpt lat=\'40.238067626953125\' lon=\'-5.974766731262207\'>
<ele>664</ele>
<time>2020-11-01T15:54:01Z</time>
</trkpt>
<trkpt lat=\'40.23798370361328\' lon=\'-5.975033283233643\'>
<ele>662</ele>
<time>2020-11-01T15:54:03Z</time>
</trkpt>
<trkpt lat=\'40.23789978027344\' lon=\'-5.975250244140625\'>
<ele>662</ele>
<time>2020-11-01T15:54:05Z</time>
</trkpt>
<trkpt lat=\'40.23783493041992\' lon=\'-5.975500106811523\'>
<ele>662</ele>
<time>2020-11-01T15:54:07Z</time>
</trkpt>
<trkpt lat=\'40.23773193359375\' lon=\'-5.975716590881348\'>
<ele>663</ele>
<time>2020-11-01T15:54:09Z</time>
</trkpt>
<trkpt lat=\'40.23765182495117\' lon=\'-5.975933074951172\'>
<ele>662</ele>
<time>2020-11-01T15:54:11Z</time>
</trkpt>
<trkpt lat=\'40.23756790161133\' lon=\'-5.976166725158691\'>
<ele>661</ele>
<time>2020-11-01T15:54:13Z</time>
</trkpt>
<trkpt lat=\'40.237483978271484\' lon=\'-5.976399898529053\'>
<ele>662</ele>
<time>2020-11-01T15:54:15Z</time>
</trkpt>
<trkpt lat=\'40.2374153137207\' lon=\'-5.976616859436035\'>
<ele>664</ele>
<time>2020-11-01T15:54:17Z</time>
</trkpt>
<trkpt lat=\'40.23736572265625\' lon=\'-5.976833343505859\'>
<ele>664</ele>
<time>2020-11-01T15:54:19Z</time>
</trkpt>
<trkpt lat=\'40.2373161315918\' lon=\'-5.977066516876221\'>
<ele>663</ele>
<time>2020-11-01T15:54:21Z</time>
</trkpt>
<trkpt lat=\'40.237281799316406\' lon=\'-5.97730016708374\'>
<ele>664</ele>
<time>2020-11-01T15:54:23Z</time>
</trkpt>
<trkpt lat=\'40.237281799316406\' lon=\'-5.977533340454102\'>
<ele>665</ele>
<time>2020-11-01T15:54:25Z</time>
</trkpt>
<trkpt lat=\'40.237281799316406\' lon=\'-5.977766513824463\'>
<ele>665</ele>
<time>2020-11-01T15:54:27Z</time>
</trkpt>
<trkpt lat=\'40.2373161315918\' lon=\'-5.978000164031982\'>
<ele>664</ele>
<time>2020-11-01T15:54:29Z</time>
</trkpt>
<trkpt lat=\'40.23735046386719\' lon=\'-5.978266716003418\'>
<ele>662</ele>
<time>2020-11-01T15:54:31Z</time>
</trkpt>
<trkpt lat=\'40.23736572265625\' lon=\'-5.978516578674316\'>
<ele>663</ele>
<time>2020-11-01T15:54:33Z</time>
</trkpt>
<trkpt lat=\'40.23740005493164\' lon=\'-5.978733062744141\'>
<ele>664</ele>
<time>2020-11-01T15:54:35Z</time>
</trkpt>
<trkpt lat=\'40.2374153137207\' lon=\'-5.97896671295166\'>
<ele>662</ele>
<time>2020-11-01T15:54:37Z</time>
</trkpt>
<trkpt lat=\'40.23743438720703\' lon=\'-5.979233264923096\'>
<ele>661</ele>
<time>2020-11-01T15:54:39Z</time>
</trkpt>
<trkpt lat=\'40.237449645996094\' lon=\'-5.979483604431152\'>
<ele>661</ele>
<time>2020-11-01T15:54:41Z</time>
</trkpt>
<trkpt lat=\'40.23749923706055\' lon=\'-5.979716777801514\'>
<ele>661</ele>
<time>2020-11-01T15:54:43Z</time>
</trkpt>
<trkpt lat=\'40.237548828125\' lon=\'-5.979966640472412\'>
<ele>659</ele>
<time>2020-11-01T15:54:45Z</time>
</trkpt>
<trkpt lat=\'40.23758316040039\' lon=\'-5.980233192443848\'>
<ele>659</ele>
<time>2020-11-01T15:54:47Z</time>
</trkpt>
<trkpt lat=\'40.237632751464844\' lon=\'-5.980483055114746\'>
<ele>660</ele>
<time>2020-11-01T15:54:49Z</time>
</trkpt>
<trkpt lat=\'40.237667083740234\' lon=\'-5.98075008392334\'>
<ele>661</ele>
<time>2020-11-01T15:54:51Z</time>
</trkpt>
<trkpt lat=\'40.237701416015625\' lon=\'-5.980999946594238\'>
<ele>662</ele>
<time>2020-11-01T15:54:53Z</time>
</trkpt>
<trkpt lat=\'40.23773193359375\' lon=\'-5.981266498565674\'>
<ele>663</ele>
<time>2020-11-01T15:54:55Z</time>
</trkpt>
<trkpt lat=\'40.23775100708008\' lon=\'-5.9815168380737305\'>
<ele>664</ele>
<time>2020-11-01T15:54:57Z</time>
</trkpt>
<trkpt lat=\'40.23776626586914\' lon=\'-5.981783390045166\'>
<ele>664</ele>
<time>2020-11-01T15:54:59Z</time>
</trkpt>
<trkpt lat=\'40.2377815246582\' lon=\'-5.982049942016602\'>
<ele>662</ele>
<time>2020-11-01T15:55:01Z</time>
</trkpt>
<trkpt lat=\'40.23780059814453\' lon=\'-5.982316493988037\'>
<ele>661</ele>
<time>2020-11-01T15:55:03Z</time>
</trkpt>
<trkpt lat=\'40.23780059814453\' lon=\'-5.982583522796631\'>
<ele>661</ele>
<time>2020-11-01T15:55:05Z</time>
</trkpt>
<trkpt lat=\'40.23780059814453\' lon=\'-5.982816696166992\'>
<ele>659</ele>
<time>2020-11-01T15:55:07Z</time>
</trkpt>
<trkpt lat=\'40.23780059814453\' lon=\'-5.983099937438965\'>
<ele>656</ele>
<time>2020-11-01T15:55:09Z</time>
</trkpt>
<trkpt lat=\'40.23776626586914\' lon=\'-5.9833831787109375\'>
<ele>656</ele>
<time>2020-11-01T15:55:11Z</time>
</trkpt>
<trkpt lat=\'40.23771667480469\' lon=\'-5.983616828918457\'>
<ele>657</ele>
<time>2020-11-01T15:55:13Z</time>
</trkpt>
<trkpt lat=\'40.2376823425293\' lon=\'-5.983850002288818\'>
<ele>656</ele>
<time>2020-11-01T15:55:15Z</time>
</trkpt>
<trkpt lat=\'40.23761749267578\' lon=\'-5.984099864959717\'>
<ele>653</ele>
<time>2020-11-01T15:55:17Z</time>
</trkpt>
<trkpt lat=\'40.23753356933594\' lon=\'-5.984350204467773\'>
<ele>651</ele>
<time>2020-11-01T15:55:19Z</time>
</trkpt>
<trkpt lat=\'40.23743438720703\' lon=\'-5.984583377838135\'>
<ele>650</ele>
<time>2020-11-01T15:55:21Z</time>
</trkpt>
<trkpt lat=\'40.23735046386719\' lon=\'-5.984816551208496\'>
<ele>650</ele>
<time>2020-11-01T15:55:23Z</time>
</trkpt>
<trkpt lat=\'40.237300872802734\' lon=\'-5.985050201416016\'>
<ele>649</ele>
<time>2020-11-01T15:55:25Z</time>
</trkpt>
<trkpt lat=\'40.237281799316406\' lon=\'-5.985300064086914\'>
<ele>648</ele>
<time>2020-11-01T15:55:27Z</time>
</trkpt>
<trkpt lat=\'40.23725128173828\' lon=\'-5.9855499267578125\'>
<ele>649</ele>
<time>2020-11-01T15:55:29Z</time>
</trkpt>
<trkpt lat=\'40.23725128173828\' lon=\'-5.985799789428711\'>
<ele>650</ele>
<time>2020-11-01T15:55:31Z</time>
</trkpt>
<trkpt lat=\'40.23725128173828\' lon=\'-5.986050128936768\'>
<ele>650</ele>
<time>2020-11-01T15:55:33Z</time>
</trkpt>
<trkpt lat=\'40.237266540527344\' lon=\'-5.986299991607666\'>
<ele>650</ele>
<time>2020-11-01T15:55:35Z</time>
</trkpt>
<trkpt lat=\'40.237300872802734\' lon=\'-5.9865498542785645\'>
<ele>651</ele>
<time>2020-11-01T15:55:37Z</time>
</trkpt>
<trkpt lat=\'40.237335205078125\' lon=\'-5.986783504486084\'>
<ele>653</ele>
<time>2020-11-01T15:55:39Z</time>
</trkpt>
<trkpt lat=\'40.23736572265625\' lon=\'-5.987033367156982\'>
<ele>654</ele>
<time>2020-11-01T15:55:41Z</time>
</trkpt>
<trkpt lat=\'40.2374153137207\' lon=\'-5.987266540527344\'>
<ele>654</ele>
<time>2020-11-01T15:55:43Z</time>
</trkpt>
<trkpt lat=\'40.237464904785156\' lon=\'-5.987500190734863\'>
<ele>654</ele>
<time>2020-11-01T15:55:45Z</time>
</trkpt>
<trkpt lat=\'40.23753356933594\' lon=\'-5.987733364105225\'>
<ele>652</ele>
<time>2020-11-01T15:55:47Z</time>
</trkpt>
<trkpt lat=\'40.23759841918945\' lon=\'-5.987983226776123\'>
<ele>651</ele>
<time>2020-11-01T15:55:49Z</time>
</trkpt>
<trkpt lat=\'40.237632751464844\' lon=\'-5.98823356628418\'>
<ele>650</ele>
<time>2020-11-01T15:55:51Z</time>
</trkpt>
<trkpt lat=\'40.237701416015625\' lon=\'-5.988500118255615\'>
<ele>649</ele>
<time>2020-11-01T15:55:53Z</time>
</trkpt>
<trkpt lat=\'40.23775100708008\' lon=\'-5.988766670227051\'>
<ele>650</ele>
<time>2020-11-01T15:55:55Z</time>
</trkpt>
<trkpt lat=\'40.23776626586914\' lon=\'-5.989016532897949\'>
<ele>652</ele>
<time>2020-11-01T15:55:57Z</time>
</trkpt>
<trkpt lat=\'40.23776626586914\' lon=\'-5.989250183105469\'>
<ele>653</ele>
<time>2020-11-01T15:55:59Z</time>
</trkpt>
<trkpt lat=\'40.2377815246582\' lon=\'-5.989500045776367\'>
<ele>651</ele>
<time>2020-11-01T15:56:01Z</time>
</trkpt>
<trkpt lat=\'40.2377815246582\' lon=\'-5.989766597747803\'>
<ele>649</ele>
<time>2020-11-01T15:56:03Z</time>
</trkpt>
<trkpt lat=\'40.2377815246582\' lon=\'-5.990016937255859\'>
<ele>648</ele>
<time>2020-11-01T15:56:05Z</time>
</trkpt>
<trkpt lat=\'40.23780059814453\' lon=\'-5.990266799926758\'>
<ele>647</ele>
<time>2020-11-01T15:56:07Z</time>
</trkpt>
<trkpt lat=\'40.237850189208984\' lon=\'-5.990533351898193\'>
<ele>650</ele>
<time>2020-11-01T15:56:09Z</time>
</trkpt>
<trkpt lat=\'40.2379150390625\' lon=\'-5.990749835968018\'>
<ele>652</ele>
<time>2020-11-01T15:56:11Z</time>
</trkpt>
<trkpt lat=\'40.238033294677734\' lon=\'-5.990966796875\'>
<ele>653</ele>
<time>2020-11-01T15:56:13Z</time>
</trkpt>
<trkpt lat=\'40.23816680908203\' lon=\'-5.991183280944824\'>
<ele>654</ele>
<time>2020-11-01T15:56:15Z</time>
</trkpt>
<trkpt lat=\'40.23833465576172\' lon=\'-5.991350173950195\'>
<ele>656</ele>
<time>2020-11-01T15:56:17Z</time>
</trkpt>
<trkpt lat=\'40.23849868774414\' lon=\'-5.991499900817871\'>
<ele>656</ele>
<time>2020-11-01T15:56:19Z</time>
</trkpt>
<trkpt lat=\'40.23868179321289\' lon=\'-5.991650104522705\'>
<ele>656</ele>
<time>2020-11-01T15:56:21Z</time>
</trkpt>
<trkpt lat=\'40.23888397216797\' lon=\'-5.991799831390381\'>
<ele>655</ele>
<time>2020-11-01T15:56:23Z</time>
</trkpt>
<trkpt lat=\'40.23906707763672\' lon=\'-5.991950035095215\'>
<ele>654</ele>
<time>2020-11-01T15:56:25Z</time>
</trkpt>
<trkpt lat=\'40.239234924316406\' lon=\'-5.992133140563965\'>
<ele>655</ele>
<time>2020-11-01T15:56:27Z</time>
</trkpt>
<trkpt lat=\'40.239383697509766\' lon=\'-5.992316722869873\'>
<ele>655</ele>
<time>2020-11-01T15:56:29Z</time>
</trkpt>
<trkpt lat=\'40.23951721191406\' lon=\'-5.992499828338623\'>
<ele>653</ele>
<time>2020-11-01T15:56:31Z</time>
</trkpt>
<trkpt lat=\'40.23965072631836\' lon=\'-5.992733478546143\'>
<ele>650</ele>
<time>2020-11-01T15:56:33Z</time>
</trkpt>
<trkpt lat=\'40.23976516723633\' lon=\'-5.992966651916504\'>
<ele>650</ele>
<time>2020-11-01T15:56:35Z</time>
</trkpt>
<trkpt lat=\'40.2398681640625\' lon=\'-5.993199825286865\'>
<ele>650</ele>
<time>2020-11-01T15:56:37Z</time>
</trkpt>
<trkpt lat=\'40.23994827270508\' lon=\'-5.993433475494385\'>
<ele>651</ele>
<time>2020-11-01T15:56:39Z</time>
</trkpt>
<trkpt lat=\'40.24001693725586\' lon=\'-5.993649959564209\'>
<ele>651</ele>
<time>2020-11-01T15:56:41Z</time>
</trkpt>
<trkpt lat=\'40.240081787109375\' lon=\'-5.993866920471191\'>
<ele>650</ele>
<time>2020-11-01T15:56:43Z</time>
</trkpt>
<trkpt lat=\'40.240150451660156\' lon=\'-5.994100093841553\'>
<ele>647</ele>
<time>2020-11-01T15:56:45Z</time>
</trkpt>
<trkpt lat=\'40.240234375\' lon=\'-5.994333267211914\'>
<ele>642</ele>
<time>2020-11-01T15:56:47Z</time>
</trkpt>
<trkpt lat=\'40.240318298339844\' lon=\'-5.9945831298828125\'>
<ele>640</ele>
<time>2020-11-01T15:56:49Z</time>
</trkpt>
<trkpt lat=\'40.2403678894043\' lon=\'-5.994833469390869\'>
<ele>639</ele>
<time>2020-11-01T15:56:51Z</time>
</trkpt>
<trkpt lat=\'40.24043273925781\' lon=\'-5.995049953460693\'>
<ele>636</ele>
<time>2020-11-01T15:56:53Z</time>
</trkpt>
<trkpt lat=\'40.240501403808594\' lon=\'-5.995283126831055\'>
<ele>630</ele>
<time>2020-11-01T15:56:55Z</time>
</trkpt>
<trkpt lat=\'40.24055099487305\' lon=\'-5.995550155639648\'>
<ele>627</ele>
<time>2020-11-01T15:56:57Z</time>
</trkpt>
<trkpt lat=\'40.2406005859375\' lon=\'-5.995800018310547\'>
<ele>628</ele>
<time>2020-11-01T15:56:59Z</time>
</trkpt>
<trkpt lat=\'40.24063491821289\' lon=\'-5.996016502380371\'>
<ele>627</ele>
<time>2020-11-01T15:57:01Z</time>
</trkpt>
<trkpt lat=\'40.240665435791016\' lon=\'-5.996266841888428\'>
<ele>625</ele>
<time>2020-11-01T15:57:03Z</time>
</trkpt>
<trkpt lat=\'40.240699768066406\' lon=\'-5.996516704559326\'>
<ele>624</ele>
<time>2020-11-01T15:57:05Z</time>
</trkpt>
<trkpt lat=\'40.24071502685547\' lon=\'-5.9967498779296875\'>
<ele>625</ele>
<time>2020-11-01T15:57:07Z</time>
</trkpt>
<trkpt lat=\'40.2407341003418\' lon=\'-5.996983528137207\'>
<ele>626</ele>
<time>2020-11-01T15:57:09Z</time>
</trkpt>
<trkpt lat=\'40.2407341003418\' lon=\'-5.997216701507568\'>
<ele>626</ele>
<time>2020-11-01T15:57:11Z</time>
</trkpt>
<trkpt lat=\'40.24074935913086\' lon=\'-5.99744987487793\'>
<ele>626</ele>
<time>2020-11-01T15:57:13Z</time>
</trkpt>
<trkpt lat=\'40.24076843261719\' lon=\'-5.997683525085449\'>
<ele>626</ele>
<time>2020-11-01T15:57:15Z</time>
</trkpt>
<trkpt lat=\'40.24074935913086\' lon=\'-5.997933387756348\'>
<ele>626</ele>
<time>2020-11-01T15:57:17Z</time>
</trkpt>
<trkpt lat=\'40.2407341003418\' lon=\'-5.998166561126709\'>
<ele>625</ele>
<time>2020-11-01T15:57:19Z</time>
</trkpt>
<trkpt lat=\'40.2407341003418\' lon=\'-5.998416900634766\'>
<ele>625</ele>
<time>2020-11-01T15:57:21Z</time>
</trkpt>
<trkpt lat=\'40.2407341003418\' lon=\'-5.998666763305664\'>
<ele>624</ele>
<time>2020-11-01T15:57:23Z</time>
</trkpt>
<trkpt lat=\'40.24074935913086\' lon=\'-5.9989333152771\'>
<ele>624</ele>
<time>2020-11-01T15:57:25Z</time>
</trkpt>
<trkpt lat=\'40.24076843261719\' lon=\'-5.999183177947998\'>
<ele>623</ele>
<time>2020-11-01T15:57:27Z</time>
</trkpt>
<trkpt lat=\'40.24078369140625\' lon=\'-5.999433517456055\'>
<ele>623</ele>
<time>2020-11-01T15:57:29Z</time>
</trkpt>
<trkpt lat=\'40.24079895019531\' lon=\'-5.999666690826416\'>
<ele>623</ele>
<time>2020-11-01T15:57:31Z</time>
</trkpt>
<trkpt lat=\'40.24081802368164\' lon=\'-5.999899864196777\'>
<ele>619</ele>
<time>2020-11-01T15:57:33Z</time>
</trkpt>
<trkpt lat=\'40.240848541259766\' lon=\'-6.000133514404297\'>
<ele>616</ele>
<time>2020-11-01T15:57:35Z</time>
</trkpt>
<trkpt lat=\'40.240867614746094\' lon=\'-6.000383377075195\'>
<ele>612</ele>
<time>2020-11-01T15:57:37Z</time>
</trkpt>
<trkpt lat=\'40.24089813232422\' lon=\'-6.000633239746094\'>
<ele>609</ele>
<time>2020-11-01T15:57:39Z</time>
</trkpt>
<trkpt lat=\'40.24091720581055\' lon=\'-6.000866889953613\'>
<ele>609</ele>
<time>2020-11-01T15:57:41Z</time>
</trkpt>
<trkpt lat=\'40.24091720581055\' lon=\'-6.001100063323975\'>
<ele>606</ele>
<time>2020-11-01T15:57:43Z</time>
</trkpt>
<trkpt lat=\'40.24091720581055\' lon=\'-6.001349925994873\'>
<ele>602</ele>
<time>2020-11-01T15:57:45Z</time>
</trkpt>
<trkpt lat=\'40.240867614746094\' lon=\'-6.0015997886657715\'>
<ele>599</ele>
<time>2020-11-01T15:57:47Z</time>
</trkpt>
<trkpt lat=\'40.2408332824707\' lon=\'-6.001833438873291\'>
<ele>597</ele>
<time>2020-11-01T15:57:49Z</time>
</trkpt>
<trkpt lat=\'40.24079895019531\' lon=\'-6.0020833015441895\'>
<ele>594</ele>
<time>2020-11-01T15:57:51Z</time>
</trkpt>
<trkpt lat=\'40.24078369140625\' lon=\'-6.002316474914551\'>
<ele>593</ele>
<time>2020-11-01T15:57:53Z</time>
</trkpt>
<trkpt lat=\'40.24074935913086\' lon=\'-6.002566814422607\'>
<ele>591</ele>
<time>2020-11-01T15:57:55Z</time>
</trkpt>
<trkpt lat=\'40.2407341003418\' lon=\'-6.002816677093506\'>
<ele>590</ele>
<time>2020-11-01T15:57:57Z</time>
</trkpt>
<trkpt lat=\'40.240684509277344\' lon=\'-6.003066539764404\'>
<ele>588</ele>
<time>2020-11-01T15:57:59Z</time>
</trkpt>
<trkpt lat=\'40.24061584472656\' lon=\'-6.003283500671387\'>
<ele>585</ele>
<time>2020-11-01T15:58:01Z</time>
</trkpt>
<trkpt lat=\'40.24055099487305\' lon=\'-6.003516674041748\'>
<ele>581</ele>
<time>2020-11-01T15:58:03Z</time>
</trkpt>
<trkpt lat=\'40.240482330322266\' lon=\'-6.0037665367126465\'>
<ele>581</ele>
<time>2020-11-01T15:58:05Z</time>
</trkpt>
<trkpt lat=\'40.24041748046875\' lon=\'-6.003966808319092\'>
<ele>582</ele>
<time>2020-11-01T15:58:07Z</time>
</trkpt>
<trkpt lat=\'40.2403678894043\' lon=\'-6.004166603088379\'>
<ele>577</ele>
<time>2020-11-01T15:58:09Z</time>
</trkpt>
<trkpt lat=\'40.240299224853516\' lon=\'-6.0044331550598145\'>
<ele>573</ele>
<time>2020-11-01T15:58:11Z</time>
</trkpt>
<trkpt lat=\'40.24024963378906\' lon=\'-6.004683494567871\'>
<ele>575</ele>
<time>2020-11-01T15:58:13Z</time>
</trkpt>
<trkpt lat=\'40.24020004272461\' lon=\'-6.004899978637695\'>
<ele>577</ele>
<time>2020-11-01T15:58:15Z</time>
</trkpt>
<trkpt lat=\'40.24016571044922\' lon=\'-6.0051164627075195\'>
<ele>577</ele>
<time>2020-11-01T15:58:17Z</time>
</trkpt>
<trkpt lat=\'40.240116119384766\' lon=\'-6.005350112915039\'>
<ele>577</ele>
<time>2020-11-01T15:58:19Z</time>
</trkpt>
<trkpt lat=\'40.240081787109375\' lon=\'-6.0055999755859375\'>
<ele>579</ele>
<time>2020-11-01T15:58:21Z</time>
</trkpt>
<trkpt lat=\'40.24005126953125\' lon=\'-6.005816459655762\'>
<ele>580</ele>
<time>2020-11-01T15:58:23Z</time>
</trkpt>
<trkpt lat=\'40.23998260498047\' lon=\'-6.006033420562744\'>
<ele>580</ele>
<time>2020-11-01T15:58:25Z</time>
</trkpt>
<trkpt lat=\'40.23991775512695\' lon=\'-6.0062665939331055\'>
<ele>579</ele>
<time>2020-11-01T15:58:27Z</time>
</trkpt>
<trkpt lat=\'40.23981475830078\' lon=\'-6.006499767303467\'>
<ele>579</ele>
<time>2020-11-01T15:58:29Z</time>
</trkpt>
<trkpt lat=\'40.2397346496582\' lon=\'-6.006716728210449\'>
<ele>579</ele>
<time>2020-11-01T15:58:31Z</time>
</trkpt>
<trkpt lat=\'40.23966598510742\' lon=\'-6.006933212280273\'>
<ele>580</ele>
<time>2020-11-01T15:58:33Z</time>
</trkpt>
<trkpt lat=\'40.23958206176758\' lon=\'-6.007166862487793\'>
<ele>579</ele>
<time>2020-11-01T15:58:35Z</time>
</trkpt>
<trkpt lat=\'40.239498138427734\' lon=\'-6.007383346557617\'>
<ele>581</ele>
<time>2020-11-01T15:58:37Z</time>
</trkpt>
<trkpt lat=\'40.239418029785156\' lon=\'-6.0076165199279785\'>
<ele>584</ele>
<time>2020-11-01T15:58:39Z</time>
</trkpt>
<trkpt lat=\'40.2393684387207\' lon=\'-6.007833480834961\'>
<ele>586</ele>
<time>2020-11-01T15:58:41Z</time>
</trkpt>
<trkpt lat=\'40.239315032958984\' lon=\'-6.008049964904785\'>
<ele>587</ele>
<time>2020-11-01T15:58:43Z</time>
</trkpt>
<trkpt lat=\'40.23926544189453\' lon=\'-6.0082831382751465\'>
<ele>588</ele>
<time>2020-11-01T15:58:45Z</time>
</trkpt>
<trkpt lat=\'40.23925018310547\' lon=\'-6.008516788482666\'>
<ele>589</ele>
<time>2020-11-01T15:58:47Z</time>
</trkpt>
<trkpt lat=\'40.23921585083008\' lon=\'-6.0087666511535645\'>
<ele>592</ele>
<time>2020-11-01T15:58:49Z</time>
</trkpt>
<trkpt lat=\'40.239200592041016\' lon=\'-6.009016513824463\'>
<ele>594</ele>
<time>2020-11-01T15:58:51Z</time>
</trkpt>
<trkpt lat=\'40.239200592041016\' lon=\'-6.009250164031982\'>
<ele>595</ele>
<time>2020-11-01T15:58:53Z</time>
</trkpt>
<trkpt lat=\'40.239166259765625\' lon=\'-6.009516716003418\'>
<ele>596</ele>
<time>2020-11-01T15:58:55Z</time>
</trkpt>
<trkpt lat=\'40.239131927490234\' lon=\'-6.009766578674316\'>
<ele>597</ele>
<time>2020-11-01T15:58:57Z</time>
</trkpt>
<trkpt lat=\'40.23910140991211\' lon=\'-6.010000228881836\'>
<ele>599</ele>
<time>2020-11-01T15:58:59Z</time>
</trkpt>
<trkpt lat=\'40.23908233642578\' lon=\'-6.010233402252197\'>
<ele>600</ele>
<time>2020-11-01T15:59:01Z</time>
</trkpt>
<trkpt lat=\'40.23906707763672\' lon=\'-6.010483264923096\'>
<ele>600</ele>
<time>2020-11-01T15:59:03Z</time>
</trkpt>
<trkpt lat=\'40.239051818847656\' lon=\'-6.010733127593994\'>
<ele>600</ele>
<time>2020-11-01T15:59:05Z</time>
</trkpt>
<trkpt lat=\'40.239051818847656\' lon=\'-6.010966777801514\'>
<ele>602</ele>
<time>2020-11-01T15:59:07Z</time>
</trkpt>
<trkpt lat=\'40.23906707763672\' lon=\'-6.011216640472412\'>
<ele>603</ele>
<time>2020-11-01T15:59:09Z</time>
</trkpt>
<trkpt lat=\'40.23908233642578\' lon=\'-6.011449813842773\'>
<ele>603</ele>
<time>2020-11-01T15:59:11Z</time>
</trkpt>
<trkpt lat=\'40.239131927490234\' lon=\'-6.01170015335083\'>
<ele>604</ele>
<time>2020-11-01T15:59:13Z</time>
</trkpt>
<trkpt lat=\'40.23918151855469\' lon=\'-6.0119500160217285\'>
<ele>605</ele>
<time>2020-11-01T15:59:15Z</time>
</trkpt>
<trkpt lat=\'40.23925018310547\' lon=\'-6.01218318939209\'>
<ele>607</ele>
<time>2020-11-01T15:59:17Z</time>
</trkpt>
<trkpt lat=\'40.239315032958984\' lon=\'-6.012416839599609\'>
<ele>608</ele>
<time>2020-11-01T15:59:19Z</time>
</trkpt>
<trkpt lat=\'40.239383697509766\' lon=\'-6.012650012969971\'>
<ele>609</ele>
<time>2020-11-01T15:59:21Z</time>
</trkpt>
<trkpt lat=\'40.23946762084961\' lon=\'-6.012866497039795\'>
<ele>609</ele>
<time>2020-11-01T15:59:23Z</time>
</trkpt>
<trkpt lat=\'40.239566802978516\' lon=\'-6.0131001472473145\'>
<ele>608</ele>
<time>2020-11-01T15:59:25Z</time>
</trkpt>
<trkpt lat=\'40.23968505859375\' lon=\'-6.013333320617676\'>
<ele>608</ele>
<time>2020-11-01T15:59:27Z</time>
</trkpt>
<trkpt lat=\'40.239784240722656\' lon=\'-6.0135498046875\'>
<ele>609</ele>
<time>2020-11-01T15:59:29Z</time>
</trkpt>
<trkpt lat=\'40.2398681640625\' lon=\'-6.0137834548950195\'>
<ele>609</ele>
<time>2020-11-01T15:59:31Z</time>
</trkpt>
<trkpt lat=\'40.239967346191406\' lon=\'-6.014016628265381\'>
<ele>609</ele>
<time>2020-11-01T15:59:33Z</time>
</trkpt>
<trkpt lat=\'40.240081787109375\' lon=\'-6.014233112335205\'>
<ele>610</ele>
<time>2020-11-01T15:59:35Z</time>
</trkpt>
<trkpt lat=\'40.24020004272461\' lon=\'-6.0144500732421875\'>
<ele>610</ele>
<time>2020-11-01T15:59:37Z</time>
</trkpt>
<trkpt lat=\'40.240333557128906\' lon=\'-6.014683246612549\'>
<ele>610</ele>
<time>2020-11-01T15:59:39Z</time>
</trkpt>
<trkpt lat=\'40.24045181274414\' lon=\'-6.014900207519531\'>
<ele>611</ele>
<time>2020-11-01T15:59:41Z</time>
</trkpt>
<trkpt lat=\'40.24053192138672\' lon=\'-6.015133380889893\'>
<ele>611</ele>
<time>2020-11-01T15:59:43Z</time>
</trkpt>
<trkpt lat=\'40.2406005859375\' lon=\'-6.015399932861328\'>
<ele>613</ele>
<time>2020-11-01T15:59:45Z</time>
</trkpt>
<trkpt lat=\'40.24063491821289\' lon=\'-6.0156331062316895\'>
<ele>616</ele>
<time>2020-11-01T15:59:47Z</time>
</trkpt>
<trkpt lat=\'40.24065017700195\' lon=\'-6.015833377838135\'>
<ele>614</ele>
<time>2020-11-01T15:59:49Z</time>
</trkpt>
<trkpt lat=\'40.24071502685547\' lon=\'-6.016083240509033\'>
<ele>610</ele>
<time>2020-11-01T15:59:51Z</time>
</trkpt>
<trkpt lat=\'40.24076843261719\' lon=\'-6.016349792480469\'>
<ele>611</ele>
<time>2020-11-01T15:59:53Z</time>
</trkpt>
<trkpt lat=\'40.24081802368164\' lon=\'-6.016583442687988\'>
<ele>612</ele>
<time>2020-11-01T15:59:55Z</time>
</trkpt>
<trkpt lat=\'40.240848541259766\' lon=\'-6.0167999267578125\'>
<ele>611</ele>
<time>2020-11-01T15:59:57Z</time>
</trkpt>
<trkpt lat=\'40.24089813232422\' lon=\'-6.017049789428711\'>
<ele>610</ele>
<time>2020-11-01T15:59:59Z</time>
</trkpt>
<trkpt lat=\'40.240966796875\' lon=\'-6.017300128936768\'>
<ele>610</ele>
<time>2020-11-01T16:00:01Z</time>
</trkpt>
<trkpt lat=\'40.24101638793945\' lon=\'-6.017533302307129\'>
<ele>611</ele>
<time>2020-11-01T16:00:03Z</time>
</trkpt>
<trkpt lat=\'40.241065979003906\' lon=\'-6.01776647567749\'>
<ele>611</ele>
<time>2020-11-01T16:00:05Z</time>
</trkpt>
<trkpt lat=\'40.24113464355469\' lon=\'-6.018016815185547\'>
<ele>612</ele>
<time>2020-11-01T16:00:07Z</time>
</trkpt>
<trkpt lat=\'40.24116516113281\' lon=\'-6.018249988555908\'>
<ele>614</ele>
<time>2020-11-01T16:00:09Z</time>
</trkpt>
<trkpt lat=\'40.2411994934082\' lon=\'-6.018499851226807\'>
<ele>615</ele>
<time>2020-11-01T16:00:11Z</time>
</trkpt>
<trkpt lat=\'40.241249084472656\' lon=\'-6.0187668800354\'>
<ele>616</ele>
<time>2020-11-01T16:00:13Z</time>
</trkpt>
<trkpt lat=\'40.24128341674805\' lon=\'-6.019016742706299\'>
<ele>618</ele>
<time>2020-11-01T16:00:15Z</time>
</trkpt>
<trkpt lat=\'40.2413330078125\' lon=\'-6.019266605377197\'>
<ele>621</ele>
<time>2020-11-01T16:00:17Z</time>
</trkpt>
<trkpt lat=\'40.24136734008789\' lon=\'-6.019499778747559\'>
<ele>622</ele>
<time>2020-11-01T16:00:19Z</time>
</trkpt>
<trkpt lat=\'40.241432189941406\' lon=\'-6.019750118255615\'>
<ele>623</ele>
<time>2020-11-01T16:00:21Z</time>
</trkpt>
<trkpt lat=\'40.24148178100586\' lon=\'-6.019999980926514\'>
<ele>624</ele>
<time>2020-11-01T16:00:23Z</time>
</trkpt>
<trkpt lat=\'40.24153518676758\' lon=\'-6.020233154296875\'>
<ele>627</ele>
<time>2020-11-01T16:00:25Z</time>
</trkpt>
<trkpt lat=\'40.24158477783203\' lon=\'-6.0204668045043945\'>
<ele>628</ele>
<time>2020-11-01T16:00:27Z</time>
</trkpt>
<trkpt lat=\'40.24164962768555\' lon=\'-6.020716667175293\'>
<ele>629</ele>
<time>2020-11-01T16:00:29Z</time>
</trkpt>
<trkpt lat=\'40.24169921875\' lon=\'-6.020949840545654\'>
<ele>631</ele>
<time>2020-11-01T16:00:31Z</time>
</trkpt>
<trkpt lat=\'40.24176788330078\' lon=\'-6.021183490753174\'>
<ele>633</ele>
<time>2020-11-01T16:00:33Z</time>
</trkpt>
<trkpt lat=\'40.2418327331543\' lon=\'-6.021416664123535\'>
<ele>633</ele>
<time>2020-11-01T16:00:35Z</time>
</trkpt>
<trkpt lat=\'40.24188232421875\' lon=\'-6.021666526794434\'>
<ele>633</ele>
<time>2020-11-01T16:00:37Z</time>
</trkpt>
<trkpt lat=\'40.241966247558594\' lon=\'-6.02191686630249\'>
<ele>635</ele>
<time>2020-11-01T16:00:39Z</time>
</trkpt>
<trkpt lat=\'40.242034912109375\' lon=\'-6.022166728973389\'>
<ele>636</ele>
<time>2020-11-01T16:00:41Z</time>
</trkpt>
<trkpt lat=\'40.24209976196289\' lon=\'-6.022416591644287\'>
<ele>637</ele>
<time>2020-11-01T16:00:43Z</time>
</trkpt>
<trkpt lat=\'40.24216842651367\' lon=\'-6.0226664543151855\'>
<ele>638</ele>
<time>2020-11-01T16:00:45Z</time>
</trkpt>
<trkpt lat=\'40.242218017578125\' lon=\'-6.022916793823242\'>
<ele>638</ele>
<time>2020-11-01T16:00:47Z</time>
</trkpt>
<trkpt lat=\'40.24224853515625\' lon=\'-6.023166656494141\'>
<ele>637</ele>
<time>2020-11-01T16:00:49Z</time>
</trkpt>
<trkpt lat=\'40.24228286743164\' lon=\'-6.023449897766113\'>
<ele>637</ele>
<time>2020-11-01T16:00:51Z</time>
</trkpt>
<trkpt lat=\'40.24231719970703\' lon=\'-6.023716449737549\'>
<ele>637</ele>
<time>2020-11-01T16:00:53Z</time>
</trkpt>
<trkpt lat=\'40.2422981262207\' lon=\'-6.0239667892456055\'>
<ele>638</ele>
<time>2020-11-01T16:00:55Z</time>
</trkpt>
<trkpt lat=\'40.24228286743164\' lon=\'-6.024216651916504\'>
<ele>638</ele>
<time>2020-11-01T16:00:57Z</time>
</trkpt>
<trkpt lat=\'40.24224853515625\' lon=\'-6.0244832038879395\'>
<ele>637</ele>
<time>2020-11-01T16:00:59Z</time>
</trkpt>
<trkpt lat=\'40.242183685302734\' lon=\'-6.024733543395996\'>
<ele>636</ele>
<time>2020-11-01T16:01:01Z</time>
</trkpt>
<trkpt lat=\'40.24211502075195\' lon=\'-6.0249834060668945\'>
<ele>635</ele>
<time>2020-11-01T16:01:03Z</time>
</trkpt>
<trkpt lat=\'40.24205017089844\' lon=\'-6.025233268737793\'>
<ele>636</ele>
<time>2020-11-01T16:01:05Z</time>
</trkpt>
<trkpt lat=\'40.241981506347656\' lon=\'-6.025483131408691\'>
<ele>637</ele>
<time>2020-11-01T16:01:07Z</time>
</trkpt>
<trkpt lat=\'40.2419319152832\' lon=\'-6.025733470916748\'>
<ele>639</ele>
<time>2020-11-01T16:01:09Z</time>
</trkpt>
<trkpt lat=\'40.24191665649414\' lon=\'-6.0259833335876465\'>
<ele>639</ele>
<time>2020-11-01T16:01:11Z</time>
</trkpt>
<trkpt lat=\'40.24190139770508\' lon=\'-6.026233196258545\'>
<ele>638</ele>
<time>2020-11-01T16:01:13Z</time>
</trkpt>
<trkpt lat=\'40.24188232421875\' lon=\'-6.026500225067139\'>
<ele>638</ele>
<time>2020-11-01T16:01:15Z</time>
</trkpt>
<trkpt lat=\'40.24188232421875\' lon=\'-6.026766777038574\'>
<ele>638</ele>
<time>2020-11-01T16:01:17Z</time>
</trkpt>
<trkpt lat=\'40.24188232421875\' lon=\'-6.02703332901001\'>
<ele>640</ele>
<time>2020-11-01T16:01:19Z</time>
</trkpt>
<trkpt lat=\'40.24188232421875\' lon=\'-6.027283191680908\'>
<ele>641</ele>
<time>2020-11-01T16:01:21Z</time>
</trkpt>
<trkpt lat=\'40.24190139770508\' lon=\'-6.027533531188965\'>
<ele>640</ele>
<time>2020-11-01T16:01:23Z</time>
</trkpt>
<trkpt lat=\'40.24191665649414\' lon=\'-6.0278000831604\'>
<ele>640</ele>
<time>2020-11-01T16:01:25Z</time>
</trkpt>
<trkpt lat=\'40.24195098876953\' lon=\'-6.028066635131836\'>
<ele>643</ele>
<time>2020-11-01T16:01:27Z</time>
</trkpt>
<trkpt lat=\'40.241966247558594\' lon=\'-6.028316497802734\'>
<ele>646</ele>
<time>2020-11-01T16:01:29Z</time>
</trkpt>
<trkpt lat=\'40.241966247558594\' lon=\'-6.028566837310791\'>
<ele>648</ele>
<time>2020-11-01T16:01:31Z</time>
</trkpt>
<trkpt lat=\'40.242000579833984\' lon=\'-6.028850078582764\'>
<ele>649</ele>
<time>2020-11-01T16:01:33Z</time>
</trkpt>
<trkpt lat=\'40.242034912109375\' lon=\'-6.029099941253662\'>
<ele>652</ele>
<time>2020-11-01T16:01:35Z</time>
</trkpt>
<trkpt lat=\'40.2420654296875\' lon=\'-6.0293498039245605\'>
<ele>655</ele>
<time>2020-11-01T16:01:37Z</time>
</trkpt>
<trkpt lat=\'40.24213409423828\' lon=\'-6.029600143432617\'>
<ele>657</ele>
<time>2020-11-01T16:01:39Z</time>
</trkpt>
<trkpt lat=\'40.2421989440918\' lon=\'-6.029866695404053\'>
<ele>659</ele>
<time>2020-11-01T16:01:41Z</time>
</trkpt>
<trkpt lat=\'40.24226760864258\' lon=\'-6.030116558074951\'>
<ele>662</ele>
<time>2020-11-01T16:01:43Z</time>
</trkpt>
<trkpt lat=\'40.24231719970703\' lon=\'-6.030366897583008\'>
<ele>663</ele>
<time>2020-11-01T16:01:45Z</time>
</trkpt>
<trkpt lat=\'40.242366790771484\' lon=\'-6.030633449554443\'>
<ele>665</ele>
<time>2020-11-01T16:01:47Z</time>
</trkpt>
<trkpt lat=\'40.242401123046875\' lon=\'-6.030883312225342\'>
<ele>667</ele>
<time>2020-11-01T16:01:49Z</time>
</trkpt>
<trkpt lat=\'40.24245071411133\' lon=\'-6.03113317489624\'>
<ele>668</ele>
<time>2020-11-01T16:01:51Z</time>
</trkpt>
<trkpt lat=\'40.242515563964844\' lon=\'-6.031400203704834\'>
<ele>670</ele>
<time>2020-11-01T16:01:53Z</time>
</trkpt>
<trkpt lat=\'40.2425651550293\' lon=\'-6.031650066375732\'>
<ele>672</ele>
<time>2020-11-01T16:01:55Z</time>
</trkpt>
<trkpt lat=\'40.24264907836914\' lon=\'-6.031883239746094\'>
<ele>673</ele>
<time>2020-11-01T16:01:57Z</time>
</trkpt>
<trkpt lat=\'40.242733001708984\' lon=\'-6.032116889953613\'>
<ele>673</ele>
<time>2020-11-01T16:01:59Z</time>
</trkpt>
<trkpt lat=\'40.24281692504883\' lon=\'-6.032383441925049\'>
<ele>672</ele>
<time>2020-11-01T16:02:01Z</time>
</trkpt>
<trkpt lat=\'40.24286651611328\' lon=\'-6.032649993896484\'>
<ele>673</ele>
<time>2020-11-01T16:02:03Z</time>
</trkpt>
<trkpt lat=\'40.242881774902344\' lon=\'-6.032899856567383\'>
<ele>673</ele>
<time>2020-11-01T16:02:05Z</time>
</trkpt>
<trkpt lat=\'40.242916107177734\' lon=\'-6.0331501960754395\'>
<ele>674</ele>
<time>2020-11-01T16:02:07Z</time>
</trkpt>
<trkpt lat=\'40.242950439453125\' lon=\'-6.033400058746338\'>
<ele>673</ele>
<time>2020-11-01T16:02:09Z</time>
</trkpt>
<trkpt lat=\'40.242984771728516\' lon=\'-6.033666610717773\'>
<ele>672</ele>
<time>2020-11-01T16:02:11Z</time>
</trkpt>
<trkpt lat=\'40.24301528930664\' lon=\'-6.033949851989746\'>
<ele>671</ele>
<time>2020-11-01T16:02:13Z</time>
</trkpt>
<trkpt lat=\'40.24304962158203\' lon=\'-6.034200191497803\'>
<ele>670</ele>
<time>2020-11-01T16:02:15Z</time>
</trkpt>
<trkpt lat=\'40.24311828613281\' lon=\'-6.034483432769775\'>
<ele>668</ele>
<time>2020-11-01T16:02:17Z</time>
</trkpt>
<trkpt lat=\'40.24319839477539\' lon=\'-6.034749984741211\'>
<ele>668</ele>
<time>2020-11-01T16:02:19Z</time>
</trkpt>
<trkpt lat=\'40.24326705932617\' lon=\'-6.034999847412109\'>
<ele>670</ele>
<time>2020-11-01T16:02:21Z</time>
</trkpt>
<trkpt lat=\'40.243316650390625\' lon=\'-6.035250186920166\'>
<ele>671</ele>
<time>2020-11-01T16:02:23Z</time>
</trkpt>
<trkpt lat=\'40.24336624145508\' lon=\'-6.0355000495910645\'>
<ele>672</ele>
<time>2020-11-01T16:02:25Z</time>
</trkpt>
<trkpt lat=\'40.24341583251953\' lon=\'-6.035749912261963\'>
<ele>673</ele>
<time>2020-11-01T16:02:27Z</time>
</trkpt>
<trkpt lat=\'40.243465423583984\' lon=\'-6.035999774932861\'>
<ele>674</ele>
<time>2020-11-01T16:02:29Z</time>
</trkpt>
<trkpt lat=\'40.243499755859375\' lon=\'-6.036233425140381\'>
<ele>675</ele>
<time>2020-11-01T16:02:31Z</time>
</trkpt>
<trkpt lat=\'40.243534088134766\' lon=\'-6.036483287811279\'>
<ele>676</ele>
<time>2020-11-01T16:02:33Z</time>
</trkpt>
<trkpt lat=\'40.24358367919922\' lon=\'-6.036716461181641\'>
<ele>676</ele>
<time>2020-11-01T16:02:35Z</time>
</trkpt>
<trkpt lat=\'40.24359893798828\' lon=\'-6.036983489990234\'>
<ele>676</ele>
<time>2020-11-01T16:02:37Z</time>
</trkpt>
<trkpt lat=\'40.24363327026367\' lon=\'-6.037233352661133\'>
<ele>676</ele>
<time>2020-11-01T16:02:39Z</time>
</trkpt>
<trkpt lat=\'40.24366760253906\' lon=\'-6.037483215332031\'>
<ele>675</ele>
<time>2020-11-01T16:02:41Z</time>
</trkpt>
<trkpt lat=\'40.243682861328125\' lon=\'-6.037749767303467\'>
<ele>675</ele>
<time>2020-11-01T16:02:43Z</time>
</trkpt>
<trkpt lat=\'40.24369812011719\' lon=\'-6.038000106811523\'>
<ele>676</ele>
<time>2020-11-01T16:02:45Z</time>
</trkpt>
<trkpt lat=\'40.24373245239258\' lon=\'-6.038249969482422\'>
<ele>677</ele>
<time>2020-11-01T16:02:47Z</time>
</trkpt>
<trkpt lat=\'40.24373245239258\' lon=\'-6.03849983215332\'>
<ele>677</ele>
<time>2020-11-01T16:02:49Z</time>
</trkpt>
<trkpt lat=\'40.24376678466797\' lon=\'-6.038766860961914\'>
<ele>676</ele>
<time>2020-11-01T16:02:51Z</time>
</trkpt>
<trkpt lat=\'40.24380111694336\' lon=\'-6.03903341293335\'>
<ele>675</ele>
<time>2020-11-01T16:02:53Z</time>
</trkpt>
<trkpt lat=\'40.24380111694336\' lon=\'-6.039283275604248\'>
<ele>676</ele>
<time>2020-11-01T16:02:55Z</time>
</trkpt>
<trkpt lat=\'40.24381637573242\' lon=\'-6.0395331382751465\'>
<ele>677</ele>
<time>2020-11-01T16:02:57Z</time>
</trkpt>
<trkpt lat=\'40.243831634521484\' lon=\'-6.039783477783203\'>
<ele>676</ele>
<time>2020-11-01T16:02:59Z</time>
</trkpt>
<trkpt lat=\'40.24385070800781\' lon=\'-6.040050029754639\'>
<ele>674</ele>
<time>2020-11-01T16:03:01Z</time>
</trkpt>
<trkpt lat=\'40.243865966796875\' lon=\'-6.040299892425537\'>
<ele>673</ele>
<time>2020-11-01T16:03:03Z</time>
</trkpt>
<trkpt lat=\'40.243900299072266\' lon=\'-6.040566444396973\'>
<ele>672</ele>
<time>2020-11-01T16:03:05Z</time>
</trkpt>
<trkpt lat=\'40.243934631347656\' lon=\'-6.040816783905029\'>
<ele>670</ele>
<time>2020-11-01T16:03:07Z</time>
</trkpt>
<trkpt lat=\'40.24399948120117\' lon=\'-6.041100025177002\'>
<ele>670</ele>
<time>2020-11-01T16:03:09Z</time>
</trkpt>
<trkpt lat=\'40.244049072265625\' lon=\'-6.0413498878479\'>
<ele>670</ele>
<time>2020-11-01T16:03:11Z</time>
</trkpt>
<trkpt lat=\'40.244117736816406\' lon=\'-6.041616439819336\'>
<ele>671</ele>
<time>2020-11-01T16:03:13Z</time>
</trkpt>
<trkpt lat=\'40.24416732788086\' lon=\'-6.04188346862793\'>
<ele>672</ele>
<time>2020-11-01T16:03:15Z</time>
</trkpt>
<trkpt lat=\'40.24421691894531\' lon=\'-6.042133331298828\'>
<ele>674</ele>
<time>2020-11-01T16:03:17Z</time>
</trkpt>
<trkpt lat=\'40.24428176879883\' lon=\'-6.042399883270264\'>
<ele>675</ele>
<time>2020-11-01T16:03:19Z</time>
</trkpt>
<trkpt lat=\'40.24433517456055\' lon=\'-6.04265022277832\'>
<ele>676</ele>
<time>2020-11-01T16:03:21Z</time>
</trkpt>
<trkpt lat=\'40.244415283203125\' lon=\'-6.042916774749756\'>
<ele>676</ele>
<time>2020-11-01T16:03:23Z</time>
</trkpt>
<trkpt lat=\'40.244483947753906\' lon=\'-6.043166637420654\'>
<ele>676</ele>
<time>2020-11-01T16:03:25Z</time>
</trkpt>
<trkpt lat=\'40.24456787109375\' lon=\'-6.04343318939209\'>
<ele>678</ele>
<time>2020-11-01T16:03:27Z</time>
</trkpt>
<trkpt lat=\'40.244651794433594\' lon=\'-6.0436835289001465\'>
<ele>680</ele>
<time>2020-11-01T16:03:29Z</time>
</trkpt>
<trkpt lat=\'40.2447509765625\' lon=\'-6.043916702270508\'>
<ele>680</ele>
<time>2020-11-01T16:03:31Z</time>
</trkpt>
<trkpt lat=\'40.244834899902344\' lon=\'-6.044166564941406\'>
<ele>680</ele>
<time>2020-11-01T16:03:33Z</time>
</trkpt>
<trkpt lat=\'40.24493408203125\' lon=\'-6.044416427612305\'>
<ele>681</ele>
<time>2020-11-01T16:03:35Z</time>
</trkpt>
<trkpt lat=\'40.245018005371094\' lon=\'-6.044633388519287\'>
<ele>680</ele>
<time>2020-11-01T16:03:37Z</time>
</trkpt>
<trkpt lat=\'40.24508285522461\' lon=\'-6.0448832511901855\'>
<ele>678</ele>
<time>2020-11-01T16:03:39Z</time>
</trkpt>
<trkpt lat=\'40.24515151977539\' lon=\'-6.045149803161621\'>
<ele>677</ele>
<time>2020-11-01T16:03:41Z</time>
</trkpt>
<trkpt lat=\'40.245216369628906\' lon=\'-6.045416831970215\'>
<ele>678</ele>
<time>2020-11-01T16:03:43Z</time>
</trkpt>
<trkpt lat=\'40.2452507019043\' lon=\'-6.045650005340576\'>
<ele>677</ele>
<time>2020-11-01T16:03:45Z</time>
</trkpt>
<trkpt lat=\'40.24530029296875\' lon=\'-6.045916557312012\'>
<ele>675</ele>
<time>2020-11-01T16:03:47Z</time>
</trkpt>
<trkpt lat=\'40.2453498840332\' lon=\'-6.046183109283447\'>
<ele>675</ele>
<time>2020-11-01T16:03:49Z</time>
</trkpt>
<trkpt lat=\'40.2453498840332\' lon=\'-6.046450138092041\'>
<ele>677</ele>
<time>2020-11-01T16:03:51Z</time>
</trkpt>
<trkpt lat=\'40.245365142822266\' lon=\'-6.046683311462402\'>
<ele>677</ele>
<time>2020-11-01T16:03:53Z</time>
</trkpt>
<trkpt lat=\'40.245384216308594\' lon=\'-6.046949863433838\'>
<ele>674</ele>
<time>2020-11-01T16:03:55Z</time>
</trkpt>
<trkpt lat=\'40.245399475097656\' lon=\'-6.047216892242432\'>
<ele>672</ele>
<time>2020-11-01T16:03:57Z</time>
</trkpt>
<trkpt lat=\'40.24543380737305\' lon=\'-6.047483444213867\'>
<ele>671</ele>
<time>2020-11-01T16:03:59Z</time>
</trkpt>
<trkpt lat=\'40.24544906616211\' lon=\'-6.047749996185303\'>
<ele>669</ele>
<time>2020-11-01T16:04:01Z</time>
</trkpt>
<trkpt lat=\'40.24546813964844\' lon=\'-6.048016548156738\'>
<ele>668</ele>
<time>2020-11-01T16:04:03Z</time>
</trkpt>
<trkpt lat=\'40.24549865722656\' lon=\'-6.048283100128174\'>
<ele>666</ele>
<time>2020-11-01T16:04:05Z</time>
</trkpt>
<trkpt lat=\'40.24549865722656\' lon=\'-6.048550128936768\'>
<ele>665</ele>
<time>2020-11-01T16:04:07Z</time>
</trkpt>
<trkpt lat=\'40.24549865722656\' lon=\'-6.048816680908203\'>
<ele>664</ele>
<time>2020-11-01T16:04:09Z</time>
</trkpt>
<trkpt lat=\'40.24549865722656\' lon=\'-6.049083232879639\'>
<ele>663</ele>
<time>2020-11-01T16:04:11Z</time>
</trkpt>
<trkpt lat=\'40.2454833984375\' lon=\'-6.049349784851074\'>
<ele>661</ele>
<time>2020-11-01T16:04:13Z</time>
</trkpt>
<trkpt lat=\'40.24544906616211\' lon=\'-6.049600124359131\'>
<ele>661</ele>
<time>2020-11-01T16:04:15Z</time>
</trkpt>
<trkpt lat=\'40.245399475097656\' lon=\'-6.049833297729492\'>
<ele>660</ele>
<time>2020-11-01T16:04:17Z</time>
</trkpt>
<trkpt lat=\'40.2453498840332\' lon=\'-6.050083160400391\'>
<ele>659</ele>
<time>2020-11-01T16:04:19Z</time>
</trkpt>
<trkpt lat=\'40.24528503417969\' lon=\'-6.05031681060791\'>
<ele>658</ele>
<time>2020-11-01T16:04:21Z</time>
</trkpt>
<trkpt lat=\'40.24523162841797\' lon=\'-6.050566673278809\'>
<ele>657</ele>
<time>2020-11-01T16:04:23Z</time>
</trkpt>
<trkpt lat=\'40.245201110839844\' lon=\'-6.050816535949707\'>
<ele>655</ele>
<time>2020-11-01T16:04:25Z</time>
</trkpt>
<trkpt lat=\'40.24515151977539\' lon=\'-6.051066875457764\'>
<ele>653</ele>
<time>2020-11-01T16:04:27Z</time>
</trkpt>
<trkpt lat=\'40.2451171875\' lon=\'-6.051316738128662\'>
<ele>651</ele>
<time>2020-11-01T16:04:29Z</time>
</trkpt>
<trkpt lat=\'40.24508285522461\' lon=\'-6.0515666007995605\'>
<ele>650</ele>
<time>2020-11-01T16:04:31Z</time>
</trkpt>
<trkpt lat=\'40.24504852294922\' lon=\'-6.051816463470459\'>
<ele>649</ele>
<time>2020-11-01T16:04:33Z</time>
</trkpt>
<trkpt lat=\'40.245033264160156\' lon=\'-6.052066802978516\'>
<ele>645</ele>
<time>2020-11-01T16:04:35Z</time>
</trkpt>
<trkpt lat=\'40.245018005371094\' lon=\'-6.052333354949951\'>
<ele>642</ele>
<time>2020-11-01T16:04:37Z</time>
</trkpt>
<trkpt lat=\'40.244998931884766\' lon=\'-6.052599906921387\'>
<ele>642</ele>
<time>2020-11-01T16:04:39Z</time>
</trkpt>
<trkpt lat=\'40.244998931884766\' lon=\'-6.052849769592285\'>
<ele>643</ele>
<time>2020-11-01T16:04:41Z</time>
</trkpt>
<trkpt lat=\'40.244998931884766\' lon=\'-6.053116798400879\'>
<ele>644</ele>
<time>2020-11-01T16:04:43Z</time>
</trkpt>
<trkpt lat=\'40.244998931884766\' lon=\'-6.053366661071777\'>
<ele>644</ele>
<time>2020-11-01T16:04:45Z</time>
</trkpt>
<trkpt lat=\'40.245018005371094\' lon=\'-6.053633213043213\'>
<ele>643</ele>
<time>2020-11-01T16:04:47Z</time>
</trkpt>
<trkpt lat=\'40.245018005371094\' lon=\'-6.053899765014648\'>
<ele>644</ele>
<time>2020-11-01T16:04:49Z</time>
</trkpt>
<trkpt lat=\'40.24504852294922\' lon=\'-6.054150104522705\'>
<ele>644</ele>
<time>2020-11-01T16:04:51Z</time>
</trkpt>
<trkpt lat=\'40.24508285522461\' lon=\'-6.0543999671936035\'>
<ele>643</ele>
<time>2020-11-01T16:04:53Z</time>
</trkpt>
<trkpt lat=\'40.2451171875\' lon=\'-6.054666519165039\'>
<ele>641</ele>
<time>2020-11-01T16:04:55Z</time>
</trkpt>
<trkpt lat=\'40.245182037353516\' lon=\'-6.054933547973633\'>
<ele>641</ele>
<time>2020-11-01T16:04:57Z</time>
</trkpt>
<trkpt lat=\'40.24523162841797\' lon=\'-6.055183410644531\'>
<ele>640</ele>
<time>2020-11-01T16:04:59Z</time>
</trkpt>
<trkpt lat=\'40.24528503417969\' lon=\'-6.055449962615967\'>
<ele>639</ele>
<time>2020-11-01T16:05:01Z</time>
</trkpt>
<trkpt lat=\'40.2453498840332\' lon=\'-6.055716514587402\'>
<ele>640</ele>
<time>2020-11-01T16:05:03Z</time>
</trkpt>
<trkpt lat=\'40.245418548583984\' lon=\'-6.055966854095459\'>
<ele>641</ele>
<time>2020-11-01T16:05:05Z</time>
</trkpt>
<trkpt lat=\'40.2454833984375\' lon=\'-6.056216716766357\'>
<ele>640</ele>
<time>2020-11-01T16:05:07Z</time>
</trkpt>
<trkpt lat=\'40.245548248291016\' lon=\'-6.056483268737793\'>
<ele>639</ele>
<time>2020-11-01T16:05:09Z</time>
</trkpt>
<trkpt lat=\'40.2456169128418\' lon=\'-6.0567498207092285\'>
<ele>640</ele>
<time>2020-11-01T16:05:11Z</time>
</trkpt>
<trkpt lat=\'40.24568176269531\' lon=\'-6.057000160217285\'>
<ele>640</ele>
<time>2020-11-01T16:05:13Z</time>
</trkpt>
<trkpt lat=\'40.24573516845703\' lon=\'-6.057250022888184\'>
<ele>639</ele>
<time>2020-11-01T16:05:15Z</time>
</trkpt>
<trkpt lat=\'40.24580001831055\' lon=\'-6.057516574859619\'>
<ele>639</ele>
<time>2020-11-01T16:05:17Z</time>
</trkpt>
<trkpt lat=\'40.245849609375\' lon=\'-6.057766437530518\'>
<ele>639</ele>
<time>2020-11-01T16:05:19Z</time>
</trkpt>
<trkpt lat=\'40.24589920043945\' lon=\'-6.058033466339111\'>
<ele>639</ele>
<time>2020-11-01T16:05:21Z</time>
</trkpt>
<trkpt lat=\'40.245933532714844\' lon=\'-6.05828332901001\'>
<ele>639</ele>
<time>2020-11-01T16:05:23Z</time>
</trkpt>
<trkpt lat=\'40.245967864990234\' lon=\'-6.058549880981445\'>
<ele>638</ele>
<time>2020-11-01T16:05:25Z</time>
</trkpt>
<trkpt lat=\'40.24601745605469\' lon=\'-6.058800220489502\'>
<ele>638</ele>
<time>2020-11-01T16:05:27Z</time>
</trkpt>
<trkpt lat=\'40.24605178833008\' lon=\'-6.0590667724609375\'>
<ele>638</ele>
<time>2020-11-01T16:05:29Z</time>
</trkpt>
<trkpt lat=\'40.2460823059082\' lon=\'-6.059333324432373\'>
<ele>637</ele>
<time>2020-11-01T16:05:31Z</time>
</trkpt>
<trkpt lat=\'40.246116638183594\' lon=\'-6.059599876403809\'>
<ele>637</ele>
<time>2020-11-01T16:05:33Z</time>
</trkpt>
<trkpt lat=\'40.246131896972656\' lon=\'-6.059866905212402\'>
<ele>637</ele>
<time>2020-11-01T16:05:35Z</time>
</trkpt>
<trkpt lat=\'40.246150970458984\' lon=\'-6.060116767883301\'>
<ele>637</ele>
<time>2020-11-01T16:05:37Z</time>
</trkpt>
<trkpt lat=\'40.24618148803711\' lon=\'-6.060366630554199\'>
<ele>637</ele>
<time>2020-11-01T16:05:39Z</time>
</trkpt>
<trkpt lat=\'40.24623489379883\' lon=\'-6.060616493225098\'>
<ele>636</ele>
<time>2020-11-01T16:05:41Z</time>
</trkpt>
<trkpt lat=\'40.246299743652344\' lon=\'-6.060883522033691\'>
<ele>636</ele>
<time>2020-11-01T16:05:43Z</time>
</trkpt>
<trkpt lat=\'40.24638366699219\' lon=\'-6.06113338470459\'>
<ele>637</ele>
<time>2020-11-01T16:05:45Z</time>
</trkpt>
<trkpt lat=\'40.24646759033203\' lon=\'-6.061366558074951\'>
<ele>637</ele>
<time>2020-11-01T16:05:47Z</time>
</trkpt>
<trkpt lat=\'40.246551513671875\' lon=\'-6.061616897583008\'>
<ele>636</ele>
<time>2020-11-01T16:05:49Z</time>
</trkpt>
<trkpt lat=\'40.24663162231445\' lon=\'-6.061866760253906\'>
<ele>633</ele>
<time>2020-11-01T16:05:51Z</time>
</trkpt>
<trkpt lat=\'40.246734619140625\' lon=\'-6.062116622924805\'>
<ele>632</ele>
<time>2020-11-01T16:05:53Z</time>
</trkpt>
<trkpt lat=\'40.24681854248047\' lon=\'-6.062366485595703\'>
<ele>631</ele>
<time>2020-11-01T16:05:55Z</time>
</trkpt>
<trkpt lat=\'40.24689865112305\' lon=\'-6.062633514404297\'>
<ele>629</ele>
<time>2020-11-01T16:05:57Z</time>
</trkpt>
<trkpt lat=\'40.24698257446289\' lon=\'-6.062883377075195\'>
<ele>628</ele>
<time>2020-11-01T16:05:59Z</time>
</trkpt>
<trkpt lat=\'40.24705123901367\' lon=\'-6.063149929046631\'>
<ele>627</ele>
<time>2020-11-01T16:06:01Z</time>
</trkpt>
<trkpt lat=\'40.2470817565918\' lon=\'-6.063416481018066\'>
<ele>626</ele>
<time>2020-11-01T16:06:03Z</time>
</trkpt>
<trkpt lat=\'40.24711608886719\' lon=\'-6.063700199127197\'>
<ele>627</ele>
<time>2020-11-01T16:06:05Z</time>
</trkpt>
<trkpt lat=\'40.24711608886719\' lon=\'-6.063950061798096\'>
<ele>628</ele>
<time>2020-11-01T16:06:07Z</time>
</trkpt>
<trkpt lat=\'40.24711608886719\' lon=\'-6.064183235168457\'>
<ele>628</ele>
<time>2020-11-01T16:06:09Z</time>
</trkpt>
<trkpt lat=\'40.247135162353516\' lon=\'-6.064449787139893\'>
<ele>627</ele>
<time>2020-11-01T16:06:11Z</time>
</trkpt>
<trkpt lat=\'40.24715042114258\' lon=\'-6.064716815948486\'>
<ele>627</ele>
<time>2020-11-01T16:06:13Z</time>
</trkpt>
<trkpt lat=\'40.24715042114258\' lon=\'-6.064983367919922\'>
<ele>629</ele>
<time>2020-11-01T16:06:15Z</time>
</trkpt>
<trkpt lat=\'40.24715042114258\' lon=\'-6.065216541290283\'>
<ele>630</ele>
<time>2020-11-01T16:06:17Z</time>
</trkpt>
<trkpt lat=\'40.24716567993164\' lon=\'-6.06546688079834\'>
<ele>630</ele>
<time>2020-11-01T16:06:19Z</time>
</trkpt>
<trkpt lat=\'40.24720001220703\' lon=\'-6.065716743469238\'>
<ele>630</ele>
<time>2020-11-01T16:06:21Z</time>
</trkpt>
<trkpt lat=\'40.24723434448242\' lon=\'-6.065966606140137\'>
<ele>630</ele>
<time>2020-11-01T16:06:23Z</time>
</trkpt>
<trkpt lat=\'40.24726486206055\' lon=\'-6.066233158111572\'>
<ele>631</ele>
<time>2020-11-01T16:06:25Z</time>
</trkpt>
<trkpt lat=\'40.24729919433594\' lon=\'-6.066466808319092\'>
<ele>632</ele>
<time>2020-11-01T16:06:27Z</time>
</trkpt>
<trkpt lat=\'40.24734878540039\' lon=\'-6.066733360290527\'>
<ele>631</ele>
<time>2020-11-01T16:06:29Z</time>
</trkpt>
<trkpt lat=\'40.24738311767578\' lon=\'-6.066999912261963\'>
<ele>630</ele>
<time>2020-11-01T16:06:31Z</time>
</trkpt>
<trkpt lat=\'40.247432708740234\' lon=\'-6.067249774932861\'>
<ele>630</ele>
<time>2020-11-01T16:06:33Z</time>
</trkpt>
<trkpt lat=\'40.24745178222656\' lon=\'-6.067500114440918\'>
<ele>629</ele>
<time>2020-11-01T16:06:35Z</time>
</trkpt>
<trkpt lat=\'40.24748229980469\' lon=\'-6.0677666664123535\'>
<ele>628</ele>
<time>2020-11-01T16:06:37Z</time>
</trkpt>
<trkpt lat=\'40.247501373291016\' lon=\'-6.068033218383789\'>
<ele>629</ele>
<time>2020-11-01T16:06:39Z</time>
</trkpt>
<trkpt lat=\'40.24751663208008\' lon=\'-6.068283557891846\'>
<ele>630</ele>
<time>2020-11-01T16:06:41Z</time>
</trkpt>
<trkpt lat=\'40.24756622314453\' lon=\'-6.068533420562744\'>
<ele>631</ele>
<time>2020-11-01T16:06:43Z</time>
</trkpt>
<trkpt lat=\'40.24763488769531\' lon=\'-6.0687665939331055\'>
<ele>632</ele>
<time>2020-11-01T16:06:45Z</time>
</trkpt>
<trkpt lat=\'40.24771499633789\' lon=\'-6.069016456604004\'>
<ele>632</ele>
<time>2020-11-01T16:06:47Z</time>
</trkpt>
<trkpt lat=\'40.247798919677734\' lon=\'-6.0692667961120605\'>
<ele>633</ele>
<time>2020-11-01T16:06:49Z</time>
</trkpt>
<trkpt lat=\'40.24788284301758\' lon=\'-6.069499969482422\'>
<ele>635</ele>
<time>2020-11-01T16:06:51Z</time>
</trkpt>
<trkpt lat=\'40.24795150756836\' lon=\'-6.06974983215332\'>
<ele>635</ele>
<time>2020-11-01T16:06:53Z</time>
</trkpt>
<trkpt lat=\'40.248016357421875\' lon=\'-6.070016860961914\'>
<ele>635</ele>
<time>2020-11-01T16:06:55Z</time>
</trkpt>
<trkpt lat=\'40.24806594848633\' lon=\'-6.07028341293335\'>
<ele>636</ele>
<time>2020-11-01T16:06:57Z</time>
</trkpt>
<trkpt lat=\'40.24810028076172\' lon=\'-6.070533275604248\'>
<ele>636</ele>
<time>2020-11-01T16:06:59Z</time>
</trkpt>
<trkpt lat=\'40.24813461303711\' lon=\'-6.070799827575684\'>
<ele>637</ele>
<time>2020-11-01T16:07:01Z</time>
</trkpt>
<trkpt lat=\'40.248165130615234\' lon=\'-6.07105016708374\'>
<ele>637</ele>
<time>2020-11-01T16:07:03Z</time>
</trkpt>
<trkpt lat=\'40.24818420410156\' lon=\'-6.071316719055176\'>
<ele>637</ele>
<time>2020-11-01T16:07:05Z</time>
</trkpt>
<trkpt lat=\'40.248199462890625\' lon=\'-6.071566581726074\'>
<ele>637</ele>
<time>2020-11-01T16:07:07Z</time>
</trkpt>
<trkpt lat=\'40.24821853637695\' lon=\'-6.07183313369751\'>
<ele>638</ele>
<time>2020-11-01T16:07:09Z</time>
</trkpt>
<trkpt lat=\'40.248199462890625\' lon=\'-6.0721001625061035\'>
<ele>638</ele>
<time>2020-11-01T16:07:11Z</time>
</trkpt>
<trkpt lat=\'40.24818420410156\' lon=\'-6.072350025177002\'>
<ele>639</ele>
<time>2020-11-01T16:07:13Z</time>
</trkpt>
<trkpt lat=\'40.248165130615234\' lon=\'-6.0725998878479\'>
<ele>639</ele>
<time>2020-11-01T16:07:15Z</time>
</trkpt>
<trkpt lat=\'40.24814987182617\' lon=\'-6.072866439819336\'>
<ele>639</ele>
<time>2020-11-01T16:07:17Z</time>
</trkpt>
<trkpt lat=\'40.24811553955078\' lon=\'-6.073116779327393\'>
<ele>638</ele>
<time>2020-11-01T16:07:19Z</time>
</trkpt>
<trkpt lat=\'40.24806594848633\' lon=\'-6.073383331298828\'>
<ele>637</ele>
<time>2020-11-01T16:07:21Z</time>
</trkpt>
<trkpt lat=\'40.24803161621094\' lon=\'-6.073633193969727\'>
<ele>636</ele>
<time>2020-11-01T16:07:23Z</time>
</trkpt>
<trkpt lat=\'40.247982025146484\' lon=\'-6.07390022277832\'>
<ele>636</ele>
<time>2020-11-01T16:07:25Z</time>
</trkpt>
<trkpt lat=\'40.24791717529297\' lon=\'-6.074133396148682\'>
<ele>635</ele>
<time>2020-11-01T16:07:27Z</time>
</trkpt>
<trkpt lat=\'40.247867584228516\' lon=\'-6.074399948120117\'>
<ele>635</ele>
<time>2020-11-01T16:07:29Z</time>
</trkpt>
<trkpt lat=\'40.24778366088867\' lon=\'-6.0746331214904785\'>
<ele>637</ele>
<time>2020-11-01T16:07:31Z</time>
</trkpt>
<trkpt lat=\'40.24769973754883\' lon=\'-6.074866771697998\'>
<ele>638</ele>
<time>2020-11-01T16:07:33Z</time>
</trkpt>
<trkpt lat=\'40.247615814208984\' lon=\'-6.075083255767822\'>
<ele>638</ele>
<time>2020-11-01T16:07:35Z</time>
</trkpt>
<trkpt lat=\'40.24755096435547\' lon=\'-6.075316429138184\'>
<ele>639</ele>
<time>2020-11-01T16:07:37Z</time>
</trkpt>
<trkpt lat=\'40.24748229980469\' lon=\'-6.07556676864624\'>
<ele>639</ele>
<time>2020-11-01T16:07:39Z</time>
</trkpt>
<trkpt lat=\'40.247432708740234\' lon=\'-6.075799942016602\'>
<ele>638</ele>
<time>2020-11-01T16:07:41Z</time>
</trkpt>
<trkpt lat=\'40.247398376464844\' lon=\'-6.076066493988037\'>
<ele>637</ele>
<time>2020-11-01T16:07:43Z</time>
</trkpt>
<trkpt lat=\'40.24736785888672\' lon=\'-6.076333522796631\'>
<ele>638</ele>
<time>2020-11-01T16:07:45Z</time>
</trkpt>
<trkpt lat=\'40.24733352661133\' lon=\'-6.076583385467529\'>
<ele>638</ele>
<time>2020-11-01T16:07:47Z</time>
</trkpt>
<trkpt lat=\'40.247318267822266\' lon=\'-6.076833248138428\'>
<ele>639</ele>
<time>2020-11-01T16:07:49Z</time>
</trkpt>
<trkpt lat=\'40.247283935546875\' lon=\'-6.077083110809326\'>
<ele>640</ele>
<time>2020-11-01T16:07:51Z</time>
</trkpt>
<trkpt lat=\'40.24726486206055\' lon=\'-6.077333450317383\'>
<ele>640</ele>
<time>2020-11-01T16:07:53Z</time>
</trkpt>
<trkpt lat=\'40.247249603271484\' lon=\'-6.077583312988281\'>
<ele>640</ele>
<time>2020-11-01T16:07:55Z</time>
</trkpt>
<trkpt lat=\'40.24723434448242\' lon=\'-6.077849864959717\'>
<ele>640</ele>
<time>2020-11-01T16:07:57Z</time>
</trkpt>
<trkpt lat=\'40.247215270996094\' lon=\'-6.078100204467773\'>
<ele>641</ele>
<time>2020-11-01T16:07:59Z</time>
</trkpt>
<trkpt lat=\'40.24720001220703\' lon=\'-6.078333377838135\'>
<ele>640</ele>
<time>2020-11-01T16:08:01Z</time>
</trkpt>
<trkpt lat=\'40.24716567993164\' lon=\'-6.07859992980957\'>
<ele>640</ele>
<time>2020-11-01T16:08:03Z</time>
</trkpt>
<trkpt lat=\'40.24715042114258\' lon=\'-6.078866481781006\'>
<ele>642</ele>
<time>2020-11-01T16:08:05Z</time>
</trkpt>
<trkpt lat=\'40.24711608886719\' lon=\'-6.079100131988525\'>
<ele>644</ele>
<time>2020-11-01T16:08:07Z</time>
</trkpt>
<trkpt lat=\'40.247100830078125\' lon=\'-6.079333305358887\'>
<ele>644</ele>
<time>2020-11-01T16:08:09Z</time>
</trkpt>
<trkpt lat=\'40.2470817565918\' lon=\'-6.079583168029785\'>
<ele>644</ele>
<time>2020-11-01T16:08:11Z</time>
</trkpt>
<trkpt lat=\'40.247100830078125\' lon=\'-6.079833507537842\'>
<ele>643</ele>
<time>2020-11-01T16:08:13Z</time>
</trkpt>
<trkpt lat=\'40.247100830078125\' lon=\'-6.08008337020874\'>
<ele>642</ele>
<time>2020-11-01T16:08:15Z</time>
</trkpt>
<trkpt lat=\'40.24711608886719\' lon=\'-6.080349922180176\'>
<ele>640</ele>
<time>2020-11-01T16:08:17Z</time>
</trkpt>
<trkpt lat=\'40.247100830078125\' lon=\'-6.080616474151611\'>
<ele>641</ele>
<time>2020-11-01T16:08:19Z</time>
</trkpt>
<trkpt lat=\'40.2470817565918\' lon=\'-6.080866813659668\'>
<ele>643</ele>
<time>2020-11-01T16:08:21Z</time>
</trkpt>
<trkpt lat=\'40.247066497802734\' lon=\'-6.081099987030029\'>
<ele>643</ele>
<time>2020-11-01T16:08:23Z</time>
</trkpt>
<trkpt lat=\'40.24705123901367\' lon=\'-6.081349849700928\'>
<ele>641</ele>
<time>2020-11-01T16:08:25Z</time>
</trkpt>
<trkpt lat=\'40.24705123901367\' lon=\'-6.0816168785095215\'>
<ele>640</ele>
<time>2020-11-01T16:08:27Z</time>
</trkpt>
<trkpt lat=\'40.247032165527344\' lon=\'-6.081883430480957\'>
<ele>640</ele>
<time>2020-11-01T16:08:29Z</time>
</trkpt>
<trkpt lat=\'40.24701690673828\' lon=\'-6.0821332931518555\'>
<ele>640</ele>
<time>2020-11-01T16:08:31Z</time>
</trkpt>
<trkpt lat=\'40.247032165527344\' lon=\'-6.082399845123291\'>
<ele>640</ele>
<time>2020-11-01T16:08:33Z</time>
</trkpt>
<trkpt lat=\'40.247032165527344\' lon=\'-6.082650184631348\'>
<ele>640</ele>
<time>2020-11-01T16:08:35Z</time>
</trkpt>
<trkpt lat=\'40.24705123901367\' lon=\'-6.082916736602783\'>
<ele>641</ele>
<time>2020-11-01T16:08:37Z</time>
</trkpt>
<trkpt lat=\'40.2470817565918\' lon=\'-6.083166599273682\'>
<ele>641</ele>
<time>2020-11-01T16:08:39Z</time>
</trkpt>
<trkpt lat=\'40.24711608886719\' lon=\'-6.08341646194458\'>
<ele>641</ele>
<time>2020-11-01T16:08:41Z</time>
</trkpt>
<trkpt lat=\'40.24716567993164\' lon=\'-6.083666801452637\'>
<ele>640</ele>
<time>2020-11-01T16:08:43Z</time>
</trkpt>
<trkpt lat=\'40.24723434448242\' lon=\'-6.083916664123535\'>
<ele>639</ele>
<time>2020-11-01T16:08:45Z</time>
</trkpt>
<trkpt lat=\'40.247283935546875\' lon=\'-6.084183216094971\'>
<ele>639</ele>
<time>2020-11-01T16:08:47Z</time>
</trkpt>
<trkpt lat=\'40.24733352661133\' lon=\'-6.084433555603027\'>
<ele>639</ele>
<time>2020-11-01T16:08:49Z</time>
</trkpt>
<trkpt lat=\'40.247398376464844\' lon=\'-6.084683418273926\'>
<ele>639</ele>
<time>2020-11-01T16:08:51Z</time>
</trkpt>
<trkpt lat=\'40.24745178222656\' lon=\'-6.084933280944824\'>
<ele>639</ele>
<time>2020-11-01T16:08:53Z</time>
</trkpt>
<trkpt lat=\'40.24751663208008\' lon=\'-6.0851664543151855\'>
<ele>639</ele>
<time>2020-11-01T16:08:55Z</time>
</trkpt>
<trkpt lat=\'40.24760055541992\' lon=\'-6.085433483123779\'>
<ele>637</ele>
<time>2020-11-01T16:08:57Z</time>
</trkpt>
<trkpt lat=\'40.24766540527344\' lon=\'-6.085683345794678\'>
<ele>638</ele>
<time>2020-11-01T16:08:59Z</time>
</trkpt>
<trkpt lat=\'40.24774932861328\' lon=\'-6.085933208465576\'>
<ele>640</ele>
<time>2020-11-01T16:09:01Z</time>
</trkpt>
<trkpt lat=\'40.24781799316406\' lon=\'-6.086166858673096\'>
<ele>640</ele>
<time>2020-11-01T16:09:03Z</time>
</trkpt>
<trkpt lat=\'40.24789810180664\' lon=\'-6.086416721343994\'>
<ele>639</ele>
<time>2020-11-01T16:09:05Z</time>
</trkpt>
<trkpt lat=\'40.247982025146484\' lon=\'-6.086666584014893\'>
<ele>639</ele>
<time>2020-11-01T16:09:07Z</time>
</trkpt>
<trkpt lat=\'40.248050689697266\' lon=\'-6.086916446685791\'>
<ele>639</ele>
<time>2020-11-01T16:09:09Z</time>
</trkpt>
<trkpt lat=\'40.24814987182617\' lon=\'-6.0871500968933105\'>
<ele>638</ele>
<time>2020-11-01T16:09:11Z</time>
</trkpt>
<trkpt lat=\'40.24824905395508\' lon=\'-6.087399959564209\'>
<ele>637</ele>
<time>2020-11-01T16:09:13Z</time>
</trkpt>
<trkpt lat=\'40.248348236083984\' lon=\'-6.08763313293457\'>
<ele>637</ele>
<time>2020-11-01T16:09:15Z</time>
</trkpt>
<trkpt lat=\'40.24846649169922\' lon=\'-6.08786678314209\'>
<ele>636</ele>
<time>2020-11-01T16:09:17Z</time>
</trkpt>
<trkpt lat=\'40.248565673828125\' lon=\'-6.088083267211914\'>
<ele>636</ele>
<time>2020-11-01T16:09:19Z</time>
</trkpt>
<trkpt lat=\'40.24868392944336\' lon=\'-6.088316440582275\'>
<ele>635</ele>
<time>2020-11-01T16:09:21Z</time>
</trkpt>
<trkpt lat=\'40.248783111572266\' lon=\'-6.088550090789795\'>
<ele>634</ele>
<time>2020-11-01T16:09:23Z</time>
</trkpt>
<trkpt lat=\'40.2489013671875\' lon=\'-6.088783264160156\'>
<ele>634</ele>
<time>2020-11-01T16:09:25Z</time>
</trkpt>
<trkpt lat=\'40.24901580810547\' lon=\'-6.089016437530518\'>
<ele>634</ele>
<time>2020-11-01T16:09:27Z</time>
</trkpt>
<trkpt lat=\'40.249149322509766\' lon=\'-6.089250087738037\'>
<ele>634</ele>
<time>2020-11-01T16:09:29Z</time>
</trkpt>
<trkpt lat=\'40.24924850463867\' lon=\'-6.089483261108398\'>
<ele>634</ele>
<time>2020-11-01T16:09:31Z</time>
</trkpt>
<trkpt lat=\'40.249366760253906\' lon=\'-6.089700222015381\'>
<ele>635</ele>
<time>2020-11-01T16:09:33Z</time>
</trkpt>
<trkpt lat=\'40.24948501586914\' lon=\'-6.089933395385742\'>
<ele>634</ele>
<time>2020-11-01T16:09:35Z</time>
</trkpt>
<trkpt lat=\'40.24958419799805\' lon=\'-6.090183258056641\'>
<ele>633</ele>
<time>2020-11-01T16:09:37Z</time>
</trkpt>
<trkpt lat=\'40.24968338012695\' lon=\'-6.09041690826416\'>
<ele>633</ele>
<time>2020-11-01T16:09:39Z</time>
</trkpt>
<trkpt lat=\'40.2497673034668\' lon=\'-6.090666770935059\'>
<ele>633</ele>
<time>2020-11-01T16:09:41Z</time>
</trkpt>
<trkpt lat=\'40.2498664855957\' lon=\'-6.090916633605957\'>
<ele>632</ele>
<time>2020-11-01T16:09:43Z</time>
</trkpt>
<trkpt lat=\'40.24995040893555\' lon=\'-6.091183185577393\'>
<ele>631</ele>
<time>2020-11-01T16:09:45Z</time>
</trkpt>
<trkpt lat=\'40.25001525878906\' lon=\'-6.091433525085449\'>
<ele>632</ele>
<time>2020-11-01T16:09:47Z</time>
</trkpt>
<trkpt lat=\'40.250099182128906\' lon=\'-6.091683387756348\'>
<ele>632</ele>
<time>2020-11-01T16:09:49Z</time>
</trkpt>
<trkpt lat=\'40.25019836425781\' lon=\'-6.091916561126709\'>
<ele>633</ele>
<time>2020-11-01T16:09:51Z</time>
</trkpt>
<trkpt lat=\'40.250267028808594\' lon=\'-6.092166900634766\'>
<ele>633</ele>
<time>2020-11-01T16:09:53Z</time>
</trkpt>
<trkpt lat=\'40.2503662109375\' lon=\'-6.092416763305664\'>
<ele>633</ele>
<time>2020-11-01T16:09:55Z</time>
</trkpt>
<trkpt lat=\'40.250450134277344\' lon=\'-6.0926666259765625\'>
<ele>633</ele>
<time>2020-11-01T16:09:57Z</time>
</trkpt>
<trkpt lat=\'40.25053405761719\' lon=\'-6.092899799346924\'>
<ele>633</ele>
<time>2020-11-01T16:09:59Z</time>
</trkpt>
<trkpt lat=\'40.25061798095703\' lon=\'-6.0931501388549805\'>
<ele>631</ele>
<time>2020-11-01T16:10:01Z</time>
</trkpt>
<trkpt lat=\'40.25071716308594\' lon=\'-6.093400001525879\'>
<ele>631</ele>
<time>2020-11-01T16:10:03Z</time>
</trkpt>
<trkpt lat=\'40.250831604003906\' lon=\'-6.09363317489624\'>
<ele>631</ele>
<time>2020-11-01T16:10:05Z</time>
</trkpt>
<trkpt lat=\'40.25094985961914\' lon=\'-6.09386682510376\'>
<ele>630</ele>
<time>2020-11-01T16:10:07Z</time>
</trkpt>
<trkpt lat=\'40.251068115234375\' lon=\'-6.094099998474121\'>
<ele>629</ele>
<time>2020-11-01T16:10:09Z</time>
</trkpt>
<trkpt lat=\'40.25120162963867\' lon=\'-6.094333171844482\'>
<ele>628</ele>
<time>2020-11-01T16:10:11Z</time>
</trkpt>
<trkpt lat=\'40.25133514404297\' lon=\'-6.094550132751465\'>
<ele>629</ele>
<time>2020-11-01T16:10:13Z</time>
</trkpt>
<trkpt lat=\'40.25144958496094\' lon=\'-6.094783306121826\'>
<ele>631</ele>
<time>2020-11-01T16:10:15Z</time>
</trkpt>
<trkpt lat=\'40.251583099365234\' lon=\'-6.0950164794921875\'>
<ele>632</ele>
<time>2020-11-01T16:10:17Z</time>
</trkpt>
<trkpt lat=\'40.25170135498047\' lon=\'-6.09523344039917\'>
<ele>633</ele>
<time>2020-11-01T16:10:19Z</time>
</trkpt>
<trkpt lat=\'40.251834869384766\' lon=\'-6.095466613769531\'>
<ele>634</ele>
<time>2020-11-01T16:10:21Z</time>
</trkpt>
<trkpt lat=\'40.25196838378906\' lon=\'-6.0956830978393555\'>
<ele>634</ele>
<time>2020-11-01T16:10:23Z</time>
</trkpt>
<trkpt lat=\'40.25208282470703\' lon=\'-6.095900058746338\'>
<ele>635</ele>
<time>2020-11-01T16:10:25Z</time>
</trkpt>
<trkpt lat=\'40.25223159790039\' lon=\'-6.096116542816162\'>
<ele>635</ele>
<time>2020-11-01T16:10:27Z</time>
</trkpt>
<trkpt lat=\'40.25239944458008\' lon=\'-6.096316814422607\'>
<ele>636</ele>
<time>2020-11-01T16:10:29Z</time>
</trkpt>
<trkpt lat=\'40.252532958984375\' lon=\'-6.0965166091918945\'>
<ele>638</ele>
<time>2020-11-01T16:10:31Z</time>
</trkpt>
<trkpt lat=\'40.252681732177734\' lon=\'-6.096733093261719\'>
<ele>640</ele>
<time>2020-11-01T16:10:33Z</time>
</trkpt>
<trkpt lat=\'40.25283432006836\' lon=\'-6.096916675567627\'>
<ele>642</ele>
<time>2020-11-01T16:10:35Z</time>
</trkpt>
<trkpt lat=\'40.25298309326172\' lon=\'-6.097116470336914\'>
<ele>642</ele>
<time>2020-11-01T16:10:37Z</time>
</trkpt>
<trkpt lat=\'40.25313186645508\' lon=\'-6.097316741943359\'>
<ele>642</ele>
<time>2020-11-01T16:10:39Z</time>
</trkpt>
<trkpt lat=\'40.25331497192383\' lon=\'-6.097499847412109\'>
<ele>643</ele>
<time>2020-11-01T16:10:41Z</time>
</trkpt>
<trkpt lat=\'40.253482818603516\' lon=\'-6.097683429718018\'>
<ele>644</ele>
<time>2020-11-01T16:10:43Z</time>
</trkpt>
<trkpt lat=\'40.2536506652832\' lon=\'-6.0978498458862305\'>
<ele>644</ele>
<time>2020-11-01T16:10:45Z</time>
</trkpt>
<trkpt lat=\'40.25383377075195\' lon=\'-6.0980000495910645\'>
<ele>645</ele>
<time>2020-11-01T16:10:47Z</time>
</trkpt>
<trkpt lat=\'40.2540168762207\' lon=\'-6.098166465759277\'>
<ele>645</ele>
<time>2020-11-01T16:10:49Z</time>
</trkpt>
<trkpt lat=\'40.25419998168945\' lon=\'-6.098316669464111\'>
<ele>645</ele>
<time>2020-11-01T16:10:51Z</time>
</trkpt>
<trkpt lat=\'40.254398345947266\' lon=\'-6.098466873168945\'>
<ele>645</ele>
<time>2020-11-01T16:10:53Z</time>
</trkpt>
<trkpt lat=\'40.254581451416016\' lon=\'-6.098599910736084\'>
<ele>644</ele>
<time>2020-11-01T16:10:55Z</time>
</trkpt>
<trkpt lat=\'40.254783630371094\' lon=\'-6.098750114440918\'>
<ele>644</ele>
<time>2020-11-01T16:10:57Z</time>
</trkpt>
<trkpt lat=\'40.254981994628906\' lon=\'-6.098899841308594\'>
<ele>644</ele>
<time>2020-11-01T16:10:59Z</time>
</trkpt>
<trkpt lat=\'40.255149841308594\' lon=\'-6.099066734313965\'>
<ele>646</ele>
<time>2020-11-01T16:11:01Z</time>
</trkpt>
<trkpt lat=\'40.255332946777344\' lon=\'-6.099216461181641\'>
<ele>646</ele>
<time>2020-11-01T16:11:03Z</time>
</trkpt>
<trkpt lat=\'40.255516052246094\' lon=\'-6.099383354187012\'>
<ele>646</ele>
<time>2020-11-01T16:11:05Z</time>
</trkpt>
<trkpt lat=\'40.255699157714844\' lon=\'-6.099549770355225\'>
<ele>646</ele>
<time>2020-11-01T16:11:07Z</time>
</trkpt>
<trkpt lat=\'40.255882263183594\' lon=\'-6.0996832847595215\'>
<ele>645</ele>
<time>2020-11-01T16:11:09Z</time>
</trkpt>
<trkpt lat=\'40.25608444213867\' lon=\'-6.0998334884643555\'>
<ele>644</ele>
<time>2020-11-01T16:11:11Z</time>
</trkpt>
<trkpt lat=\'40.256282806396484\' lon=\'-6.099999904632568\'>
<ele>646</ele>
<time>2020-11-01T16:11:13Z</time>
</trkpt>
<trkpt lat=\'40.256465911865234\' lon=\'-6.100133419036865\'>
<ele>648</ele>
<time>2020-11-01T16:11:15Z</time>
</trkpt>
<trkpt lat=\'40.256649017333984\' lon=\'-6.100299835205078\'>
<ele>648</ele>
<time>2020-11-01T16:11:17Z</time>
</trkpt>
<trkpt lat=\'40.256832122802734\' lon=\'-6.100466728210449\'>
<ele>647</ele>
<time>2020-11-01T16:11:19Z</time>
</trkpt>
<trkpt lat=\'40.25703430175781\' lon=\'-6.100616455078125\'>
<ele>647</ele>
<time>2020-11-01T16:11:21Z</time>
</trkpt>
<trkpt lat=\'40.25721740722656\' lon=\'-6.100783348083496\'>
<ele>650</ele>
<time>2020-11-01T16:11:23Z</time>
</trkpt>
<trkpt lat=\'40.257381439208984\' lon=\'-6.100950241088867\'>
<ele>651</ele>
<time>2020-11-01T16:11:25Z</time>
</trkpt>
<trkpt lat=\'40.257568359375\' lon=\'-6.10111665725708\'>
<ele>650</ele>
<time>2020-11-01T16:11:27Z</time>
</trkpt>
<trkpt lat=\'40.25773239135742\' lon=\'-6.101283550262451\'>
<ele>650</ele>
<time>2020-11-01T16:11:29Z</time>
</trkpt>
<trkpt lat=\'40.2579345703125\' lon=\'-6.101433277130127\'>
<ele>649</ele>
<time>2020-11-01T16:11:31Z</time>
</trkpt>
<trkpt lat=\'40.25813293457031\' lon=\'-6.101583480834961\'>
<ele>649</ele>
<time>2020-11-01T16:11:33Z</time>
</trkpt>
<trkpt lat=\'40.25830078125\' lon=\'-6.101733207702637\'>
<ele>649</ele>
<time>2020-11-01T16:11:35Z</time>
</trkpt>
<trkpt lat=\'40.25849914550781\' lon=\'-6.101866722106934\'>
<ele>647</ele>
<time>2020-11-01T16:11:37Z</time>
</trkpt>
<trkpt lat=\'40.25870132446289\' lon=\'-6.1020002365112305\'>
<ele>644</ele>
<time>2020-11-01T16:11:39Z</time>
</trkpt>
<trkpt lat=\'40.2588996887207\' lon=\'-6.102133274078369\'>
<ele>641</ele>
<time>2020-11-01T16:11:41Z</time>
</trkpt>
<trkpt lat=\'40.259117126464844\' lon=\'-6.102266788482666\'>
<ele>641</ele>
<time>2020-11-01T16:11:43Z</time>
</trkpt>
<trkpt lat=\'40.259315490722656\' lon=\'-6.102383136749268\'>
<ele>643</ele>
<time>2020-11-01T16:11:45Z</time>
</trkpt>
<trkpt lat=\'40.259498596191406\' lon=\'-6.1025166511535645\'>
<ele>643</ele>
<time>2020-11-01T16:11:47Z</time>
</trkpt>
<trkpt lat=\'40.259700775146484\' lon=\'-6.102650165557861\'>
<ele>642</ele>
<time>2020-11-01T16:11:49Z</time>
</trkpt>
<trkpt lat=\'40.259918212890625\' lon=\'-6.102749824523926\'>
<ele>640</ele>
<time>2020-11-01T16:11:51Z</time>
</trkpt>
<trkpt lat=\'40.2601318359375\' lon=\'-6.1028666496276855\'>
<ele>640</ele>
<time>2020-11-01T16:11:53Z</time>
</trkpt>
<trkpt lat=\'40.26034927368164\' lon=\'-6.102966785430908\'>
<ele>641</ele>
<time>2020-11-01T16:11:55Z</time>
</trkpt>
<trkpt lat=\'40.26055145263672\' lon=\'-6.103066444396973\'>
<ele>642</ele>
<time>2020-11-01T16:11:57Z</time>
</trkpt>
<trkpt lat=\'40.26074981689453\' lon=\'-6.103166580200195\'>
<ele>642</ele>
<time>2020-11-01T16:11:59Z</time>
</trkpt>
<trkpt lat=\'40.26096725463867\' lon=\'-6.103283405303955\'>
<ele>642</ele>
<time>2020-11-01T16:12:01Z</time>
</trkpt>
<trkpt lat=\'40.261165618896484\' lon=\'-6.103400230407715\'>
<ele>643</ele>
<time>2020-11-01T16:12:03Z</time>
</trkpt>
<trkpt lat=\'40.261383056640625\' lon=\'-6.103499889373779\'>
<ele>643</ele>
<time>2020-11-01T16:12:05Z</time>
</trkpt>
<trkpt lat=\'40.26158142089844\' lon=\'-6.103600025177002\'>
<ele>643</ele>
<time>2020-11-01T16:12:07Z</time>
</trkpt>
<trkpt lat=\'40.26179885864258\' lon=\'-6.103700160980225\'>
<ele>643</ele>
<time>2020-11-01T16:12:09Z</time>
</trkpt>
<trkpt lat=\'40.26201629638672\' lon=\'-6.103799819946289\'>
<ele>643</ele>
<time>2020-11-01T16:12:11Z</time>
</trkpt>
<trkpt lat=\'40.2622184753418\' lon=\'-6.103883266448975\'>
<ele>643</ele>
<time>2020-11-01T16:12:13Z</time>
</trkpt>
<trkpt lat=\'40.26243209838867\' lon=\'-6.10396671295166\'>
<ele>642</ele>
<time>2020-11-01T16:12:15Z</time>
</trkpt>
<trkpt lat=\'40.262664794921875\' lon=\'-6.104066848754883\'>
<ele>643</ele>
<time>2020-11-01T16:12:17Z</time>
</trkpt>
<trkpt lat=\'40.26286697387695\' lon=\'-6.104166507720947\'>
<ele>645</ele>
<time>2020-11-01T16:12:19Z</time>
</trkpt>
<trkpt lat=\'40.263065338134766\' lon=\'-6.104283332824707\'>
<ele>646</ele>
<time>2020-11-01T16:12:21Z</time>
</trkpt>
<trkpt lat=\'40.263267517089844\' lon=\'-6.104400157928467\'>
<ele>646</ele>
<time>2020-11-01T16:12:23Z</time>
</trkpt>
<trkpt lat=\'40.263465881347656\' lon=\'-6.104549884796143\'>
<ele>648</ele>
<time>2020-11-01T16:12:25Z</time>
</trkpt>
<trkpt lat=\'40.263648986816406\' lon=\'-6.104700088500977\'>
<ele>649</ele>
<time>2020-11-01T16:12:27Z</time>
</trkpt>
<trkpt lat=\'40.263816833496094\' lon=\'-6.1048665046691895\'>
<ele>651</ele>
<time>2020-11-01T16:12:29Z</time>
</trkpt>
<trkpt lat=\'40.26398468017578\' lon=\'-6.105050086975098\'>
<ele>652</ele>
<time>2020-11-01T16:12:31Z</time>
</trkpt>
<trkpt lat=\'40.2641487121582\' lon=\'-6.105233192443848\'>
<ele>653</ele>
<time>2020-11-01T16:12:33Z</time>
</trkpt>
<trkpt lat=\'40.2642822265625\' lon=\'-6.105416774749756\'>
<ele>655</ele>
<time>2020-11-01T16:12:35Z</time>
</trkpt>
<trkpt lat=\'40.264434814453125\' lon=\'-6.105616569519043\'>
<ele>656</ele>
<time>2020-11-01T16:12:37Z</time>
</trkpt>
<trkpt lat=\'40.26456832885742\' lon=\'-6.105833530426025\'>
<ele>657</ele>
<time>2020-11-01T16:12:39Z</time>
</trkpt>
<trkpt lat=\'40.26470184326172\' lon=\'-6.1060333251953125\'>
<ele>658</ele>
<time>2020-11-01T16:12:41Z</time>
</trkpt>
<trkpt lat=\'40.26483154296875\' lon=\'-6.106249809265137\'>
<ele>659</ele>
<time>2020-11-01T16:12:43Z</time>
</trkpt>
<trkpt lat=\'40.26496505737305\' lon=\'-6.106466770172119\'>
<ele>660</ele>
<time>2020-11-01T16:12:45Z</time>
</trkpt>
<trkpt lat=\'40.26508331298828\' lon=\'-6.106683254241943\'>
<ele>661</ele>
<time>2020-11-01T16:12:47Z</time>
</trkpt>
<trkpt lat=\'40.26521682739258\' lon=\'-6.106900215148926\'>
<ele>662</ele>
<time>2020-11-01T16:12:49Z</time>
</trkpt>
<trkpt lat=\'40.26533508300781\' lon=\'-6.10711669921875\'>
<ele>663</ele>
<time>2020-11-01T16:12:51Z</time>
</trkpt>
<trkpt lat=\'40.26543426513672\' lon=\'-6.107333183288574\'>
<ele>663</ele>
<time>2020-11-01T16:12:53Z</time>
</trkpt>
<trkpt lat=\'40.26551818847656\' lon=\'-6.107583522796631\'>
<ele>662</ele>
<time>2020-11-01T16:12:55Z</time>
</trkpt>
<trkpt lat=\'40.26551818847656\' lon=\'-6.107833385467529\'>
<ele>660</ele>
<time>2020-11-01T16:12:57Z</time>
</trkpt>
<trkpt lat=\'40.26543426513672\' lon=\'-6.108083248138428\'>
<ele>660</ele>
<time>2020-11-01T16:12:59Z</time>
</trkpt>
<trkpt lat=\'40.265316009521484\' lon=\'-6.108266830444336\'>
<ele>662</ele>
<time>2020-11-01T16:13:01Z</time>
</trkpt>
<trkpt lat=\'40.2651481628418\' lon=\'-6.1083831787109375\'>
<ele>663</ele>
<time>2020-11-01T16:13:03Z</time>
</trkpt>
<trkpt lat=\'40.264949798583984\' lon=\'-6.108433246612549\'>
<ele>663</ele>
<time>2020-11-01T16:13:05Z</time>
</trkpt>
<trkpt lat=\'40.26475143432617\' lon=\'-6.108416557312012\'>
<ele>663</ele>
<time>2020-11-01T16:13:07Z</time>
</trkpt>
<trkpt lat=\'40.264549255371094\' lon=\'-6.1083664894104\'>
<ele>662</ele>
<time>2020-11-01T16:13:09Z</time>
</trkpt>
<trkpt lat=\'40.26433181762695\' lon=\'-6.108283519744873\'>
<ele>660</ele>
<time>2020-11-01T16:13:11Z</time>
</trkpt>
<trkpt lat=\'40.26413345336914\' lon=\'-6.108166694641113\'>
<ele>658</ele>
<time>2020-11-01T16:13:13Z</time>
</trkpt>
<trkpt lat=\'40.26393508911133\' lon=\'-6.108016490936279\'>
<ele>658</ele>
<time>2020-11-01T16:13:15Z</time>
</trkpt>
<trkpt lat=\'40.26374816894531\' lon=\'-6.1078667640686035\'>
<ele>657</ele>
<time>2020-11-01T16:13:17Z</time>
</trkpt>
<trkpt lat=\'40.26356506347656\' lon=\'-6.107699871063232\'>
<ele>656</ele>
<time>2020-11-01T16:13:19Z</time>
</trkpt>
<trkpt lat=\'40.26338195800781\' lon=\'-6.107516765594482\'>
<ele>655</ele>
<time>2020-11-01T16:13:21Z</time>
</trkpt>
<trkpt lat=\'40.26321792602539\' lon=\'-6.107349872589111\'>
<ele>654</ele>
<time>2020-11-01T16:13:23Z</time>
</trkpt>
<trkpt lat=\'40.26303482055664\' lon=\'-6.107183456420898\'>
<ele>653</ele>
<time>2020-11-01T16:13:25Z</time>
</trkpt>
<trkpt lat=\'40.26285171508789\' lon=\'-6.10699987411499\'>
<ele>653</ele>
<time>2020-11-01T16:13:27Z</time>
</trkpt>
<trkpt lat=\'40.2626838684082\' lon=\'-6.10681676864624\'>
<ele>655</ele>
<time>2020-11-01T16:13:29Z</time>
</trkpt>
<trkpt lat=\'40.262516021728516\' lon=\'-6.106633186340332\'>
<ele>656</ele>
<time>2020-11-01T16:13:31Z</time>
</trkpt>
<trkpt lat=\'40.26234817504883\' lon=\'-6.106450080871582\'>
<ele>656</ele>
<time>2020-11-01T16:13:33Z</time>
</trkpt>
<trkpt lat=\'40.262184143066406\' lon=\'-6.106266498565674\'>
<ele>657</ele>
<time>2020-11-01T16:13:35Z</time>
</trkpt>
<trkpt lat=\'40.262001037597656\' lon=\'-6.106083393096924\'>
<ele>656</ele>
<time>2020-11-01T16:13:37Z</time>
</trkpt>
<trkpt lat=\'40.261817932128906\' lon=\'-6.105899810791016\'>
<ele>657</ele>
<time>2020-11-01T16:13:39Z</time>
</trkpt>
<trkpt lat=\'40.26165008544922\' lon=\'-6.10575008392334\'>
<ele>656</ele>
<time>2020-11-01T16:13:41Z</time>
</trkpt>
<trkpt lat=\'40.26146697998047\' lon=\'-6.105616569519043\'>
<ele>653</ele>
<time>2020-11-01T16:13:43Z</time>
</trkpt>
<trkpt lat=\'40.26124954223633\' lon=\'-6.105533123016357\'>
<ele>650</ele>
<time>2020-11-01T16:13:45Z</time>
</trkpt>
<trkpt lat=\'40.26103210449219\' lon=\'-6.105500221252441\'>
<ele>649</ele>
<time>2020-11-01T16:13:47Z</time>
</trkpt>
<trkpt lat=\'40.26081848144531\' lon=\'-6.105466842651367\'>
<ele>649</ele>
<time>2020-11-01T16:13:49Z</time>
</trkpt>
<trkpt lat=\'40.260616302490234\' lon=\'-6.10545015335083\'>
<ele>648</ele>
<time>2020-11-01T16:13:51Z</time>
</trkpt>
<trkpt lat=\'40.26041793823242\' lon=\'-6.10545015335083\'>
<ele>645</ele>
<time>2020-11-01T16:13:53Z</time>
</trkpt>
<trkpt lat=\'40.26020050048828\' lon=\'-6.10545015335083\'>
<ele>643</ele>
<time>2020-11-01T16:13:55Z</time>
</trkpt>
<trkpt lat=\'40.2599983215332\' lon=\'-6.105466842651367\'>
<ele>644</ele>
<time>2020-11-01T16:13:57Z</time>
</trkpt>
<trkpt lat=\'40.25979995727539\' lon=\'-6.10551643371582\'>
<ele>642</ele>
<time>2020-11-01T16:13:59Z</time>
</trkpt>
<trkpt lat=\'40.25958251953125\' lon=\'-6.1055498123168945\'>
<ele>640</ele>
<time>2020-11-01T16:14:01Z</time>
</trkpt>
<trkpt lat=\'40.25938415527344\' lon=\'-6.105599880218506\'>
<ele>637</ele>
<time>2020-11-01T16:14:03Z</time>
</trkpt>
<trkpt lat=\'40.2591667175293\' lon=\'-6.105666637420654\'>
<ele>636</ele>
<time>2020-11-01T16:14:05Z</time>
</trkpt>
<trkpt lat=\'40.258968353271484\' lon=\'-6.105716705322266\'>
<ele>636</ele>
<time>2020-11-01T16:14:07Z</time>
</trkpt>
<trkpt lat=\'40.258766174316406\' lon=\'-6.105766773223877\'>
<ele>636</ele>
<time>2020-11-01T16:14:09Z</time>
</trkpt>
<trkpt lat=\'40.258567810058594\' lon=\'-6.105800151824951\'>
<ele>635</ele>
<time>2020-11-01T16:14:11Z</time>
</trkpt>
<trkpt lat=\'40.258365631103516\' lon=\'-6.105833530426025\'>
<ele>633</ele>
<time>2020-11-01T16:14:13Z</time>
</trkpt>
<trkpt lat=\'40.2581672668457\' lon=\'-6.1058831214904785\'>
<ele>631</ele>
<time>2020-11-01T16:14:15Z</time>
</trkpt>
<trkpt lat=\'40.25798416137695\' lon=\'-6.10593318939209\'>
<ele>629</ele>
<time>2020-11-01T16:14:17Z</time>
</trkpt>
<trkpt lat=\'40.257781982421875\' lon=\'-6.105999946594238\'>
<ele>625</ele>
<time>2020-11-01T16:14:19Z</time>
</trkpt>
<trkpt lat=\'40.257568359375\' lon=\'-6.106066703796387\'>
<ele>623</ele>
<time>2020-11-01T16:14:21Z</time>
</trkpt>
<trkpt lat=\'40.257381439208984\' lon=\'-6.106133460998535\'>
<ele>622</ele>
<time>2020-11-01T16:14:23Z</time>
</trkpt>
<trkpt lat=\'40.257198333740234\' lon=\'-6.1062164306640625\'>
<ele>620</ele>
<time>2020-11-01T16:14:25Z</time>
</trkpt>
<trkpt lat=\'40.25699996948242\' lon=\'-6.106299877166748\'>
<ele>617</ele>
<time>2020-11-01T16:14:27Z</time>
</trkpt>
<trkpt lat=\'40.25680160522461\' lon=\'-6.106400012969971\'>
<ele>615</ele>
<time>2020-11-01T16:14:29Z</time>
</trkpt>
<trkpt lat=\'40.25663375854492\' lon=\'-6.106500148773193\'>
<ele>615</ele>
<time>2020-11-01T16:14:31Z</time>
</trkpt>
<trkpt lat=\'40.25645065307617\' lon=\'-6.106616497039795\'>
<ele>613</ele>
<time>2020-11-01T16:14:33Z</time>
</trkpt>
<trkpt lat=\'40.256282806396484\' lon=\'-6.106783390045166\'>
<ele>611</ele>
<time>2020-11-01T16:14:35Z</time>
</trkpt>
<trkpt lat=\'40.256168365478516\' lon=\'-6.106983184814453\'>
<ele>610</ele>
<time>2020-11-01T16:14:37Z</time>
</trkpt>
<trkpt lat=\'40.256065368652344\' lon=\'-6.1072001457214355\'>
<ele>609</ele>
<time>2020-11-01T16:14:39Z</time>
</trkpt>
<trkpt lat=\'40.255950927734375\' lon=\'-6.10741662979126\'>
<ele>607</ele>
<time>2020-11-01T16:14:41Z</time>
</trkpt>
<trkpt lat=\'40.25579833984375\' lon=\'-6.107633113861084\'>
<ele>606</ele>
<time>2020-11-01T16:14:43Z</time>
</trkpt>
<trkpt lat=\'40.25563430786133\' lon=\'-6.107800006866455\'>
<ele>607</ele>
<time>2020-11-01T16:14:45Z</time>
</trkpt>
<trkpt lat=\'40.25546646118164\' lon=\'-6.107916831970215\'>
<ele>610</ele>
<time>2020-11-01T16:14:47Z</time>
</trkpt>
<trkpt lat=\'40.25528335571289\' lon=\'-6.108016490936279\'>
<ele>610</ele>
<time>2020-11-01T16:14:49Z</time>
</trkpt>
<trkpt lat=\'40.25506591796875\' lon=\'-6.108066558837891\'>
<ele>610</ele>
<time>2020-11-01T16:14:51Z</time>
</trkpt>
<trkpt lat=\'40.25486755371094\' lon=\'-6.108083248138428\'>
<ele>610</ele>
<time>2020-11-01T16:14:53Z</time>
</trkpt>
<trkpt lat=\'40.25466537475586\' lon=\'-6.108083248138428\'>
<ele>612</ele>
<time>2020-11-01T16:14:55Z</time>
</trkpt>
<trkpt lat=\'40.25446701049805\' lon=\'-6.1080498695373535\'>
<ele>613</ele>
<time>2020-11-01T16:14:57Z</time>
</trkpt>
<trkpt lat=\'40.25426483154297\' lon=\'-6.108016490936279\'>
<ele>614</ele>
<time>2020-11-01T16:14:59Z</time>
</trkpt>
<trkpt lat=\'40.254066467285156\' lon=\'-6.107983112335205\'>
<ele>613</ele>
<time>2020-11-01T16:15:01Z</time>
</trkpt>
<trkpt lat=\'40.253883361816406\' lon=\'-6.107983112335205\'>
<ele>611</ele>
<time>2020-11-01T16:15:03Z</time>
</trkpt>
<trkpt lat=\'40.253665924072266\' lon=\'-6.107983112335205\'>
<ele>609</ele>
<time>2020-11-01T16:15:05Z</time>
</trkpt>
<trkpt lat=\'40.25346755981445\' lon=\'-6.108016490936279\'>
<ele>610</ele>
<time>2020-11-01T16:15:07Z</time>
</trkpt>
<trkpt lat=\'40.2532844543457\' lon=\'-6.1080498695373535\'>
<ele>611</ele>
<time>2020-11-01T16:15:09Z</time>
</trkpt>
<trkpt lat=\'40.25310134887695\' lon=\'-6.108133316040039\'>
<ele>610</ele>
<time>2020-11-01T16:15:11Z</time>
</trkpt>
<trkpt lat=\'40.252899169921875\' lon=\'-6.108233451843262\'>
<ele>610</ele>
<time>2020-11-01T16:15:13Z</time>
</trkpt>
<trkpt lat=\'40.252716064453125\' lon=\'-6.108333110809326\'>
<ele>611</ele>
<time>2020-11-01T16:15:15Z</time>
</trkpt>
<trkpt lat=\'40.25254821777344\' lon=\'-6.108433246612549\'>
<ele>611</ele>
<time>2020-11-01T16:15:17Z</time>
</trkpt>
<trkpt lat=\'40.25236511230469\' lon=\'-6.1085333824157715\'>
<ele>610</ele>
<time>2020-11-01T16:15:19Z</time>
</trkpt>
<trkpt lat=\'40.25218200683594\' lon=\'-6.108633518218994\'>
<ele>610</ele>
<time>2020-11-01T16:15:21Z</time>
</trkpt>
<trkpt lat=\'40.25199890136719\' lon=\'-6.108733177185059\'>
<ele>609</ele>
<time>2020-11-01T16:15:23Z</time>
</trkpt>
<trkpt lat=\'40.25181579589844\' lon=\'-6.108816623687744\'>
<ele>608</ele>
<time>2020-11-01T16:15:25Z</time>
</trkpt>
<trkpt lat=\'40.251617431640625\' lon=\'-6.108883380889893\'>
<ele>605</ele>
<time>2020-11-01T16:15:27Z</time>
</trkpt>
<trkpt lat=\'40.251434326171875\' lon=\'-6.108966827392578\'>
<ele>603</ele>
<time>2020-11-01T16:15:29Z</time>
</trkpt>
<trkpt lat=\'40.251251220703125\' lon=\'-6.1090497970581055\'>
<ele>599</ele>
<time>2020-11-01T16:15:31Z</time>
</trkpt>
<trkpt lat=\'40.251068115234375\' lon=\'-6.109149932861328\'>
<ele>594</ele>
<time>2020-11-01T16:15:33Z</time>
</trkpt>
<trkpt lat=\'40.250850677490234\' lon=\'-6.109250068664551\'>
<ele>591</ele>
<time>2020-11-01T16:15:35Z</time>
</trkpt>
<trkpt lat=\'40.250648498535156\' lon=\'-6.109333515167236\'>
<ele>592</ele>
<time>2020-11-01T16:15:37Z</time>
</trkpt>
<trkpt lat=\'40.250484466552734\' lon=\'-6.1093668937683105\'>
<ele>593</ele>
<time>2020-11-01T16:15:39Z</time>
</trkpt>
<trkpt lat=\'40.25031661987305\' lon=\'-6.109433174133301\'>
<ele>589</ele>
<time>2020-11-01T16:15:41Z</time>
</trkpt>
<trkpt lat=\'40.250099182128906\' lon=\'-6.109516620635986\'>
<ele>585</ele>
<time>2020-11-01T16:15:43Z</time>
</trkpt>
<trkpt lat=\'40.249900817871094\' lon=\'-6.109583377838135\'>
<ele>585</ele>
<time>2020-11-01T16:15:45Z</time>
</trkpt>
<trkpt lat=\'40.249732971191406\' lon=\'-6.109650135040283\'>
<ele>582</ele>
<time>2020-11-01T16:15:47Z</time>
</trkpt>
<trkpt lat=\'40.249549865722656\' lon=\'-6.109749794006348\'>
<ele>577</ele>
<time>2020-11-01T16:15:49Z</time>
</trkpt>
<trkpt lat=\'40.249366760253906\' lon=\'-6.109866619110107\'>
<ele>572</ele>
<time>2020-11-01T16:15:51Z</time>
</trkpt>
<trkpt lat=\'40.249168395996094\' lon=\'-6.110000133514404\'>
<ele>571</ele>
<time>2020-11-01T16:15:53Z</time>
</trkpt>
<trkpt lat=\'40.24898147583008\' lon=\'-6.110066890716553\'>
<ele>572</ele>
<time>2020-11-01T16:15:55Z</time>
</trkpt>
<trkpt lat=\'40.248817443847656\' lon=\'-6.11014986038208\'>
<ele>571</ele>
<time>2020-11-01T16:15:57Z</time>
</trkpt>
<trkpt lat=\'40.24864959716797\' lon=\'-6.110249996185303\'>
<ele>568</ele>
<time>2020-11-01T16:15:59Z</time>
</trkpt>
<trkpt lat=\'40.24846649169922\' lon=\'-6.110350131988525\'>
<ele>566</ele>
<time>2020-11-01T16:16:01Z</time>
</trkpt>
<trkpt lat=\'40.24829864501953\' lon=\'-6.11044979095459\'>
<ele>562</ele>
<time>2020-11-01T16:16:03Z</time>
</trkpt>
<trkpt lat=\'40.24811553955078\' lon=\'-6.11056661605835\'>
<ele>557</ele>
<time>2020-11-01T16:16:05Z</time>
</trkpt>
<trkpt lat=\'40.24793243408203\' lon=\'-6.110683441162109\'>
<ele>555</ele>
<time>2020-11-01T16:16:07Z</time>
</trkpt>
<trkpt lat=\'40.24776840209961\' lon=\'-6.110799789428711\'>
<ele>554</ele>
<time>2020-11-01T16:16:09Z</time>
</trkpt>
<trkpt lat=\'40.24760055541992\' lon=\'-6.110916614532471\'>
<ele>551</ele>
<time>2020-11-01T16:16:11Z</time>
</trkpt>
<trkpt lat=\'40.24741744995117\' lon=\'-6.111016750335693\'>
<ele>551</ele>
<time>2020-11-01T16:16:13Z</time>
</trkpt>
<trkpt lat=\'40.24726486206055\' lon=\'-6.111149787902832\'>
<ele>553</ele>
<time>2020-11-01T16:16:15Z</time>
</trkpt>
<trkpt lat=\'40.247135162353516\' lon=\'-6.111283302307129\'>
<ele>554</ele>
<time>2020-11-01T16:16:17Z</time>
</trkpt>
<trkpt lat=\'40.24698257446289\' lon=\'-6.1114501953125\'>
<ele>554</ele>
<time>2020-11-01T16:16:19Z</time>
</trkpt>
<trkpt lat=\'40.246849060058594\' lon=\'-6.111616611480713\'>
<ele>555</ele>
<time>2020-11-01T16:16:21Z</time>
</trkpt>
<trkpt lat=\'40.246734619140625\' lon=\'-6.111800193786621\'>
<ele>557</ele>
<time>2020-11-01T16:16:23Z</time>
</trkpt>
<trkpt lat=\'40.24661636352539\' lon=\'-6.111999988555908\'>
<ele>558</ele>
<time>2020-11-01T16:16:25Z</time>
</trkpt>
<trkpt lat=\'40.246498107910156\' lon=\'-6.112183570861816\'>
<ele>558</ele>
<time>2020-11-01T16:16:27Z</time>
</trkpt>
<trkpt lat=\'40.24638366699219\' lon=\'-6.112400054931641\'>
<ele>560</ele>
<time>2020-11-01T16:16:29Z</time>
</trkpt>
<trkpt lat=\'40.24628448486328\' lon=\'-6.112599849700928\'>
<ele>561</ele>
<time>2020-11-01T16:16:31Z</time>
</trkpt>
<trkpt lat=\'40.24616622924805\' lon=\'-6.112783432006836\'>
<ele>562</ele>
<time>2020-11-01T16:16:33Z</time>
</trkpt>
<trkpt lat=\'40.24603271484375\' lon=\'-6.112966537475586\'>
<ele>563</ele>
<time>2020-11-01T16:16:35Z</time>
</trkpt>
<trkpt lat=\'40.24589920043945\' lon=\'-6.113150119781494\'>
<ele>564</ele>
<time>2020-11-01T16:16:37Z</time>
</trkpt>
<trkpt lat=\'40.245765686035156\' lon=\'-6.113333225250244\'>
<ele>565</ele>
<time>2020-11-01T16:16:39Z</time>
</trkpt>
<trkpt lat=\'40.24563217163086\' lon=\'-6.113483428955078\'>
<ele>565</ele>
<time>2020-11-01T16:16:41Z</time>
</trkpt>
<trkpt lat=\'40.24549865722656\' lon=\'-6.113649845123291\'>
<ele>563</ele>
<time>2020-11-01T16:16:43Z</time>
</trkpt>
<trkpt lat=\'40.2453498840332\' lon=\'-6.113833427429199\'>
<ele>562</ele>
<time>2020-11-01T16:16:45Z</time>
</trkpt>
<trkpt lat=\'40.245201110839844\' lon=\'-6.113983154296875\'>
<ele>563</ele>
<time>2020-11-01T16:16:47Z</time>
</trkpt>
<trkpt lat=\'40.24504852294922\' lon=\'-6.114133358001709\'>
<ele>565</ele>
<time>2020-11-01T16:16:49Z</time>
</trkpt>
<trkpt lat=\'40.24489974975586\' lon=\'-6.114283561706543\'>
<ele>565</ele>
<time>2020-11-01T16:16:51Z</time>
</trkpt>
<trkpt lat=\'40.24473190307617\' lon=\'-6.114416599273682\'>
<ele>566</ele>
<time>2020-11-01T16:16:53Z</time>
</trkpt>
<trkpt lat=\'40.24458312988281\' lon=\'-6.114566802978516\'>
<ele>567</ele>
<time>2020-11-01T16:16:55Z</time>
</trkpt>
<trkpt lat=\'40.24443435668945\' lon=\'-6.114699840545654\'>
<ele>568</ele>
<time>2020-11-01T16:16:57Z</time>
</trkpt>
<trkpt lat=\'40.24428176879883\' lon=\'-6.114866733551025\'>
<ele>568</ele>
<time>2020-11-01T16:16:59Z</time>
</trkpt>
<trkpt lat=\'40.24413299560547\' lon=\'-6.115016460418701\'>
<ele>569</ele>
<time>2020-11-01T16:17:01Z</time>
</trkpt>
<trkpt lat=\'40.24398422241211\' lon=\'-6.115166664123535\'>
<ele>571</ele>
<time>2020-11-01T16:17:03Z</time>
</trkpt>
<trkpt lat=\'40.243831634521484\' lon=\'-6.115300178527832\'>
<ele>573</ele>
<time>2020-11-01T16:17:05Z</time>
</trkpt>
<trkpt lat=\'40.243682861328125\' lon=\'-6.115449905395508\'>
<ele>573</ele>
<time>2020-11-01T16:17:07Z</time>
</trkpt>
<trkpt lat=\'40.24351501464844\' lon=\'-6.115583419799805\'>
<ele>574</ele>
<time>2020-11-01T16:17:09Z</time>
</trkpt>
<trkpt lat=\'40.24336624145508\' lon=\'-6.115716457366943\'>
<ele>575</ele>
<time>2020-11-01T16:17:11Z</time>
</trkpt>
<trkpt lat=\'40.24321746826172\' lon=\'-6.11584997177124\'>
<ele>576</ele>
<time>2020-11-01T16:17:13Z</time>
</trkpt>
<trkpt lat=\'40.243064880371094\' lon=\'-6.115983486175537\'>
<ele>577</ele>
<time>2020-11-01T16:17:15Z</time>
</trkpt>
<trkpt lat=\'40.24290084838867\' lon=\'-6.116133213043213\'>
<ele>577</ele>
<time>2020-11-01T16:17:17Z</time>
</trkpt>
<trkpt lat=\'40.24274826049805\' lon=\'-6.116283416748047\'>
<ele>579</ele>
<time>2020-11-01T16:17:19Z</time>
</trkpt>
<trkpt lat=\'40.24259948730469\' lon=\'-6.116433143615723\'>
<ele>581</ele>
<time>2020-11-01T16:17:21Z</time>
</trkpt>
<trkpt lat=\'40.24246597290039\' lon=\'-6.116583347320557\'>
<ele>583</ele>
<time>2020-11-01T16:17:23Z</time>
</trkpt>
<trkpt lat=\'40.24231719970703\' lon=\'-6.116733551025391\'>
<ele>584</ele>
<time>2020-11-01T16:17:25Z</time>
</trkpt>
<trkpt lat=\'40.24216842651367\' lon=\'-6.116883277893066\'>
<ele>586</ele>
<time>2020-11-01T16:17:27Z</time>
</trkpt>
<trkpt lat=\'40.242034912109375\' lon=\'-6.1170501708984375\'>
<ele>588</ele>
<time>2020-11-01T16:17:29Z</time>
</trkpt>
<trkpt lat=\'40.24188232421875\' lon=\'-6.117199897766113\'>
<ele>590</ele>
<time>2020-11-01T16:17:31Z</time>
</trkpt>
<trkpt lat=\'40.24174880981445\' lon=\'-6.11733341217041\'>
<ele>592</ele>
<time>2020-11-01T16:17:33Z</time>
</trkpt>
<trkpt lat=\'40.241600036621094\' lon=\'-6.117483139038086\'>
<ele>594</ele>
<time>2020-11-01T16:17:35Z</time>
</trkpt>
<trkpt lat=\'40.241451263427734\' lon=\'-6.117616653442383\'>
<ele>595</ele>
<time>2020-11-01T16:17:37Z</time>
</trkpt>
<trkpt lat=\'40.24129867553711\' lon=\'-6.11775016784668\'>
<ele>597</ele>
<time>2020-11-01T16:17:39Z</time>
</trkpt>
<trkpt lat=\'40.24114990234375\' lon=\'-6.117883205413818\'>
<ele>599</ele>
<time>2020-11-01T16:17:41Z</time>
</trkpt>
<trkpt lat=\'40.24098205566406\' lon=\'-6.118016719818115\'>
<ele>601</ele>
<time>2020-11-01T16:17:43Z</time>
</trkpt>
<trkpt lat=\'40.24081802368164\' lon=\'-6.118133544921875\'>
<ele>603</ele>
<time>2020-11-01T16:17:45Z</time>
</trkpt>
<trkpt lat=\'40.240665435791016\' lon=\'-6.118249893188477\'>
<ele>605</ele>
<time>2020-11-01T16:17:47Z</time>
</trkpt>
<trkpt lat=\'40.240501403808594\' lon=\'-6.118350028991699\'>
<ele>606</ele>
<time>2020-11-01T16:17:49Z</time>
</trkpt>
<trkpt lat=\'40.240333557128906\' lon=\'-6.118450164794922\'>
<ele>608</ele>
<time>2020-11-01T16:17:51Z</time>
</trkpt>
<trkpt lat=\'40.24016571044922\' lon=\'-6.118549823760986\'>
<ele>609</ele>
<time>2020-11-01T16:17:53Z</time>
</trkpt>
<trkpt lat=\'40.23998260498047\' lon=\'-6.118649959564209\'>
<ele>611</ele>
<time>2020-11-01T16:17:55Z</time>
</trkpt>
<trkpt lat=\'40.23981475830078\' lon=\'-6.1187334060668945\'>
<ele>612</ele>
<time>2020-11-01T16:17:57Z</time>
</trkpt>
<trkpt lat=\'40.23965072631836\' lon=\'-6.11881685256958\'>
<ele>614</ele>
<time>2020-11-01T16:17:59Z</time>
</trkpt>
<trkpt lat=\'40.239498138427734\' lon=\'-6.118933200836182\'>
<ele>616</ele>
<time>2020-11-01T16:18:01Z</time>
</trkpt>
<trkpt lat=\'40.2393684387207\' lon=\'-6.119083404541016\'>
<ele>617</ele>
<time>2020-11-01T16:18:03Z</time>
</trkpt>
<trkpt lat=\'40.23925018310547\' lon=\'-6.1192498207092285\'>
<ele>619</ele>
<time>2020-11-01T16:18:05Z</time>
</trkpt>
<trkpt lat=\'40.23915100097656\' lon=\'-6.119466781616211\'>
<ele>621</ele>
<time>2020-11-01T16:18:07Z</time>
</trkpt>
<trkpt lat=\'40.23910140991211\' lon=\'-6.119683265686035\'>
<ele>623</ele>
<time>2020-11-01T16:18:09Z</time>
</trkpt>
<trkpt lat=\'40.239051818847656\' lon=\'-6.1199164390563965\'>
<ele>625</ele>
<time>2020-11-01T16:18:11Z</time>
</trkpt>
<trkpt lat=\'40.239051818847656\' lon=\'-6.120150089263916\'>
<ele>626</ele>
<time>2020-11-01T16:18:13Z</time>
</trkpt>
<trkpt lat=\'40.23908233642578\' lon=\'-6.1203999519348145\'>
<ele>627</ele>
<time>2020-11-01T16:18:15Z</time>
</trkpt>
<trkpt lat=\'40.239131927490234\' lon=\'-6.120633125305176\'>
<ele>629</ele>
<time>2020-11-01T16:18:17Z</time>
</trkpt>
<trkpt lat=\'40.23921585083008\' lon=\'-6.120866775512695\'>
<ele>631</ele>
<time>2020-11-01T16:18:19Z</time>
</trkpt>
<trkpt lat=\'40.23933410644531\' lon=\'-6.121066570281982\'>
<ele>632</ele>
<time>2020-11-01T16:18:21Z</time>
</trkpt>
<trkpt lat=\'40.23946762084961\' lon=\'-6.121266841888428\'>
<ele>633</ele>
<time>2020-11-01T16:18:23Z</time>
</trkpt>
<trkpt lat=\'40.23963165283203\' lon=\'-6.1214165687561035\'>
<ele>635</ele>
<time>2020-11-01T16:18:25Z</time>
</trkpt>
<trkpt lat=\'40.23981475830078\' lon=\'-6.1215500831604\'>
<ele>637</ele>
<time>2020-11-01T16:18:27Z</time>
</trkpt>
<trkpt lat=\'40.24003219604492\' lon=\'-6.121633529663086\'>
<ele>638</ele>
<time>2020-11-01T16:18:29Z</time>
</trkpt>
<trkpt lat=\'40.240264892578125\' lon=\'-6.12166690826416\'>
<ele>640</ele>
<time>2020-11-01T16:18:31Z</time>
</trkpt>
<trkpt lat=\'40.240482330322266\' lon=\'-6.121633529663086\'>
<ele>641</ele>
<time>2020-11-01T16:18:33Z</time>
</trkpt>
<trkpt lat=\'40.24071502685547\' lon=\'-6.1215667724609375\'>
<ele>643</ele>
<time>2020-11-01T16:18:35Z</time>
</trkpt>
<trkpt lat=\'40.24093246459961\' lon=\'-6.121433258056641\'>
<ele>645</ele>
<time>2020-11-01T16:18:37Z</time>
</trkpt>
<trkpt lat=\'40.24113464355469\' lon=\'-6.121266841888428\'>
<ele>647</ele>
<time>2020-11-01T16:18:39Z</time>
</trkpt>
<trkpt lat=\'40.24131774902344\' lon=\'-6.121049880981445\'>
<ele>648</ele>
<time>2020-11-01T16:18:41Z</time>
</trkpt>
<trkpt lat=\'40.24148178100586\' lon=\'-6.120816707611084\'>
<ele>650</ele>
<time>2020-11-01T16:18:43Z</time>
</trkpt>
<trkpt lat=\'40.241600036621094\' lon=\'-6.120533466339111\'>
<ele>651</ele>
<time>2020-11-01T16:18:45Z</time>
</trkpt>
<trkpt lat=\'40.24168395996094\' lon=\'-6.120233535766602\'>
<ele>653</ele>
<time>2020-11-01T16:18:47Z</time>
</trkpt>
<trkpt lat=\'40.24173355102539\' lon=\'-6.119933128356934\'>
<ele>654</ele>
<time>2020-11-01T16:18:49Z</time>
</trkpt>
<trkpt lat=\'40.24173355102539\' lon=\'-6.119633197784424\'>
<ele>656</ele>
<time>2020-11-01T16:18:51Z</time>
</trkpt>
<trkpt lat=\'40.24169921875\' lon=\'-6.119316577911377\'>
<ele>658</ele>
<time>2020-11-01T16:18:53Z</time>
</trkpt>
<trkpt lat=\'40.241615295410156\' lon=\'-6.119050025939941\'>
<ele>659</ele>
<time>2020-11-01T16:18:55Z</time>
</trkpt>
<trkpt lat=\'40.24150085449219\' lon=\'-6.118800163269043\'>
<ele>661</ele>
<time>2020-11-01T16:18:57Z</time>
</trkpt>
<trkpt lat=\'40.24134826660156\' lon=\'-6.1185832023620605\'>
<ele>663</ele>
<time>2020-11-01T16:18:59Z</time>
</trkpt>
<trkpt lat=\'40.24118423461914\' lon=\'-6.118416786193848\'>
<ele>664</ele>
<time>2020-11-01T16:19:01Z</time>
</trkpt>
<trkpt lat=\'40.24098205566406\' lon=\'-6.118299961090088\'>
<ele>666</ele>
<time>2020-11-01T16:19:03Z</time>
</trkpt>
<trkpt lat=\'40.24078369140625\' lon=\'-6.118216514587402\'>
<ele>667</ele>
<time>2020-11-01T16:19:05Z</time>
</trkpt>
<trkpt lat=\'40.24058151245117\' lon=\'-6.118183135986328\'>
<ele>669</ele>
<time>2020-11-01T16:19:07Z</time>
</trkpt>
<trkpt lat=\'40.24038314819336\' lon=\'-6.118183135986328\'>
<ele>670</ele>
<time>2020-11-01T16:19:09Z</time>
</trkpt>
<trkpt lat=\'40.24018478393555\' lon=\'-6.118199825286865\'>
<ele>671</ele>
<time>2020-11-01T16:19:11Z</time>
</trkpt>
<trkpt lat=\'40.23998260498047\' lon=\'-6.1182332038879395\'>
<ele>672</ele>
<time>2020-11-01T16:19:13Z</time>
</trkpt>
<trkpt lat=\'40.239784240722656\' lon=\'-6.118283271789551\'>
<ele>673</ele>
<time>2020-11-01T16:19:15Z</time>
</trkpt>
<trkpt lat=\'40.23958206176758\' lon=\'-6.118316650390625\'>
<ele>674</ele>
<time>2020-11-01T16:19:17Z</time>
</trkpt>
<trkpt lat=\'40.23939895629883\' lon=\'-6.118366718292236\'>
<ele>674</ele>
<time>2020-11-01T16:19:19Z</time>
</trkpt>
<trkpt lat=\'40.23918151855469\' lon=\'-6.118416786193848\'>
<ele>675</ele>
<time>2020-11-01T16:19:21Z</time>
</trkpt>
<trkpt lat=\'40.238983154296875\' lon=\'-6.118416786193848\'>
<ele>676</ele>
<time>2020-11-01T16:19:23Z</time>
</trkpt>
<trkpt lat=\'40.238765716552734\' lon=\'-6.118416786193848\'>
<ele>677</ele>
<time>2020-11-01T16:19:25Z</time>
</trkpt>
<trkpt lat=\'40.238548278808594\' lon=\'-6.118416786193848\'>
<ele>678</ele>
<time>2020-11-01T16:19:27Z</time>
</trkpt>
<trkpt lat=\'40.23834991455078\' lon=\'-6.118383407592773\'>
<ele>678</ele>
<time>2020-11-01T16:19:29Z</time>
</trkpt>
<trkpt lat=\'40.23813247680664\' lon=\'-6.118350028991699\'>
<ele>679</ele>
<time>2020-11-01T16:19:31Z</time>
</trkpt>
<trkpt lat=\'40.23793411254883\' lon=\'-6.118316650390625\'>
<ele>680</ele>
<time>2020-11-01T16:19:33Z</time>
</trkpt>
<trkpt lat=\'40.23771667480469\' lon=\'-6.118266582489014\'>
<ele>680</ele>
<time>2020-11-01T16:19:35Z</time>
</trkpt>
<trkpt lat=\'40.237518310546875\' lon=\'-6.118216514587402\'>
<ele>680</ele>
<time>2020-11-01T16:19:37Z</time>
</trkpt>
<trkpt lat=\'40.237300872802734\' lon=\'-6.118150234222412\'>
<ele>680</ele>
<time>2020-11-01T16:19:39Z</time>
</trkpt>
<trkpt lat=\'40.237098693847656\' lon=\'-6.118100166320801\'>
<ele>680</ele>
<time>2020-11-01T16:19:41Z</time>
</trkpt>
<trkpt lat=\'40.23688507080078\' lon=\'-6.118033409118652\'>
<ele>681</ele>
<time>2020-11-01T16:19:43Z</time>
</trkpt>
<trkpt lat=\'40.2366828918457\' lon=\'-6.117949962615967\'>
<ele>681</ele>
<time>2020-11-01T16:19:45Z</time>
</trkpt>
<trkpt lat=\'40.23648452758789\' lon=\'-6.117883205413818\'>
<ele>681</ele>
<time>2020-11-01T16:19:47Z</time>
</trkpt>
<trkpt lat=\'40.23626708984375\' lon=\'-6.117783546447754\'>
<ele>681</ele>
<time>2020-11-01T16:19:49Z</time>
</trkpt>
<trkpt lat=\'40.23606491088867\' lon=\'-6.117683410644531\'>
<ele>680</ele>
<time>2020-11-01T16:19:51Z</time>
</trkpt>
<trkpt lat=\'40.23586654663086\' lon=\'-6.117599964141846\'>
<ele>680</ele>
<time>2020-11-01T16:19:53Z</time>
</trkpt>
<trkpt lat=\'40.23566818237305\' lon=\'-6.117499828338623\'>
<ele>681</ele>
<time>2020-11-01T16:19:55Z</time>
</trkpt>
<trkpt lat=\'40.23546600341797\' lon=\'-6.117416858673096\'>
<ele>682</ele>
<time>2020-11-01T16:19:57Z</time>
</trkpt>
<trkpt lat=\'40.235267639160156\' lon=\'-6.117300033569336\'>
<ele>682</ele>
<time>2020-11-01T16:19:59Z</time>
</trkpt>
<trkpt lat=\'40.235084533691406\' lon=\'-6.117183208465576\'>
<ele>683</ele>
<time>2020-11-01T16:20:01Z</time>
</trkpt>
<trkpt lat=\'40.234901428222656\' lon=\'-6.1170334815979\'>
<ele>682</ele>
<time>2020-11-01T16:20:03Z</time>
</trkpt>
<trkpt lat=\'40.234718322753906\' lon=\'-6.116866588592529\'>
<ele>683</ele>
<time>2020-11-01T16:20:05Z</time>
</trkpt>
<trkpt lat=\'40.234535217285156\' lon=\'-6.116700172424316\'>
<ele>682</ele>
<time>2020-11-01T16:20:07Z</time>
</trkpt>
<trkpt lat=\'40.23436737060547\' lon=\'-6.116516590118408\'>
<ele>680</ele>
<time>2020-11-01T16:20:09Z</time>
</trkpt>
<trkpt lat=\'40.23419952392578\' lon=\'-6.116316795349121\'>
<ele>677</ele>
<time>2020-11-01T16:20:11Z</time>
</trkpt>
<trkpt lat=\'40.234031677246094\' lon=\'-6.116116523742676\'>
<ele>675</ele>
<time>2020-11-01T16:20:13Z</time>
</trkpt>
<trkpt lat=\'40.233882904052734\' lon=\'-6.115916728973389\'>
<ele>674</ele>
<time>2020-11-01T16:20:15Z</time>
</trkpt>
<trkpt lat=\'40.233699798583984\' lon=\'-6.1157331466674805\'>
<ele>671</ele>
<time>2020-11-01T16:20:17Z</time>
</trkpt>
<trkpt lat=\'40.233516693115234\' lon=\'-6.115616798400879\'>
<ele>669</ele>
<time>2020-11-01T16:20:19Z</time>
</trkpt>
<trkpt lat=\'40.23331832885742\' lon=\'-6.115533351898193\'>
<ele>667</ele>
<time>2020-11-01T16:20:21Z</time>
</trkpt>
<trkpt lat=\'40.233116149902344\' lon=\'-6.115449905395508\'>
<ele>664</ele>
<time>2020-11-01T16:20:23Z</time>
</trkpt>
<trkpt lat=\'40.23291778564453\' lon=\'-6.115366458892822\'>
<ele>660</ele>
<time>2020-11-01T16:20:25Z</time>
</trkpt>
<trkpt lat=\'40.23271560668945\' lon=\'-6.115266799926758\'>
<ele>656</ele>
<time>2020-11-01T16:20:27Z</time>
</trkpt>
<trkpt lat=\'40.23251724243164\' lon=\'-6.115166664123535\'>
<ele>654</ele>
<time>2020-11-01T16:20:29Z</time>
</trkpt>
<trkpt lat=\'40.23231506347656\' lon=\'-6.115099906921387\'>
<ele>652</ele>
<time>2020-11-01T16:20:31Z</time>
</trkpt>
<trkpt lat=\'40.23213195800781\' lon=\'-6.115049839019775\'>
<ele>647</ele>
<time>2020-11-01T16:20:33Z</time>
</trkpt>
<trkpt lat=\'40.23191833496094\' lon=\'-6.114999771118164\'>
<ele>642</ele>
<time>2020-11-01T16:20:35Z</time>
</trkpt>
<trkpt lat=\'40.2317008972168\' lon=\'-6.114983558654785\'>
<ele>638</ele>
<time>2020-11-01T16:20:37Z</time>
</trkpt>
<trkpt lat=\'40.23149871826172\' lon=\'-6.114933490753174\'>
<ele>633</ele>
<time>2020-11-01T16:20:39Z</time>
</trkpt>
<trkpt lat=\'40.23131561279297\' lon=\'-6.114866733551025\'>
<ele>629</ele>
<time>2020-11-01T16:20:41Z</time>
</trkpt>
<trkpt lat=\'40.231117248535156\' lon=\'-6.11478328704834\'>
<ele>624</ele>
<time>2020-11-01T16:20:43Z</time>
</trkpt>
<trkpt lat=\'40.23091506958008\' lon=\'-6.114683151245117\'>
<ele>619</ele>
<time>2020-11-01T16:20:45Z</time>
</trkpt>
<trkpt lat=\'40.23073196411133\' lon=\'-6.114583492279053\'>
<ele>614</ele>
<time>2020-11-01T16:20:47Z</time>
</trkpt>
<trkpt lat=\'40.230533599853516\' lon=\'-6.11448335647583\'>
<ele>610</ele>
<time>2020-11-01T16:20:49Z</time>
</trkpt>
<trkpt lat=\'40.23033142089844\' lon=\'-6.114383220672607\'>
<ele>607</ele>
<time>2020-11-01T16:20:51Z</time>
</trkpt>
<trkpt lat=\'40.230167388916016\' lon=\'-6.114250183105469\'>
<ele>605</ele>
<time>2020-11-01T16:20:53Z</time>
</trkpt>
<trkpt lat=\'40.22999954223633\' lon=\'-6.114133358001709\'>
<ele>602</ele>
<time>2020-11-01T16:20:55Z</time>
</trkpt>
<trkpt lat=\'40.22981643676758\' lon=\'-6.113999843597412\'>
<ele>597</ele>
<time>2020-11-01T16:20:57Z</time>
</trkpt>
<trkpt lat=\'40.22963333129883\' lon=\'-6.113850116729736\'>
<ele>593</ele>
<time>2020-11-01T16:20:59Z</time>
</trkpt>
<trkpt lat=\'40.22948455810547\' lon=\'-6.113683223724365\'>
<ele>592</ele>
<time>2020-11-01T16:21:01Z</time>
</trkpt>
<trkpt lat=\'40.22935104370117\' lon=\'-6.113483428955078\'>
<ele>590</ele>
<time>2020-11-01T16:21:03Z</time>
</trkpt>
<trkpt lat=\'40.229251861572266\' lon=\'-6.113249778747559\'>
<ele>588</ele>
<time>2020-11-01T16:21:05Z</time>
</trkpt>
<trkpt lat=\'40.22916793823242\' lon=\'-6.113016605377197\'>
<ele>584</ele>
<time>2020-11-01T16:21:07Z</time>
</trkpt>
<trkpt lat=\'40.22909927368164\' lon=\'-6.112766742706299\'>
<ele>581</ele>
<time>2020-11-01T16:21:09Z</time>
</trkpt>
<trkpt lat=\'40.2290153503418\' lon=\'-6.112500190734863\'>
<ele>577</ele>
<time>2020-11-01T16:21:11Z</time>
</trkpt>
<trkpt lat=\'40.22891616821289\' lon=\'-6.112266540527344\'>
<ele>573</ele>
<time>2020-11-01T16:21:13Z</time>
</trkpt>
<trkpt lat=\'40.22880172729492\' lon=\'-6.1120500564575195\'>
<ele>568</ele>
<time>2020-11-01T16:21:15Z</time>
</trkpt>
<trkpt lat=\'40.22868347167969\' lon=\'-6.111816883087158\'>
<ele>564</ele>
<time>2020-11-01T16:21:17Z</time>
</trkpt>
<trkpt lat=\'40.22854995727539\' lon=\'-6.111583232879639\'>
<ele>560</ele>
<time>2020-11-01T16:21:19Z</time>
</trkpt>
<trkpt lat=\'40.228416442871094\' lon=\'-6.111383438110352\'>
<ele>555</ele>
<time>2020-11-01T16:21:21Z</time>
</trkpt>
<trkpt lat=\'40.2282829284668\' lon=\'-6.111166477203369\'>
<ele>551</ele>
<time>2020-11-01T16:21:23Z</time>
</trkpt>
<trkpt lat=\'40.2281494140625\' lon=\'-6.110966682434082\'>
<ele>547</ele>
<time>2020-11-01T16:21:25Z</time>
</trkpt>
<trkpt lat=\'40.22800064086914\' lon=\'-6.110766887664795\'>
<ele>543</ele>
<time>2020-11-01T16:21:27Z</time>
</trkpt>
<trkpt lat=\'40.227867126464844\' lon=\'-6.11056661605835\'>
<ele>538</ele>
<time>2020-11-01T16:21:29Z</time>
</trkpt>
<trkpt lat=\'40.227718353271484\' lon=\'-6.110350131988525\'>
<ele>534</ele>
<time>2020-11-01T16:21:31Z</time>
</trkpt>
<trkpt lat=\'40.22760009765625\' lon=\'-6.110116481781006\'>
<ele>530</ele>
<time>2020-11-01T16:21:33Z</time>
</trkpt>
<trkpt lat=\'40.22746658325195\' lon=\'-6.109916687011719\'>
<ele>526</ele>
<time>2020-11-01T16:21:35Z</time>
</trkpt>
<trkpt lat=\'40.227317810058594\' lon=\'-6.109716892242432\'>
<ele>522</ele>
<time>2020-11-01T16:21:37Z</time>
</trkpt>
<trkpt lat=\'40.22716522216797\' lon=\'-6.109516620635986\'>
<ele>518</ele>
<time>2020-11-01T16:21:39Z</time>
</trkpt>
<trkpt lat=\'40.22701644897461\' lon=\'-6.109316825866699\'>
<ele>514</ele>
<time>2020-11-01T16:21:41Z</time>
</trkpt>
<trkpt lat=\'40.22686767578125\' lon=\'-6.109116554260254\'>
<ele>510</ele>
<time>2020-11-01T16:21:43Z</time>
</trkpt>
<trkpt lat=\'40.226715087890625\' lon=\'-6.10890007019043\'>
<ele>508</ele>
<time>2020-11-01T16:21:45Z</time>
</trkpt>
<trkpt lat=\'40.226600646972656\' lon=\'-6.108683109283447\'>
<ele>509</ele>
<time>2020-11-01T16:21:47Z</time>
</trkpt>
<trkpt lat=\'40.22648239135742\' lon=\'-6.10848331451416\'>
<ele>507</ele>
<time>2020-11-01T16:21:49Z</time>
</trkpt>
<trkpt lat=\'40.22636795043945\' lon=\'-6.108250141143799\'>
<ele>503</ele>
<time>2020-11-01T16:21:51Z</time>
</trkpt>
<trkpt lat=\'40.22624969482422\' lon=\'-6.108016490936279\'>
<ele>498</ele>
<time>2020-11-01T16:21:53Z</time>
</trkpt>
<trkpt lat=\'40.22615051269531\' lon=\'-6.107766628265381\'>
<ele>496</ele>
<time>2020-11-01T16:21:55Z</time>
</trkpt>
<trkpt lat=\'40.22606658935547\' lon=\'-6.1075334548950195\'>
<ele>493</ele>
<time>2020-11-01T16:21:57Z</time>
</trkpt>
<trkpt lat=\'40.22596740722656\' lon=\'-6.107316493988037\'>
<ele>489</ele>
<time>2020-11-01T16:21:59Z</time>
</trkpt>
<trkpt lat=\'40.22588348388672\' lon=\'-6.107066631317139\'>
<ele>486</ele>
<time>2020-11-01T16:22:01Z</time>
</trkpt>
<trkpt lat=\'40.225868225097656\' lon=\'-6.10681676864624\'>
<ele>484</ele>
<time>2020-11-01T16:22:03Z</time>
</trkpt>
<trkpt lat=\'40.22591781616211\' lon=\'-6.106550216674805\'>
<ele>481</ele>
<time>2020-11-01T16:22:05Z</time>
</trkpt>
<trkpt lat=\'40.225982666015625\' lon=\'-6.106266498565674\'>
<ele>477</ele>
<time>2020-11-01T16:22:07Z</time>
</trkpt>
<trkpt lat=\'40.226016998291016\' lon=\'-6.105999946594238\'>
<ele>474</ele>
<time>2020-11-01T16:22:09Z</time>
</trkpt>
<trkpt lat=\'40.226051330566406\' lon=\'-6.105733394622803\'>
<ele>471</ele>
<time>2020-11-01T16:22:11Z</time>
</trkpt>
<trkpt lat=\'40.22608184814453\' lon=\'-6.10545015335083\'>
<ele>469</ele>
<time>2020-11-01T16:22:13Z</time>
</trkpt>
<trkpt lat=\'40.22611618041992\' lon=\'-6.105166435241699\'>
<ele>469</ele>
<time>2020-11-01T16:22:15Z</time>
</trkpt>
<trkpt lat=\'40.2261848449707\' lon=\'-6.104916572570801\'>
<ele>470</ele>
<time>2020-11-01T16:22:17Z</time>
</trkpt>
<trkpt lat=\'40.22621536254883\' lon=\'-6.104650020599365\'>
<ele>469</ele>
<time>2020-11-01T16:22:19Z</time>
</trkpt>
<trkpt lat=\'40.22626495361328\' lon=\'-6.10438346862793\'>
<ele>467</ele>
<time>2020-11-01T16:22:21Z</time>
</trkpt>
<trkpt lat=\'40.226318359375\' lon=\'-6.104100227355957\'>
<ele>464</ele>
<time>2020-11-01T16:22:23Z</time>
</trkpt>
<trkpt lat=\'40.22639846801758\' lon=\'-6.1038498878479\'>
<ele>461</ele>
<time>2020-11-01T16:22:25Z</time>
</trkpt>
<trkpt lat=\'40.22651672363281\' lon=\'-6.103616714477539\'>
<ele>458</ele>
<time>2020-11-01T16:22:27Z</time>
</trkpt>
<trkpt lat=\'40.22665023803711\' lon=\'-6.103400230407715\'>
<ele>455</ele>
<time>2020-11-01T16:22:29Z</time>
</trkpt>
<trkpt lat=\'40.22679901123047\' lon=\'-6.103183269500732\'>
<ele>452</ele>
<time>2020-11-01T16:22:31Z</time>
</trkpt>
<trkpt lat=\'40.226932525634766\' lon=\'-6.102950096130371\'>
<ele>449</ele>
<time>2020-11-01T16:22:33Z</time>
</trkpt>
<trkpt lat=\'40.22708511352539\' lon=\'-6.102733135223389\'>
<ele>446</ele>
<time>2020-11-01T16:22:35Z</time>
</trkpt>
<trkpt lat=\'40.22726821899414\' lon=\'-6.102566719055176\'>
<ele>444</ele>
<time>2020-11-01T16:22:37Z</time>
</trkpt>
<trkpt lat=\'40.22746658325195\' lon=\'-6.102449893951416\'>
<ele>444</ele>
<time>2020-11-01T16:22:39Z</time>
</trkpt>
<trkpt lat=\'40.227684020996094\' lon=\'-6.102383136749268\'>
<ele>444</ele>
<time>2020-11-01T16:22:41Z</time>
</trkpt>
<trkpt lat=\'40.227882385253906\' lon=\'-6.1023335456848145\'>
<ele>442</ele>
<time>2020-11-01T16:22:43Z</time>
</trkpt>
<trkpt lat=\'40.228084564208984\' lon=\'-6.102216720581055\'>
<ele>439</ele>
<time>2020-11-01T16:22:45Z</time>
</trkpt>
<trkpt lat=\'40.228248596191406\' lon=\'-6.1020331382751465\'>
<ele>440</ele>
<time>2020-11-01T16:22:47Z</time>
</trkpt>
<trkpt lat=\'40.22836685180664\' lon=\'-6.101833343505859\'>
<ele>441</ele>
<time>2020-11-01T16:22:49Z</time>
</trkpt>
<trkpt lat=\'40.228450775146484\' lon=\'-6.101583480834961\'>
<ele>439</ele>
<time>2020-11-01T16:22:51Z</time>
</trkpt>
<trkpt lat=\'40.22850036621094\' lon=\'-6.101316452026367\'>
<ele>439</ele>
<time>2020-11-01T16:22:53Z</time>
</trkpt>
<trkpt lat=\'40.22850036621094\' lon=\'-6.101066589355469\'>
<ele>442</ele>
<time>2020-11-01T16:22:55Z</time>
</trkpt>
<trkpt lat=\'40.228431701660156\' lon=\'-6.100866794586182\'>
<ele>442</ele>
<time>2020-11-01T16:22:57Z</time>
</trkpt>
<trkpt lat=\'40.22831726074219\' lon=\'-6.100716590881348\'>
<ele>439</ele>
<time>2020-11-01T16:22:59Z</time>
</trkpt>
<trkpt lat=\'40.22816848754883\' lon=\'-6.100649833679199\'>
<ele>435</ele>
<time>2020-11-01T16:23:01Z</time>
</trkpt>
<trkpt lat=\'40.22800064086914\' lon=\'-6.1006999015808105\'>
<ele>434</ele>
<time>2020-11-01T16:23:03Z</time>
</trkpt>
<trkpt lat=\'40.227867126464844\' lon=\'-6.100800037384033\'>
<ele>434</ele>
<time>2020-11-01T16:23:05Z</time>
</trkpt>
<trkpt lat=\'40.22776794433594\' lon=\'-6.100916862487793\'>
<ele>430</ele>
<time>2020-11-01T16:23:07Z</time>
</trkpt>
<trkpt lat=\'40.2276496887207\' lon=\'-6.101083278656006\'>
<ele>425</ele>
<time>2020-11-01T16:23:09Z</time>
</trkpt>
<trkpt lat=\'40.22753143310547\' lon=\'-6.101250171661377\'>
<ele>423</ele>
<time>2020-11-01T16:23:11Z</time>
</trkpt>
<trkpt lat=\'40.22740173339844\' lon=\'-6.1013665199279785\'>
<ele>420</ele>
<time>2020-11-01T16:23:13Z</time>
</trkpt>
<trkpt lat=\'40.2272834777832\' lon=\'-6.101500034332275\'>
<ele>416</ele>
<time>2020-11-01T16:23:15Z</time>
</trkpt>
<trkpt lat=\'40.227149963378906\' lon=\'-6.101616859436035\'>
<ele>413</ele>
<time>2020-11-01T16:23:17Z</time>
</trkpt>
<trkpt lat=\'40.22701644897461\' lon=\'-6.101733207702637\'>
<ele>410</ele>
<time>2020-11-01T16:23:19Z</time>
</trkpt>
<trkpt lat=\'40.22686767578125\' lon=\'-6.101833343505859\'>
<ele>406</ele>
<time>2020-11-01T16:23:21Z</time>
</trkpt>
<trkpt lat=\'40.226715087890625\' lon=\'-6.101933479309082\'>
<ele>403</ele>
<time>2020-11-01T16:23:23Z</time>
</trkpt>
<trkpt lat=\'40.22658157348633\' lon=\'-6.102049827575684\'>
<ele>401</ele>
<time>2020-11-01T16:23:25Z</time>
</trkpt>
<trkpt lat=\'40.22643280029297\' lon=\'-6.102149963378906\'>
<ele>398</ele>
<time>2020-11-01T16:23:27Z</time>
</trkpt>
<trkpt lat=\'40.22626495361328\' lon=\'-6.102233409881592\'>
<ele>395</ele>
<time>2020-11-01T16:23:29Z</time>
</trkpt>
<trkpt lat=\'40.22610092163086\' lon=\'-6.102283477783203\'>
<ele>395</ele>
<time>2020-11-01T16:23:31Z</time>
</trkpt>
<trkpt lat=\'40.225948333740234\' lon=\'-6.1023335456848145\'>
<ele>394</ele>
<time>2020-11-01T16:23:33Z</time>
</trkpt>
<trkpt lat=\'40.225799560546875\' lon=\'-6.102399826049805\'>
<ele>392</ele>
<time>2020-11-01T16:23:35Z</time>
</trkpt>
<trkpt lat=\'40.22563171386719\' lon=\'-6.102433204650879\'>
<ele>391</ele>
<time>2020-11-01T16:23:37Z</time>
</trkpt>
<trkpt lat=\'40.22549819946289\' lon=\'-6.1025166511535645\'>
<ele>390</ele>
<time>2020-11-01T16:23:39Z</time>
</trkpt>
<trkpt lat=\'40.22534942626953\' lon=\'-6.102666854858398\'>
<ele>389</ele>
<time>2020-11-01T16:23:41Z</time>
</trkpt>
<trkpt lat=\'40.22526550292969\' lon=\'-6.102833271026611\'>
<ele>392</ele>
<time>2020-11-01T16:23:43Z</time>
</trkpt>
<trkpt lat=\'40.225250244140625\' lon=\'-6.103033542633057\'>
<ele>392</ele>
<time>2020-11-01T16:23:45Z</time>
</trkpt>
<trkpt lat=\'40.22526550292969\' lon=\'-6.103250026702881\'>
<ele>391</ele>
<time>2020-11-01T16:23:47Z</time>
</trkpt>
<trkpt lat=\'40.22533416748047\' lon=\'-6.103483200073242\'>
<ele>392</ele>
<time>2020-11-01T16:23:49Z</time>
</trkpt>
<trkpt lat=\'40.225433349609375\' lon=\'-6.10366678237915\'>
<ele>394</ele>
<time>2020-11-01T16:23:51Z</time>
</trkpt>
<trkpt lat=\'40.225582122802734\' lon=\'-6.103833198547363\'>
<ele>395</ele>
<time>2020-11-01T16:23:53Z</time>
</trkpt>
<trkpt lat=\'40.22574996948242\' lon=\'-6.10396671295166\'>
<ele>396</ele>
<time>2020-11-01T16:23:55Z</time>
</trkpt>
<trkpt lat=\'40.22593307495117\' lon=\'-6.104050159454346\'>
<ele>398</ele>
<time>2020-11-01T16:23:57Z</time>
</trkpt>
<trkpt lat=\'40.226131439208984\' lon=\'-6.104100227355957\'>
<ele>400</ele>
<time>2020-11-01T16:23:59Z</time>
</trkpt>
<trkpt lat=\'40.226348876953125\' lon=\'-6.10408353805542\'>
<ele>402</ele>
<time>2020-11-01T16:24:01Z</time>
</trkpt>
<trkpt lat=\'40.2265510559082\' lon=\'-6.104033470153809\'>
<ele>404</ele>
<time>2020-11-01T16:24:03Z</time>
</trkpt>
<trkpt lat=\'40.226715087890625\' lon=\'-6.103933334350586\'>
<ele>405</ele>
<time>2020-11-01T16:24:05Z</time>
</trkpt>
<trkpt lat=\'40.226898193359375\' lon=\'-6.103816509246826\'>
<ele>403</ele>
<time>2020-11-01T16:24:07Z</time>
</trkpt>
<trkpt lat=\'40.22706604003906\' lon=\'-6.103633403778076\'>
<ele>403</ele>
<time>2020-11-01T16:24:09Z</time>
</trkpt>
<trkpt lat=\'40.2271842956543\' lon=\'-6.103416442871094\'>
<ele>404</ele>
<time>2020-11-01T16:24:11Z</time>
</trkpt>
<trkpt lat=\'40.22723388671875\' lon=\'-6.1031999588012695\'>
<ele>401</ele>
<time>2020-11-01T16:24:13Z</time>
</trkpt>
<trkpt lat=\'40.2272834777832\' lon=\'-6.102933406829834\'>
<ele>396</ele>
<time>2020-11-01T16:24:15Z</time>
</trkpt>
<trkpt lat=\'40.22724914550781\' lon=\'-6.1026835441589355\'>
<ele>395</ele>
<time>2020-11-01T16:24:17Z</time>
</trkpt>
<trkpt lat=\'40.227149963378906\' lon=\'-6.102499961853027\'>
<ele>396</ele>
<time>2020-11-01T16:24:19Z</time>
</trkpt>
<trkpt lat=\'40.22700119018555\' lon=\'-6.102399826049805\'>
<ele>395</ele>
<time>2020-11-01T16:24:21Z</time>
</trkpt>
<trkpt lat=\'40.22684860229492\' lon=\'-6.102350234985352\'>
<ele>392</ele>
<time>2020-11-01T16:24:23Z</time>
</trkpt>
<trkpt lat=\'40.22666549682617\' lon=\'-6.1023335456848145\'>
<ele>390</ele>
<time>2020-11-01T16:24:25Z</time>
</trkpt>
<trkpt lat=\'40.22650146484375\' lon=\'-6.10230016708374\'>
<ele>391</ele>
<time>2020-11-01T16:24:27Z</time>
</trkpt>
<trkpt lat=\'40.22633361816406\' lon=\'-6.102283477783203\'>
<ele>391</ele>
<time>2020-11-01T16:24:29Z</time>
</trkpt>
<trkpt lat=\'40.2261848449707\' lon=\'-6.102283477783203\'>
<ele>389</ele>
<time>2020-11-01T16:24:31Z</time>
</trkpt>
<trkpt lat=\'40.22600173950195\' lon=\'-6.10230016708374\'>
<ele>388</ele>
<time>2020-11-01T16:24:33Z</time>
</trkpt>
<trkpt lat=\'40.22584915161133\' lon=\'-6.10230016708374\'>
<ele>387</ele>
<time>2020-11-01T16:24:35Z</time>
</trkpt>
<trkpt lat=\'40.225685119628906\' lon=\'-6.102316856384277\'>
<ele>386</ele>
<time>2020-11-01T16:24:37Z</time>
</trkpt>
<trkpt lat=\'40.22553253173828\' lon=\'-6.1023664474487305\'>
<ele>386</ele>
<time>2020-11-01T16:24:39Z</time>
</trkpt>
<trkpt lat=\'40.22538375854492\' lon=\'-6.102433204650879\'>
<ele>387</ele>
<time>2020-11-01T16:24:41Z</time>
</trkpt>
<trkpt lat=\'40.225250244140625\' lon=\'-6.102550029754639\'>
<ele>388</ele>
<time>2020-11-01T16:24:43Z</time>
</trkpt>
<trkpt lat=\'40.22513198852539\' lon=\'-6.1026835441589355\'>
<ele>390</ele>
<time>2020-11-01T16:24:45Z</time>
</trkpt>
<trkpt lat=\'40.225032806396484\' lon=\'-6.102849960327148\'>
<ele>391</ele>
<time>2020-11-01T16:24:47Z</time>
</trkpt>
<trkpt lat=\'40.22498321533203\' lon=\'-6.103050231933594\'>
<ele>393</ele>
<time>2020-11-01T16:24:49Z</time>
</trkpt>
<trkpt lat=\'40.22498321533203\' lon=\'-6.103266716003418\'>
<ele>395</ele>
<time>2020-11-01T16:24:51Z</time>
</trkpt>
<trkpt lat=\'40.225032806396484\' lon=\'-6.103483200073242\'>
<ele>395</ele>
<time>2020-11-01T16:24:53Z</time>
</trkpt>
<trkpt lat=\'40.22513198852539\' lon=\'-6.10366678237915\'>
<ele>396</ele>
<time>2020-11-01T16:24:55Z</time>
</trkpt>
<trkpt lat=\'40.22526550292969\' lon=\'-6.103833198547363\'>
<ele>397</ele>
<time>2020-11-01T16:24:57Z</time>
</trkpt>
<trkpt lat=\'40.22544860839844\' lon=\'-6.103950023651123\'>
<ele>398</ele>
<time>2020-11-01T16:24:59Z</time>
</trkpt>
<trkpt lat=\'40.22563171386719\' lon=\'-6.1040167808532715\'>
<ele>398</ele>
<time>2020-11-01T16:25:01Z</time>
</trkpt>
<trkpt lat=\'40.225833892822266\' lon=\'-6.104033470153809\'>
<ele>398</ele>
<time>2020-11-01T16:25:03Z</time>
</trkpt>
<trkpt lat=\'40.226051330566406\' lon=\'-6.1040167808532715\'>
<ele>397</ele>
<time>2020-11-01T16:25:05Z</time>
</trkpt>
<trkpt lat=\'40.22624969482422\' lon=\'-6.103950023651123\'>
<ele>397</ele>
<time>2020-11-01T16:25:07Z</time>
</trkpt>
<trkpt lat=\'40.2264518737793\' lon=\'-6.1038665771484375\'>
<ele>397</ele>
<time>2020-11-01T16:25:09Z</time>
</trkpt>
<trkpt lat=\'40.22665023803711\' lon=\'-6.103750228881836\'>
<ele>397</ele>
<time>2020-11-01T16:25:11Z</time>
</trkpt>
<trkpt lat=\'40.2268180847168\' lon=\'-6.103566646575928\'>
<ele>397</ele>
<time>2020-11-01T16:25:13Z</time>
</trkpt>
<trkpt lat=\'40.226898193359375\' lon=\'-6.103333473205566\'>
<ele>397</ele>
<time>2020-11-01T16:25:15Z</time>
</trkpt>
<trkpt lat=\'40.226898193359375\' lon=\'-6.10308313369751\'>
<ele>396</ele>
<time>2020-11-01T16:25:17Z</time>
</trkpt>
<trkpt lat=\'40.22679901123047\' lon=\'-6.102883338928223\'>
<ele>395</ele>
<time>2020-11-01T16:25:19Z</time>
</trkpt>
<trkpt lat=\'40.22663497924805\' lon=\'-6.102783203125\'>
<ele>394</ele>
<time>2020-11-01T16:25:21Z</time>
</trkpt>
<trkpt lat=\'40.22648239135742\' lon=\'-6.102799892425537\'>
<ele>394</ele>
<time>2020-11-01T16:25:23Z</time>
</trkpt>
<trkpt lat=\'40.22633361816406\' lon=\'-6.102816581726074\'>
<ele>392</ele>
<time>2020-11-01T16:25:25Z</time>
</trkpt>
<trkpt lat=\'40.226165771484375\' lon=\'-6.102849960327148\'>
<ele>389</ele>
<time>2020-11-01T16:25:27Z</time>
</trkpt>
<trkpt lat=\'40.22606658935547\' lon=\'-6.102883338928223\'>
<ele>387</ele>
<time>2020-11-01T16:25:29Z</time>
</trkpt>
<trkpt lat=\'40.226016998291016\' lon=\'-6.1028666496276855\'>
<ele>386</ele>
<time>2020-11-01T16:25:31Z</time>
</trkpt>
<trkpt lat=\'40.225982666015625\' lon=\'-6.1028666496276855\'>
<ele>386</ele>
<time>2020-11-01T16:25:33Z</time>
</trkpt>
<trkpt lat=\'40.22596740722656\' lon=\'-6.102849960327148\'>
<ele>387</ele>
<time>2020-11-01T16:25:35Z</time>
</trkpt>
<trkpt lat=\'40.225982666015625\' lon=\'-6.102849960327148\'>
<ele>387</ele>
<time>2020-11-01T16:25:37Z</time>
</trkpt>
<trkpt lat=\'40.22600173950195\' lon=\'-6.102849960327148\'>
<ele>387</ele>
<time>2020-11-01T16:25:39Z</time>
</trkpt>
<trkpt lat=\'40.22600173950195\' lon=\'-6.102849960327148\'>
<ele>387</ele>
<time>2020-11-01T16:25:41Z</time>
</trkpt>
<trkpt lat=\'40.225982666015625\' lon=\'-6.102849960327148\'>
<ele>388</ele>
<time>2020-11-01T16:25:43Z</time>
</trkpt>
<trkpt lat=\'40.225982666015625\' lon=\'-6.102849960327148\'>
<ele>388</ele>
<time>2020-11-01T16:25:45Z</time>
</trkpt>
<trkpt lat=\'40.225982666015625\' lon=\'-6.102849960327148\'>
<ele>387</ele>
<time>2020-11-01T16:25:47Z</time>
</trkpt>
<trkpt lat=\'40.225982666015625\' lon=\'-6.102849960327148\'>
<ele>387</ele>
<time>2020-11-01T16:25:49Z</time>
</trkpt>
<trkpt lat=\'40.225982666015625\' lon=\'-6.102849960327148\'>
<ele>388</ele>
<time>2020-11-01T16:25:51Z</time>
</trkpt>
<trkpt lat=\'40.22600173950195\' lon=\'-6.102849960327148\'>
<ele>387</ele>
<time>2020-11-01T16:25:53Z</time>
</trkpt>
<trkpt lat=\'40.22600173950195\' lon=\'-6.102849960327148\'>
<ele>387</ele>
<time>2020-11-01T16:25:55Z</time>
</trkpt>
<trkpt lat=\'40.22600173950195\' lon=\'-6.102849960327148\'>
<ele>387</ele>
<time>2020-11-01T16:25:57Z</time>
</trkpt>
<trkpt lat=\'40.22600173950195\' lon=\'-6.102849960327148\'>
<ele>387</ele>
<time>2020-11-01T16:25:59Z</time>
</trkpt>
<trkpt lat=\'40.226016998291016\' lon=\'-6.102849960327148\'>
<ele>386</ele>
<time>2020-11-01T16:26:01Z</time>
</trkpt>
<trkpt lat=\'40.226016998291016\' lon=\'-6.102849960327148\'>
<ele>385</ele>
<time>2020-11-01T16:26:03Z</time>
</trkpt>
<trkpt lat=\'40.226016998291016\' lon=\'-6.102833271026611\'>
<ele>385</ele>
<time>2020-11-01T16:26:05Z</time>
</trkpt>
<trkpt lat=\'40.226016998291016\' lon=\'-6.102833271026611\'>
<ele>385</ele>
<time>2020-11-01T16:26:07Z</time>
</trkpt>
<trkpt lat=\'40.226016998291016\' lon=\'-6.102833271026611\'>
<ele>385</ele>
<time>2020-11-01T16:26:09Z</time>
</trkpt>
<trkpt lat=\'40.226016998291016\' lon=\'-6.102833271026611\'>
<ele>386</ele>
<time>2020-11-01T16:26:11Z</time>
</trkpt>
<trkpt lat=\'40.226016998291016\' lon=\'-6.102833271026611\'>
<ele>386</ele>
<time>2020-11-01T16:26:13Z</time>
</trkpt>
<trkpt lat=\'40.226016998291016\' lon=\'-6.102833271026611\'>
<ele>386</ele>
<time>2020-11-01T16:26:15Z</time>
</trkpt>
<trkpt lat=\'40.22600173950195\' lon=\'-6.102833271026611\'>
<ele>386</ele>
<time>2020-11-01T16:26:17Z</time>
</trkpt>
<trkpt lat=\'40.22600173950195\' lon=\'-6.102833271026611\'>
<ele>386</ele>
<time>2020-11-01T16:26:19Z</time>
</trkpt>
<trkpt lat=\'\' lon=\'\'>
<ele></ele>
<time>2020-11-01TZ</time>
</trkpt>
</trkseg>
</trk>
<wpt lat=\'\' lon=\'\'>
	<name></name>
	<desc></desc>
	<cmt></cmt>
	<photoid></photoid>
	<type></type>
</wpt>
</gpx>
